<?xml version="1.0" encoding="UTF-8" standalone="no" ?>
<gpx xmlns="http://www.topografix.com/GPX/1/1" xmlns:xsi="http://www.w3.org/2001/XMLSchema-instance" xsi:schemaLocation="http://www.topografix.com/GPX/1/1 http://www.topografix.com/GPX/1/1/gpx.xsd" version="1.1" creator="VisuGPX - https://www.visugpx.com">
  <metadata>
    <name>Défi 2024</name>
  </metadata>
  <trk>
    <name><![CDATA[Etape1: Millau - Mende]]></name>
    <extensions>
      <line xmlns="http://www.topografix.com/GPX/gpx_style/0/2">
        <color>0000FF</color>
        <opacity>0.65</opacity>
        <width>5</width>
          <extensions>
            <sens>1</sens>
          </extensions>
      </line>
    </extensions>
    <trkseg>
      <trkpt lat="44.0927" lon="3.08021">
        <ele>356.2</ele>
      </trkpt>
      <trkpt lat="44.09306" lon="3.08031">
        <ele>354.3</ele>
      </trkpt>
      <trkpt lat="44.0932" lon="3.08036">
        <ele>353.9</ele>
      </trkpt>
      <trkpt lat="44.09329" lon="3.08045">
        <ele>353.9</ele>
      </trkpt>
      <trkpt lat="44.09327" lon="3.0806">
        <ele>354.5</ele>
      </trkpt>
      <trkpt lat="44.0933" lon="3.08064">
        <ele>354.2</ele>
      </trkpt>
      <trkpt lat="44.09343" lon="3.08071">
        <ele>353</ele>
      </trkpt>
      <trkpt lat="44.09382" lon="3.08087">
        <ele>352</ele>
      </trkpt>
      <trkpt lat="44.09419" lon="3.08102">
        <ele>352.5</ele>
      </trkpt>
      <trkpt lat="44.09427" lon="3.08101">
        <ele>354.2</ele>
      </trkpt>
      <trkpt lat="44.09424" lon="3.08115">
        <ele>354</ele>
      </trkpt>
      <trkpt lat="44.09418" lon="3.08141">
        <ele>356.1</ele>
      </trkpt>
      <trkpt lat="44.09419" lon="3.08147">
        <ele>356.4</ele>
      </trkpt>
      <trkpt lat="44.0941" lon="3.08174">
        <ele>355.8</ele>
      </trkpt>
      <trkpt lat="44.09403" lon="3.08205">
        <ele>355.5</ele>
      </trkpt>
      <trkpt lat="44.09409" lon="3.08215">
        <ele>356.9</ele>
      </trkpt>
      <trkpt lat="44.09402" lon="3.08235">
        <ele>357.6</ele>
      </trkpt>
      <trkpt lat="44.09418" lon="3.08265">
        <ele>360.9</ele>
      </trkpt>
      <trkpt lat="44.09431" lon="3.08301">
        <ele>359.9</ele>
      </trkpt>
      <trkpt lat="44.09448" lon="3.08353">
        <ele>359.8</ele>
      </trkpt>
      <trkpt lat="44.09475" lon="3.08452">
        <ele>358.8</ele>
      </trkpt>
      <trkpt lat="44.09489" lon="3.08506">
        <ele>358.6</ele>
      </trkpt>
      <trkpt lat="44.09501" lon="3.08547">
        <ele>358.2</ele>
      </trkpt>
      <trkpt lat="44.09512" lon="3.08579">
        <ele>357.9</ele>
      </trkpt>
      <trkpt lat="44.09523" lon="3.08605">
        <ele>358.6</ele>
      </trkpt>
      <trkpt lat="44.09537" lon="3.08642">
        <ele>358.4</ele>
      </trkpt>
      <trkpt lat="44.09542" lon="3.08653">
        <ele>358.8</ele>
      </trkpt>
      <trkpt lat="44.09544" lon="3.08668">
        <ele>358.9</ele>
      </trkpt>
      <trkpt lat="44.09547" lon="3.08678">
        <ele>358.6</ele>
      </trkpt>
      <trkpt lat="44.09553" lon="3.08684">
        <ele>358.9</ele>
      </trkpt>
      <trkpt lat="44.09561" lon="3.08686">
        <ele>358.9</ele>
      </trkpt>
      <trkpt lat="44.0957" lon="3.08689">
        <ele>358.9</ele>
      </trkpt>
      <trkpt lat="44.0961" lon="3.0872">
        <ele>358.8</ele>
      </trkpt>
      <trkpt lat="44.09638" lon="3.08737">
        <ele>359</ele>
      </trkpt>
      <trkpt lat="44.09661" lon="3.08748">
        <ele>358.9</ele>
      </trkpt>
      <trkpt lat="44.09709" lon="3.0876">
        <ele>357.9</ele>
      </trkpt>
      <trkpt lat="44.09745" lon="3.08764">
        <ele>356.6</ele>
      </trkpt>
      <trkpt lat="44.09773" lon="3.08763">
        <ele>356.2</ele>
      </trkpt>
      <trkpt lat="44.098" lon="3.08763">
        <ele>355.9</ele>
      </trkpt>
      <trkpt lat="44.0984" lon="3.08757">
        <ele>356.9</ele>
      </trkpt>
      <trkpt lat="44.09869" lon="3.08748">
        <ele>356.6</ele>
      </trkpt>
      <trkpt lat="44.09915" lon="3.08734">
        <ele>356.2</ele>
      </trkpt>
      <trkpt lat="44.09953" lon="3.08721">
        <ele>356.8</ele>
      </trkpt>
      <trkpt lat="44.09979" lon="3.08708">
        <ele>356.2</ele>
      </trkpt>
      <trkpt lat="44.10026" lon="3.08683">
        <ele>355.8</ele>
      </trkpt>
      <trkpt lat="44.10048" lon="3.08669">
        <ele>358.4</ele>
      </trkpt>
      <trkpt lat="44.10071" lon="3.08654">
        <ele>357.4</ele>
      </trkpt>
      <trkpt lat="44.10091" lon="3.08643">
        <ele>358.5</ele>
      </trkpt>
      <trkpt lat="44.10119" lon="3.0863">
        <ele>358</ele>
      </trkpt>
      <trkpt lat="44.10135" lon="3.08624">
        <ele>358</ele>
      </trkpt>
      <trkpt lat="44.10149" lon="3.0862">
        <ele>358.4</ele>
      </trkpt>
      <trkpt lat="44.10162" lon="3.08616">
        <ele>358.9</ele>
      </trkpt>
      <trkpt lat="44.10176" lon="3.08608">
        <ele>358.7</ele>
      </trkpt>
      <trkpt lat="44.10182" lon="3.08604">
        <ele>358.5</ele>
      </trkpt>
      <trkpt lat="44.10187" lon="3.08606">
        <ele>357.3</ele>
      </trkpt>
      <trkpt lat="44.1019" lon="3.08613">
        <ele>359.39999389648</ele>
        <time>2024-01-30T07:39:47.000Z</time>
        <extensions>
          <gpxtpx:TrackPointExtension xmlns:gpxtpx="http://www.garmin.com/xmlschemas/TrackPointExtension/v1">
            <gpxtpx:hr>68</gpxtpx:hr>
          </gpxtpx:TrackPointExtension>
        </extensions>
      </trkpt>
      <trkpt lat="44.10198" lon="3.0866">
        <ele>360.39999389648</ele>
        <time>2024-01-30T07:39:52.000Z</time>
      </trkpt>
      <trkpt lat="44.10199" lon="3.08672">
        <ele>360.60000610352</ele>
        <time>2024-01-30T07:39:53.000Z</time>
      </trkpt>
      <trkpt lat="44.10203" lon="3.08707">
        <ele>360.39999389648</ele>
        <time>2024-01-30T07:39:56.000Z</time>
      </trkpt>
      <trkpt lat="44.10207" lon="3.08718">
        <ele>360</ele>
        <time>2024-01-30T07:39:57.000Z</time>
      </trkpt>
      <trkpt lat="44.10212" lon="3.08727">
        <ele>359.39999389648</ele>
        <time>2024-01-30T07:39:58.000Z</time>
      </trkpt>
      <trkpt lat="44.10219" lon="3.08734">
        <ele>359</ele>
        <time>2024-01-30T07:39:59.000Z</time>
      </trkpt>
      <trkpt lat="44.10227" lon="3.08741">
        <ele>358.60000610352</ele>
        <time>2024-01-30T07:40:00.000Z</time>
      </trkpt>
      <trkpt lat="44.10241" lon="3.08753">
        <ele>357.60000610352</ele>
        <time>2024-01-30T07:40:02.000Z</time>
      </trkpt>
      <trkpt lat="44.10257" lon="3.08768">
        <ele>356.79998779297</ele>
        <time>2024-01-30T07:40:05.000Z</time>
      </trkpt>
      <trkpt lat="44.10261" lon="3.08773">
        <ele>356.60000610352</ele>
        <time>2024-01-30T07:40:06.000Z</time>
      </trkpt>
      <trkpt lat="44.10265" lon="3.08779">
        <ele>356.39999389648</ele>
        <time>2024-01-30T07:40:07.000Z</time>
      </trkpt>
      <trkpt lat="44.10275" lon="3.08795">
        <ele>356.20001220703</ele>
        <time>2024-01-30T07:40:10.000Z</time>
      </trkpt>
      <trkpt lat="44.10301" lon="3.08843">
        <ele>356.20001220703</ele>
        <time>2024-01-30T07:40:18.000Z</time>
      </trkpt>
      <trkpt lat="44.10313" lon="3.08868">
        <ele>355.39999389648</ele>
        <time>2024-01-30T07:40:24.000Z</time>
      </trkpt>
      <trkpt lat="44.10309" lon="3.08909">
        <ele>357.1</ele>
      </trkpt>
      <trkpt lat="44.10321" lon="3.08926">
        <ele>357.6</ele>
      </trkpt>
      <trkpt lat="44.10345" lon="3.08917">
        <ele>358</ele>
      </trkpt>
      <trkpt lat="44.10365" lon="3.08881">
        <ele>358</ele>
      </trkpt>
      <trkpt lat="44.10373" lon="3.08879">
        <ele>356.39999389648</ele>
        <time>2024-01-30T07:41:06.000Z</time>
      </trkpt>
      <trkpt lat="44.10378" lon="3.08876">
        <ele>356.39999389648</ele>
        <time>2024-01-30T07:41:07.000Z</time>
      </trkpt>
      <trkpt lat="44.10406" lon="3.08867">
        <ele>356.60000610352</ele>
        <time>2024-01-30T07:41:12.000Z</time>
      </trkpt>
      <trkpt lat="44.1045" lon="3.08867">
        <ele>357</ele>
        <time>2024-01-30T07:41:18.000Z</time>
      </trkpt>
      <trkpt lat="44.10498" lon="3.08863">
        <ele>357.39999389648</ele>
        <time>2024-01-30T07:41:24.000Z</time>
      </trkpt>
      <trkpt lat="44.10549" lon="3.08846">
        <ele>357.39999389648</ele>
        <time>2024-01-30T07:41:30.000Z</time>
      </trkpt>
      <trkpt lat="44.10557" lon="3.08842">
        <ele>357.60000610352</ele>
        <time>2024-01-30T07:41:31.000Z</time>
      </trkpt>
      <trkpt lat="44.10608" lon="3.08818">
        <ele>357.20001220703</ele>
        <time>2024-01-30T07:41:37.000Z</time>
      </trkpt>
      <trkpt lat="44.10633" lon="3.08806">
        <ele>357.20001220703</ele>
        <time>2024-01-30T07:41:40.000Z</time>
      </trkpt>
      <trkpt lat="44.10658" lon="3.08799">
        <ele>357.20001220703</ele>
        <time>2024-01-30T07:41:43.000Z</time>
      </trkpt>
      <trkpt lat="44.10718" lon="3.08786">
        <ele>357.60000610352</ele>
        <time>2024-01-30T07:41:50.000Z</time>
      </trkpt>
      <trkpt lat="44.10727" lon="3.08786">
        <ele>357.79998779297</ele>
        <time>2024-01-30T07:41:51.000Z</time>
      </trkpt>
      <trkpt lat="44.10784" lon="3.08785">
        <ele>358.39999389648</ele>
        <time>2024-01-30T07:41:57.000Z</time>
      </trkpt>
      <trkpt lat="44.10793" lon="3.08785">
        <ele>358.79998779297</ele>
        <time>2024-01-30T07:41:58.000Z</time>
      </trkpt>
      <trkpt lat="44.10822" lon="3.08783">
        <ele>359.20001220703</ele>
        <time>2024-01-30T07:42:01.000Z</time>
      </trkpt>
      <trkpt lat="44.10853" lon="3.08778">
        <ele>359.39999389648</ele>
        <time>2024-01-30T07:42:04.000Z</time>
      </trkpt>
      <trkpt lat="44.10907" lon="3.08768">
        <ele>359.39999389648</ele>
        <time>2024-01-30T07:42:09.000Z</time>
      </trkpt>
      <trkpt lat="44.1093" lon="3.08762">
        <ele>359.60000610352</ele>
        <time>2024-01-30T07:42:11.000Z</time>
      </trkpt>
      <trkpt lat="44.10964" lon="3.08751">
        <ele>359.79998779297</ele>
        <time>2024-01-30T07:42:14.000Z</time>
      </trkpt>
      <trkpt lat="44.10997" lon="3.08739">
        <ele>360.20001220703</ele>
        <time>2024-01-30T07:42:17.000Z</time>
      </trkpt>
      <trkpt lat="44.11049" lon="3.08717">
        <ele>360.39999389648</ele>
        <time>2024-01-30T07:42:22.000Z</time>
      </trkpt>
      <trkpt lat="44.11097" lon="3.08684">
        <ele>360.39999389648</ele>
        <time>2024-01-30T07:42:27.000Z</time>
      </trkpt>
      <trkpt lat="44.11152" lon="3.08644">
        <ele>360.20001220703</ele>
        <time>2024-01-30T07:42:33.000Z</time>
      </trkpt>
      <trkpt lat="44.11172" lon="3.08635">
        <ele>360</ele>
        <time>2024-01-30T07:42:35.000Z</time>
      </trkpt>
      <trkpt lat="44.11182" lon="3.08633">
        <ele>360</ele>
        <time>2024-01-30T07:42:36.000Z</time>
      </trkpt>
      <trkpt lat="44.11215" lon="3.08629">
        <ele>360</ele>
        <time>2024-01-30T07:42:39.000Z</time>
      </trkpt>
      <trkpt lat="44.11269" lon="3.08629">
        <ele>360.20001220703</ele>
        <time>2024-01-30T07:42:43.000Z</time>
      </trkpt>
      <trkpt lat="44.11329" lon="3.08636">
        <ele>360.20001220703</ele>
        <time>2024-01-30T07:42:48.000Z</time>
      </trkpt>
      <trkpt lat="44.11372" lon="3.08655">
        <ele>360.20001220703</ele>
        <time>2024-01-30T07:42:52.000Z</time>
      </trkpt>
      <trkpt lat="44.11392" lon="3.08663">
        <ele>360.20001220703</ele>
        <time>2024-01-30T07:42:54.000Z</time>
      </trkpt>
      <trkpt lat="44.11414" lon="3.08668">
        <ele>360.39999389648</ele>
        <time>2024-01-30T07:42:56.000Z</time>
      </trkpt>
      <trkpt lat="44.11472" lon="3.08689">
        <ele>360.79998779297</ele>
        <time>2024-01-30T07:43:02.000Z</time>
      </trkpt>
      <trkpt lat="44.11527" lon="3.08723">
        <ele>360.60000610352</ele>
        <time>2024-01-30T07:43:08.000Z</time>
      </trkpt>
      <trkpt lat="44.11556" lon="3.08741">
        <ele>361</ele>
        <time>2024-01-30T07:43:11.000Z</time>
      </trkpt>
      <trkpt lat="44.11594" lon="3.08764">
        <ele>361.39999389648</ele>
        <time>2024-01-30T07:43:15.000Z</time>
      </trkpt>
      <trkpt lat="44.11645" lon="3.08795">
        <ele>361.79998779297</ele>
        <time>2024-01-30T07:43:19.000Z</time>
      </trkpt>
      <trkpt lat="44.11695" lon="3.08829">
        <ele>361.79998779297</ele>
        <time>2024-01-30T07:43:23.000Z</time>
      </trkpt>
      <trkpt lat="44.11729" lon="3.08854">
        <ele>361.60000610352</ele>
        <time>2024-01-30T07:43:26.000Z</time>
      </trkpt>
      <trkpt lat="44.11771" lon="3.08897">
        <ele>361.60000610352</ele>
        <time>2024-01-30T07:43:30.000Z</time>
      </trkpt>
      <trkpt lat="44.11817" lon="3.08956">
        <ele>361.79998779297</ele>
        <time>2024-01-30T07:43:35.000Z</time>
      </trkpt>
      <trkpt lat="44.11835" lon="3.08979">
        <ele>361.79998779297</ele>
        <time>2024-01-30T07:43:37.000Z</time>
      </trkpt>
      <trkpt lat="44.11876" lon="3.09039">
        <ele>361.79998779297</ele>
        <time>2024-01-30T07:43:42.000Z</time>
      </trkpt>
      <trkpt lat="44.11885" lon="3.09051">
        <ele>362</ele>
        <time>2024-01-30T07:43:43.000Z</time>
      </trkpt>
      <trkpt lat="44.11929" lon="3.09113">
        <ele>362.20001220703</ele>
        <time>2024-01-30T07:43:48.000Z</time>
      </trkpt>
      <trkpt lat="44.11946" lon="3.09138">
        <ele>362.39999389648</ele>
        <time>2024-01-30T07:43:50.000Z</time>
      </trkpt>
      <trkpt lat="44.11973" lon="3.09173">
        <ele>363.20001220703</ele>
        <time>2024-01-30T07:43:53.000Z</time>
      </trkpt>
      <trkpt lat="44.1198" lon="3.09185">
        <ele>363.39999389648</ele>
        <time>2024-01-30T07:43:54.000Z</time>
      </trkpt>
      <trkpt lat="44.12007" lon="3.09244">
        <ele>364</ele>
        <time>2024-01-30T07:43:59.000Z</time>
      </trkpt>
      <trkpt lat="44.12013" lon="3.09257">
        <ele>364.79998779297</ele>
        <time>2024-01-30T07:44:00.000Z</time>
      </trkpt>
      <trkpt lat="44.12036" lon="3.09292">
        <ele>366</ele>
        <time>2024-01-30T07:44:03.000Z</time>
      </trkpt>
      <trkpt lat="44.12072" lon="3.09345">
        <ele>366.60000610352</ele>
        <time>2024-01-30T07:44:07.000Z</time>
      </trkpt>
      <trkpt lat="44.12097" lon="3.09389">
        <ele>367</ele>
        <time>2024-01-30T07:44:10.000Z</time>
      </trkpt>
      <trkpt lat="44.12116" lon="3.09425">
        <ele>367.20001220703</ele>
        <time>2024-01-30T07:44:12.000Z</time>
      </trkpt>
      <trkpt lat="44.1215" lon="3.09489">
        <ele>367.39999389648</ele>
        <time>2024-01-30T07:44:16.000Z</time>
      </trkpt>
      <trkpt lat="44.1217" lon="3.09521">
        <ele>367.60000610352</ele>
        <time>2024-01-30T07:44:18.000Z</time>
      </trkpt>
      <trkpt lat="44.12215" lon="3.09579">
        <ele>367.39999389648</ele>
        <time>2024-01-30T07:44:22.000Z</time>
      </trkpt>
      <trkpt lat="44.12226" lon="3.09593">
        <ele>367.39999389648</ele>
        <time>2024-01-30T07:44:23.000Z</time>
      </trkpt>
      <trkpt lat="44.12273" lon="3.09649">
        <ele>367.79998779297</ele>
        <time>2024-01-30T07:44:27.000Z</time>
      </trkpt>
      <trkpt lat="44.12285" lon="3.09664">
        <ele>368</ele>
        <time>2024-01-30T07:44:28.000Z</time>
      </trkpt>
      <trkpt lat="44.12332" lon="3.09722">
        <ele>368</ele>
        <time>2024-01-30T07:44:32.000Z</time>
      </trkpt>
      <trkpt lat="44.12343" lon="3.09738">
        <ele>368</ele>
        <time>2024-01-30T07:44:33.000Z</time>
      </trkpt>
      <trkpt lat="44.12355" lon="3.09758">
        <ele>368.20001220703</ele>
        <time>2024-01-30T07:44:34.000Z</time>
      </trkpt>
      <trkpt lat="44.1237" lon="3.09791">
        <ele>368.39999389648</ele>
        <time>2024-01-30T07:44:36.000Z</time>
      </trkpt>
      <trkpt lat="44.12393" lon="3.09868">
        <ele>368.60000610352</ele>
        <time>2024-01-30T07:44:40.000Z</time>
      </trkpt>
      <trkpt lat="44.12404" lon="3.0991">
        <ele>368.79998779297</ele>
        <time>2024-01-30T07:44:42.000Z</time>
      </trkpt>
      <trkpt lat="44.12412" lon="3.09928">
        <ele>368.79998779297</ele>
        <time>2024-01-30T07:44:43.000Z</time>
      </trkpt>
      <trkpt lat="44.1242" lon="3.09946">
        <ele>369</ele>
        <time>2024-01-30T07:44:44.000Z</time>
      </trkpt>
      <trkpt lat="44.1243" lon="3.09964">
        <ele>369</ele>
        <time>2024-01-30T07:44:45.000Z</time>
      </trkpt>
      <trkpt lat="44.1244" lon="3.0998">
        <ele>369.20001220703</ele>
        <time>2024-01-30T07:44:46.000Z</time>
      </trkpt>
      <trkpt lat="44.12478" lon="3.10019">
        <ele>369.20001220703</ele>
        <time>2024-01-30T07:44:49.000Z</time>
      </trkpt>
      <trkpt lat="44.12536" lon="3.10054">
        <ele>369</ele>
        <time>2024-01-30T07:44:53.000Z</time>
      </trkpt>
      <trkpt lat="44.12553" lon="3.1006">
        <ele>369</ele>
        <time>2024-01-30T07:44:54.000Z</time>
      </trkpt>
      <trkpt lat="44.12586" lon="3.10067">
        <ele>368.79998779297</ele>
        <time>2024-01-30T07:44:56.000Z</time>
      </trkpt>
      <trkpt lat="44.12646" lon="3.10072">
        <ele>368.60000610352</ele>
        <time>2024-01-30T07:45:00.000Z</time>
      </trkpt>
      <trkpt lat="44.12706" lon="3.10068">
        <ele>369.39999389648</ele>
        <time>2024-01-30T07:45:04.000Z</time>
      </trkpt>
      <trkpt lat="44.1272" lon="3.10067">
        <ele>369.79998779297</ele>
        <time>2024-01-30T07:45:05.000Z</time>
      </trkpt>
      <trkpt lat="44.12766" lon="3.10063">
        <ele>370.20001220703</ele>
        <time>2024-01-30T07:45:08.000Z</time>
      </trkpt>
      <trkpt lat="44.12781" lon="3.10059">
        <ele>370.20001220703</ele>
        <time>2024-01-30T07:45:09.000Z</time>
      </trkpt>
      <trkpt lat="44.12842" lon="3.10035">
        <ele>370.60000610352</ele>
        <time>2024-01-30T07:45:13.000Z</time>
      </trkpt>
      <trkpt lat="44.12861" lon="3.10027">
        <ele>370.60000610352</ele>
        <time>2024-01-30T07:45:14.000Z</time>
      </trkpt>
      <trkpt lat="44.12923" lon="3.10005">
        <ele>370.60000610352</ele>
        <time>2024-01-30T07:45:18.000Z</time>
      </trkpt>
      <trkpt lat="44.12938" lon="3.09999">
        <ele>370.60000610352</ele>
        <time>2024-01-30T07:45:19.000Z</time>
      </trkpt>
      <trkpt lat="44.12969" lon="3.09989">
        <ele>370.39999389648</ele>
        <time>2024-01-30T07:45:21.000Z</time>
      </trkpt>
      <trkpt lat="44.13018" lon="3.09984">
        <ele>370</ele>
        <time>2024-01-30T07:45:24.000Z</time>
      </trkpt>
      <trkpt lat="44.13052" lon="3.09986">
        <ele>369</ele>
        <time>2024-01-30T07:45:26.000Z</time>
      </trkpt>
      <trkpt lat="44.13117" lon="3.09991">
        <ele>369</ele>
        <time>2024-01-30T07:45:30.000Z</time>
      </trkpt>
      <trkpt lat="44.1318" lon="3.10005">
        <ele>368.79998779297</ele>
        <time>2024-01-30T07:45:34.000Z</time>
      </trkpt>
      <trkpt lat="44.13242" lon="3.10032">
        <ele>368.20001220703</ele>
        <time>2024-01-30T07:45:38.000Z</time>
      </trkpt>
      <trkpt lat="44.13257" lon="3.1004">
        <ele>368</ele>
        <time>2024-01-30T07:45:39.000Z</time>
      </trkpt>
      <trkpt lat="44.13272" lon="3.10048">
        <ele>368</ele>
        <time>2024-01-30T07:45:40.000Z</time>
      </trkpt>
      <trkpt lat="44.13312" lon="3.1008">
        <ele>368.20001220703</ele>
        <time>2024-01-30T07:45:43.000Z</time>
      </trkpt>
      <trkpt lat="44.13366" lon="3.1012">
        <ele>368.79998779297</ele>
        <time>2024-01-30T07:45:47.000Z</time>
      </trkpt>
      <trkpt lat="44.13391" lon="3.10132">
        <ele>369.20001220703</ele>
        <time>2024-01-30T07:45:49.000Z</time>
      </trkpt>
      <trkpt lat="44.13434" lon="3.10146">
        <ele>369.39999389648</ele>
        <time>2024-01-30T07:45:52.000Z</time>
      </trkpt>
      <trkpt lat="44.13494" lon="3.10148">
        <ele>370.20001220703</ele>
        <time>2024-01-30T07:45:56.000Z</time>
      </trkpt>
      <trkpt lat="44.1355" lon="3.10147">
        <ele>370.60000610352</ele>
        <time>2024-01-30T07:46:00.000Z</time>
      </trkpt>
      <trkpt lat="44.13579" lon="3.10149">
        <ele>371</ele>
        <time>2024-01-30T07:46:02.000Z</time>
      </trkpt>
      <trkpt lat="44.13594" lon="3.10151">
        <ele>371.20001220703</ele>
        <time>2024-01-30T07:46:03.000Z</time>
      </trkpt>
      <trkpt lat="44.13651" lon="3.10158">
        <ele>372.20001220703</ele>
        <time>2024-01-30T07:46:07.000Z</time>
      </trkpt>
      <trkpt lat="44.13706" lon="3.10166">
        <ele>373.20001220703</ele>
        <time>2024-01-30T07:46:11.000Z</time>
      </trkpt>
      <trkpt lat="44.13759" lon="3.10186">
        <ele>374</ele>
        <time>2024-01-30T07:46:15.000Z</time>
      </trkpt>
      <trkpt lat="44.1382" lon="3.10222">
        <ele>373.79998779297</ele>
        <time>2024-01-30T07:46:20.000Z</time>
      </trkpt>
      <trkpt lat="44.13871" lon="3.10245">
        <ele>374.20001220703</ele>
        <time>2024-01-30T07:46:24.000Z</time>
      </trkpt>
      <trkpt lat="44.13882" lon="3.10249">
        <ele>374.39999389648</ele>
        <time>2024-01-30T07:46:25.000Z</time>
      </trkpt>
      <trkpt lat="44.13919" lon="3.10268">
        <ele>374.60000610352</ele>
        <time>2024-01-30T07:46:28.000Z</time>
      </trkpt>
      <trkpt lat="44.13931" lon="3.10277">
        <ele>374.79998779297</ele>
        <time>2024-01-30T07:46:29.000Z</time>
      </trkpt>
      <trkpt lat="44.13982" lon="3.10309">
        <ele>375</ele>
        <time>2024-01-30T07:46:33.000Z</time>
      </trkpt>
      <trkpt lat="44.13999" lon="3.10315">
        <ele>375.39999389648</ele>
        <time>2024-01-30T07:46:34.000Z</time>
      </trkpt>
      <trkpt lat="44.14041" lon="3.10326">
        <ele>376.60000610352</ele>
        <time>2024-01-30T07:46:37.000Z</time>
      </trkpt>
      <trkpt lat="44.1408" lon="3.1033">
        <ele>377.60000610352</ele>
        <time>2024-01-30T07:46:40.000Z</time>
      </trkpt>
      <trkpt lat="44.14094" lon="3.10329">
        <ele>378</ele>
        <time>2024-01-30T07:46:41.000Z</time>
      </trkpt>
      <trkpt lat="44.14121" lon="3.10324">
        <ele>379.20001220703</ele>
        <time>2024-01-30T07:46:43.000Z</time>
      </trkpt>
      <trkpt lat="44.14147" lon="3.10318">
        <ele>379.79998779297</ele>
        <time>2024-01-30T07:46:45.000Z</time>
      </trkpt>
      <trkpt lat="44.14172" lon="3.1031">
        <ele>380.79998779297</ele>
        <time>2024-01-30T07:46:47.000Z</time>
      </trkpt>
      <trkpt lat="44.14209" lon="3.10307">
        <ele>381.79998779297</ele>
        <time>2024-01-30T07:46:50.000Z</time>
      </trkpt>
      <trkpt lat="44.14249" lon="3.10319">
        <ele>382.60000610352</ele>
        <time>2024-01-30T07:46:53.000Z</time>
      </trkpt>
      <trkpt lat="44.14273" lon="3.10333">
        <ele>383</ele>
        <time>2024-01-30T07:46:55.000Z</time>
      </trkpt>
      <trkpt lat="44.14284" lon="3.10342">
        <ele>383</ele>
        <time>2024-01-30T07:46:56.000Z</time>
      </trkpt>
      <trkpt lat="44.14328" lon="3.10382">
        <ele>383.79998779297</ele>
        <time>2024-01-30T07:47:00.000Z</time>
      </trkpt>
      <trkpt lat="44.14353" lon="3.10393">
        <ele>383.79998779297</ele>
        <time>2024-01-30T07:47:02.000Z</time>
      </trkpt>
      <trkpt lat="44.14367" lon="3.10396">
        <ele>384.20001220703</ele>
        <time>2024-01-30T07:47:03.000Z</time>
      </trkpt>
      <trkpt lat="44.14427" lon="3.10396">
        <ele>384.79998779297</ele>
        <time>2024-01-30T07:47:07.000Z</time>
      </trkpt>
      <trkpt lat="44.14485" lon="3.10381">
        <ele>384.79998779297</ele>
        <time>2024-01-30T07:47:11.000Z</time>
      </trkpt>
      <trkpt lat="44.14511" lon="3.10367">
        <ele>384.79998779297</ele>
        <time>2024-01-30T07:47:13.000Z</time>
      </trkpt>
      <trkpt lat="44.14523" lon="3.10357">
        <ele>384.79998779297</ele>
        <time>2024-01-30T07:47:14.000Z</time>
      </trkpt>
      <trkpt lat="44.14533" lon="3.10345">
        <ele>384.79998779297</ele>
        <time>2024-01-30T07:47:15.000Z</time>
      </trkpt>
      <trkpt lat="44.14553" lon="3.10318">
        <ele>384.79998779297</ele>
        <time>2024-01-30T07:47:17.000Z</time>
      </trkpt>
      <trkpt lat="44.14563" lon="3.10308">
        <ele>384.79998779297</ele>
        <time>2024-01-30T07:47:18.000Z</time>
      </trkpt>
      <trkpt lat="44.14585" lon="3.10292">
        <ele>385</ele>
        <time>2024-01-30T07:47:20.000Z</time>
      </trkpt>
      <trkpt lat="44.14608" lon="3.10288">
        <ele>385.20001220703</ele>
        <time>2024-01-30T07:47:22.000Z</time>
      </trkpt>
      <trkpt lat="44.1462" lon="3.10289">
        <ele>385.20001220703</ele>
        <time>2024-01-30T07:47:23.000Z</time>
      </trkpt>
      <trkpt lat="44.14658" lon="3.10299">
        <ele>385.39999389648</ele>
        <time>2024-01-30T07:47:26.000Z</time>
      </trkpt>
      <trkpt lat="44.14711" lon="3.10325">
        <ele>385</ele>
        <time>2024-01-30T07:47:30.000Z</time>
      </trkpt>
      <trkpt lat="44.1474" lon="3.10333">
        <ele>384.79998779297</ele>
        <time>2024-01-30T07:47:32.000Z</time>
      </trkpt>
      <trkpt lat="44.14754" lon="3.10334">
        <ele>384.79998779297</ele>
        <time>2024-01-30T07:47:33.000Z</time>
      </trkpt>
      <trkpt lat="44.14768" lon="3.10333">
        <ele>384.79998779297</ele>
        <time>2024-01-30T07:47:34.000Z</time>
      </trkpt>
      <trkpt lat="44.14793" lon="3.10325">
        <ele>385</ele>
        <time>2024-01-30T07:47:36.000Z</time>
      </trkpt>
      <trkpt lat="44.14836" lon="3.10311">
        <ele>386</ele>
        <time>2024-01-30T07:47:40.000Z</time>
      </trkpt>
      <trkpt lat="44.14846" lon="3.10308">
        <ele>386.20001220703</ele>
        <time>2024-01-30T07:47:41.000Z</time>
      </trkpt>
      <trkpt lat="44.14901" lon="3.10294">
        <ele>387.20001220703</ele>
        <time>2024-01-30T07:47:46.000Z</time>
      </trkpt>
      <trkpt lat="44.14913" lon="3.1029">
        <ele>387.60000610352</ele>
        <time>2024-01-30T07:47:47.000Z</time>
      </trkpt>
      <trkpt lat="44.14955" lon="3.10265">
        <ele>387.79998779297</ele>
        <time>2024-01-30T07:47:51.000Z</time>
      </trkpt>
      <trkpt lat="44.15014" lon="3.10245">
        <ele>387.79998779297</ele>
        <time>2024-01-30T07:47:56.000Z</time>
      </trkpt>
      <trkpt lat="44.15049" lon="3.10245">
        <ele>387.39999389648</ele>
        <time>2024-01-30T07:47:59.000Z</time>
      </trkpt>
      <trkpt lat="44.15069" lon="3.10255">
        <ele>387.20001220703</ele>
        <time>2024-01-30T07:48:01.000Z</time>
      </trkpt>
      <trkpt lat="44.15078" lon="3.10262">
        <ele>387</ele>
        <time>2024-01-30T07:48:02.000Z</time>
      </trkpt>
      <trkpt lat="44.15087" lon="3.10268">
        <ele>387</ele>
        <time>2024-01-30T07:48:03.000Z</time>
      </trkpt>
      <trkpt lat="44.15103" lon="3.10274">
        <ele>387</ele>
        <time>2024-01-30T07:48:05.000Z</time>
      </trkpt>
      <trkpt lat="44.15117" lon="3.1027">
        <ele>387</ele>
        <time>2024-01-30T07:48:07.000Z</time>
      </trkpt>
      <trkpt lat="44.15122" lon="3.10265">
        <ele>387.20001220703</ele>
        <time>2024-01-30T07:48:08.000Z</time>
      </trkpt>
      <trkpt lat="44.15127" lon="3.10262">
        <ele>387.39999389648</ele>
        <time>2024-01-30T07:48:09.000Z</time>
      </trkpt>
      <trkpt lat="44.1514" lon="3.10259">
        <ele>388.20001220703</ele>
        <time>2024-01-30T07:48:11.000Z</time>
      </trkpt>
      <trkpt lat="44.15147" lon="3.10258">
        <ele>388.60000610352</ele>
        <time>2024-01-30T07:48:12.000Z</time>
      </trkpt>
      <trkpt lat="44.15153" lon="3.10257">
        <ele>389.39999389648</ele>
        <time>2024-01-30T07:48:13.000Z</time>
      </trkpt>
      <trkpt lat="44.15167" lon="3.10257">
        <ele>390.39999389648</ele>
        <time>2024-01-30T07:48:15.000Z</time>
      </trkpt>
      <trkpt lat="44.15174" lon="3.10258">
        <ele>391</ele>
        <time>2024-01-30T07:48:16.000Z</time>
      </trkpt>
      <trkpt lat="44.1518" lon="3.10261">
        <ele>391.20001220703</ele>
        <time>2024-01-30T07:48:17.000Z</time>
      </trkpt>
      <trkpt lat="44.1519" lon="3.10266">
        <ele>391.20001220703</ele>
        <time>2024-01-30T07:48:19.000Z</time>
      </trkpt>
      <trkpt lat="44.15197" lon="3.10267">
        <ele>391.20001220703</ele>
        <time>2024-01-30T07:48:21.000Z</time>
      </trkpt>
      <trkpt lat="44.15213" lon="3.10263">
        <ele>390</ele>
        <time>2024-01-30T07:48:26.000Z</time>
      </trkpt>
      <trkpt lat="44.15231" lon="3.10269">
        <ele>388.79998779297</ele>
        <time>2024-01-30T07:48:29.000Z</time>
      </trkpt>
      <trkpt lat="44.15237" lon="3.10274">
        <ele>388.79998779297</ele>
        <time>2024-01-30T07:48:30.000Z</time>
      </trkpt>
      <trkpt lat="44.15248" lon="3.10286">
        <ele>388.79998779297</ele>
        <time>2024-01-30T07:48:32.000Z</time>
      </trkpt>
      <trkpt lat="44.15256" lon="3.10301">
        <ele>390</ele>
        <time>2024-01-30T07:48:34.000Z</time>
      </trkpt>
      <trkpt lat="44.15266" lon="3.10318">
        <ele>391.20001220703</ele>
        <time>2024-01-30T07:48:36.000Z</time>
      </trkpt>
      <trkpt lat="44.15274" lon="3.10332">
        <ele>392.20001220703</ele>
        <time>2024-01-30T07:48:38.000Z</time>
      </trkpt>
      <trkpt lat="44.15277" lon="3.10338">
        <ele>392.39999389648</ele>
        <time>2024-01-30T07:48:39.000Z</time>
      </trkpt>
      <trkpt lat="44.15278" lon="3.10344">
        <ele>392.39999389648</ele>
        <time>2024-01-30T07:48:40.000Z</time>
      </trkpt>
      <trkpt lat="44.15281" lon="3.10355">
        <ele>392.39999389648</ele>
        <time>2024-01-30T07:48:42.000Z</time>
      </trkpt>
      <trkpt lat="44.15283" lon="3.10375">
        <ele>392.39999389648</ele>
        <time>2024-01-30T07:48:45.000Z</time>
      </trkpt>
      <trkpt lat="44.15289" lon="3.10386">
        <ele>393</ele>
        <time>2024-01-30T07:48:47.000Z</time>
      </trkpt>
      <trkpt lat="44.15292" lon="3.10391">
        <ele>393.39999389648</ele>
        <time>2024-01-30T07:48:48.000Z</time>
      </trkpt>
      <trkpt lat="44.15295" lon="3.10396">
        <ele>393.79998779297</ele>
        <time>2024-01-30T07:48:49.000Z</time>
      </trkpt>
      <trkpt lat="44.153" lon="3.10405">
        <ele>394.39999389648</ele>
        <time>2024-01-30T07:48:51.000Z</time>
      </trkpt>
      <trkpt lat="44.15303" lon="3.10409">
        <ele>394.39999389648</ele>
        <time>2024-01-30T07:48:52.000Z</time>
      </trkpt>
      <trkpt lat="44.15305" lon="3.10413">
        <ele>394.79998779297</ele>
        <time>2024-01-30T07:48:53.000Z</time>
      </trkpt>
      <trkpt lat="44.15319" lon="3.10445">
        <ele>395</ele>
        <time>2024-01-30T07:48:59.000Z</time>
      </trkpt>
      <trkpt lat="44.1533" lon="3.10485">
        <ele>395.60000610352</ele>
        <time>2024-01-30T07:49:03.000Z</time>
      </trkpt>
      <trkpt lat="44.15343" lon="3.10539">
        <ele>396.39999389648</ele>
        <time>2024-01-30T07:49:07.000Z</time>
      </trkpt>
      <trkpt lat="44.15346" lon="3.10554">
        <ele>396.60000610352</ele>
        <time>2024-01-30T07:49:08.000Z</time>
      </trkpt>
      <trkpt lat="44.15361" lon="3.10617">
        <ele>397.20001220703</ele>
        <time>2024-01-30T07:49:12.000Z</time>
      </trkpt>
      <trkpt lat="44.15384" lon="3.10702">
        <ele>397.39999389648</ele>
        <time>2024-01-30T07:49:17.000Z</time>
      </trkpt>
      <trkpt lat="44.1539" lon="3.10717">
        <ele>397.39999389648</ele>
        <time>2024-01-30T07:49:18.000Z</time>
      </trkpt>
      <trkpt lat="44.15405" lon="3.10742">
        <ele>397.20001220703</ele>
        <time>2024-01-30T07:49:20.000Z</time>
      </trkpt>
      <trkpt lat="44.15435" lon="3.10764">
        <ele>397</ele>
        <time>2024-01-30T07:49:23.000Z</time>
      </trkpt>
      <trkpt lat="44.15444" lon="3.10772">
        <ele>397</ele>
        <time>2024-01-30T07:49:24.000Z</time>
      </trkpt>
      <trkpt lat="44.1546" lon="3.10795">
        <ele>397.60000610352</ele>
        <time>2024-01-30T07:49:26.000Z</time>
      </trkpt>
      <trkpt lat="44.15464" lon="3.10805">
        <ele>397.60000610352</ele>
        <time>2024-01-30T07:49:27.000Z</time>
      </trkpt>
      <trkpt lat="44.15475" lon="3.10831">
        <ele>397.79998779297</ele>
        <time>2024-01-30T07:49:29.000Z</time>
      </trkpt>
      <trkpt lat="44.15482" lon="3.10843">
        <ele>397.79998779297</ele>
        <time>2024-01-30T07:49:30.000Z</time>
      </trkpt>
      <trkpt lat="44.1549" lon="3.10854">
        <ele>397.79998779297</ele>
        <time>2024-01-30T07:49:31.000Z</time>
      </trkpt>
      <trkpt lat="44.15516" lon="3.10883">
        <ele>398.20001220703</ele>
        <time>2024-01-30T07:49:34.000Z</time>
      </trkpt>
      <trkpt lat="44.15524" lon="3.10894">
        <ele>398.20001220703</ele>
        <time>2024-01-30T07:49:35.000Z</time>
      </trkpt>
      <trkpt lat="44.15537" lon="3.1092">
        <ele>398.20001220703</ele>
        <time>2024-01-30T07:49:37.000Z</time>
      </trkpt>
      <trkpt lat="44.15548" lon="3.1095">
        <ele>398.20001220703</ele>
        <time>2024-01-30T07:49:39.000Z</time>
      </trkpt>
      <trkpt lat="44.15551" lon="3.10965">
        <ele>398.20001220703</ele>
        <time>2024-01-30T07:49:40.000Z</time>
      </trkpt>
      <trkpt lat="44.15557" lon="3.10997">
        <ele>398</ele>
        <time>2024-01-30T07:49:42.000Z</time>
      </trkpt>
      <trkpt lat="44.1557" lon="3.1103">
        <ele>398.20001220703</ele>
        <time>2024-01-30T07:49:44.000Z</time>
      </trkpt>
      <trkpt lat="44.15611" lon="3.11096">
        <ele>398.39999389648</ele>
        <time>2024-01-30T07:49:49.000Z</time>
      </trkpt>
      <trkpt lat="44.1565" lon="3.11152">
        <ele>398.60000610352</ele>
        <time>2024-01-30T07:49:53.000Z</time>
      </trkpt>
      <trkpt lat="44.1566" lon="3.11165">
        <ele>398.79998779297</ele>
        <time>2024-01-30T07:49:54.000Z</time>
      </trkpt>
      <trkpt lat="44.15681" lon="3.11192">
        <ele>399.20001220703</ele>
        <time>2024-01-30T07:49:56.000Z</time>
      </trkpt>
      <trkpt lat="44.1572" lon="3.11244">
        <ele>399.39999389648</ele>
        <time>2024-01-30T07:50:00.000Z</time>
      </trkpt>
      <trkpt lat="44.15746" lon="3.11282">
        <ele>400.20001220703</ele>
        <time>2024-01-30T07:50:03.000Z</time>
      </trkpt>
      <trkpt lat="44.15754" lon="3.11294">
        <ele>400.20001220703</ele>
        <time>2024-01-30T07:50:04.000Z</time>
      </trkpt>
      <trkpt lat="44.15788" lon="3.11356">
        <ele>400</ele>
        <time>2024-01-30T07:50:09.000Z</time>
      </trkpt>
      <trkpt lat="44.15793" lon="3.11381">
        <ele>400</ele>
        <time>2024-01-30T07:50:11.000Z</time>
      </trkpt>
      <trkpt lat="44.15792" lon="3.11392">
        <ele>400.20001220703</ele>
        <time>2024-01-30T07:50:12.000Z</time>
      </trkpt>
      <trkpt lat="44.1579" lon="3.11404">
        <ele>400.60000610352</ele>
        <time>2024-01-30T07:50:13.000Z</time>
      </trkpt>
      <trkpt lat="44.15782" lon="3.11426">
        <ele>400.60000610352</ele>
        <time>2024-01-30T07:50:15.000Z</time>
      </trkpt>
      <trkpt lat="44.15774" lon="3.1145">
        <ele>400.39999389648</ele>
        <time>2024-01-30T07:50:17.000Z</time>
      </trkpt>
      <trkpt lat="44.15772" lon="3.11463">
        <ele>400.20001220703</ele>
        <time>2024-01-30T07:50:18.000Z</time>
      </trkpt>
      <trkpt lat="44.15773" lon="3.11475">
        <ele>400.20001220703</ele>
        <time>2024-01-30T07:50:19.000Z</time>
      </trkpt>
      <trkpt lat="44.15776" lon="3.11485">
        <ele>400.20001220703</ele>
        <time>2024-01-30T07:50:20.000Z</time>
      </trkpt>
      <trkpt lat="44.15782" lon="3.11495">
        <ele>400.20001220703</ele>
        <time>2024-01-30T07:50:21.000Z</time>
      </trkpt>
      <trkpt lat="44.15795" lon="3.11516">
        <ele>401.20001220703</ele>
        <time>2024-01-30T07:50:23.000Z</time>
      </trkpt>
      <trkpt lat="44.15823" lon="3.11567">
        <ele>402</ele>
        <time>2024-01-30T07:50:27.000Z</time>
      </trkpt>
      <trkpt lat="44.15832" lon="3.11579">
        <ele>402.60000610352</ele>
        <time>2024-01-30T07:50:28.000Z</time>
      </trkpt>
      <trkpt lat="44.15869" lon="3.11631">
        <ele>403.79998779297</ele>
        <time>2024-01-30T07:50:32.000Z</time>
      </trkpt>
      <trkpt lat="44.15894" lon="3.11655">
        <ele>404</ele>
        <time>2024-01-30T07:50:34.000Z</time>
      </trkpt>
      <trkpt lat="44.15904" lon="3.11661">
        <ele>404</ele>
        <time>2024-01-30T07:50:35.000Z</time>
      </trkpt>
      <trkpt lat="44.15945" lon="3.11675">
        <ele>404</ele>
        <time>2024-01-30T07:50:38.000Z</time>
      </trkpt>
      <trkpt lat="44.15971" lon="3.11684">
        <ele>405.20001220703</ele>
        <time>2024-01-30T07:50:40.000Z</time>
      </trkpt>
      <trkpt lat="44.15995" lon="3.11694">
        <ele>405.60000610352</ele>
        <time>2024-01-30T07:50:42.000Z</time>
      </trkpt>
      <trkpt lat="44.16048" lon="3.11706">
        <ele>405.79998779297</ele>
        <time>2024-01-30T07:50:46.000Z</time>
      </trkpt>
      <trkpt lat="44.16107" lon="3.11733">
        <ele>405.20001220703</ele>
        <time>2024-01-30T07:50:51.000Z</time>
      </trkpt>
      <trkpt lat="44.16118" lon="3.11737">
        <ele>405.20001220703</ele>
        <time>2024-01-30T07:50:52.000Z</time>
      </trkpt>
      <trkpt lat="44.16129" lon="3.11739">
        <ele>405.39999389648</ele>
        <time>2024-01-30T07:50:53.000Z</time>
      </trkpt>
      <trkpt lat="44.16152" lon="3.11736">
        <ele>405.39999389648</ele>
        <time>2024-01-30T07:50:55.000Z</time>
      </trkpt>
      <trkpt lat="44.16195" lon="3.1172">
        <ele>405.60000610352</ele>
        <time>2024-01-30T07:50:59.000Z</time>
      </trkpt>
      <trkpt lat="44.16205" lon="3.11718">
        <ele>405.79998779297</ele>
        <time>2024-01-30T07:51:00.000Z</time>
      </trkpt>
      <trkpt lat="44.16225" lon="3.11719">
        <ele>406.20001220703</ele>
        <time>2024-01-30T07:51:02.000Z</time>
      </trkpt>
      <trkpt lat="44.16258" lon="3.11741">
        <ele>406.39999389648</ele>
        <time>2024-01-30T07:51:05.000Z</time>
      </trkpt>
      <trkpt lat="44.16289" lon="3.11767">
        <ele>406.39999389648</ele>
        <time>2024-01-30T07:51:08.000Z</time>
      </trkpt>
      <trkpt lat="44.163" lon="3.11778">
        <ele>406.60000610352</ele>
        <time>2024-01-30T07:51:09.000Z</time>
      </trkpt>
      <trkpt lat="44.16318" lon="3.11802">
        <ele>407.20001220703</ele>
        <time>2024-01-30T07:51:11.000Z</time>
      </trkpt>
      <trkpt lat="44.16325" lon="3.11816">
        <ele>407.39999389648</ele>
        <time>2024-01-30T07:51:12.000Z</time>
      </trkpt>
      <trkpt lat="44.16332" lon="3.1183">
        <ele>407.39999389648</ele>
        <time>2024-01-30T07:51:13.000Z</time>
      </trkpt>
      <trkpt lat="44.16372" lon="3.11901">
        <ele>408</ele>
        <time>2024-01-30T07:51:18.000Z</time>
      </trkpt>
      <trkpt lat="44.16381" lon="3.11915">
        <ele>408.20001220703</ele>
        <time>2024-01-30T07:51:19.000Z</time>
      </trkpt>
      <trkpt lat="44.1639" lon="3.11927">
        <ele>408.39999389648</ele>
        <time>2024-01-30T07:51:20.000Z</time>
      </trkpt>
      <trkpt lat="44.16412" lon="3.1195">
        <ele>409</ele>
        <time>2024-01-30T07:51:22.000Z</time>
      </trkpt>
      <trkpt lat="44.16461" lon="3.1199">
        <ele>409</ele>
        <time>2024-01-30T07:51:26.000Z</time>
      </trkpt>
      <trkpt lat="44.16473" lon="3.12">
        <ele>409</ele>
        <time>2024-01-30T07:51:27.000Z</time>
      </trkpt>
      <trkpt lat="44.16512" lon="3.12044">
        <ele>409.20001220703</ele>
        <time>2024-01-30T07:51:31.000Z</time>
      </trkpt>
      <trkpt lat="44.16522" lon="3.12067">
        <ele>409.20001220703</ele>
        <time>2024-01-30T07:51:33.000Z</time>
      </trkpt>
      <trkpt lat="44.16523" lon="3.1209">
        <ele>409.20001220703</ele>
        <time>2024-01-30T07:51:35.000Z</time>
      </trkpt>
      <trkpt lat="44.16521" lon="3.12101">
        <ele>409.20001220703</ele>
        <time>2024-01-30T07:51:36.000Z</time>
      </trkpt>
      <trkpt lat="44.16518" lon="3.12157">
        <ele>409.39999389648</ele>
        <time>2024-01-30T07:51:40.000Z</time>
      </trkpt>
      <trkpt lat="44.16518" lon="3.12174">
        <ele>409.60000610352</ele>
        <time>2024-01-30T07:51:41.000Z</time>
      </trkpt>
      <trkpt lat="44.16524" lon="3.12224">
        <ele>410</ele>
        <time>2024-01-30T07:51:44.000Z</time>
      </trkpt>
      <trkpt lat="44.16535" lon="3.12257">
        <ele>410</ele>
        <time>2024-01-30T07:51:46.000Z</time>
      </trkpt>
      <trkpt lat="44.16542" lon="3.12273">
        <ele>410.20001220703</ele>
        <time>2024-01-30T07:51:47.000Z</time>
      </trkpt>
      <trkpt lat="44.16574" lon="3.12338">
        <ele>410.60000610352</ele>
        <time>2024-01-30T07:51:51.000Z</time>
      </trkpt>
      <trkpt lat="44.16581" lon="3.12355">
        <ele>410.39999389648</ele>
        <time>2024-01-30T07:51:52.000Z</time>
      </trkpt>
      <trkpt lat="44.16604" lon="3.12423">
        <ele>410.39999389648</ele>
        <time>2024-01-30T07:51:56.000Z</time>
      </trkpt>
      <trkpt lat="44.1661" lon="3.12439">
        <ele>410.39999389648</ele>
        <time>2024-01-30T07:51:57.000Z</time>
      </trkpt>
      <trkpt lat="44.16625" lon="3.12467">
        <ele>410.20001220703</ele>
        <time>2024-01-30T07:51:59.000Z</time>
      </trkpt>
      <trkpt lat="44.16635" lon="3.12479">
        <ele>410.20001220703</ele>
        <time>2024-01-30T07:52:00.000Z</time>
      </trkpt>
      <trkpt lat="44.16667" lon="3.12512">
        <ele>410.20001220703</ele>
        <time>2024-01-30T07:52:03.000Z</time>
      </trkpt>
      <trkpt lat="44.16677" lon="3.12525">
        <ele>410.39999389648</ele>
        <time>2024-01-30T07:52:04.000Z</time>
      </trkpt>
      <trkpt lat="44.16697" lon="3.12551">
        <ele>410.79998779297</ele>
        <time>2024-01-30T07:52:06.000Z</time>
      </trkpt>
      <trkpt lat="44.16718" lon="3.12572">
        <ele>411</ele>
        <time>2024-01-30T07:52:08.000Z</time>
      </trkpt>
      <trkpt lat="44.1676" lon="3.12617">
        <ele>411.39999389648</ele>
        <time>2024-01-30T07:52:12.000Z</time>
      </trkpt>
      <trkpt lat="44.16794" lon="3.12657">
        <ele>411.39999389648</ele>
        <time>2024-01-30T07:52:15.000Z</time>
      </trkpt>
      <trkpt lat="44.16803" lon="3.12665">
        <ele>411.39999389648</ele>
        <time>2024-01-30T07:52:16.000Z</time>
      </trkpt>
      <trkpt lat="44.16851" lon="3.127">
        <ele>411.39999389648</ele>
        <time>2024-01-30T07:52:20.000Z</time>
      </trkpt>
      <trkpt lat="44.16897" lon="3.12743">
        <ele>411.79998779297</ele>
        <time>2024-01-30T07:52:24.000Z</time>
      </trkpt>
      <trkpt lat="44.16935" lon="3.12772">
        <ele>412.20001220703</ele>
        <time>2024-01-30T07:52:27.000Z</time>
      </trkpt>
      <trkpt lat="44.1699" lon="3.12806">
        <ele>412.60000610352</ele>
        <time>2024-01-30T07:52:31.000Z</time>
      </trkpt>
      <trkpt lat="44.17004" lon="3.12815">
        <ele>412.79998779297</ele>
        <time>2024-01-30T07:52:32.000Z</time>
      </trkpt>
      <trkpt lat="44.17018" lon="3.12824">
        <ele>412.79998779297</ele>
        <time>2024-01-30T07:52:33.000Z</time>
      </trkpt>
      <trkpt lat="44.17077" lon="3.12864">
        <ele>413</ele>
        <time>2024-01-30T07:52:37.000Z</time>
      </trkpt>
      <trkpt lat="44.17102" lon="3.1288">
        <ele>413</ele>
        <time>2024-01-30T07:52:39.000Z</time>
      </trkpt>
      <trkpt lat="44.1716" lon="3.12909">
        <ele>413.20001220703</ele>
        <time>2024-01-30T07:52:43.000Z</time>
      </trkpt>
      <trkpt lat="44.17173" lon="3.12916">
        <ele>413.20001220703</ele>
        <time>2024-01-30T07:52:44.000Z</time>
      </trkpt>
      <trkpt lat="44.17234" lon="3.12942">
        <ele>413.20001220703</ele>
        <time>2024-01-30T07:52:49.000Z</time>
      </trkpt>
      <trkpt lat="44.17248" lon="3.12947">
        <ele>413.20001220703</ele>
        <time>2024-01-30T07:52:50.000Z</time>
      </trkpt>
      <trkpt lat="44.1727" lon="3.1295">
        <ele>413.20001220703</ele>
        <time>2024-01-30T07:52:52.000Z</time>
      </trkpt>
      <trkpt lat="44.17285" lon="3.12949">
        <ele>413.20001220703</ele>
        <time>2024-01-30T07:52:53.000Z</time>
      </trkpt>
      <trkpt lat="44.17297" lon="3.12947">
        <ele>413.39999389648</ele>
        <time>2024-01-30T07:52:54.000Z</time>
      </trkpt>
      <trkpt lat="44.17332" lon="3.1294">
        <ele>413.60000610352</ele>
        <time>2024-01-30T07:52:57.000Z</time>
      </trkpt>
      <trkpt lat="44.17381" lon="3.12949">
        <ele>413.60000610352</ele>
        <time>2024-01-30T07:53:01.000Z</time>
      </trkpt>
      <trkpt lat="44.17434" lon="3.12958">
        <ele>413.39999389648</ele>
        <time>2024-01-30T07:53:06.000Z</time>
      </trkpt>
      <trkpt lat="44.17492" lon="3.1296">
        <ele>413</ele>
        <time>2024-01-30T07:53:12.000Z</time>
      </trkpt>
      <trkpt lat="44.17524" lon="3.12969">
        <ele>413</ele>
        <time>2024-01-30T07:53:16.000Z</time>
      </trkpt>
      <trkpt lat="44.17555" lon="3.12988">
        <ele>413.39999389648</ele>
        <time>2024-01-30T07:53:20.000Z</time>
      </trkpt>
      <trkpt lat="44.17562" lon="3.12995">
        <ele>413.39999389648</ele>
        <time>2024-01-30T07:53:21.000Z</time>
      </trkpt>
      <trkpt lat="44.17597" lon="3.13034">
        <ele>413.39999389648</ele>
        <time>2024-01-30T07:53:26.000Z</time>
      </trkpt>
      <trkpt lat="44.17614" lon="3.13051">
        <ele>413.39999389648</ele>
        <time>2024-01-30T07:53:28.000Z</time>
      </trkpt>
      <trkpt lat="44.17629" lon="3.13062">
        <ele>413.39999389648</ele>
        <time>2024-01-30T07:53:30.000Z</time>
      </trkpt>
      <trkpt lat="44.17638" lon="3.13067">
        <ele>413.39999389648</ele>
        <time>2024-01-30T07:53:31.000Z</time>
      </trkpt>
      <trkpt lat="44.17648" lon="3.13071">
        <ele>413.20001220703</ele>
        <time>2024-01-30T07:53:32.000Z</time>
      </trkpt>
      <trkpt lat="44.17678" lon="3.13075">
        <ele>413</ele>
        <time>2024-01-30T07:53:35.000Z</time>
      </trkpt>
      <trkpt lat="44.17738" lon="3.13075">
        <ele>412.79998779297</ele>
        <time>2024-01-30T07:53:41.000Z</time>
      </trkpt>
      <trkpt lat="44.17754" lon="3.13075">
        <ele>412.79998779297</ele>
        <time>2024-01-30T07:53:43.000Z</time>
      </trkpt>
      <trkpt lat="44.17771" lon="3.13075">
        <ele>412</ele>
        <time>2024-01-30T07:53:46.000Z</time>
      </trkpt>
      <trkpt lat="44.17777" lon="3.13077">
        <ele>412</ele>
        <time>2024-01-30T07:53:49.000Z</time>
      </trkpt>
      <trkpt lat="44.17791" lon="3.13082">
        <ele>412</ele>
        <time>2024-01-30T07:53:53.000Z</time>
      </trkpt>
      <trkpt lat="44.17804" lon="3.13087">
        <ele>411.79998779297</ele>
        <time>2024-01-30T07:53:55.000Z</time>
      </trkpt>
      <trkpt lat="44.17821" lon="3.13094">
        <ele>410.79998779297</ele>
        <time>2024-01-30T07:53:57.000Z</time>
      </trkpt>
      <trkpt lat="44.17828" lon="3.13097">
        <ele>410.20001220703</ele>
        <time>2024-01-30T07:53:58.000Z</time>
      </trkpt>
      <trkpt lat="44.17854" lon="3.13108">
        <ele>409.20001220703</ele>
        <time>2024-01-30T07:54:01.000Z</time>
      </trkpt>
      <trkpt lat="44.17866" lon="3.13112">
        <ele>408.60000610352</ele>
        <time>2024-01-30T07:54:03.000Z</time>
      </trkpt>
      <trkpt lat="44.17872" lon="3.13113">
        <ele>408.60000610352</ele>
        <time>2024-01-30T07:54:04.000Z</time>
      </trkpt>
      <trkpt lat="44.1788" lon="3.13108">
        <ele>408.60000610352</ele>
        <time>2024-01-30T07:54:06.000Z</time>
      </trkpt>
      <trkpt lat="44.17882" lon="3.13094">
        <ele>408.79998779297</ele>
        <time>2024-01-30T07:54:08.000Z</time>
      </trkpt>
      <trkpt lat="44.17882" lon="3.13087">
        <ele>409</ele>
        <time>2024-01-30T07:54:09.000Z</time>
      </trkpt>
      <trkpt lat="44.17882" lon="3.13077">
        <ele>409</ele>
        <time>2024-01-30T07:54:10.000Z</time>
      </trkpt>
      <trkpt lat="44.17885" lon="3.1306">
        <ele>409.20001220703</ele>
        <time>2024-01-30T07:54:12.000Z</time>
      </trkpt>
      <trkpt lat="44.17888" lon="3.13053">
        <ele>409.39999389648</ele>
        <time>2024-01-30T07:54:13.000Z</time>
      </trkpt>
      <trkpt lat="44.17893" lon="3.13047">
        <ele>409.60000610352</ele>
        <time>2024-01-30T07:54:14.000Z</time>
      </trkpt>
      <trkpt lat="44.17903" lon="3.13039">
        <ele>410</ele>
        <time>2024-01-30T07:54:16.000Z</time>
      </trkpt>
      <trkpt lat="44.17907" lon="3.13038">
        <ele>410.20001220703</ele>
        <time>2024-01-30T07:54:17.000Z</time>
      </trkpt>
      <trkpt lat="44.17913" lon="3.13039">
        <ele>410.20001220703</ele>
        <time>2024-01-30T07:54:18.000Z</time>
      </trkpt>
      <trkpt lat="44.1792" lon="3.13043">
        <ele>410.60000610352</ele>
        <time>2024-01-30T07:54:19.000Z</time>
      </trkpt>
      <trkpt lat="44.17944" lon="3.13057">
        <ele>411</ele>
        <time>2024-01-30T07:54:22.000Z</time>
      </trkpt>
      <trkpt lat="44.17962" lon="3.13071">
        <ele>411.20001220703</ele>
        <time>2024-01-30T07:54:24.000Z</time>
      </trkpt>
      <trkpt lat="44.17984" lon="3.13087">
        <ele>411.20001220703</ele>
        <time>2024-01-30T07:54:26.000Z</time>
      </trkpt>
      <trkpt lat="44.18038" lon="3.13124">
        <ele>410</ele>
        <time>2024-01-30T07:54:31.000Z</time>
      </trkpt>
      <trkpt lat="44.18073" lon="3.13146">
        <ele>409.60000610352</ele>
        <time>2024-01-30T07:54:34.000Z</time>
      </trkpt>
      <trkpt lat="44.1808" lon="3.13153">
        <ele>409.60000610352</ele>
        <time>2024-01-30T07:54:35.000Z</time>
      </trkpt>
      <trkpt lat="44.181" lon="3.13175">
        <ele>408.39999389648</ele>
        <time>2024-01-30T07:54:37.000Z</time>
      </trkpt>
      <trkpt lat="44.18117" lon="3.13195">
        <ele>406.60000610352</ele>
        <time>2024-01-30T07:54:39.000Z</time>
      </trkpt>
      <trkpt lat="44.18128" lon="3.13209">
        <ele>405.39999389648</ele>
        <time>2024-01-30T07:54:40.000Z</time>
      </trkpt>
      <trkpt lat="44.18144" lon="3.1323">
        <ele>404</ele>
        <time>2024-01-30T07:54:42.000Z</time>
      </trkpt>
      <trkpt lat="44.18154" lon="3.13244">
        <ele>403.39999389648</ele>
        <time>2024-01-30T07:54:43.000Z</time>
      </trkpt>
      <trkpt lat="44.18162" lon="3.13254">
        <ele>402.20001220703</ele>
        <time>2024-01-30T07:54:44.000Z</time>
      </trkpt>
      <trkpt lat="44.18169" lon="3.13261">
        <ele>401</ele>
        <time>2024-01-30T07:54:45.000Z</time>
      </trkpt>
      <trkpt lat="44.18178" lon="3.1327">
        <ele>400</ele>
        <time>2024-01-30T07:54:46.000Z</time>
      </trkpt>
      <trkpt lat="44.18186" lon="3.13274">
        <ele>399.20001220703</ele>
        <time>2024-01-30T07:54:47.000Z</time>
      </trkpt>
      <trkpt lat="44.18193" lon="3.13275">
        <ele>398.79998779297</ele>
        <time>2024-01-30T07:54:48.000Z</time>
      </trkpt>
      <trkpt lat="44.18211" lon="3.13275">
        <ele>398.20001220703</ele>
        <time>2024-01-30T07:54:50.000Z</time>
      </trkpt>
      <trkpt lat="44.18219" lon="3.13273">
        <ele>398.20001220703</ele>
        <time>2024-01-30T07:54:51.000Z</time>
      </trkpt>
      <trkpt lat="44.18228" lon="3.13272">
        <ele>398.20001220703</ele>
        <time>2024-01-30T07:54:52.000Z</time>
      </trkpt>
      <trkpt lat="44.18243" lon="3.13274">
        <ele>398</ele>
        <time>2024-01-30T07:54:54.000Z</time>
      </trkpt>
      <trkpt lat="44.18283" lon="3.13289">
        <ele>397.79998779297</ele>
        <time>2024-01-30T07:54:58.000Z</time>
      </trkpt>
      <trkpt lat="44.18305" lon="3.13295">
        <ele>397.60000610352</ele>
        <time>2024-01-30T07:55:00.000Z</time>
      </trkpt>
      <trkpt lat="44.18328" lon="3.13296">
        <ele>397.39999389648</ele>
        <time>2024-01-30T07:55:02.000Z</time>
      </trkpt>
      <trkpt lat="44.18351" lon="3.13295">
        <ele>397</ele>
        <time>2024-01-30T07:55:04.000Z</time>
      </trkpt>
      <trkpt lat="44.18374" lon="3.13297">
        <ele>396.79998779297</ele>
        <time>2024-01-30T07:55:06.000Z</time>
      </trkpt>
      <trkpt lat="44.18386" lon="3.13299">
        <ele>396.79998779297</ele>
        <time>2024-01-30T07:55:07.000Z</time>
      </trkpt>
      <trkpt lat="44.18432" lon="3.13318">
        <ele>396</ele>
        <time>2024-01-30T07:55:11.000Z</time>
      </trkpt>
      <trkpt lat="44.18453" lon="3.1333">
        <ele>395.60000610352</ele>
        <time>2024-01-30T07:55:13.000Z</time>
      </trkpt>
      <trkpt lat="44.18474" lon="3.13346">
        <ele>394.79998779297</ele>
        <time>2024-01-30T07:55:15.000Z</time>
      </trkpt>
      <trkpt lat="44.18508" lon="3.13369">
        <ele>393.39999389648</ele>
        <time>2024-01-30T07:55:18.000Z</time>
      </trkpt>
      <trkpt lat="44.1852" lon="3.13378">
        <ele>392.39999389648</ele>
        <time>2024-01-30T07:55:19.000Z</time>
      </trkpt>
      <trkpt lat="44.18543" lon="3.13395">
        <ele>390.79998779297</ele>
        <time>2024-01-30T07:55:21.000Z</time>
      </trkpt>
      <trkpt lat="44.18564" lon="3.1341">
        <ele>389.60000610352</ele>
        <time>2024-01-30T07:55:23.000Z</time>
      </trkpt>
      <trkpt lat="44.18577" lon="3.13421">
        <ele>389.20001220703</ele>
        <time>2024-01-30T07:55:24.000Z</time>
      </trkpt>
      <trkpt lat="44.18585" lon="3.1343">
        <ele>389</ele>
        <time>2024-01-30T07:55:25.000Z</time>
      </trkpt>
      <trkpt lat="44.18623" lon="3.13482">
        <ele>389.20001220703</ele>
        <time>2024-01-30T07:55:29.000Z</time>
      </trkpt>
      <trkpt lat="44.1863" lon="3.13496">
        <ele>389.60000610352</ele>
        <time>2024-01-30T07:55:30.000Z</time>
      </trkpt>
      <trkpt lat="44.18651" lon="3.13543">
        <ele>390.79998779297</ele>
        <time>2024-01-30T07:55:33.000Z</time>
      </trkpt>
      <trkpt lat="44.18664" lon="3.13577">
        <ele>391</ele>
        <time>2024-01-30T07:55:35.000Z</time>
      </trkpt>
      <trkpt lat="44.18687" lon="3.13648">
        <ele>391.39999389648</ele>
        <time>2024-01-30T07:55:39.000Z</time>
      </trkpt>
      <trkpt lat="44.18707" lon="3.13699">
        <ele>391.79998779297</ele>
        <time>2024-01-30T07:55:42.000Z</time>
      </trkpt>
      <trkpt lat="44.18716" lon="3.13732">
        <ele>392.60000610352</ele>
        <time>2024-01-30T07:55:44.000Z</time>
      </trkpt>
      <trkpt lat="44.18721" lon="3.13755">
        <ele>393.20001220703</ele>
        <time>2024-01-30T07:55:45.000Z</time>
      </trkpt>
      <trkpt lat="44.18728" lon="3.13795">
        <ele>394.39999389648</ele>
        <time>2024-01-30T07:55:47.000Z</time>
      </trkpt>
      <trkpt lat="44.18738" lon="3.13836">
        <ele>395.20001220703</ele>
        <time>2024-01-30T07:55:49.000Z</time>
      </trkpt>
      <trkpt lat="44.18741" lon="3.13852">
        <ele>395.60000610352</ele>
        <time>2024-01-30T07:55:50.000Z</time>
      </trkpt>
      <trkpt lat="44.18762" lon="3.13936">
        <ele>396.60000610352</ele>
        <time>2024-01-30T07:55:54.000Z</time>
      </trkpt>
      <trkpt lat="44.18767" lon="3.13955">
        <ele>397</ele>
        <time>2024-01-30T07:55:55.000Z</time>
      </trkpt>
      <trkpt lat="44.18791" lon="3.14025">
        <ele>398.60000610352</ele>
        <time>2024-01-30T07:55:59.000Z</time>
      </trkpt>
      <trkpt lat="44.18809" lon="3.14078">
        <ele>399.60000610352</ele>
        <time>2024-01-30T07:56:02.000Z</time>
      </trkpt>
      <trkpt lat="44.18822" lon="3.14112">
        <ele>400</ele>
        <time>2024-01-30T07:56:04.000Z</time>
      </trkpt>
      <trkpt lat="44.18848" lon="3.14194">
        <ele>398.79998779297</ele>
        <time>2024-01-30T07:56:09.000Z</time>
      </trkpt>
      <trkpt lat="44.18853" lon="3.14212">
        <ele>397.60000610352</ele>
        <time>2024-01-30T07:56:10.000Z</time>
      </trkpt>
      <trkpt lat="44.18864" lon="3.14249">
        <ele>396</ele>
        <time>2024-01-30T07:56:12.000Z</time>
      </trkpt>
      <trkpt lat="44.18869" lon="3.14268">
        <ele>394.60000610352</ele>
        <time>2024-01-30T07:56:13.000Z</time>
      </trkpt>
      <trkpt lat="44.18873" lon="3.14284">
        <ele>393</ele>
        <time>2024-01-30T07:56:14.000Z</time>
      </trkpt>
      <trkpt lat="44.18879" lon="3.14307">
        <ele>392</ele>
        <time>2024-01-30T07:56:15.000Z</time>
      </trkpt>
      <trkpt lat="44.1889" lon="3.14346">
        <ele>390.39999389648</ele>
        <time>2024-01-30T07:56:17.000Z</time>
      </trkpt>
      <trkpt lat="44.18908" lon="3.14423">
        <ele>389.20001220703</ele>
        <time>2024-01-30T07:56:21.000Z</time>
      </trkpt>
      <trkpt lat="44.18911" lon="3.14443">
        <ele>389.20001220703</ele>
        <time>2024-01-30T07:56:22.000Z</time>
      </trkpt>
      <trkpt lat="44.18913" lon="3.14482">
        <ele>389.20001220703</ele>
        <time>2024-01-30T07:56:24.000Z</time>
      </trkpt>
      <trkpt lat="44.18908" lon="3.1454">
        <ele>390.20001220703</ele>
        <time>2024-01-30T07:56:27.000Z</time>
      </trkpt>
      <trkpt lat="44.18906" lon="3.1456">
        <ele>391</ele>
        <time>2024-01-30T07:56:28.000Z</time>
      </trkpt>
      <trkpt lat="44.18903" lon="3.14579">
        <ele>391.39999389648</ele>
        <time>2024-01-30T07:56:29.000Z</time>
      </trkpt>
      <trkpt lat="44.18893" lon="3.14659">
        <ele>392.20001220703</ele>
        <time>2024-01-30T07:56:33.000Z</time>
      </trkpt>
      <trkpt lat="44.18892" lon="3.14674">
        <ele>392.20001220703</ele>
        <time>2024-01-30T07:56:34.000Z</time>
      </trkpt>
      <trkpt lat="44.18893" lon="3.14698">
        <ele>392.20001220703</ele>
        <time>2024-01-30T07:56:35.000Z</time>
      </trkpt>
      <trkpt lat="44.18895" lon="3.14753">
        <ele>391.60000610352</ele>
        <time>2024-01-30T07:56:38.000Z</time>
      </trkpt>
      <trkpt lat="44.18893" lon="3.14791">
        <ele>391</ele>
        <time>2024-01-30T07:56:40.000Z</time>
      </trkpt>
      <trkpt lat="44.1889" lon="3.1481">
        <ele>390.79998779297</ele>
        <time>2024-01-30T07:56:41.000Z</time>
      </trkpt>
      <trkpt lat="44.18885" lon="3.14828">
        <ele>390.60000610352</ele>
        <time>2024-01-30T07:56:42.000Z</time>
      </trkpt>
      <trkpt lat="44.1888" lon="3.14846">
        <ele>390.20001220703</ele>
        <time>2024-01-30T07:56:43.000Z</time>
      </trkpt>
      <trkpt lat="44.18868" lon="3.14883">
        <ele>389.79998779297</ele>
        <time>2024-01-30T07:56:45.000Z</time>
      </trkpt>
      <trkpt lat="44.18843" lon="3.14956">
        <ele>390</ele>
        <time>2024-01-30T07:56:49.000Z</time>
      </trkpt>
      <trkpt lat="44.18831" lon="3.14992">
        <ele>392.20001220703</ele>
        <time>2024-01-30T07:56:51.000Z</time>
      </trkpt>
      <trkpt lat="44.1882" lon="3.15024">
        <ele>394.39999389648</ele>
        <time>2024-01-30T07:56:53.000Z</time>
      </trkpt>
      <trkpt lat="44.18814" lon="3.15045">
        <ele>395.39999389648</ele>
        <time>2024-01-30T07:56:54.000Z</time>
      </trkpt>
      <trkpt lat="44.18807" lon="3.15063">
        <ele>396.60000610352</ele>
        <time>2024-01-30T07:56:55.000Z</time>
      </trkpt>
      <trkpt lat="44.18794" lon="3.15097">
        <ele>398.60000610352</ele>
        <time>2024-01-30T07:56:57.000Z</time>
      </trkpt>
      <trkpt lat="44.18779" lon="3.15128">
        <ele>400.60000610352</ele>
        <time>2024-01-30T07:56:59.000Z</time>
      </trkpt>
      <trkpt lat="44.1877" lon="3.15141">
        <ele>401.79998779297</ele>
        <time>2024-01-30T07:57:00.000Z</time>
      </trkpt>
      <trkpt lat="44.1876" lon="3.15152">
        <ele>403</ele>
        <time>2024-01-30T07:57:01.000Z</time>
      </trkpt>
      <trkpt lat="44.1875" lon="3.15162">
        <ele>403.60000610352</ele>
        <time>2024-01-30T07:57:02.000Z</time>
      </trkpt>
      <trkpt lat="44.18741" lon="3.15169">
        <ele>404.39999389648</ele>
        <time>2024-01-30T07:57:03.000Z</time>
      </trkpt>
      <trkpt lat="44.18729" lon="3.15182">
        <ele>405</ele>
        <time>2024-01-30T07:57:04.000Z</time>
      </trkpt>
      <trkpt lat="44.18721" lon="3.15194">
        <ele>405.39999389648</ele>
        <time>2024-01-30T07:57:05.000Z</time>
      </trkpt>
      <trkpt lat="44.18715" lon="3.15207">
        <ele>406</ele>
        <time>2024-01-30T07:57:06.000Z</time>
      </trkpt>
      <trkpt lat="44.18713" lon="3.1522">
        <ele>406.20001220703</ele>
        <time>2024-01-30T07:57:07.000Z</time>
      </trkpt>
      <trkpt lat="44.18712" lon="3.15235">
        <ele>406.60000610352</ele>
        <time>2024-01-30T07:57:08.000Z</time>
      </trkpt>
      <trkpt lat="44.18714" lon="3.15264">
        <ele>407</ele>
        <time>2024-01-30T07:57:10.000Z</time>
      </trkpt>
      <trkpt lat="44.18715" lon="3.15282">
        <ele>407.39999389648</ele>
        <time>2024-01-30T07:57:11.000Z</time>
      </trkpt>
      <trkpt lat="44.1872" lon="3.15349">
        <ele>407.79998779297</ele>
        <time>2024-01-30T07:57:14.000Z</time>
      </trkpt>
      <trkpt lat="44.18729" lon="3.15442">
        <ele>406.39999389648</ele>
        <time>2024-01-30T07:57:18.000Z</time>
      </trkpt>
      <trkpt lat="44.18737" lon="3.15491">
        <ele>404.20001220703</ele>
        <time>2024-01-30T07:57:20.000Z</time>
      </trkpt>
      <trkpt lat="44.18747" lon="3.15541">
        <ele>402.60000610352</ele>
        <time>2024-01-30T07:57:22.000Z</time>
      </trkpt>
      <trkpt lat="44.18751" lon="3.15566">
        <ele>401.60000610352</ele>
        <time>2024-01-30T07:57:23.000Z</time>
      </trkpt>
      <trkpt lat="44.18762" lon="3.15616">
        <ele>400.20001220703</ele>
        <time>2024-01-30T07:57:25.000Z</time>
      </trkpt>
      <trkpt lat="44.18775" lon="3.15663">
        <ele>398.60000610352</ele>
        <time>2024-01-30T07:57:27.000Z</time>
      </trkpt>
      <trkpt lat="44.18784" lon="3.15685">
        <ele>397.60000610352</ele>
        <time>2024-01-30T07:57:28.000Z</time>
      </trkpt>
      <trkpt lat="44.18791" lon="3.15702">
        <ele>396.79998779297</ele>
        <time>2024-01-30T07:57:29.000Z</time>
      </trkpt>
      <trkpt lat="44.18802" lon="3.15727">
        <ele>396.20001220703</ele>
        <time>2024-01-30T07:57:30.000Z</time>
      </trkpt>
      <trkpt lat="44.18822" lon="3.15766">
        <ele>395.39999389648</ele>
        <time>2024-01-30T07:57:32.000Z</time>
      </trkpt>
      <trkpt lat="44.18833" lon="3.15783">
        <ele>394</ele>
        <time>2024-01-30T07:57:33.000Z</time>
      </trkpt>
      <trkpt lat="44.18846" lon="3.15798">
        <ele>393</ele>
        <time>2024-01-30T07:57:34.000Z</time>
      </trkpt>
      <trkpt lat="44.1886" lon="3.15811">
        <ele>392.60000610352</ele>
        <time>2024-01-30T07:57:35.000Z</time>
      </trkpt>
      <trkpt lat="44.1889" lon="3.15832">
        <ele>391.79998779297</ele>
        <time>2024-01-30T07:57:37.000Z</time>
      </trkpt>
      <trkpt lat="44.18923" lon="3.15853">
        <ele>390.20001220703</ele>
        <time>2024-01-30T07:57:39.000Z</time>
      </trkpt>
      <trkpt lat="44.1894" lon="3.15864">
        <ele>389</ele>
        <time>2024-01-30T07:57:40.000Z</time>
      </trkpt>
      <trkpt lat="44.18993" lon="3.15891">
        <ele>387.39999389648</ele>
        <time>2024-01-30T07:57:43.000Z</time>
      </trkpt>
      <trkpt lat="44.19008" lon="3.15897">
        <ele>387.39999389648</ele>
        <time>2024-01-30T07:57:44.000Z</time>
      </trkpt>
      <trkpt lat="44.19079" lon="3.15924">
        <ele>388.79998779297</ele>
        <time>2024-01-30T07:57:48.000Z</time>
      </trkpt>
      <trkpt lat="44.19092" lon="3.15928">
        <ele>390</ele>
        <time>2024-01-30T07:57:49.000Z</time>
      </trkpt>
      <trkpt lat="44.19109" lon="3.15933">
        <ele>391</ele>
        <time>2024-01-30T07:57:50.000Z</time>
      </trkpt>
      <trkpt lat="44.19141" lon="3.15939">
        <ele>394</ele>
        <time>2024-01-30T07:57:52.000Z</time>
      </trkpt>
      <trkpt lat="44.19156" lon="3.1594">
        <ele>395</ele>
        <time>2024-01-30T07:57:53.000Z</time>
      </trkpt>
      <trkpt lat="44.19175" lon="3.15939">
        <ele>396.60000610352</ele>
        <time>2024-01-30T07:57:54.000Z</time>
      </trkpt>
      <trkpt lat="44.19192" lon="3.15937">
        <ele>397.79998779297</ele>
        <time>2024-01-30T07:57:55.000Z</time>
      </trkpt>
      <trkpt lat="44.19204" lon="3.15935">
        <ele>399.20001220703</ele>
        <time>2024-01-30T07:57:56.000Z</time>
      </trkpt>
      <trkpt lat="44.19223" lon="3.15931">
        <ele>400.39999389648</ele>
        <time>2024-01-30T07:57:57.000Z</time>
      </trkpt>
      <trkpt lat="44.19238" lon="3.15927">
        <ele>402</ele>
        <time>2024-01-30T07:57:58.000Z</time>
      </trkpt>
      <trkpt lat="44.19253" lon="3.15923">
        <ele>403.39999389648</ele>
        <time>2024-01-30T07:57:59.000Z</time>
      </trkpt>
      <trkpt lat="44.19268" lon="3.15917">
        <ele>404.60000610352</ele>
        <time>2024-01-30T07:58:00.000Z</time>
      </trkpt>
      <trkpt lat="44.19284" lon="3.15912">
        <ele>406</ele>
        <time>2024-01-30T07:58:01.000Z</time>
      </trkpt>
      <trkpt lat="44.19297" lon="3.15907">
        <ele>407.60000610352</ele>
        <time>2024-01-30T07:58:02.000Z</time>
      </trkpt>
      <trkpt lat="44.19313" lon="3.15901">
        <ele>408.79998779297</ele>
        <time>2024-01-30T07:58:03.000Z</time>
      </trkpt>
      <trkpt lat="44.19332" lon="3.15894">
        <ele>410.39999389648</ele>
        <time>2024-01-30T07:58:04.000Z</time>
      </trkpt>
      <trkpt lat="44.19345" lon="3.15889">
        <ele>412</ele>
        <time>2024-01-30T07:58:05.000Z</time>
      </trkpt>
      <trkpt lat="44.19375" lon="3.15875">
        <ele>414.20001220703</ele>
        <time>2024-01-30T07:58:07.000Z</time>
      </trkpt>
      <trkpt lat="44.19389" lon="3.15867">
        <ele>415.60000610352</ele>
        <time>2024-01-30T07:58:08.000Z</time>
      </trkpt>
      <trkpt lat="44.19407" lon="3.15857">
        <ele>417.20001220703</ele>
        <time>2024-01-30T07:58:09.000Z</time>
      </trkpt>
      <trkpt lat="44.19432" lon="3.15839">
        <ele>418.79998779297</ele>
        <time>2024-01-30T07:58:11.000Z</time>
      </trkpt>
      <trkpt lat="44.19489" lon="3.158">
        <ele>419.79998779297</ele>
        <time>2024-01-30T07:58:15.000Z</time>
      </trkpt>
      <trkpt lat="44.195" lon="3.15793">
        <ele>419.79998779297</ele>
        <time>2024-01-30T07:58:16.000Z</time>
      </trkpt>
      <trkpt lat="44.19515" lon="3.15786">
        <ele>419.60000610352</ele>
        <time>2024-01-30T07:58:17.000Z</time>
      </trkpt>
      <trkpt lat="44.19538" lon="3.1578">
        <ele>419.39999389648</ele>
        <time>2024-01-30T07:58:19.000Z</time>
      </trkpt>
      <trkpt lat="44.19578" lon="3.15775">
        <ele>417</ele>
        <time>2024-01-30T07:58:22.000Z</time>
      </trkpt>
      <trkpt lat="44.1959" lon="3.15771">
        <ele>416.20001220703</ele>
        <time>2024-01-30T07:58:23.000Z</time>
      </trkpt>
      <trkpt lat="44.19602" lon="3.15765">
        <ele>415.20001220703</ele>
        <time>2024-01-30T07:58:24.000Z</time>
      </trkpt>
      <trkpt lat="44.19613" lon="3.15759">
        <ele>414</ele>
        <time>2024-01-30T07:58:25.000Z</time>
      </trkpt>
      <trkpt lat="44.19625" lon="3.15753">
        <ele>413</ele>
        <time>2024-01-30T07:58:26.000Z</time>
      </trkpt>
      <trkpt lat="44.19648" lon="3.15743">
        <ele>411</ele>
        <time>2024-01-30T07:58:28.000Z</time>
      </trkpt>
      <trkpt lat="44.19659" lon="3.15741">
        <ele>410.20001220703</ele>
        <time>2024-01-30T07:58:29.000Z</time>
      </trkpt>
      <trkpt lat="44.19669" lon="3.1574">
        <ele>409</ele>
        <time>2024-01-30T07:58:30.000Z</time>
      </trkpt>
      <trkpt lat="44.1968" lon="3.15742">
        <ele>408</ele>
        <time>2024-01-30T07:58:31.000Z</time>
      </trkpt>
      <trkpt lat="44.19691" lon="3.15745">
        <ele>406.79998779297</ele>
        <time>2024-01-30T07:58:32.000Z</time>
      </trkpt>
      <trkpt lat="44.19713" lon="3.15754">
        <ele>405.20001220703</ele>
        <time>2024-01-30T07:58:34.000Z</time>
      </trkpt>
      <trkpt lat="44.19722" lon="3.15759">
        <ele>404.20001220703</ele>
        <time>2024-01-30T07:58:35.000Z</time>
      </trkpt>
      <trkpt lat="44.19735" lon="3.15768">
        <ele>403</ele>
        <time>2024-01-30T07:58:36.000Z</time>
      </trkpt>
      <trkpt lat="44.19756" lon="3.15787">
        <ele>401.39999389648</ele>
        <time>2024-01-30T07:58:38.000Z</time>
      </trkpt>
      <trkpt lat="44.19767" lon="3.15801">
        <ele>400.20001220703</ele>
        <time>2024-01-30T07:58:39.000Z</time>
      </trkpt>
      <trkpt lat="44.19789" lon="3.15833">
        <ele>397.79998779297</ele>
        <time>2024-01-30T07:58:41.000Z</time>
      </trkpt>
      <trkpt lat="44.19801" lon="3.15849">
        <ele>396.60000610352</ele>
        <time>2024-01-30T07:58:42.000Z</time>
      </trkpt>
      <trkpt lat="44.19812" lon="3.15866">
        <ele>395.20001220703</ele>
        <time>2024-01-30T07:58:43.000Z</time>
      </trkpt>
      <trkpt lat="44.19824" lon="3.15882">
        <ele>393.20001220703</ele>
        <time>2024-01-30T07:58:44.000Z</time>
      </trkpt>
      <trkpt lat="44.19846" lon="3.15918">
        <ele>391.60000610352</ele>
        <time>2024-01-30T07:58:46.000Z</time>
      </trkpt>
      <trkpt lat="44.19856" lon="3.15938">
        <ele>391.39999389648</ele>
        <time>2024-01-30T07:58:47.000Z</time>
      </trkpt>
      <trkpt lat="44.1987" lon="3.15979">
        <ele>390.79998779297</ele>
        <time>2024-01-30T07:58:49.000Z</time>
      </trkpt>
      <trkpt lat="44.19893" lon="3.16065">
        <ele>391.39999389648</ele>
        <time>2024-01-30T07:58:53.000Z</time>
      </trkpt>
      <trkpt lat="44.19904" lon="3.16109">
        <ele>392.79998779297</ele>
        <time>2024-01-30T07:58:55.000Z</time>
      </trkpt>
      <trkpt lat="44.19914" lon="3.16149">
        <ele>394.20001220703</ele>
        <time>2024-01-30T07:58:57.000Z</time>
      </trkpt>
      <trkpt lat="44.19922" lon="3.16188">
        <ele>395.20001220703</ele>
        <time>2024-01-30T07:58:59.000Z</time>
      </trkpt>
      <trkpt lat="44.19926" lon="3.16208">
        <ele>395.60000610352</ele>
        <time>2024-01-30T07:59:00.000Z</time>
      </trkpt>
      <trkpt lat="44.19929" lon="3.16227">
        <ele>396.20001220703</ele>
        <time>2024-01-30T07:59:01.000Z</time>
      </trkpt>
      <trkpt lat="44.19936" lon="3.16268">
        <ele>397.39999389648</ele>
        <time>2024-01-30T07:59:03.000Z</time>
      </trkpt>
      <trkpt lat="44.19942" lon="3.16309">
        <ele>398.60000610352</ele>
        <time>2024-01-30T07:59:05.000Z</time>
      </trkpt>
      <trkpt lat="44.19945" lon="3.16325">
        <ele>399.20001220703</ele>
        <time>2024-01-30T07:59:06.000Z</time>
      </trkpt>
      <trkpt lat="44.19952" lon="3.1637">
        <ele>399.60000610352</ele>
        <time>2024-01-30T07:59:08.000Z</time>
      </trkpt>
      <trkpt lat="44.19958" lon="3.16413">
        <ele>399.79998779297</ele>
        <time>2024-01-30T07:59:10.000Z</time>
      </trkpt>
      <trkpt lat="44.19961" lon="3.16435">
        <ele>399.79998779297</ele>
        <time>2024-01-30T07:59:11.000Z</time>
      </trkpt>
      <trkpt lat="44.19974" lon="3.16529">
        <ele>398.79998779297</ele>
        <time>2024-01-30T07:59:15.000Z</time>
      </trkpt>
      <trkpt lat="44.19978" lon="3.16554">
        <ele>398.39999389648</ele>
        <time>2024-01-30T07:59:16.000Z</time>
      </trkpt>
      <trkpt lat="44.19982" lon="3.16579">
        <ele>396.79998779297</ele>
        <time>2024-01-30T07:59:17.000Z</time>
      </trkpt>
      <trkpt lat="44.19994" lon="3.16657">
        <ele>395.20001220703</ele>
        <time>2024-01-30T07:59:20.000Z</time>
      </trkpt>
      <trkpt lat="44.19997" lon="3.16683">
        <ele>394.20001220703</ele>
        <time>2024-01-30T07:59:21.000Z</time>
      </trkpt>
      <trkpt lat="44.20002" lon="3.1671">
        <ele>393.20001220703</ele>
        <time>2024-01-30T07:59:22.000Z</time>
      </trkpt>
      <trkpt lat="44.20009" lon="3.16763">
        <ele>392.20001220703</ele>
        <time>2024-01-30T07:59:24.000Z</time>
      </trkpt>
      <trkpt lat="44.20013" lon="3.1679">
        <ele>391</ele>
        <time>2024-01-30T07:59:25.000Z</time>
      </trkpt>
      <trkpt lat="44.2002" lon="3.16843">
        <ele>390</ele>
        <time>2024-01-30T07:59:27.000Z</time>
      </trkpt>
      <trkpt lat="44.20022" lon="3.16869">
        <ele>389.79998779297</ele>
        <time>2024-01-30T07:59:28.000Z</time>
      </trkpt>
      <trkpt lat="44.20022" lon="3.16919">
        <ele>389.20001220703</ele>
        <time>2024-01-30T07:59:30.000Z</time>
      </trkpt>
      <trkpt lat="44.20019" lon="3.16944">
        <ele>389</ele>
        <time>2024-01-30T07:59:31.000Z</time>
      </trkpt>
      <trkpt lat="44.20005" lon="3.17038">
        <ele>389.20001220703</ele>
        <time>2024-01-30T07:59:35.000Z</time>
      </trkpt>
      <trkpt lat="44.19982" lon="3.17128">
        <ele>389.79998779297</ele>
        <time>2024-01-30T07:59:39.000Z</time>
      </trkpt>
      <trkpt lat="44.19977" lon="3.1715">
        <ele>390.20001220703</ele>
        <time>2024-01-30T07:59:40.000Z</time>
      </trkpt>
      <trkpt lat="44.19968" lon="3.17197">
        <ele>391.60000610352</ele>
        <time>2024-01-30T07:59:42.000Z</time>
      </trkpt>
      <trkpt lat="44.19963" lon="3.17243">
        <ele>392.20001220703</ele>
        <time>2024-01-30T07:59:44.000Z</time>
      </trkpt>
      <trkpt lat="44.19961" lon="3.17289">
        <ele>393</ele>
        <time>2024-01-30T07:59:46.000Z</time>
      </trkpt>
      <trkpt lat="44.1996" lon="3.17334">
        <ele>393.79998779297</ele>
        <time>2024-01-30T07:59:48.000Z</time>
      </trkpt>
      <trkpt lat="44.1996" lon="3.17356">
        <ele>394.20001220703</ele>
        <time>2024-01-30T07:59:49.000Z</time>
      </trkpt>
      <trkpt lat="44.19955" lon="3.17418">
        <ele>395.20001220703</ele>
        <time>2024-01-30T07:59:52.000Z</time>
      </trkpt>
      <trkpt lat="44.1995" lon="3.17437">
        <ele>395.79998779297</ele>
        <time>2024-01-30T07:59:53.000Z</time>
      </trkpt>
      <trkpt lat="44.19945" lon="3.17455">
        <ele>396.60000610352</ele>
        <time>2024-01-30T07:59:54.000Z</time>
      </trkpt>
      <trkpt lat="44.19939" lon="3.17473">
        <ele>397.20001220703</ele>
        <time>2024-01-30T07:59:55.000Z</time>
      </trkpt>
      <trkpt lat="44.19926" lon="3.17508">
        <ele>398</ele>
        <time>2024-01-30T07:59:57.000Z</time>
      </trkpt>
      <trkpt lat="44.19909" lon="3.17543">
        <ele>398.79998779297</ele>
        <time>2024-01-30T07:59:59.000Z</time>
      </trkpt>
      <trkpt lat="44.19901" lon="3.1756">
        <ele>399.60000610352</ele>
        <time>2024-01-30T08:00:00.000Z</time>
      </trkpt>
      <trkpt lat="44.19875" lon="3.17609">
        <ele>401.39999389648</ele>
        <time>2024-01-30T08:00:03.000Z</time>
      </trkpt>
      <trkpt lat="44.19865" lon="3.17628">
        <ele>401.79998779297</ele>
        <time>2024-01-30T08:00:04.000Z</time>
      </trkpt>
      <trkpt lat="44.19828" lon="3.17708">
        <ele>402.39999389648</ele>
        <time>2024-01-30T08:00:08.000Z</time>
      </trkpt>
      <trkpt lat="44.19797" lon="3.17773">
        <ele>401.60000610352</ele>
        <time>2024-01-30T08:00:11.000Z</time>
      </trkpt>
      <trkpt lat="44.19771" lon="3.17827">
        <ele>400.39999389648</ele>
        <time>2024-01-30T08:00:14.000Z</time>
      </trkpt>
      <trkpt lat="44.1975" lon="3.17864">
        <ele>399.39999389648</ele>
        <time>2024-01-30T08:00:16.000Z</time>
      </trkpt>
      <trkpt lat="44.19736" lon="3.17884">
        <ele>399</ele>
        <time>2024-01-30T08:00:17.000Z</time>
      </trkpt>
      <trkpt lat="44.197" lon="3.17929">
        <ele>397.39999389648</ele>
        <time>2024-01-30T08:00:20.000Z</time>
      </trkpt>
      <trkpt lat="44.19674" lon="3.17961">
        <ele>396</ele>
        <time>2024-01-30T08:00:22.000Z</time>
      </trkpt>
      <trkpt lat="44.19662" lon="3.17978">
        <ele>395.60000610352</ele>
        <time>2024-01-30T08:00:23.000Z</time>
      </trkpt>
      <trkpt lat="44.19642" lon="3.18015">
        <ele>394.60000610352</ele>
        <time>2024-01-30T08:00:25.000Z</time>
      </trkpt>
      <trkpt lat="44.19634" lon="3.18036">
        <ele>394.20001220703</ele>
        <time>2024-01-30T08:00:26.000Z</time>
      </trkpt>
      <trkpt lat="44.19616" lon="3.18082">
        <ele>393.39999389648</ele>
        <time>2024-01-30T08:00:28.000Z</time>
      </trkpt>
      <trkpt lat="44.19583" lon="3.18155">
        <ele>393</ele>
        <time>2024-01-30T08:00:32.000Z</time>
      </trkpt>
      <trkpt lat="44.19544" lon="3.18227">
        <ele>393.60000610352</ele>
        <time>2024-01-30T08:00:36.000Z</time>
      </trkpt>
      <trkpt lat="44.19534" lon="3.18246">
        <ele>394</ele>
        <time>2024-01-30T08:00:37.000Z</time>
      </trkpt>
      <trkpt lat="44.19516" lon="3.18283">
        <ele>395.60000610352</ele>
        <time>2024-01-30T08:00:39.000Z</time>
      </trkpt>
      <trkpt lat="44.19499" lon="3.18321">
        <ele>398.20001220703</ele>
        <time>2024-01-30T08:00:41.000Z</time>
      </trkpt>
      <trkpt lat="44.1949" lon="3.1834">
        <ele>399.39999389648</ele>
        <time>2024-01-30T08:00:42.000Z</time>
      </trkpt>
      <trkpt lat="44.19482" lon="3.1836">
        <ele>400.60000610352</ele>
        <time>2024-01-30T08:00:43.000Z</time>
      </trkpt>
      <trkpt lat="44.19473" lon="3.18379">
        <ele>401.60000610352</ele>
        <time>2024-01-30T08:00:44.000Z</time>
      </trkpt>
      <trkpt lat="44.19465" lon="3.18397">
        <ele>402.79998779297</ele>
        <time>2024-01-30T08:00:45.000Z</time>
      </trkpt>
      <trkpt lat="44.19458" lon="3.18416">
        <ele>404</ele>
        <time>2024-01-30T08:00:46.000Z</time>
      </trkpt>
      <trkpt lat="44.19453" lon="3.18435">
        <ele>404.60000610352</ele>
        <time>2024-01-30T08:00:47.000Z</time>
      </trkpt>
      <trkpt lat="44.19449" lon="3.18455">
        <ele>405.60000610352</ele>
        <time>2024-01-30T08:00:48.000Z</time>
      </trkpt>
      <trkpt lat="44.19447" lon="3.18475">
        <ele>406.20001220703</ele>
        <time>2024-01-30T08:00:49.000Z</time>
      </trkpt>
      <trkpt lat="44.19447" lon="3.18496">
        <ele>407.60000610352</ele>
        <time>2024-01-30T08:00:50.000Z</time>
      </trkpt>
      <trkpt lat="44.19447" lon="3.18517">
        <ele>408.79998779297</ele>
        <time>2024-01-30T08:00:51.000Z</time>
      </trkpt>
      <trkpt lat="44.19447" lon="3.18558">
        <ele>410.60000610352</ele>
        <time>2024-01-30T08:00:53.000Z</time>
      </trkpt>
      <trkpt lat="44.19447" lon="3.186">
        <ele>412</ele>
        <time>2024-01-30T08:00:55.000Z</time>
      </trkpt>
      <trkpt lat="44.19442" lon="3.18643">
        <ele>414</ele>
        <time>2024-01-30T08:00:57.000Z</time>
      </trkpt>
      <trkpt lat="44.19437" lon="3.18663">
        <ele>414.20001220703</ele>
        <time>2024-01-30T08:00:58.000Z</time>
      </trkpt>
      <trkpt lat="44.19425" lon="3.18702">
        <ele>414.20001220703</ele>
        <time>2024-01-30T08:01:00.000Z</time>
      </trkpt>
      <trkpt lat="44.19407" lon="3.18759">
        <ele>413.39999389648</ele>
        <time>2024-01-30T08:01:03.000Z</time>
      </trkpt>
      <trkpt lat="44.19403" lon="3.18779">
        <ele>412.79998779297</ele>
        <time>2024-01-30T08:01:04.000Z</time>
      </trkpt>
      <trkpt lat="44.19402" lon="3.1882">
        <ele>411.39999389648</ele>
        <time>2024-01-30T08:01:06.000Z</time>
      </trkpt>
      <trkpt lat="44.19406" lon="3.18863">
        <ele>410.20001220703</ele>
        <time>2024-01-30T08:01:08.000Z</time>
      </trkpt>
      <trkpt lat="44.19412" lon="3.18908">
        <ele>408.79998779297</ele>
        <time>2024-01-30T08:01:10.000Z</time>
      </trkpt>
      <trkpt lat="44.19419" lon="3.18954">
        <ele>407.60000610352</ele>
        <time>2024-01-30T08:01:12.000Z</time>
      </trkpt>
      <trkpt lat="44.19426" lon="3.19001">
        <ele>405.79998779297</ele>
        <time>2024-01-30T08:01:14.000Z</time>
      </trkpt>
      <trkpt lat="44.19432" lon="3.19048">
        <ele>404.20001220703</ele>
        <time>2024-01-30T08:01:16.000Z</time>
      </trkpt>
      <trkpt lat="44.19435" lon="3.19072">
        <ele>403.39999389648</ele>
        <time>2024-01-30T08:01:17.000Z</time>
      </trkpt>
      <trkpt lat="44.19437" lon="3.19096">
        <ele>403.20001220703</ele>
        <time>2024-01-30T08:01:18.000Z</time>
      </trkpt>
      <trkpt lat="44.19442" lon="3.19145">
        <ele>401.79998779297</ele>
        <time>2024-01-30T08:01:20.000Z</time>
      </trkpt>
      <trkpt lat="44.19448" lon="3.19194">
        <ele>400</ele>
        <time>2024-01-30T08:01:22.000Z</time>
      </trkpt>
      <trkpt lat="44.19455" lon="3.19243">
        <ele>398.60000610352</ele>
        <time>2024-01-30T08:01:24.000Z</time>
      </trkpt>
      <trkpt lat="44.19464" lon="3.19293">
        <ele>397.20001220703</ele>
        <time>2024-01-30T08:01:26.000Z</time>
      </trkpt>
      <trkpt lat="44.19476" lon="3.19366">
        <ele>396.20001220703</ele>
        <time>2024-01-30T08:01:29.000Z</time>
      </trkpt>
      <trkpt lat="44.19479" lon="3.19391">
        <ele>395.39999389648</ele>
        <time>2024-01-30T08:01:30.000Z</time>
      </trkpt>
      <trkpt lat="44.1948" lon="3.19415">
        <ele>395</ele>
        <time>2024-01-30T08:01:31.000Z</time>
      </trkpt>
      <trkpt lat="44.19477" lon="3.19461">
        <ele>394.79998779297</ele>
        <time>2024-01-30T08:01:33.000Z</time>
      </trkpt>
      <trkpt lat="44.19466" lon="3.19551">
        <ele>395</ele>
        <time>2024-01-30T08:01:37.000Z</time>
      </trkpt>
      <trkpt lat="44.19459" lon="3.19594">
        <ele>395</ele>
        <time>2024-01-30T08:01:39.000Z</time>
      </trkpt>
      <trkpt lat="44.19444" lon="3.19657">
        <ele>395.39999389648</ele>
        <time>2024-01-30T08:01:42.000Z</time>
      </trkpt>
      <trkpt lat="44.19436" lon="3.19676">
        <ele>395.60000610352</ele>
        <time>2024-01-30T08:01:43.000Z</time>
      </trkpt>
      <trkpt lat="44.19417" lon="3.19713">
        <ele>396</ele>
        <time>2024-01-30T08:01:45.000Z</time>
      </trkpt>
      <trkpt lat="44.19408" lon="3.19731">
        <ele>396.20001220703</ele>
        <time>2024-01-30T08:01:46.000Z</time>
      </trkpt>
      <trkpt lat="44.19375" lon="3.1981">
        <ele>397.39999389648</ele>
        <time>2024-01-30T08:01:50.000Z</time>
      </trkpt>
      <trkpt lat="44.19344" lon="3.19894">
        <ele>398.39999389648</ele>
        <time>2024-01-30T08:01:54.000Z</time>
      </trkpt>
      <trkpt lat="44.19328" lon="3.19937">
        <ele>398.79998779297</ele>
        <time>2024-01-30T08:01:56.000Z</time>
      </trkpt>
      <trkpt lat="44.19298" lon="3.20018">
        <ele>398.79998779297</ele>
        <time>2024-01-30T08:02:00.000Z</time>
      </trkpt>
      <trkpt lat="44.19289" lon="3.20036">
        <ele>398.79998779297</ele>
        <time>2024-01-30T08:02:01.000Z</time>
      </trkpt>
      <trkpt lat="44.19278" lon="3.20053">
        <ele>399.20001220703</ele>
        <time>2024-01-30T08:02:02.000Z</time>
      </trkpt>
      <trkpt lat="44.19253" lon="3.20083">
        <ele>399.60000610352</ele>
        <time>2024-01-30T08:02:04.000Z</time>
      </trkpt>
      <trkpt lat="44.19201" lon="3.20141">
        <ele>400.20001220703</ele>
        <time>2024-01-30T08:02:08.000Z</time>
      </trkpt>
      <trkpt lat="44.19175" lon="3.20166">
        <ele>400.39999389648</ele>
        <time>2024-01-30T08:02:10.000Z</time>
      </trkpt>
      <trkpt lat="44.19162" lon="3.20177">
        <ele>400.39999389648</ele>
        <time>2024-01-30T08:02:11.000Z</time>
      </trkpt>
      <trkpt lat="44.19132" lon="3.20191">
        <ele>400.79998779297</ele>
        <time>2024-01-30T08:02:13.000Z</time>
      </trkpt>
      <trkpt lat="44.19102" lon="3.20201">
        <ele>401.79998779297</ele>
        <time>2024-01-30T08:02:15.000Z</time>
      </trkpt>
      <trkpt lat="44.19086" lon="3.20206">
        <ele>402.79998779297</ele>
        <time>2024-01-30T08:02:16.000Z</time>
      </trkpt>
      <trkpt lat="44.19058" lon="3.20218">
        <ele>404.20001220703</ele>
        <time>2024-01-30T08:02:18.000Z</time>
      </trkpt>
      <trkpt lat="44.19042" lon="3.20226">
        <ele>405</ele>
        <time>2024-01-30T08:02:19.000Z</time>
      </trkpt>
      <trkpt lat="44.19032" lon="3.20232">
        <ele>405.60000610352</ele>
        <time>2024-01-30T08:02:20.000Z</time>
      </trkpt>
      <trkpt lat="44.19022" lon="3.20242">
        <ele>406.20001220703</ele>
        <time>2024-01-30T08:02:21.000Z</time>
      </trkpt>
      <trkpt lat="44.1901" lon="3.20258">
        <ele>407.39999389648</ele>
        <time>2024-01-30T08:02:22.000Z</time>
      </trkpt>
      <trkpt lat="44.19" lon="3.20271">
        <ele>408.39999389648</ele>
        <time>2024-01-30T08:02:23.000Z</time>
      </trkpt>
      <trkpt lat="44.18993" lon="3.20287">
        <ele>409.60000610352</ele>
        <time>2024-01-30T08:02:24.000Z</time>
      </trkpt>
      <trkpt lat="44.18986" lon="3.20304">
        <ele>410.79998779297</ele>
        <time>2024-01-30T08:02:25.000Z</time>
      </trkpt>
      <trkpt lat="44.18979" lon="3.20322">
        <ele>412.20001220703</ele>
        <time>2024-01-30T08:02:26.000Z</time>
      </trkpt>
      <trkpt lat="44.18967" lon="3.20358">
        <ele>414</ele>
        <time>2024-01-30T08:02:28.000Z</time>
      </trkpt>
      <trkpt lat="44.18963" lon="3.20376">
        <ele>415.39999389648</ele>
        <time>2024-01-30T08:02:29.000Z</time>
      </trkpt>
      <trkpt lat="44.18959" lon="3.20394">
        <ele>417.20001220703</ele>
        <time>2024-01-30T08:02:30.000Z</time>
      </trkpt>
      <trkpt lat="44.18953" lon="3.20433">
        <ele>418.39999389648</ele>
        <time>2024-01-30T08:02:32.000Z</time>
      </trkpt>
      <trkpt lat="44.1895" lon="3.20452">
        <ele>420</ele>
        <time>2024-01-30T08:02:33.000Z</time>
      </trkpt>
      <trkpt lat="44.18947" lon="3.2047">
        <ele>420.60000610352</ele>
        <time>2024-01-30T08:02:34.000Z</time>
      </trkpt>
      <trkpt lat="44.18944" lon="3.20487">
        <ele>421.20001220703</ele>
        <time>2024-01-30T08:02:35.000Z</time>
      </trkpt>
      <trkpt lat="44.18943" lon="3.20503">
        <ele>422.20001220703</ele>
        <time>2024-01-30T08:02:36.000Z</time>
      </trkpt>
      <trkpt lat="44.18943" lon="3.20519">
        <ele>423</ele>
        <time>2024-01-30T08:02:37.000Z</time>
      </trkpt>
      <trkpt lat="44.18944" lon="3.20533">
        <ele>423.79998779297</ele>
        <time>2024-01-30T08:02:38.000Z</time>
      </trkpt>
      <trkpt lat="44.18946" lon="3.20553">
        <ele>424.39999389648</ele>
        <time>2024-01-30T08:02:40.000Z</time>
      </trkpt>
      <trkpt lat="44.18946" lon="3.20557">
        <ele>424.79998779297</ele>
        <time>2024-01-30T08:02:41.000Z</time>
      </trkpt>
      <trkpt lat="44.18946" lon="3.20559">
        <ele>425.20001220703</ele>
        <time>2024-01-30T08:02:42.000Z</time>
      </trkpt>
      <trkpt lat="44.18946" lon="3.2056">
        <ele>425.60000610352</ele>
        <time>2024-01-30T08:02:43.000Z</time>
      </trkpt>
      <trkpt lat="44.18946" lon="3.20556">
        <ele>425.60000610352</ele>
        <time>2024-01-30T08:02:47.000Z</time>
      </trkpt>
      <trkpt lat="44.18944" lon="3.20544">
        <ele>425.20001220703</ele>
        <time>2024-01-30T08:02:55.000Z</time>
      </trkpt>
      <trkpt lat="44.18944" lon="3.20544">
        <ele>425</ele>
        <time>2024-01-30T08:03:03.000Z</time>
      </trkpt>
      <trkpt lat="44.18944" lon="3.20544">
        <ele>425</ele>
        <time>2024-01-30T08:03:28.000Z</time>
      </trkpt>
      <trkpt lat="44.18943" lon="3.20546">
        <ele>425</ele>
        <time>2024-01-30T08:03:32.000Z</time>
      </trkpt>
      <trkpt lat="44.18943" lon="3.20554">
        <ele>425.39999389648</ele>
        <time>2024-01-30T08:03:34.000Z</time>
      </trkpt>
      <trkpt lat="44.18944" lon="3.20577">
        <ele>426.20001220703</ele>
        <time>2024-01-30T08:03:38.000Z</time>
      </trkpt>
      <trkpt lat="44.18944" lon="3.20583">
        <ele>426.60000610352</ele>
        <time>2024-01-30T08:03:39.000Z</time>
      </trkpt>
      <trkpt lat="44.18942" lon="3.20598">
        <ele>427.20001220703</ele>
        <time>2024-01-30T08:03:41.000Z</time>
      </trkpt>
      <trkpt lat="44.1894" lon="3.20625">
        <ele>428.60000610352</ele>
        <time>2024-01-30T08:03:44.000Z</time>
      </trkpt>
      <trkpt lat="44.18937" lon="3.20653">
        <ele>429.79998779297</ele>
        <time>2024-01-30T08:03:47.000Z</time>
      </trkpt>
      <trkpt lat="44.18934" lon="3.20681">
        <ele>430.60000610352</ele>
        <time>2024-01-30T08:03:50.000Z</time>
      </trkpt>
      <trkpt lat="44.18925" lon="3.20731">
        <ele>429.60000610352</ele>
        <time>2024-01-30T08:03:56.000Z</time>
      </trkpt>
      <trkpt lat="44.18919" lon="3.20755">
        <ele>428.60000610352</ele>
        <time>2024-01-30T08:03:59.000Z</time>
      </trkpt>
      <trkpt lat="44.18911" lon="3.20782">
        <ele>427.79998779297</ele>
        <time>2024-01-30T08:04:03.000Z</time>
      </trkpt>
      <trkpt lat="44.18908" lon="3.20789">
        <ele>427.60000610352</ele>
        <time>2024-01-30T08:04:04.000Z</time>
      </trkpt>
      <trkpt lat="44.18897" lon="3.20815">
        <ele>426.79998779297</ele>
        <time>2024-01-30T08:04:08.000Z</time>
      </trkpt>
      <trkpt lat="44.18896" lon="3.20824">
        <ele>426.39999389648</ele>
        <time>2024-01-30T08:04:09.000Z</time>
      </trkpt>
      <trkpt lat="44.18896" lon="3.20833">
        <ele>426</ele>
        <time>2024-01-30T08:04:10.000Z</time>
      </trkpt>
      <trkpt lat="44.189" lon="3.20849">
        <ele>425.39999389648</ele>
        <time>2024-01-30T08:04:12.000Z</time>
      </trkpt>
      <trkpt lat="44.18904" lon="3.2086">
        <ele>424.60000610352</ele>
        <time>2024-01-30T08:04:14.000Z</time>
      </trkpt>
      <trkpt lat="44.18909" lon="3.20866">
        <ele>424.39999389648</ele>
        <time>2024-01-30T08:04:15.000Z</time>
      </trkpt>
      <trkpt lat="44.18912" lon="3.20871">
        <ele>424.20001220703</ele>
        <time>2024-01-30T08:04:16.000Z</time>
      </trkpt>
      <trkpt lat="44.18916" lon="3.20883">
        <ele>423.39999389648</ele>
        <time>2024-01-30T08:04:18.000Z</time>
      </trkpt>
      <trkpt lat="44.18917" lon="3.2089">
        <ele>423.20001220703</ele>
        <time>2024-01-30T08:04:19.000Z</time>
      </trkpt>
      <trkpt lat="44.18922" lon="3.20924">
        <ele>422.39999389648</ele>
        <time>2024-01-30T08:04:23.000Z</time>
      </trkpt>
      <trkpt lat="44.18924" lon="3.20942">
        <ele>421.39999389648</ele>
        <time>2024-01-30T08:04:25.000Z</time>
      </trkpt>
      <trkpt lat="44.1893" lon="3.20979">
        <ele>420.20001220703</ele>
        <time>2024-01-30T08:04:29.000Z</time>
      </trkpt>
      <trkpt lat="44.18933" lon="3.20997">
        <ele>419.39999389648</ele>
        <time>2024-01-30T08:04:31.000Z</time>
      </trkpt>
      <trkpt lat="44.18932" lon="3.21004">
        <ele>418.79998779297</ele>
        <time>2024-01-30T08:04:32.000Z</time>
      </trkpt>
      <trkpt lat="44.1893" lon="3.21021">
        <ele>418.20001220703</ele>
        <time>2024-01-30T08:04:34.000Z</time>
      </trkpt>
      <trkpt lat="44.18928" lon="3.21025">
        <ele>417.39999389648</ele>
        <time>2024-01-30T08:04:35.000Z</time>
      </trkpt>
      <trkpt lat="44.18923" lon="3.2103">
        <ele>416.79998779297</ele>
        <time>2024-01-30T08:04:36.000Z</time>
      </trkpt>
      <trkpt lat="44.18918" lon="3.21031">
        <ele>416.60000610352</ele>
        <time>2024-01-30T08:04:37.000Z</time>
      </trkpt>
      <trkpt lat="44.18915" lon="3.21028">
        <ele>416.39999389648</ele>
        <time>2024-01-30T08:04:38.000Z</time>
      </trkpt>
      <trkpt lat="44.18911" lon="3.21024">
        <ele>416.20001220703</ele>
        <time>2024-01-30T08:04:39.000Z</time>
      </trkpt>
      <trkpt lat="44.18907" lon="3.21018">
        <ele>416</ele>
        <time>2024-01-30T08:04:40.000Z</time>
      </trkpt>
      <trkpt lat="44.18889" lon="3.20999">
        <ele>415.20001220703</ele>
        <time>2024-01-30T08:04:43.000Z</time>
      </trkpt>
      <trkpt lat="44.1888" lon="3.2099">
        <ele>415</ele>
        <time>2024-01-30T08:04:44.000Z</time>
      </trkpt>
      <trkpt lat="44.18861" lon="3.20964">
        <ele>413.79998779297</ele>
        <time>2024-01-30T08:04:47.000Z</time>
      </trkpt>
      <trkpt lat="44.18845" lon="3.20947">
        <ele>412.60000610352</ele>
        <time>2024-01-30T08:04:50.000Z</time>
      </trkpt>
      <trkpt lat="44.18842" lon="3.20945">
        <ele>412.20001220703</ele>
        <time>2024-01-30T08:04:51.000Z</time>
      </trkpt>
      <trkpt lat="44.18837" lon="3.20944">
        <ele>412.20001220703</ele>
        <time>2024-01-30T08:04:54.000Z</time>
      </trkpt>
      <trkpt lat="44.18834" lon="3.20946">
        <ele>412.39999389648</ele>
        <time>2024-01-30T08:04:57.000Z</time>
      </trkpt>
      <trkpt lat="44.18834" lon="3.20954">
        <ele>412.39999389648</ele>
        <time>2024-01-30T08:04:59.000Z</time>
      </trkpt>
      <trkpt lat="44.18843" lon="3.20966">
        <ele>412.20001220703</ele>
        <time>2024-01-30T08:05:02.000Z</time>
      </trkpt>
      <trkpt lat="44.18864" lon="3.20986">
        <ele>411.20001220703</ele>
        <time>2024-01-30T08:05:06.000Z</time>
      </trkpt>
      <trkpt lat="44.18878" lon="3.21005">
        <ele>410</ele>
        <time>2024-01-30T08:05:08.000Z</time>
      </trkpt>
      <trkpt lat="44.18891" lon="3.21024">
        <ele>408.79998779297</ele>
        <time>2024-01-30T08:05:10.000Z</time>
      </trkpt>
      <trkpt lat="44.18907" lon="3.21038">
        <ele>407.79998779297</ele>
        <time>2024-01-30T08:05:12.000Z</time>
      </trkpt>
      <trkpt lat="44.18923" lon="3.21049">
        <ele>407</ele>
        <time>2024-01-30T08:05:14.000Z</time>
      </trkpt>
      <trkpt lat="44.18929" lon="3.21054">
        <ele>406</ele>
        <time>2024-01-30T08:05:15.000Z</time>
      </trkpt>
      <trkpt lat="44.18938" lon="3.2106">
        <ele>405.20001220703</ele>
        <time>2024-01-30T08:05:16.000Z</time>
      </trkpt>
      <trkpt lat="44.18946" lon="3.21063">
        <ele>404.60000610352</ele>
        <time>2024-01-30T08:05:17.000Z</time>
      </trkpt>
      <trkpt lat="44.18954" lon="3.21063">
        <ele>403.79998779297</ele>
        <time>2024-01-30T08:05:18.000Z</time>
      </trkpt>
      <trkpt lat="44.18961" lon="3.2106">
        <ele>403.39999389648</ele>
        <time>2024-01-30T08:05:19.000Z</time>
      </trkpt>
      <trkpt lat="44.18966" lon="3.21056">
        <ele>403</ele>
        <time>2024-01-30T08:05:20.000Z</time>
      </trkpt>
      <trkpt lat="44.18972" lon="3.21049">
        <ele>402.60000610352</ele>
        <time>2024-01-30T08:05:21.000Z</time>
      </trkpt>
      <trkpt lat="44.18976" lon="3.21042">
        <ele>402.20001220703</ele>
        <time>2024-01-30T08:05:22.000Z</time>
      </trkpt>
      <trkpt lat="44.18983" lon="3.21023">
        <ele>401</ele>
        <time>2024-01-30T08:05:24.000Z</time>
      </trkpt>
      <trkpt lat="44.18986" lon="3.21011">
        <ele>400.60000610352</ele>
        <time>2024-01-30T08:05:25.000Z</time>
      </trkpt>
      <trkpt lat="44.18992" lon="3.20984">
        <ele>399.39999389648</ele>
        <time>2024-01-30T08:05:28.000Z</time>
      </trkpt>
      <trkpt lat="44.18997" lon="3.20962">
        <ele>398.60000610352</ele>
        <time>2024-01-30T08:05:31.000Z</time>
      </trkpt>
      <trkpt lat="44.19005" lon="3.20954">
        <ele>398.39999389648</ele>
        <time>2024-01-30T08:05:34.000Z</time>
      </trkpt>
      <trkpt lat="44.1902" lon="3.20955">
        <ele>398.39999389648</ele>
        <time>2024-01-30T08:05:39.000Z</time>
      </trkpt>
      <trkpt lat="44.19043" lon="3.2096">
        <ele>398.60000610352</ele>
        <time>2024-01-30T08:05:48.000Z</time>
      </trkpt>
      <trkpt lat="44.19043" lon="3.2096">
        <ele>398.79998779297</ele>
        <time>2024-01-30T08:05:52.000Z</time>
      </trkpt>
      <trkpt lat="44.19045" lon="3.20959">
        <ele>398.79998779297</ele>
        <time>2024-01-30T08:05:55.000Z</time>
      </trkpt>
      <trkpt lat="44.19048" lon="3.20956">
        <ele>398.79998779297</ele>
        <time>2024-01-30T08:05:57.000Z</time>
      </trkpt>
      <trkpt lat="44.19053" lon="3.20936">
        <ele>398.79998779297</ele>
        <time>2024-01-30T08:06:02.000Z</time>
      </trkpt>
      <trkpt lat="44.19053" lon="3.20915">
        <ele>399.20001220703</ele>
        <time>2024-01-30T08:06:07.000Z</time>
      </trkpt>
      <trkpt lat="44.19055" lon="3.20898">
        <ele>399.39999389648</ele>
        <time>2024-01-30T08:06:09.000Z</time>
      </trkpt>
      <trkpt lat="44.19057" lon="3.20882">
        <ele>399.60000610352</ele>
        <time>2024-01-30T08:06:11.000Z</time>
      </trkpt>
      <trkpt lat="44.19061" lon="3.20829">
        <ele>400.20001220703</ele>
        <time>2024-01-30T08:06:16.000Z</time>
      </trkpt>
      <trkpt lat="44.19065" lon="3.20771">
        <ele>400.20001220703</ele>
        <time>2024-01-30T08:06:22.000Z</time>
      </trkpt>
      <trkpt lat="44.19069" lon="3.20762">
        <ele>400.39999389648</ele>
        <time>2024-01-30T08:06:24.000Z</time>
      </trkpt>
      <trkpt lat="44.19071" lon="3.2076">
        <ele>400.60000610352</ele>
        <time>2024-01-30T08:06:25.000Z</time>
      </trkpt>
      <trkpt lat="44.19085" lon="3.20752">
        <ele>401.60000610352</ele>
        <time>2024-01-30T08:06:28.000Z</time>
      </trkpt>
      <trkpt lat="44.19092" lon="3.20749">
        <ele>402.20001220703</ele>
        <time>2024-01-30T08:06:29.000Z</time>
      </trkpt>
      <trkpt lat="44.19099" lon="3.20744">
        <ele>402.79998779297</ele>
        <time>2024-01-30T08:06:30.000Z</time>
      </trkpt>
      <trkpt lat="44.19116" lon="3.20735">
        <ele>403.79998779297</ele>
        <time>2024-01-30T08:06:32.000Z</time>
      </trkpt>
      <trkpt lat="44.19137" lon="3.20725">
        <ele>405.39999389648</ele>
        <time>2024-01-30T08:06:35.000Z</time>
      </trkpt>
      <trkpt lat="44.19158" lon="3.20713">
        <ele>406.79998779297</ele>
        <time>2024-01-30T08:06:38.000Z</time>
      </trkpt>
      <trkpt lat="44.19173" lon="3.20707">
        <ele>407.39999389648</ele>
        <time>2024-01-30T08:06:40.000Z</time>
      </trkpt>
      <trkpt lat="44.19189" lon="3.20706">
        <ele>407.79998779297</ele>
        <time>2024-01-30T08:06:42.000Z</time>
      </trkpt>
      <trkpt lat="44.19228" lon="3.20715">
        <ele>408</ele>
        <time>2024-01-30T08:06:47.000Z</time>
      </trkpt>
      <trkpt lat="44.19234" lon="3.20718">
        <ele>408</ele>
        <time>2024-01-30T08:06:48.000Z</time>
      </trkpt>
      <trkpt lat="44.19245" lon="3.20728">
        <ele>408.20001220703</ele>
        <time>2024-01-30T08:06:50.000Z</time>
      </trkpt>
      <trkpt lat="44.1925" lon="3.20735">
        <ele>408.20001220703</ele>
        <time>2024-01-30T08:06:51.000Z</time>
      </trkpt>
      <trkpt lat="44.19279" lon="3.20768">
        <ele>408.79998779297</ele>
        <time>2024-01-30T08:06:56.000Z</time>
      </trkpt>
      <trkpt lat="44.19291" lon="3.20784">
        <ele>408.79998779297</ele>
        <time>2024-01-30T08:06:58.000Z</time>
      </trkpt>
      <trkpt lat="44.19302" lon="3.20805">
        <ele>408</ele>
        <time>2024-01-30T08:07:00.000Z</time>
      </trkpt>
      <trkpt lat="44.19323" lon="3.20846">
        <ele>406.60000610352</ele>
        <time>2024-01-30T08:07:04.000Z</time>
      </trkpt>
      <trkpt lat="44.1933" lon="3.20852">
        <ele>405.79998779297</ele>
        <time>2024-01-30T08:07:05.000Z</time>
      </trkpt>
      <trkpt lat="44.19336" lon="3.20853">
        <ele>405.20001220703</ele>
        <time>2024-01-30T08:07:06.000Z</time>
      </trkpt>
      <trkpt lat="44.19351" lon="3.20849">
        <ele>404.79998779297</ele>
        <time>2024-01-30T08:07:08.000Z</time>
      </trkpt>
      <trkpt lat="44.19365" lon="3.20842">
        <ele>404.20001220703</ele>
        <time>2024-01-30T08:07:10.000Z</time>
      </trkpt>
      <trkpt lat="44.19396" lon="3.20823">
        <ele>403</ele>
        <time>2024-01-30T08:07:15.000Z</time>
      </trkpt>
      <trkpt lat="44.19418" lon="3.20812">
        <ele>401.79998779297</ele>
        <time>2024-01-30T08:07:19.000Z</time>
      </trkpt>
      <trkpt lat="44.19422" lon="3.20809">
        <ele>401.60000610352</ele>
        <time>2024-01-30T08:07:20.000Z</time>
      </trkpt>
      <trkpt lat="44.19445" lon="3.20802">
        <ele>400.79998779297</ele>
        <time>2024-01-30T08:07:26.000Z</time>
      </trkpt>
      <trkpt lat="44.19449" lon="3.20803">
        <ele>400.60000610352</ele>
        <time>2024-01-30T08:07:27.000Z</time>
      </trkpt>
      <trkpt lat="44.19463" lon="3.20811">
        <ele>399.79998779297</ele>
        <time>2024-01-30T08:07:31.000Z</time>
      </trkpt>
      <trkpt lat="44.19465" lon="3.20815">
        <ele>399.79998779297</ele>
        <time>2024-01-30T08:07:32.000Z</time>
      </trkpt>
      <trkpt lat="44.19468" lon="3.20828">
        <ele>399.79998779297</ele>
        <time>2024-01-30T08:07:34.000Z</time>
      </trkpt>
      <trkpt lat="44.19469" lon="3.20837">
        <ele>399.60000610352</ele>
        <time>2024-01-30T08:07:35.000Z</time>
      </trkpt>
      <trkpt lat="44.19474" lon="3.20862">
        <ele>399.39999389648</ele>
        <time>2024-01-30T08:07:38.000Z</time>
      </trkpt>
      <trkpt lat="44.19476" lon="3.20876">
        <ele>399.20001220703</ele>
        <time>2024-01-30T08:07:40.000Z</time>
      </trkpt>
      <trkpt lat="44.19483" lon="3.20913">
        <ele>398.39999389648</ele>
        <time>2024-01-30T08:07:46.000Z</time>
      </trkpt>
      <trkpt lat="44.19486" lon="3.20924">
        <ele>398.20001220703</ele>
        <time>2024-01-30T08:07:48.000Z</time>
      </trkpt>
      <trkpt lat="44.19492" lon="3.20948">
        <ele>398.20001220703</ele>
        <time>2024-01-30T08:07:52.000Z</time>
      </trkpt>
      <trkpt lat="44.19507" lon="3.20997">
        <ele>397.79998779297</ele>
        <time>2024-01-30T08:07:59.000Z</time>
      </trkpt>
      <trkpt lat="44.19532" lon="3.21074">
        <ele>398</ele>
        <time>2024-01-30T08:08:09.000Z</time>
      </trkpt>
      <trkpt lat="44.19536" lon="3.21083">
        <ele>398.20001220703</ele>
        <time>2024-01-30T08:08:10.000Z</time>
      </trkpt>
      <trkpt lat="44.19547" lon="3.21101">
        <ele>398.39999389648</ele>
        <time>2024-01-30T08:08:12.000Z</time>
      </trkpt>
      <trkpt lat="44.1958" lon="3.21145">
        <ele>398.20001220703</ele>
        <time>2024-01-30T08:08:16.000Z</time>
      </trkpt>
      <trkpt lat="44.19597" lon="3.21165">
        <ele>398</ele>
        <time>2024-01-30T08:08:18.000Z</time>
      </trkpt>
      <trkpt lat="44.19615" lon="3.21179">
        <ele>398</ele>
        <time>2024-01-30T08:08:20.000Z</time>
      </trkpt>
      <trkpt lat="44.19658" lon="3.21193">
        <ele>398.20001220703</ele>
        <time>2024-01-30T08:08:24.000Z</time>
      </trkpt>
      <trkpt lat="44.19692" lon="3.21211">
        <ele>398.79998779297</ele>
        <time>2024-01-30T08:08:27.000Z</time>
      </trkpt>
      <trkpt lat="44.19703" lon="3.21219">
        <ele>399.20001220703</ele>
        <time>2024-01-30T08:08:28.000Z</time>
      </trkpt>
      <trkpt lat="44.19714" lon="3.21228">
        <ele>399.60000610352</ele>
        <time>2024-01-30T08:08:29.000Z</time>
      </trkpt>
      <trkpt lat="44.19748" lon="3.21264">
        <ele>400.60000610352</ele>
        <time>2024-01-30T08:08:32.000Z</time>
      </trkpt>
      <trkpt lat="44.19761" lon="3.21278">
        <ele>401.39999389648</ele>
        <time>2024-01-30T08:08:33.000Z</time>
      </trkpt>
      <trkpt lat="44.19787" lon="3.21302">
        <ele>402</ele>
        <time>2024-01-30T08:08:35.000Z</time>
      </trkpt>
      <trkpt lat="44.19818" lon="3.21324">
        <ele>403</ele>
        <time>2024-01-30T08:08:37.000Z</time>
      </trkpt>
      <trkpt lat="44.19851" lon="3.21346">
        <ele>403.60000610352</ele>
        <time>2024-01-30T08:08:39.000Z</time>
      </trkpt>
      <trkpt lat="44.19885" lon="3.21368">
        <ele>404</ele>
        <time>2024-01-30T08:08:41.000Z</time>
      </trkpt>
      <trkpt lat="44.19933" lon="3.21395">
        <ele>404</ele>
        <time>2024-01-30T08:08:44.000Z</time>
      </trkpt>
      <trkpt lat="44.19982" lon="3.21408">
        <ele>403.79998779297</ele>
        <time>2024-01-30T08:08:47.000Z</time>
      </trkpt>
      <trkpt lat="44.20044" lon="3.21415">
        <ele>403.60000610352</ele>
        <time>2024-01-30T08:08:51.000Z</time>
      </trkpt>
      <trkpt lat="44.201" lon="3.2142">
        <ele>403.79998779297</ele>
        <time>2024-01-30T08:08:55.000Z</time>
      </trkpt>
      <trkpt lat="44.20154" lon="3.21441">
        <ele>404</ele>
        <time>2024-01-30T08:08:59.000Z</time>
      </trkpt>
      <trkpt lat="44.20209" lon="3.21474">
        <ele>404.79998779297</ele>
        <time>2024-01-30T08:09:03.000Z</time>
      </trkpt>
      <trkpt lat="44.20223" lon="3.21486">
        <ele>405.20001220703</ele>
        <time>2024-01-30T08:09:04.000Z</time>
      </trkpt>
      <trkpt lat="44.2025" lon="3.21515">
        <ele>405.60000610352</ele>
        <time>2024-01-30T08:09:06.000Z</time>
      </trkpt>
      <trkpt lat="44.20304" lon="3.2158">
        <ele>406</ele>
        <time>2024-01-30T08:09:10.000Z</time>
      </trkpt>
      <trkpt lat="44.20316" lon="3.21599">
        <ele>406</ele>
        <time>2024-01-30T08:09:11.000Z</time>
      </trkpt>
      <trkpt lat="44.20325" lon="3.21614">
        <ele>406.20001220703</ele>
        <time>2024-01-30T08:09:12.000Z</time>
      </trkpt>
      <trkpt lat="44.20347" lon="3.2166">
        <ele>406.20001220703</ele>
        <time>2024-01-30T08:09:14.000Z</time>
      </trkpt>
      <trkpt lat="44.20368" lon="3.21699">
        <ele>406.60000610352</ele>
        <time>2024-01-30T08:09:16.000Z</time>
      </trkpt>
      <trkpt lat="44.2038" lon="3.21717">
        <ele>406.39999389648</ele>
        <time>2024-01-30T08:09:17.000Z</time>
      </trkpt>
      <trkpt lat="44.20415" lon="3.21771">
        <ele>406.39999389648</ele>
        <time>2024-01-30T08:09:20.000Z</time>
      </trkpt>
      <trkpt lat="44.20429" lon="3.21786">
        <ele>406.60000610352</ele>
        <time>2024-01-30T08:09:21.000Z</time>
      </trkpt>
      <trkpt lat="44.20486" lon="3.21844">
        <ele>407</ele>
        <time>2024-01-30T08:09:25.000Z</time>
      </trkpt>
      <trkpt lat="44.20498" lon="3.2186">
        <ele>407</ele>
        <time>2024-01-30T08:09:26.000Z</time>
      </trkpt>
      <trkpt lat="44.20521" lon="3.21891">
        <ele>407.20001220703</ele>
        <time>2024-01-30T08:09:28.000Z</time>
      </trkpt>
      <trkpt lat="44.20531" lon="3.21901">
        <ele>407.20001220703</ele>
        <time>2024-01-30T08:09:29.000Z</time>
      </trkpt>
      <trkpt lat="44.20545" lon="3.21912">
        <ele>407.20001220703</ele>
        <time>2024-01-30T08:09:30.000Z</time>
      </trkpt>
      <trkpt lat="44.20572" lon="3.21924">
        <ele>407.60000610352</ele>
        <time>2024-01-30T08:09:32.000Z</time>
      </trkpt>
      <trkpt lat="44.20614" lon="3.21922">
        <ele>408.39999389648</ele>
        <time>2024-01-30T08:09:35.000Z</time>
      </trkpt>
      <trkpt lat="44.20637" lon="3.21933">
        <ele>409</ele>
        <time>2024-01-30T08:09:37.000Z</time>
      </trkpt>
      <trkpt lat="44.2066" lon="3.21955">
        <ele>410</ele>
        <time>2024-01-30T08:09:39.000Z</time>
      </trkpt>
      <trkpt lat="44.20676" lon="3.21966">
        <ele>410.39999389648</ele>
        <time>2024-01-30T08:09:40.000Z</time>
      </trkpt>
      <trkpt lat="44.2069" lon="3.21972">
        <ele>411</ele>
        <time>2024-01-30T08:09:41.000Z</time>
      </trkpt>
      <trkpt lat="44.20715" lon="3.21982">
        <ele>412.39999389648</ele>
        <time>2024-01-30T08:09:43.000Z</time>
      </trkpt>
      <trkpt lat="44.20729" lon="3.2199">
        <ele>412.79998779297</ele>
        <time>2024-01-30T08:09:44.000Z</time>
      </trkpt>
      <trkpt lat="44.20746" lon="3.21999">
        <ele>413.39999389648</ele>
        <time>2024-01-30T08:09:45.000Z</time>
      </trkpt>
      <trkpt lat="44.2077" lon="3.22014">
        <ele>414.39999389648</ele>
        <time>2024-01-30T08:09:47.000Z</time>
      </trkpt>
      <trkpt lat="44.20782" lon="3.22025">
        <ele>414.60000610352</ele>
        <time>2024-01-30T08:09:48.000Z</time>
      </trkpt>
      <trkpt lat="44.20791" lon="3.22039">
        <ele>415</ele>
        <time>2024-01-30T08:09:49.000Z</time>
      </trkpt>
      <trkpt lat="44.2081" lon="3.22066">
        <ele>415.60000610352</ele>
        <time>2024-01-30T08:09:51.000Z</time>
      </trkpt>
      <trkpt lat="44.20833" lon="3.22081">
        <ele>416.39999389648</ele>
        <time>2024-01-30T08:09:53.000Z</time>
      </trkpt>
      <trkpt lat="44.20849" lon="3.22087">
        <ele>417.39999389648</ele>
        <time>2024-01-30T08:09:54.000Z</time>
      </trkpt>
      <trkpt lat="44.20862" lon="3.22093">
        <ele>417.79998779297</ele>
        <time>2024-01-30T08:09:55.000Z</time>
      </trkpt>
      <trkpt lat="44.20887" lon="3.22112">
        <ele>418.79998779297</ele>
        <time>2024-01-30T08:09:57.000Z</time>
      </trkpt>
      <trkpt lat="44.2091" lon="3.22136">
        <ele>419.79998779297</ele>
        <time>2024-01-30T08:09:59.000Z</time>
      </trkpt>
      <trkpt lat="44.20934" lon="3.22158">
        <ele>420.39999389648</ele>
        <time>2024-01-30T08:10:01.000Z</time>
      </trkpt>
      <trkpt lat="44.2097" lon="3.22192">
        <ele>421</ele>
        <time>2024-01-30T08:10:04.000Z</time>
      </trkpt>
      <trkpt lat="44.20987" lon="3.22203">
        <ele>421</ele>
        <time>2024-01-30T08:10:05.000Z</time>
      </trkpt>
      <trkpt lat="44.2104" lon="3.22242">
        <ele>420.79998779297</ele>
        <time>2024-01-30T08:10:09.000Z</time>
      </trkpt>
      <trkpt lat="44.2105" lon="3.2225">
        <ele>420.79998779297</ele>
        <time>2024-01-30T08:10:10.000Z</time>
      </trkpt>
      <trkpt lat="44.21109" lon="3.22286">
        <ele>420.60000610352</ele>
        <time>2024-01-30T08:10:14.000Z</time>
      </trkpt>
      <trkpt lat="44.21166" lon="3.22328">
        <ele>420.20001220703</ele>
        <time>2024-01-30T08:10:18.000Z</time>
      </trkpt>
      <trkpt lat="44.21181" lon="3.22336">
        <ele>420</ele>
        <time>2024-01-30T08:10:19.000Z</time>
      </trkpt>
      <trkpt lat="44.21195" lon="3.22345">
        <ele>419.79998779297</ele>
        <time>2024-01-30T08:10:20.000Z</time>
      </trkpt>
      <trkpt lat="44.21222" lon="3.22365">
        <ele>419.60000610352</ele>
        <time>2024-01-30T08:10:22.000Z</time>
      </trkpt>
      <trkpt lat="44.21248" lon="3.22388">
        <ele>419.20001220703</ele>
        <time>2024-01-30T08:10:24.000Z</time>
      </trkpt>
      <trkpt lat="44.21262" lon="3.22397">
        <ele>418.79998779297</ele>
        <time>2024-01-30T08:10:25.000Z</time>
      </trkpt>
      <trkpt lat="44.21276" lon="3.22407">
        <ele>418.39999389648</ele>
        <time>2024-01-30T08:10:26.000Z</time>
      </trkpt>
      <trkpt lat="44.21304" lon="3.22424">
        <ele>418.20001220703</ele>
        <time>2024-01-30T08:10:28.000Z</time>
      </trkpt>
      <trkpt lat="44.21319" lon="3.22428">
        <ele>417.79998779297</ele>
        <time>2024-01-30T08:10:29.000Z</time>
      </trkpt>
      <trkpt lat="44.21335" lon="3.22429">
        <ele>417.79998779297</ele>
        <time>2024-01-30T08:10:30.000Z</time>
      </trkpt>
      <trkpt lat="44.21368" lon="3.2243">
        <ele>417.60000610352</ele>
        <time>2024-01-30T08:10:32.000Z</time>
      </trkpt>
      <trkpt lat="44.21435" lon="3.22435">
        <ele>416.79998779297</ele>
        <time>2024-01-30T08:10:36.000Z</time>
      </trkpt>
      <trkpt lat="44.21489" lon="3.22423">
        <ele>416.79998779297</ele>
        <time>2024-01-30T08:10:39.000Z</time>
      </trkpt>
      <trkpt lat="44.21554" lon="3.22391">
        <ele>418</ele>
        <time>2024-01-30T08:10:43.000Z</time>
      </trkpt>
      <trkpt lat="44.21571" lon="3.22384">
        <ele>418</ele>
        <time>2024-01-30T08:10:44.000Z</time>
      </trkpt>
      <trkpt lat="44.21637" lon="3.22351">
        <ele>418.79998779297</ele>
        <time>2024-01-30T08:10:48.000Z</time>
      </trkpt>
      <trkpt lat="44.21682" lon="3.22338">
        <ele>419.20001220703</ele>
        <time>2024-01-30T08:10:51.000Z</time>
      </trkpt>
      <trkpt lat="44.21834" lon="3.22263">
        <ele>419.39999389648</ele>
        <time>2024-01-30T08:11:02.000Z</time>
      </trkpt>
      <trkpt lat="44.21892" lon="3.2225">
        <ele>418.39999389648</ele>
        <time>2024-01-30T08:11:05.000Z</time>
      </trkpt>
      <trkpt lat="44.21911" lon="3.22247">
        <ele>418</ele>
        <time>2024-01-30T08:11:06.000Z</time>
      </trkpt>
      <trkpt lat="44.21967" lon="3.22228">
        <ele>417.79998779297</ele>
        <time>2024-01-30T08:11:09.000Z</time>
      </trkpt>
      <trkpt lat="44.21999" lon="3.22212">
        <ele>416.79998779297</ele>
        <time>2024-01-30T08:11:11.000Z</time>
      </trkpt>
      <trkpt lat="44.22013" lon="3.22209">
        <ele>416.60000610352</ele>
        <time>2024-01-30T08:11:12.000Z</time>
      </trkpt>
      <trkpt lat="44.22026" lon="3.22208">
        <ele>416.60000610352</ele>
        <time>2024-01-30T08:11:13.000Z</time>
      </trkpt>
      <trkpt lat="44.22037" lon="3.22215">
        <ele>416.60000610352</ele>
        <time>2024-01-30T08:11:14.000Z</time>
      </trkpt>
      <trkpt lat="44.22049" lon="3.22225">
        <ele>416.60000610352</ele>
        <time>2024-01-30T08:11:15.000Z</time>
      </trkpt>
      <trkpt lat="44.22092" lon="3.22259">
        <ele>416.79998779297</ele>
        <time>2024-01-30T08:11:18.000Z</time>
      </trkpt>
      <trkpt lat="44.22156" lon="3.22288">
        <ele>416.39999389648</ele>
        <time>2024-01-30T08:11:22.000Z</time>
      </trkpt>
      <trkpt lat="44.22219" lon="3.22336">
        <ele>416.60000610352</ele>
        <time>2024-01-30T08:11:26.000Z</time>
      </trkpt>
      <trkpt lat="44.22243" lon="3.22369">
        <ele>416.79998779297</ele>
        <time>2024-01-30T08:11:28.000Z</time>
      </trkpt>
      <trkpt lat="44.22254" lon="3.22387">
        <ele>417.79998779297</ele>
        <time>2024-01-30T08:11:29.000Z</time>
      </trkpt>
      <trkpt lat="44.22272" lon="3.22423">
        <ele>418.79998779297</ele>
        <time>2024-01-30T08:11:31.000Z</time>
      </trkpt>
      <trkpt lat="44.22307" lon="3.22483">
        <ele>420.39999389648</ele>
        <time>2024-01-30T08:11:34.000Z</time>
      </trkpt>
      <trkpt lat="44.22341" lon="3.22545">
        <ele>421.39999389648</ele>
        <time>2024-01-30T08:11:37.000Z</time>
      </trkpt>
      <trkpt lat="44.22351" lon="3.22567">
        <ele>421.79998779297</ele>
        <time>2024-01-30T08:11:38.000Z</time>
      </trkpt>
      <trkpt lat="44.22361" lon="3.22588">
        <ele>422.20001220703</ele>
        <time>2024-01-30T08:11:39.000Z</time>
      </trkpt>
      <trkpt lat="44.22379" lon="3.22638">
        <ele>422.79998779297</ele>
        <time>2024-01-30T08:11:41.000Z</time>
      </trkpt>
      <trkpt lat="44.22386" lon="3.22661">
        <ele>423</ele>
        <time>2024-01-30T08:11:42.000Z</time>
      </trkpt>
      <trkpt lat="44.22398" lon="3.22702">
        <ele>423.79998779297</ele>
        <time>2024-01-30T08:11:44.000Z</time>
      </trkpt>
      <trkpt lat="44.22413" lon="3.22747">
        <ele>424.20001220703</ele>
        <time>2024-01-30T08:11:46.000Z</time>
      </trkpt>
      <trkpt lat="44.22446" lon="3.22795">
        <ele>425</ele>
        <time>2024-01-30T08:11:49.000Z</time>
      </trkpt>
      <trkpt lat="44.22486" lon="3.22832">
        <ele>426</ele>
        <time>2024-01-30T08:11:52.000Z</time>
      </trkpt>
      <trkpt lat="44.22498" lon="3.22846">
        <ele>426.20001220703</ele>
        <time>2024-01-30T08:11:53.000Z</time>
      </trkpt>
      <trkpt lat="44.22537" lon="3.2289">
        <ele>426.20001220703</ele>
        <time>2024-01-30T08:11:56.000Z</time>
      </trkpt>
      <trkpt lat="44.22586" lon="3.22918">
        <ele>425.39999389648</ele>
        <time>2024-01-30T08:11:59.000Z</time>
      </trkpt>
      <trkpt lat="44.22604" lon="3.22925">
        <ele>425</ele>
        <time>2024-01-30T08:12:00.000Z</time>
      </trkpt>
      <trkpt lat="44.22642" lon="3.22934">
        <ele>424.39999389648</ele>
        <time>2024-01-30T08:12:02.000Z</time>
      </trkpt>
      <trkpt lat="44.22662" lon="3.22935">
        <ele>424</ele>
        <time>2024-01-30T08:12:03.000Z</time>
      </trkpt>
      <trkpt lat="44.22702" lon="3.22935">
        <ele>423.39999389648</ele>
        <time>2024-01-30T08:12:05.000Z</time>
      </trkpt>
      <trkpt lat="44.22722" lon="3.22935">
        <ele>422.79998779297</ele>
        <time>2024-01-30T08:12:06.000Z</time>
      </trkpt>
      <trkpt lat="44.22742" lon="3.22935">
        <ele>422</ele>
        <time>2024-01-30T08:12:07.000Z</time>
      </trkpt>
      <trkpt lat="44.2278" lon="3.22939">
        <ele>421</ele>
        <time>2024-01-30T08:12:09.000Z</time>
      </trkpt>
      <trkpt lat="44.22835" lon="3.22965">
        <ele>420.20001220703</ele>
        <time>2024-01-30T08:12:12.000Z</time>
      </trkpt>
      <trkpt lat="44.22853" lon="3.22975">
        <ele>419.60000610352</ele>
        <time>2024-01-30T08:12:13.000Z</time>
      </trkpt>
      <trkpt lat="44.22889" lon="3.22991">
        <ele>418.20001220703</ele>
        <time>2024-01-30T08:12:15.000Z</time>
      </trkpt>
      <trkpt lat="44.22907" lon="3.22996">
        <ele>417.79998779297</ele>
        <time>2024-01-30T08:12:16.000Z</time>
      </trkpt>
      <trkpt lat="44.22943" lon="3.23">
        <ele>417</ele>
        <time>2024-01-30T08:12:18.000Z</time>
      </trkpt>
      <trkpt lat="44.22979" lon="3.23001">
        <ele>415.79998779297</ele>
        <time>2024-01-30T08:12:20.000Z</time>
      </trkpt>
      <trkpt lat="44.23015" lon="3.22999">
        <ele>414.39999389648</ele>
        <time>2024-01-30T08:12:22.000Z</time>
      </trkpt>
      <trkpt lat="44.23048" lon="3.22994">
        <ele>414</ele>
        <time>2024-01-30T08:12:24.000Z</time>
      </trkpt>
      <trkpt lat="44.2308" lon="3.22992">
        <ele>413.39999389648</ele>
        <time>2024-01-30T08:12:26.000Z</time>
      </trkpt>
      <trkpt lat="44.2311" lon="3.22993">
        <ele>413.20001220703</ele>
        <time>2024-01-30T08:12:28.000Z</time>
      </trkpt>
      <trkpt lat="44.23171" lon="3.22997">
        <ele>413.60000610352</ele>
        <time>2024-01-30T08:12:32.000Z</time>
      </trkpt>
      <trkpt lat="44.23202" lon="3.23001">
        <ele>413.79998779297</ele>
        <time>2024-01-30T08:12:34.000Z</time>
      </trkpt>
      <trkpt lat="44.23264" lon="3.23009">
        <ele>414.20001220703</ele>
        <time>2024-01-30T08:12:38.000Z</time>
      </trkpt>
      <trkpt lat="44.23308" lon="3.23012">
        <ele>414.39999389648</ele>
        <time>2024-01-30T08:12:41.000Z</time>
      </trkpt>
      <trkpt lat="44.23322" lon="3.23014">
        <ele>414.39999389648</ele>
        <time>2024-01-30T08:12:42.000Z</time>
      </trkpt>
      <trkpt lat="44.23336" lon="3.23018">
        <ele>414.39999389648</ele>
        <time>2024-01-30T08:12:43.000Z</time>
      </trkpt>
      <trkpt lat="44.23361" lon="3.2303">
        <ele>414.60000610352</ele>
        <time>2024-01-30T08:12:45.000Z</time>
      </trkpt>
      <trkpt lat="44.23412" lon="3.23051">
        <ele>415.20001220703</ele>
        <time>2024-01-30T08:12:49.000Z</time>
      </trkpt>
      <trkpt lat="44.23424" lon="3.23052">
        <ele>415.79998779297</ele>
        <time>2024-01-30T08:12:50.000Z</time>
      </trkpt>
      <trkpt lat="44.23449" lon="3.2305">
        <ele>416.20001220703</ele>
        <time>2024-01-30T08:12:52.000Z</time>
      </trkpt>
      <trkpt lat="44.23485" lon="3.23032">
        <ele>416.79998779297</ele>
        <time>2024-01-30T08:12:55.000Z</time>
      </trkpt>
      <trkpt lat="44.23497" lon="3.23027">
        <ele>417</ele>
        <time>2024-01-30T08:12:56.000Z</time>
      </trkpt>
      <trkpt lat="44.2356" lon="3.23013">
        <ele>418</ele>
        <time>2024-01-30T08:13:01.000Z</time>
      </trkpt>
      <trkpt lat="44.23585" lon="3.23014">
        <ele>418.20001220703</ele>
        <time>2024-01-30T08:13:03.000Z</time>
      </trkpt>
      <trkpt lat="44.23609" lon="3.23021">
        <ele>419.20001220703</ele>
        <time>2024-01-30T08:13:05.000Z</time>
      </trkpt>
      <trkpt lat="44.23633" lon="3.23032">
        <ele>420</ele>
        <time>2024-01-30T08:13:07.000Z</time>
      </trkpt>
      <trkpt lat="44.23646" lon="3.23035">
        <ele>420.20001220703</ele>
        <time>2024-01-30T08:13:08.000Z</time>
      </trkpt>
      <trkpt lat="44.2366" lon="3.23037">
        <ele>420.79998779297</ele>
        <time>2024-01-30T08:13:09.000Z</time>
      </trkpt>
      <trkpt lat="44.23675" lon="3.23039">
        <ele>421.39999389648</ele>
        <time>2024-01-30T08:13:10.000Z</time>
      </trkpt>
      <trkpt lat="44.23704" lon="3.23045">
        <ele>422.39999389648</ele>
        <time>2024-01-30T08:13:12.000Z</time>
      </trkpt>
      <trkpt lat="44.23719" lon="3.23046">
        <ele>422.79998779297</ele>
        <time>2024-01-30T08:13:13.000Z</time>
      </trkpt>
      <trkpt lat="44.23734" lon="3.23044">
        <ele>423.20001220703</ele>
        <time>2024-01-30T08:13:14.000Z</time>
      </trkpt>
      <trkpt lat="44.23763" lon="3.23039">
        <ele>423.79998779297</ele>
        <time>2024-01-30T08:13:16.000Z</time>
      </trkpt>
      <trkpt lat="44.23775" lon="3.23038">
        <ele>424.39999389648</ele>
        <time>2024-01-30T08:13:17.000Z</time>
      </trkpt>
      <trkpt lat="44.23786" lon="3.2304">
        <ele>424.79998779297</ele>
        <time>2024-01-30T08:13:18.000Z</time>
      </trkpt>
      <trkpt lat="44.23796" lon="3.23046">
        <ele>425.20001220703</ele>
        <time>2024-01-30T08:13:19.000Z</time>
      </trkpt>
      <trkpt lat="44.23818" lon="3.23057">
        <ele>425.79998779297</ele>
        <time>2024-01-30T08:13:21.000Z</time>
      </trkpt>
      <trkpt lat="44.23828" lon="3.2306">
        <ele>426</ele>
        <time>2024-01-30T08:13:22.000Z</time>
      </trkpt>
      <trkpt lat="44.23859" lon="3.23066">
        <ele>427</ele>
        <time>2024-01-30T08:13:24.000Z</time>
      </trkpt>
      <trkpt lat="44.23888" lon="3.23069">
        <ele>427</ele>
        <time>2024-01-30T08:13:26.000Z</time>
      </trkpt>
      <trkpt lat="44.23903" lon="3.23068">
        <ele>427</ele>
        <time>2024-01-30T08:13:27.000Z</time>
      </trkpt>
      <trkpt lat="44.23945" lon="3.23069">
        <ele>426</ele>
        <time>2024-01-30T08:13:30.000Z</time>
      </trkpt>
      <trkpt lat="44.2396" lon="3.2307">
        <ele>425.79998779297</ele>
        <time>2024-01-30T08:13:31.000Z</time>
      </trkpt>
      <trkpt lat="44.2399" lon="3.2307">
        <ele>425.20001220703</ele>
        <time>2024-01-30T08:13:33.000Z</time>
      </trkpt>
      <trkpt lat="44.24006" lon="3.23069">
        <ele>424.39999389648</ele>
        <time>2024-01-30T08:13:34.000Z</time>
      </trkpt>
      <trkpt lat="44.24021" lon="3.2307">
        <ele>424.39999389648</ele>
        <time>2024-01-30T08:13:35.000Z</time>
      </trkpt>
      <trkpt lat="44.24035" lon="3.23073">
        <ele>423.79998779297</ele>
        <time>2024-01-30T08:13:36.000Z</time>
      </trkpt>
      <trkpt lat="44.24047" lon="3.23078">
        <ele>423.20001220703</ele>
        <time>2024-01-30T08:13:37.000Z</time>
      </trkpt>
      <trkpt lat="44.24059" lon="3.23081">
        <ele>423.20001220703</ele>
        <time>2024-01-30T08:13:38.000Z</time>
      </trkpt>
      <trkpt lat="44.24072" lon="3.23083">
        <ele>423</ele>
        <time>2024-01-30T08:13:39.000Z</time>
      </trkpt>
      <trkpt lat="44.24128" lon="3.23096">
        <ele>423.20001220703</ele>
        <time>2024-01-30T08:13:43.000Z</time>
      </trkpt>
      <trkpt lat="44.24159" lon="3.23107">
        <ele>423.20001220703</ele>
        <time>2024-01-30T08:13:45.000Z</time>
      </trkpt>
      <trkpt lat="44.24188" lon="3.23114">
        <ele>423.20001220703</ele>
        <time>2024-01-30T08:13:47.000Z</time>
      </trkpt>
      <trkpt lat="44.24226" lon="3.23126">
        <ele>423.39999389648</ele>
        <time>2024-01-30T08:13:50.000Z</time>
      </trkpt>
      <trkpt lat="44.24237" lon="3.23133">
        <ele>423.60000610352</ele>
        <time>2024-01-30T08:13:51.000Z</time>
      </trkpt>
      <trkpt lat="44.24252" lon="3.23138">
        <ele>423.79998779297</ele>
        <time>2024-01-30T08:13:52.000Z</time>
      </trkpt>
      <trkpt lat="44.24266" lon="3.23139">
        <ele>424</ele>
        <time>2024-01-30T08:13:53.000Z</time>
      </trkpt>
      <trkpt lat="44.2428" lon="3.23138">
        <ele>424.20001220703</ele>
        <time>2024-01-30T08:13:54.000Z</time>
      </trkpt>
      <trkpt lat="44.24294" lon="3.23139">
        <ele>424.20001220703</ele>
        <time>2024-01-30T08:13:55.000Z</time>
      </trkpt>
      <trkpt lat="44.24309" lon="3.23143">
        <ele>424.39999389648</ele>
        <time>2024-01-30T08:13:56.000Z</time>
      </trkpt>
      <trkpt lat="44.24325" lon="3.2315">
        <ele>424.39999389648</ele>
        <time>2024-01-30T08:13:57.000Z</time>
      </trkpt>
      <trkpt lat="44.24355" lon="3.23172">
        <ele>425.20001220703</ele>
        <time>2024-01-30T08:13:59.000Z</time>
      </trkpt>
      <trkpt lat="44.24371" lon="3.23184">
        <ele>425.20001220703</ele>
        <time>2024-01-30T08:14:00.000Z</time>
      </trkpt>
      <trkpt lat="44.24417" lon="3.23216">
        <ele>425.20001220703</ele>
        <time>2024-01-30T08:14:03.000Z</time>
      </trkpt>
      <trkpt lat="44.24448" lon="3.23231">
        <ele>425.20001220703</ele>
        <time>2024-01-30T08:14:05.000Z</time>
      </trkpt>
      <trkpt lat="44.24464" lon="3.23236">
        <ele>425.20001220703</ele>
        <time>2024-01-30T08:14:06.000Z</time>
      </trkpt>
      <trkpt lat="44.24496" lon="3.23242">
        <ele>425.39999389648</ele>
        <time>2024-01-30T08:14:08.000Z</time>
      </trkpt>
      <trkpt lat="44.2451" lon="3.23243">
        <ele>425.60000610352</ele>
        <time>2024-01-30T08:14:09.000Z</time>
      </trkpt>
      <trkpt lat="44.24531" lon="3.23241">
        <ele>425.60000610352</ele>
        <time>2024-01-30T08:14:10.000Z</time>
      </trkpt>
      <trkpt lat="44.24566" lon="3.23232">
        <ele>426.20001220703</ele>
        <time>2024-01-30T08:14:12.000Z</time>
      </trkpt>
      <trkpt lat="44.24583" lon="3.23227">
        <ele>426.39999389648</ele>
        <time>2024-01-30T08:14:13.000Z</time>
      </trkpt>
      <trkpt lat="44.24638" lon="3.23212">
        <ele>427.20001220703</ele>
        <time>2024-01-30T08:14:16.000Z</time>
      </trkpt>
      <trkpt lat="44.24691" lon="3.23196">
        <ele>427.39999389648</ele>
        <time>2024-01-30T08:14:19.000Z</time>
      </trkpt>
      <trkpt lat="44.24744" lon="3.23185">
        <ele>427.20001220703</ele>
        <time>2024-01-30T08:14:22.000Z</time>
      </trkpt>
      <trkpt lat="44.24812" lon="3.23185">
        <ele>426.20001220703</ele>
        <time>2024-01-30T08:14:26.000Z</time>
      </trkpt>
      <trkpt lat="44.24829" lon="3.23188">
        <ele>426</ele>
        <time>2024-01-30T08:14:27.000Z</time>
      </trkpt>
      <trkpt lat="44.24898" lon="3.23203">
        <ele>425.60000610352</ele>
        <time>2024-01-30T08:14:31.000Z</time>
      </trkpt>
      <trkpt lat="44.24974" lon="3.23211">
        <ele>425.79998779297</ele>
        <time>2024-01-30T08:14:35.000Z</time>
      </trkpt>
      <trkpt lat="44.25034" lon="3.23217">
        <ele>426.39999389648</ele>
        <time>2024-01-30T08:14:38.000Z</time>
      </trkpt>
      <trkpt lat="44.25075" lon="3.2322">
        <ele>427</ele>
        <time>2024-01-30T08:14:40.000Z</time>
      </trkpt>
      <trkpt lat="44.25117" lon="3.23224">
        <ele>427.60000610352</ele>
        <time>2024-01-30T08:14:42.000Z</time>
      </trkpt>
      <trkpt lat="44.25177" lon="3.23228">
        <ele>427.60000610352</ele>
        <time>2024-01-30T08:14:45.000Z</time>
      </trkpt>
      <trkpt lat="44.25215" lon="3.23225">
        <ele>427.20001220703</ele>
        <time>2024-01-30T08:14:47.000Z</time>
      </trkpt>
      <trkpt lat="44.25231" lon="3.23218">
        <ele>426.60000610352</ele>
        <time>2024-01-30T08:14:48.000Z</time>
      </trkpt>
      <trkpt lat="44.25248" lon="3.2321">
        <ele>426.20001220703</ele>
        <time>2024-01-30T08:14:49.000Z</time>
      </trkpt>
      <trkpt lat="44.25297" lon="3.23189">
        <ele>425.79998779297</ele>
        <time>2024-01-30T08:14:52.000Z</time>
      </trkpt>
      <trkpt lat="44.25328" lon="3.23185">
        <ele>425.20001220703</ele>
        <time>2024-01-30T08:14:54.000Z</time>
      </trkpt>
      <trkpt lat="44.25361" lon="3.23177">
        <ele>425</ele>
        <time>2024-01-30T08:14:56.000Z</time>
      </trkpt>
      <trkpt lat="44.25378" lon="3.2317">
        <ele>424.60000610352</ele>
        <time>2024-01-30T08:14:57.000Z</time>
      </trkpt>
      <trkpt lat="44.2541" lon="3.23152">
        <ele>424.39999389648</ele>
        <time>2024-01-30T08:14:59.000Z</time>
      </trkpt>
      <trkpt lat="44.25444" lon="3.23134">
        <ele>424.20001220703</ele>
        <time>2024-01-30T08:15:01.000Z</time>
      </trkpt>
      <trkpt lat="44.25479" lon="3.23117">
        <ele>424</ele>
        <time>2024-01-30T08:15:03.000Z</time>
      </trkpt>
      <trkpt lat="44.25534" lon="3.23088">
        <ele>423.60000610352</ele>
        <time>2024-01-30T08:15:06.000Z</time>
      </trkpt>
      <trkpt lat="44.25572" lon="3.2307">
        <ele>423</ele>
        <time>2024-01-30T08:15:08.000Z</time>
      </trkpt>
      <trkpt lat="44.2563" lon="3.23051">
        <ele>422.39999389648</ele>
        <time>2024-01-30T08:15:11.000Z</time>
      </trkpt>
      <trkpt lat="44.25665" lon="3.23033">
        <ele>422.20001220703</ele>
        <time>2024-01-30T08:15:13.000Z</time>
      </trkpt>
      <trkpt lat="44.25729" lon="3.22979">
        <ele>422.79998779297</ele>
        <time>2024-01-30T08:15:17.000Z</time>
      </trkpt>
      <trkpt lat="44.2578" lon="3.22938">
        <ele>423.20001220703</ele>
        <time>2024-01-30T08:15:20.000Z</time>
      </trkpt>
      <trkpt lat="44.25815" lon="3.22911">
        <ele>423.60000610352</ele>
        <time>2024-01-30T08:15:22.000Z</time>
      </trkpt>
      <trkpt lat="44.25866" lon="3.22873">
        <ele>424</ele>
        <time>2024-01-30T08:15:25.000Z</time>
      </trkpt>
      <trkpt lat="44.25907" lon="3.22846">
        <ele>424.20001220703</ele>
        <time>2024-01-30T08:15:27.000Z</time>
      </trkpt>
      <trkpt lat="44.25961" lon="3.22811">
        <ele>424.20001220703</ele>
        <time>2024-01-30T08:15:30.000Z</time>
      </trkpt>
      <trkpt lat="44.25998" lon="3.22788">
        <ele>424.20001220703</ele>
        <time>2024-01-30T08:15:32.000Z</time>
      </trkpt>
      <trkpt lat="44.26062" lon="3.2275">
        <ele>424.39999389648</ele>
        <time>2024-01-30T08:15:36.000Z</time>
      </trkpt>
      <trkpt lat="44.26113" lon="3.22725">
        <ele>424.60000610352</ele>
        <time>2024-01-30T08:15:39.000Z</time>
      </trkpt>
      <trkpt lat="44.26148" lon="3.22706">
        <ele>424.79998779297</ele>
        <time>2024-01-30T08:15:41.000Z</time>
      </trkpt>
      <trkpt lat="44.26201" lon="3.22685">
        <ele>425</ele>
        <time>2024-01-30T08:15:44.000Z</time>
      </trkpt>
      <trkpt lat="44.26218" lon="3.2268">
        <ele>425</ele>
        <time>2024-01-30T08:15:45.000Z</time>
      </trkpt>
      <trkpt lat="44.26234" lon="3.22674">
        <ele>425.20001220703</ele>
        <time>2024-01-30T08:15:46.000Z</time>
      </trkpt>
      <trkpt lat="44.26267" lon="3.22655">
        <ele>425.60000610352</ele>
        <time>2024-01-30T08:15:48.000Z</time>
      </trkpt>
      <trkpt lat="44.26306" lon="3.22631">
        <ele>426.20001220703</ele>
        <time>2024-01-30T08:15:50.000Z</time>
      </trkpt>
      <trkpt lat="44.26356" lon="3.22603">
        <ele>426.60000610352</ele>
        <time>2024-01-30T08:15:53.000Z</time>
      </trkpt>
      <trkpt lat="44.26415" lon="3.22581">
        <ele>427.39999389648</ele>
        <time>2024-01-30T08:15:56.000Z</time>
      </trkpt>
      <trkpt lat="44.26453" lon="3.22571">
        <ele>427.79998779297</ele>
        <time>2024-01-30T08:15:58.000Z</time>
      </trkpt>
      <trkpt lat="44.26518" lon="3.22559">
        <ele>428.60000610352</ele>
        <time>2024-01-30T08:16:01.000Z</time>
      </trkpt>
      <trkpt lat="44.26538" lon="3.22557">
        <ele>429.39999389648</ele>
        <time>2024-01-30T08:16:02.000Z</time>
      </trkpt>
      <trkpt lat="44.26576" lon="3.22555">
        <ele>430</ele>
        <time>2024-01-30T08:16:04.000Z</time>
      </trkpt>
      <trkpt lat="44.26614" lon="3.22559">
        <ele>430.79998779297</ele>
        <time>2024-01-30T08:16:06.000Z</time>
      </trkpt>
      <trkpt lat="44.26633" lon="3.22564">
        <ele>431.20001220703</ele>
        <time>2024-01-30T08:16:07.000Z</time>
      </trkpt>
      <trkpt lat="44.2669" lon="3.22581">
        <ele>432</ele>
        <time>2024-01-30T08:16:10.000Z</time>
      </trkpt>
      <trkpt lat="44.2671" lon="3.22586">
        <ele>432.60000610352</ele>
        <time>2024-01-30T08:16:11.000Z</time>
      </trkpt>
      <trkpt lat="44.2677" lon="3.22594">
        <ele>433.79998779297</ele>
        <time>2024-01-30T08:16:14.000Z</time>
      </trkpt>
      <trkpt lat="44.26828" lon="3.22601">
        <ele>434.79998779297</ele>
        <time>2024-01-30T08:16:17.000Z</time>
      </trkpt>
      <trkpt lat="44.26847" lon="3.22603">
        <ele>435.39999389648</ele>
        <time>2024-01-30T08:16:18.000Z</time>
      </trkpt>
      <trkpt lat="44.26884" lon="3.22606">
        <ele>435.60000610352</ele>
        <time>2024-01-30T08:16:20.000Z</time>
      </trkpt>
      <trkpt lat="44.26941" lon="3.22611">
        <ele>435.79998779297</ele>
        <time>2024-01-30T08:16:23.000Z</time>
      </trkpt>
      <trkpt lat="44.26998" lon="3.22609">
        <ele>435.39999389648</ele>
        <time>2024-01-30T08:16:26.000Z</time>
      </trkpt>
      <trkpt lat="44.27013" lon="3.22606">
        <ele>435</ele>
        <time>2024-01-30T08:16:27.000Z</time>
      </trkpt>
      <trkpt lat="44.27068" lon="3.22595">
        <ele>434</ele>
        <time>2024-01-30T08:16:30.000Z</time>
      </trkpt>
      <trkpt lat="44.27085" lon="3.22593">
        <ele>433.60000610352</ele>
        <time>2024-01-30T08:16:31.000Z</time>
      </trkpt>
      <trkpt lat="44.27134" lon="3.2259">
        <ele>432.79998779297</ele>
        <time>2024-01-30T08:16:34.000Z</time>
      </trkpt>
      <trkpt lat="44.2715" lon="3.22589">
        <ele>432.60000610352</ele>
        <time>2024-01-30T08:16:35.000Z</time>
      </trkpt>
      <trkpt lat="44.27175" lon="3.22586">
        <ele>431</ele>
        <time>2024-01-30T08:16:37.000Z</time>
      </trkpt>
      <trkpt lat="44.27187" lon="3.22582">
        <ele>430.60000610352</ele>
        <time>2024-01-30T08:16:38.000Z</time>
      </trkpt>
      <trkpt lat="44.27197" lon="3.22575">
        <ele>430.20001220703</ele>
        <time>2024-01-30T08:16:39.000Z</time>
      </trkpt>
      <trkpt lat="44.27213" lon="3.22556">
        <ele>430.20001220703</ele>
        <time>2024-01-30T08:16:41.000Z</time>
      </trkpt>
      <trkpt lat="44.2722" lon="3.22548">
        <ele>430</ele>
        <time>2024-01-30T08:16:42.000Z</time>
      </trkpt>
      <trkpt lat="44.27228" lon="3.22545">
        <ele>430</ele>
        <time>2024-01-30T08:16:43.000Z</time>
      </trkpt>
      <trkpt lat="44.27234" lon="3.22546">
        <ele>429.79998779297</ele>
        <time>2024-01-30T08:16:44.000Z</time>
      </trkpt>
      <trkpt lat="44.27249" lon="3.22557">
        <ele>429.79998779297</ele>
        <time>2024-01-30T08:16:46.000Z</time>
      </trkpt>
      <trkpt lat="44.2726" lon="3.22565">
        <ele>429.79998779297</ele>
        <time>2024-01-30T08:16:47.000Z</time>
      </trkpt>
      <trkpt lat="44.27269" lon="3.22568">
        <ele>429.79998779297</ele>
        <time>2024-01-30T08:16:48.000Z</time>
      </trkpt>
      <trkpt lat="44.27293" lon="3.22571">
        <ele>430.20001220703</ele>
        <time>2024-01-30T08:16:50.000Z</time>
      </trkpt>
      <trkpt lat="44.27354" lon="3.22571">
        <ele>430.60000610352</ele>
        <time>2024-01-30T08:16:54.000Z</time>
      </trkpt>
      <trkpt lat="44.27425" lon="3.22567">
        <ele>429.79998779297</ele>
        <time>2024-01-30T08:16:58.000Z</time>
      </trkpt>
      <trkpt lat="44.27441" lon="3.22568">
        <ele>429.39999389648</ele>
        <time>2024-01-30T08:16:59.000Z</time>
      </trkpt>
      <trkpt lat="44.27472" lon="3.22573">
        <ele>428.79998779297</ele>
        <time>2024-01-30T08:17:01.000Z</time>
      </trkpt>
      <trkpt lat="44.27486" lon="3.22572">
        <ele>427.60000610352</ele>
        <time>2024-01-30T08:17:02.000Z</time>
      </trkpt>
      <trkpt lat="44.27524" lon="3.22569">
        <ele>426.79998779297</ele>
        <time>2024-01-30T08:17:05.000Z</time>
      </trkpt>
      <trkpt lat="44.27533" lon="3.22574">
        <ele>426.39999389648</ele>
        <time>2024-01-30T08:17:06.000Z</time>
      </trkpt>
      <trkpt lat="44.27551" lon="3.22586">
        <ele>426</ele>
        <time>2024-01-30T08:17:08.000Z</time>
      </trkpt>
      <trkpt lat="44.27571" lon="3.22593">
        <ele>425.39999389648</ele>
        <time>2024-01-30T08:17:10.000Z</time>
      </trkpt>
      <trkpt lat="44.27581" lon="3.22594">
        <ele>425.20001220703</ele>
        <time>2024-01-30T08:17:11.000Z</time>
      </trkpt>
      <trkpt lat="44.27621" lon="3.22609">
        <ele>424.60000610352</ele>
        <time>2024-01-30T08:17:15.000Z</time>
      </trkpt>
      <trkpt lat="44.2763" lon="3.22613">
        <ele>424.39999389648</ele>
        <time>2024-01-30T08:17:16.000Z</time>
      </trkpt>
      <trkpt lat="44.27638" lon="3.22615">
        <ele>424.20001220703</ele>
        <time>2024-01-30T08:17:17.000Z</time>
      </trkpt>
      <trkpt lat="44.27647" lon="3.22613">
        <ele>424</ele>
        <time>2024-01-30T08:17:18.000Z</time>
      </trkpt>
      <trkpt lat="44.27658" lon="3.22604">
        <ele>423.39999389648</ele>
        <time>2024-01-30T08:17:20.000Z</time>
      </trkpt>
      <trkpt lat="44.27667" lon="3.22594">
        <ele>423.39999389648</ele>
        <time>2024-01-30T08:17:22.000Z</time>
      </trkpt>
      <trkpt lat="44.27679" lon="3.22592">
        <ele>423.39999389648</ele>
        <time>2024-01-30T08:17:24.000Z</time>
      </trkpt>
      <trkpt lat="44.27686" lon="3.22603">
        <ele>423.60000610352</ele>
        <time>2024-01-30T08:17:26.000Z</time>
      </trkpt>
      <trkpt lat="44.27695" lon="3.22642">
        <ele>423.60000610352</ele>
        <time>2024-01-30T08:17:30.000Z</time>
      </trkpt>
      <trkpt lat="44.27704" lon="3.22662">
        <ele>423.20001220703</ele>
        <time>2024-01-30T08:17:32.000Z</time>
      </trkpt>
      <trkpt lat="44.2771" lon="3.2267">
        <ele>423.20001220703</ele>
        <time>2024-01-30T08:17:33.000Z</time>
      </trkpt>
      <trkpt lat="44.27727" lon="3.22694">
        <ele>423</ele>
        <time>2024-01-30T08:17:36.000Z</time>
      </trkpt>
      <trkpt lat="44.27732" lon="3.22703">
        <ele>422.79998779297</ele>
        <time>2024-01-30T08:17:37.000Z</time>
      </trkpt>
      <trkpt lat="44.27743" lon="3.22719">
        <ele>422.39999389648</ele>
        <time>2024-01-30T08:17:39.000Z</time>
      </trkpt>
      <trkpt lat="44.27769" lon="3.22745">
        <ele>422.20001220703</ele>
        <time>2024-01-30T08:17:44.000Z</time>
      </trkpt>
      <trkpt lat="44.27786" lon="3.22764">
        <ele>422</ele>
        <time>2024-01-30T08:17:47.000Z</time>
      </trkpt>
      <trkpt lat="44.278" lon="3.22775">
        <ele>422</ele>
        <time>2024-01-30T08:17:49.000Z</time>
      </trkpt>
      <trkpt lat="44.2784" lon="3.22808">
        <ele>423.20001220703</ele>
        <time>2024-01-30T08:17:54.000Z</time>
      </trkpt>
      <trkpt lat="44.27859" lon="3.2283">
        <ele>423.79998779297</ele>
        <time>2024-01-30T08:17:57.000Z</time>
      </trkpt>
      <trkpt lat="44.27866" lon="3.22836">
        <ele>424</ele>
        <time>2024-01-30T08:17:58.000Z</time>
      </trkpt>
      <trkpt lat="44.27872" lon="3.2284">
        <ele>424.20001220703</ele>
        <time>2024-01-30T08:17:59.000Z</time>
      </trkpt>
      <trkpt lat="44.27886" lon="3.22847">
        <ele>424.79998779297</ele>
        <time>2024-01-30T08:18:01.000Z</time>
      </trkpt>
      <trkpt lat="44.27903" lon="3.22858">
        <ele>425.20001220703</ele>
        <time>2024-01-30T08:18:03.000Z</time>
      </trkpt>
      <trkpt lat="44.27936" lon="3.22879">
        <ele>426.39999389648</ele>
        <time>2024-01-30T08:18:07.000Z</time>
      </trkpt>
      <trkpt lat="44.27953" lon="3.22889">
        <ele>426.60000610352</ele>
        <time>2024-01-30T08:18:09.000Z</time>
      </trkpt>
      <trkpt lat="44.2798" lon="3.22903">
        <ele>426.79998779297</ele>
        <time>2024-01-30T08:18:12.000Z</time>
      </trkpt>
      <trkpt lat="44.27989" lon="3.22905">
        <ele>427</ele>
        <time>2024-01-30T08:18:13.000Z</time>
      </trkpt>
      <trkpt lat="44.27999" lon="3.22904">
        <ele>427</ele>
        <time>2024-01-30T08:18:14.000Z</time>
      </trkpt>
      <trkpt lat="44.28028" lon="3.22897">
        <ele>427</ele>
        <time>2024-01-30T08:18:17.000Z</time>
      </trkpt>
      <trkpt lat="44.28047" lon="3.22893">
        <ele>427.20001220703</ele>
        <time>2024-01-30T08:18:19.000Z</time>
      </trkpt>
      <trkpt lat="44.28066" lon="3.22893">
        <ele>427.20001220703</ele>
        <time>2024-01-30T08:18:21.000Z</time>
      </trkpt>
      <trkpt lat="44.28084" lon="3.22902">
        <ele>427.20001220703</ele>
        <time>2024-01-30T08:18:23.000Z</time>
      </trkpt>
      <trkpt lat="44.28093" lon="3.22907">
        <ele>427.39999389648</ele>
        <time>2024-01-30T08:18:24.000Z</time>
      </trkpt>
      <trkpt lat="44.28101" lon="3.22916">
        <ele>427.60000610352</ele>
        <time>2024-01-30T08:18:25.000Z</time>
      </trkpt>
      <trkpt lat="44.28129" lon="3.22945">
        <ele>428</ele>
        <time>2024-01-30T08:18:28.000Z</time>
      </trkpt>
      <trkpt lat="44.28162" lon="3.22971">
        <ele>428</ele>
        <time>2024-01-30T08:18:31.000Z</time>
      </trkpt>
      <trkpt lat="44.28171" lon="3.22976">
        <ele>428</ele>
        <time>2024-01-30T08:18:32.000Z</time>
      </trkpt>
      <trkpt lat="44.28234" lon="3.23003">
        <ele>427.79998779297</ele>
        <time>2024-01-30T08:18:37.000Z</time>
      </trkpt>
      <trkpt lat="44.28284" lon="3.23015">
        <ele>427.60000610352</ele>
        <time>2024-01-30T08:18:41.000Z</time>
      </trkpt>
      <trkpt lat="44.28295" lon="3.23023">
        <ele>427.60000610352</ele>
        <time>2024-01-30T08:18:42.000Z</time>
      </trkpt>
      <trkpt lat="44.28304" lon="3.23035">
        <ele>427.60000610352</ele>
        <time>2024-01-30T08:18:43.000Z</time>
      </trkpt>
      <trkpt lat="44.28311" lon="3.2305">
        <ele>427.60000610352</ele>
        <time>2024-01-30T08:18:44.000Z</time>
      </trkpt>
      <trkpt lat="44.28332" lon="3.231">
        <ele>427.79998779297</ele>
        <time>2024-01-30T08:18:47.000Z</time>
      </trkpt>
      <trkpt lat="44.28342" lon="3.23116">
        <ele>427.79998779297</ele>
        <time>2024-01-30T08:18:48.000Z</time>
      </trkpt>
      <trkpt lat="44.28354" lon="3.2313">
        <ele>427.79998779297</ele>
        <time>2024-01-30T08:18:49.000Z</time>
      </trkpt>
      <trkpt lat="44.28382" lon="3.23151">
        <ele>428</ele>
        <time>2024-01-30T08:18:51.000Z</time>
      </trkpt>
      <trkpt lat="44.28442" lon="3.23193">
        <ele>428</ele>
        <time>2024-01-30T08:18:55.000Z</time>
      </trkpt>
      <trkpt lat="44.28498" lon="3.23243">
        <ele>427.79998779297</ele>
        <time>2024-01-30T08:18:59.000Z</time>
      </trkpt>
      <trkpt lat="44.28558" lon="3.23286">
        <ele>427.79998779297</ele>
        <time>2024-01-30T08:19:03.000Z</time>
      </trkpt>
      <trkpt lat="44.28573" lon="3.23297">
        <ele>427.79998779297</ele>
        <time>2024-01-30T08:19:04.000Z</time>
      </trkpt>
      <trkpt lat="44.28631" lon="3.23333">
        <ele>428.60000610352</ele>
        <time>2024-01-30T08:19:08.000Z</time>
      </trkpt>
      <trkpt lat="44.28647" lon="3.23347">
        <ele>429.20001220703</ele>
        <time>2024-01-30T08:19:09.000Z</time>
      </trkpt>
      <trkpt lat="44.28658" lon="3.23361">
        <ele>429.39999389648</ele>
        <time>2024-01-30T08:19:10.000Z</time>
      </trkpt>
      <trkpt lat="44.28667" lon="3.23376">
        <ele>429.79998779297</ele>
        <time>2024-01-30T08:19:11.000Z</time>
      </trkpt>
      <trkpt lat="44.28684" lon="3.23408">
        <ele>430.60000610352</ele>
        <time>2024-01-30T08:19:13.000Z</time>
      </trkpt>
      <trkpt lat="44.28692" lon="3.23423">
        <ele>430.79998779297</ele>
        <time>2024-01-30T08:19:14.000Z</time>
      </trkpt>
      <trkpt lat="44.28725" lon="3.23488">
        <ele>432.20001220703</ele>
        <time>2024-01-30T08:19:18.000Z</time>
      </trkpt>
      <trkpt lat="44.28743" lon="3.2352">
        <ele>433.39999389648</ele>
        <time>2024-01-30T08:19:20.000Z</time>
      </trkpt>
      <trkpt lat="44.28763" lon="3.23553">
        <ele>434.39999389648</ele>
        <time>2024-01-30T08:19:22.000Z</time>
      </trkpt>
      <trkpt lat="44.28783" lon="3.23583">
        <ele>435.60000610352</ele>
        <time>2024-01-30T08:19:24.000Z</time>
      </trkpt>
      <trkpt lat="44.288" lon="3.23611">
        <ele>435.79998779297</ele>
        <time>2024-01-30T08:19:26.000Z</time>
      </trkpt>
      <trkpt lat="44.28813" lon="3.23632">
        <ele>436</ele>
        <time>2024-01-30T08:19:28.000Z</time>
      </trkpt>
      <trkpt lat="44.28821" lon="3.23639">
        <ele>436.20001220703</ele>
        <time>2024-01-30T08:19:29.000Z</time>
      </trkpt>
      <trkpt lat="44.2883" lon="3.23644">
        <ele>436.39999389648</ele>
        <time>2024-01-30T08:19:30.000Z</time>
      </trkpt>
      <trkpt lat="44.28839" lon="3.23648">
        <ele>436.79998779297</ele>
        <time>2024-01-30T08:19:31.000Z</time>
      </trkpt>
      <trkpt lat="44.28848" lon="3.23652">
        <ele>437.79998779297</ele>
        <time>2024-01-30T08:19:32.000Z</time>
      </trkpt>
      <trkpt lat="44.28878" lon="3.23669">
        <ele>438.79998779297</ele>
        <time>2024-01-30T08:19:35.000Z</time>
      </trkpt>
      <trkpt lat="44.28889" lon="3.23676">
        <ele>439.39999389648</ele>
        <time>2024-01-30T08:19:36.000Z</time>
      </trkpt>
      <trkpt lat="44.289" lon="3.23684">
        <ele>440</ele>
        <time>2024-01-30T08:19:37.000Z</time>
      </trkpt>
      <trkpt lat="44.2891" lon="3.23693">
        <ele>440.20001220703</ele>
        <time>2024-01-30T08:19:38.000Z</time>
      </trkpt>
      <trkpt lat="44.28931" lon="3.23712">
        <ele>441.20001220703</ele>
        <time>2024-01-30T08:19:40.000Z</time>
      </trkpt>
      <trkpt lat="44.28966" lon="3.2374">
        <ele>442.60000610352</ele>
        <time>2024-01-30T08:19:43.000Z</time>
      </trkpt>
      <trkpt lat="44.28977" lon="3.23749">
        <ele>442.79998779297</ele>
        <time>2024-01-30T08:19:44.000Z</time>
      </trkpt>
      <trkpt lat="44.29007" lon="3.23777">
        <ele>443.60000610352</ele>
        <time>2024-01-30T08:19:47.000Z</time>
      </trkpt>
      <trkpt lat="44.29015" lon="3.23783">
        <ele>443.60000610352</ele>
        <time>2024-01-30T08:19:48.000Z</time>
      </trkpt>
      <trkpt lat="44.29024" lon="3.23785">
        <ele>443.79998779297</ele>
        <time>2024-01-30T08:19:49.000Z</time>
      </trkpt>
      <trkpt lat="44.2904" lon="3.23786">
        <ele>444.20001220703</ele>
        <time>2024-01-30T08:19:51.000Z</time>
      </trkpt>
      <trkpt lat="44.29047" lon="3.23785">
        <ele>444.79998779297</ele>
        <time>2024-01-30T08:19:52.000Z</time>
      </trkpt>
      <trkpt lat="44.29079" lon="3.23779">
        <ele>445.20001220703</ele>
        <time>2024-01-30T08:19:56.000Z</time>
      </trkpt>
      <trkpt lat="44.29092" lon="3.23773">
        <ele>445.20001220703</ele>
        <time>2024-01-30T08:19:58.000Z</time>
      </trkpt>
      <trkpt lat="44.29113" lon="3.23761">
        <ele>445.79998779297</ele>
        <time>2024-01-30T08:20:01.000Z</time>
      </trkpt>
      <trkpt lat="44.29121" lon="3.23756">
        <ele>446</ele>
        <time>2024-01-30T08:20:02.000Z</time>
      </trkpt>
      <trkpt lat="44.29138" lon="3.2375">
        <ele>446.39999389648</ele>
        <time>2024-01-30T08:20:04.000Z</time>
      </trkpt>
      <trkpt lat="44.29148" lon="3.23749">
        <ele>446.39999389648</ele>
        <time>2024-01-30T08:20:05.000Z</time>
      </trkpt>
      <trkpt lat="44.29158" lon="3.23749">
        <ele>446.79998779297</ele>
        <time>2024-01-30T08:20:06.000Z</time>
      </trkpt>
      <trkpt lat="44.29169" lon="3.23749">
        <ele>447</ele>
        <time>2024-01-30T08:20:07.000Z</time>
      </trkpt>
      <trkpt lat="44.29192" lon="3.23752">
        <ele>447.60000610352</ele>
        <time>2024-01-30T08:20:09.000Z</time>
      </trkpt>
      <trkpt lat="44.29216" lon="3.2375">
        <ele>448</ele>
        <time>2024-01-30T08:20:11.000Z</time>
      </trkpt>
      <trkpt lat="44.29228" lon="3.23747">
        <ele>448.20001220703</ele>
        <time>2024-01-30T08:20:12.000Z</time>
      </trkpt>
      <trkpt lat="44.29276" lon="3.23732">
        <ele>448.60000610352</ele>
        <time>2024-01-30T08:20:16.000Z</time>
      </trkpt>
      <trkpt lat="44.29286" lon="3.23724">
        <ele>448.79998779297</ele>
        <time>2024-01-30T08:20:17.000Z</time>
      </trkpt>
      <trkpt lat="44.29337" lon="3.23678">
        <ele>449</ele>
        <time>2024-01-30T08:20:22.000Z</time>
      </trkpt>
      <trkpt lat="44.29347" lon="3.2367">
        <ele>449.20001220703</ele>
        <time>2024-01-30T08:20:23.000Z</time>
      </trkpt>
      <trkpt lat="44.29368" lon="3.23661">
        <ele>449.20001220703</ele>
        <time>2024-01-30T08:20:25.000Z</time>
      </trkpt>
      <trkpt lat="44.29388" lon="3.23665">
        <ele>449.39999389648</ele>
        <time>2024-01-30T08:20:27.000Z</time>
      </trkpt>
      <trkpt lat="44.29398" lon="3.23672">
        <ele>449.39999389648</ele>
        <time>2024-01-30T08:20:28.000Z</time>
      </trkpt>
      <trkpt lat="44.29407" lon="3.23683">
        <ele>449.39999389648</ele>
        <time>2024-01-30T08:20:29.000Z</time>
      </trkpt>
      <trkpt lat="44.29425" lon="3.23708">
        <ele>450</ele>
        <time>2024-01-30T08:20:31.000Z</time>
      </trkpt>
      <trkpt lat="44.29436" lon="3.2372">
        <ele>450</ele>
        <time>2024-01-30T08:20:32.000Z</time>
      </trkpt>
      <trkpt lat="44.2946" lon="3.23737">
        <ele>450.20001220703</ele>
        <time>2024-01-30T08:20:34.000Z</time>
      </trkpt>
      <trkpt lat="44.29484" lon="3.23755">
        <ele>450.60000610352</ele>
        <time>2024-01-30T08:20:36.000Z</time>
      </trkpt>
      <trkpt lat="44.29495" lon="3.23767">
        <ele>451</ele>
        <time>2024-01-30T08:20:37.000Z</time>
      </trkpt>
      <trkpt lat="44.2952" lon="3.23791">
        <ele>451</ele>
        <time>2024-01-30T08:20:39.000Z</time>
      </trkpt>
      <trkpt lat="44.29535" lon="3.23802">
        <ele>451.39999389648</ele>
        <time>2024-01-30T08:20:40.000Z</time>
      </trkpt>
      <trkpt lat="44.29566" lon="3.2382">
        <ele>451.60000610352</ele>
        <time>2024-01-30T08:20:42.000Z</time>
      </trkpt>
      <trkpt lat="44.29599" lon="3.23832">
        <ele>451.79998779297</ele>
        <time>2024-01-30T08:20:44.000Z</time>
      </trkpt>
      <trkpt lat="44.29648" lon="3.23845">
        <ele>452</ele>
        <time>2024-01-30T08:20:47.000Z</time>
      </trkpt>
      <trkpt lat="44.29663" lon="3.23853">
        <ele>452.20001220703</ele>
        <time>2024-01-30T08:20:48.000Z</time>
      </trkpt>
      <trkpt lat="44.29691" lon="3.23864">
        <ele>452.20001220703</ele>
        <time>2024-01-30T08:20:50.000Z</time>
      </trkpt>
      <trkpt lat="44.29706" lon="3.23868">
        <ele>452.39999389648</ele>
        <time>2024-01-30T08:20:51.000Z</time>
      </trkpt>
      <trkpt lat="44.2972" lon="3.23868">
        <ele>452.60000610352</ele>
        <time>2024-01-30T08:20:52.000Z</time>
      </trkpt>
      <trkpt lat="44.29736" lon="3.23868">
        <ele>452.79998779297</ele>
        <time>2024-01-30T08:20:53.000Z</time>
      </trkpt>
      <trkpt lat="44.29755" lon="3.23866">
        <ele>452.79998779297</ele>
        <time>2024-01-30T08:20:54.000Z</time>
      </trkpt>
      <trkpt lat="44.29818" lon="3.2387">
        <ele>453.20001220703</ele>
        <time>2024-01-30T08:20:58.000Z</time>
      </trkpt>
      <trkpt lat="44.29886" lon="3.23871">
        <ele>454</ele>
        <time>2024-01-30T08:21:02.000Z</time>
      </trkpt>
      <trkpt lat="44.29957" lon="3.23868">
        <ele>454.39999389648</ele>
        <time>2024-01-30T08:21:06.000Z</time>
      </trkpt>
      <trkpt lat="44.29974" lon="3.23865">
        <ele>454.39999389648</ele>
        <time>2024-01-30T08:21:07.000Z</time>
      </trkpt>
      <trkpt lat="44.30023" lon="3.23853">
        <ele>454.60000610352</ele>
        <time>2024-01-30T08:21:10.000Z</time>
      </trkpt>
      <trkpt lat="44.3007" lon="3.23849">
        <ele>454.39999389648</ele>
        <time>2024-01-30T08:21:13.000Z</time>
      </trkpt>
      <trkpt lat="44.30085" lon="3.23844">
        <ele>454.39999389648</ele>
        <time>2024-01-30T08:21:14.000Z</time>
      </trkpt>
      <trkpt lat="44.30099" lon="3.23837">
        <ele>454.20001220703</ele>
        <time>2024-01-30T08:21:15.000Z</time>
      </trkpt>
      <trkpt lat="44.30124" lon="3.23817">
        <ele>454</ele>
        <time>2024-01-30T08:21:17.000Z</time>
      </trkpt>
      <trkpt lat="44.30136" lon="3.23808">
        <ele>454</ele>
        <time>2024-01-30T08:21:18.000Z</time>
      </trkpt>
      <trkpt lat="44.30159" lon="3.23799">
        <ele>453.79998779297</ele>
        <time>2024-01-30T08:21:20.000Z</time>
      </trkpt>
      <trkpt lat="44.30184" lon="3.23807">
        <ele>453.79998779297</ele>
        <time>2024-01-30T08:21:22.000Z</time>
      </trkpt>
      <trkpt lat="44.30198" lon="3.2381">
        <ele>453.60000610352</ele>
        <time>2024-01-30T08:21:23.000Z</time>
      </trkpt>
      <trkpt lat="44.30226" lon="3.23808">
        <ele>453.60000610352</ele>
        <time>2024-01-30T08:21:25.000Z</time>
      </trkpt>
      <trkpt lat="44.30268" lon="3.23803">
        <ele>453.60000610352</ele>
        <time>2024-01-30T08:21:28.000Z</time>
      </trkpt>
      <trkpt lat="44.30283" lon="3.23805">
        <ele>453.60000610352</ele>
        <time>2024-01-30T08:21:29.000Z</time>
      </trkpt>
      <trkpt lat="44.30294" lon="3.23808">
        <ele>453.60000610352</ele>
        <time>2024-01-30T08:21:30.000Z</time>
      </trkpt>
      <trkpt lat="44.30324" lon="3.23826">
        <ele>453.39999389648</ele>
        <time>2024-01-30T08:21:32.000Z</time>
      </trkpt>
      <trkpt lat="44.30345" lon="3.23849">
        <ele>453</ele>
        <time>2024-01-30T08:21:34.000Z</time>
      </trkpt>
      <trkpt lat="44.3037" lon="3.23881">
        <ele>452.79998779297</ele>
        <time>2024-01-30T08:21:36.000Z</time>
      </trkpt>
      <trkpt lat="44.30401" lon="3.23926">
        <ele>452.39999389648</ele>
        <time>2024-01-30T08:21:39.000Z</time>
      </trkpt>
      <trkpt lat="44.30409" lon="3.23943">
        <ele>452.20001220703</ele>
        <time>2024-01-30T08:21:40.000Z</time>
      </trkpt>
      <trkpt lat="44.30415" lon="3.23961">
        <ele>452.20001220703</ele>
        <time>2024-01-30T08:21:41.000Z</time>
      </trkpt>
      <trkpt lat="44.30424" lon="3.23999">
        <ele>452</ele>
        <time>2024-01-30T08:21:43.000Z</time>
      </trkpt>
      <trkpt lat="44.30426" lon="3.24019">
        <ele>452</ele>
        <time>2024-01-30T08:21:44.000Z</time>
      </trkpt>
      <trkpt lat="44.30426" lon="3.24058">
        <ele>451.79998779297</ele>
        <time>2024-01-30T08:21:46.000Z</time>
      </trkpt>
      <trkpt lat="44.30432" lon="3.24138">
        <ele>451.79998779297</ele>
        <time>2024-01-30T08:21:50.000Z</time>
      </trkpt>
      <trkpt lat="44.30434" lon="3.24228">
        <ele>451.39999389648</ele>
        <time>2024-01-30T08:21:54.000Z</time>
      </trkpt>
      <trkpt lat="44.30437" lon="3.24251">
        <ele>451.39999389648</ele>
        <time>2024-01-30T08:21:55.000Z</time>
      </trkpt>
      <trkpt lat="44.30457" lon="3.2434">
        <ele>451</ele>
        <time>2024-01-30T08:21:59.000Z</time>
      </trkpt>
      <trkpt lat="44.30462" lon="3.2436">
        <ele>450.60000610352</ele>
        <time>2024-01-30T08:22:00.000Z</time>
      </trkpt>
      <trkpt lat="44.30469" lon="3.24376">
        <ele>450.20001220703</ele>
        <time>2024-01-30T08:22:01.000Z</time>
      </trkpt>
      <trkpt lat="44.30478" lon="3.2439">
        <ele>450</ele>
        <time>2024-01-30T08:22:02.000Z</time>
      </trkpt>
      <trkpt lat="44.30488" lon="3.24402">
        <ele>450</ele>
        <time>2024-01-30T08:22:03.000Z</time>
      </trkpt>
      <trkpt lat="44.30501" lon="3.24412">
        <ele>450</ele>
        <time>2024-01-30T08:22:04.000Z</time>
      </trkpt>
      <trkpt lat="44.30551" lon="3.24451">
        <ele>450.20001220703</ele>
        <time>2024-01-30T08:22:08.000Z</time>
      </trkpt>
      <trkpt lat="44.30565" lon="3.24461">
        <ele>450.20001220703</ele>
        <time>2024-01-30T08:22:09.000Z</time>
      </trkpt>
      <trkpt lat="44.30622" lon="3.24498">
        <ele>450.39999389648</ele>
        <time>2024-01-30T08:22:13.000Z</time>
      </trkpt>
      <trkpt lat="44.30636" lon="3.24507">
        <ele>450.39999389648</ele>
        <time>2024-01-30T08:22:14.000Z</time>
      </trkpt>
      <trkpt lat="44.30692" lon="3.24547">
        <ele>450</ele>
        <time>2024-01-30T08:22:18.000Z</time>
      </trkpt>
      <trkpt lat="44.30716" lon="3.24573">
        <ele>449.60000610352</ele>
        <time>2024-01-30T08:22:20.000Z</time>
      </trkpt>
      <trkpt lat="44.30726" lon="3.24589">
        <ele>449.60000610352</ele>
        <time>2024-01-30T08:22:21.000Z</time>
      </trkpt>
      <trkpt lat="44.3074" lon="3.24623">
        <ele>449.39999389648</ele>
        <time>2024-01-30T08:22:23.000Z</time>
      </trkpt>
      <trkpt lat="44.30746" lon="3.24642">
        <ele>449.39999389648</ele>
        <time>2024-01-30T08:22:24.000Z</time>
      </trkpt>
      <trkpt lat="44.30758" lon="3.24674">
        <ele>449.20001220703</ele>
        <time>2024-01-30T08:22:26.000Z</time>
      </trkpt>
      <trkpt lat="44.30767" lon="3.24679">
        <ele>449.39999389648</ele>
        <time>2024-01-30T08:22:27.000Z</time>
      </trkpt>
      <trkpt lat="44.30775" lon="3.24715">
        <ele>449.39999389648</ele>
        <time>2024-01-30T08:22:29.000Z</time>
      </trkpt>
      <trkpt lat="44.30777" lon="3.24735">
        <ele>449.20001220703</ele>
        <time>2024-01-30T08:22:30.000Z</time>
      </trkpt>
      <trkpt lat="44.30784" lon="3.24774">
        <ele>449.20001220703</ele>
        <time>2024-01-30T08:22:32.000Z</time>
      </trkpt>
      <trkpt lat="44.30789" lon="3.24788">
        <ele>449</ele>
        <time>2024-01-30T08:22:33.000Z</time>
      </trkpt>
      <trkpt lat="44.30809" lon="3.24838">
        <ele>448.79998779297</ele>
        <time>2024-01-30T08:22:36.000Z</time>
      </trkpt>
      <trkpt lat="44.30823" lon="3.24866">
        <ele>448.39999389648</ele>
        <time>2024-01-30T08:22:38.000Z</time>
      </trkpt>
      <trkpt lat="44.30829" lon="3.2488">
        <ele>448.39999389648</ele>
        <time>2024-01-30T08:22:39.000Z</time>
      </trkpt>
      <trkpt lat="44.30832" lon="3.24894">
        <ele>448.20001220703</ele>
        <time>2024-01-30T08:22:40.000Z</time>
      </trkpt>
      <trkpt lat="44.30834" lon="3.24911">
        <ele>448</ele>
        <time>2024-01-30T08:22:41.000Z</time>
      </trkpt>
      <trkpt lat="44.30833" lon="3.24941">
        <ele>448</ele>
        <time>2024-01-30T08:22:43.000Z</time>
      </trkpt>
      <trkpt lat="44.3083" lon="3.25008">
        <ele>447.39999389648</ele>
        <time>2024-01-30T08:22:48.000Z</time>
      </trkpt>
      <trkpt lat="44.30824" lon="3.25083">
        <ele>447</ele>
        <time>2024-01-30T08:22:53.000Z</time>
      </trkpt>
      <trkpt lat="44.30822" lon="3.25096">
        <ele>447</ele>
        <time>2024-01-30T08:22:54.000Z</time>
      </trkpt>
      <trkpt lat="44.30818" lon="3.2511">
        <ele>447.20001220703</ele>
        <time>2024-01-30T08:22:55.000Z</time>
      </trkpt>
      <trkpt lat="44.30813" lon="3.25123">
        <ele>447.20001220703</ele>
        <time>2024-01-30T08:22:56.000Z</time>
      </trkpt>
      <trkpt lat="44.30802" lon="3.25153">
        <ele>447.60000610352</ele>
        <time>2024-01-30T08:22:58.000Z</time>
      </trkpt>
      <trkpt lat="44.30793" lon="3.25187">
        <ele>447.79998779297</ele>
        <time>2024-01-30T08:23:00.000Z</time>
      </trkpt>
      <trkpt lat="44.30789" lon="3.25204">
        <ele>447.79998779297</ele>
        <time>2024-01-30T08:23:01.000Z</time>
      </trkpt>
      <trkpt lat="44.30782" lon="3.25239">
        <ele>448</ele>
        <time>2024-01-30T08:23:03.000Z</time>
      </trkpt>
      <trkpt lat="44.30773" lon="3.25287">
        <ele>448.20001220703</ele>
        <time>2024-01-30T08:23:06.000Z</time>
      </trkpt>
      <trkpt lat="44.30763" lon="3.2533">
        <ele>448</ele>
        <time>2024-01-30T08:23:09.000Z</time>
      </trkpt>
      <trkpt lat="44.30745" lon="3.25351">
        <ele>447.79998779297</ele>
        <time>2024-01-30T08:23:11.000Z</time>
      </trkpt>
      <trkpt lat="44.30733" lon="3.2536">
        <ele>447.79998779297</ele>
        <time>2024-01-30T08:23:12.000Z</time>
      </trkpt>
      <trkpt lat="44.30677" lon="3.25411">
        <ele>448</ele>
        <time>2024-01-30T08:23:17.000Z</time>
      </trkpt>
      <trkpt lat="44.30647" lon="3.25446">
        <ele>447.79998779297</ele>
        <time>2024-01-30T08:23:20.000Z</time>
      </trkpt>
      <trkpt lat="44.30639" lon="3.25458">
        <ele>447.60000610352</ele>
        <time>2024-01-30T08:23:21.000Z</time>
      </trkpt>
      <trkpt lat="44.30608" lon="3.25505">
        <ele>446.39999389648</ele>
        <time>2024-01-30T08:23:25.000Z</time>
      </trkpt>
      <trkpt lat="44.30603" lon="3.25516">
        <ele>446.39999389648</ele>
        <time>2024-01-30T08:23:26.000Z</time>
      </trkpt>
      <trkpt lat="44.30588" lon="3.25559">
        <ele>445.79998779297</ele>
        <time>2024-01-30T08:23:29.000Z</time>
      </trkpt>
      <trkpt lat="44.3058" lon="3.25593">
        <ele>445</ele>
        <time>2024-01-30T08:23:31.000Z</time>
      </trkpt>
      <trkpt lat="44.30572" lon="3.25627">
        <ele>443.60000610352</ele>
        <time>2024-01-30T08:23:33.000Z</time>
      </trkpt>
      <trkpt lat="44.30565" lon="3.25661">
        <ele>442.39999389648</ele>
        <time>2024-01-30T08:23:35.000Z</time>
      </trkpt>
      <trkpt lat="44.30564" lon="3.2568">
        <ele>442.20001220703</ele>
        <time>2024-01-30T08:23:36.000Z</time>
      </trkpt>
      <trkpt lat="44.30562" lon="3.25698">
        <ele>441.79998779297</ele>
        <time>2024-01-30T08:23:37.000Z</time>
      </trkpt>
      <trkpt lat="44.30561" lon="3.25735">
        <ele>441.39999389648</ele>
        <time>2024-01-30T08:23:39.000Z</time>
      </trkpt>
      <trkpt lat="44.3056" lon="3.25785">
        <ele>440.79998779297</ele>
        <time>2024-01-30T08:23:42.000Z</time>
      </trkpt>
      <trkpt lat="44.30561" lon="3.25801">
        <ele>440.79998779297</ele>
        <time>2024-01-30T08:23:43.000Z</time>
      </trkpt>
      <trkpt lat="44.30567" lon="3.25832">
        <ele>440.39999389648</ele>
        <time>2024-01-30T08:23:45.000Z</time>
      </trkpt>
      <trkpt lat="44.30573" lon="3.25897">
        <ele>440.20001220703</ele>
        <time>2024-01-30T08:23:49.000Z</time>
      </trkpt>
      <trkpt lat="44.3057" lon="3.25929">
        <ele>440.39999389648</ele>
        <time>2024-01-30T08:23:51.000Z</time>
      </trkpt>
      <trkpt lat="44.30568" lon="3.25959">
        <ele>440.79998779297</ele>
        <time>2024-01-30T08:23:53.000Z</time>
      </trkpt>
      <trkpt lat="44.30568" lon="3.25994">
        <ele>441.20001220703</ele>
        <time>2024-01-30T08:23:55.000Z</time>
      </trkpt>
      <trkpt lat="44.30567" lon="3.26029">
        <ele>442</ele>
        <time>2024-01-30T08:23:57.000Z</time>
      </trkpt>
      <trkpt lat="44.30566" lon="3.26048">
        <ele>442.20001220703</ele>
        <time>2024-01-30T08:23:58.000Z</time>
      </trkpt>
      <trkpt lat="44.30565" lon="3.26086">
        <ele>443.79998779297</ele>
        <time>2024-01-30T08:24:00.000Z</time>
      </trkpt>
      <trkpt lat="44.30564" lon="3.26105">
        <ele>444.79998779297</ele>
        <time>2024-01-30T08:24:01.000Z</time>
      </trkpt>
      <trkpt lat="44.30563" lon="3.26124">
        <ele>445.39999389648</ele>
        <time>2024-01-30T08:24:02.000Z</time>
      </trkpt>
      <trkpt lat="44.30563" lon="3.26143">
        <ele>446.20001220703</ele>
        <time>2024-01-30T08:24:03.000Z</time>
      </trkpt>
      <trkpt lat="44.30558" lon="3.2618">
        <ele>447.39999389648</ele>
        <time>2024-01-30T08:24:05.000Z</time>
      </trkpt>
      <trkpt lat="44.30554" lon="3.26217">
        <ele>448.79998779297</ele>
        <time>2024-01-30T08:24:07.000Z</time>
      </trkpt>
      <trkpt lat="44.30548" lon="3.26269">
        <ele>450.20001220703</ele>
        <time>2024-01-30T08:24:10.000Z</time>
      </trkpt>
      <trkpt lat="44.30546" lon="3.26307">
        <ele>450.79998779297</ele>
        <time>2024-01-30T08:24:12.000Z</time>
      </trkpt>
      <trkpt lat="44.30547" lon="3.26331">
        <ele>451.20001220703</ele>
        <time>2024-01-30T08:24:13.000Z</time>
      </trkpt>
      <trkpt lat="44.30549" lon="3.2635">
        <ele>451.39999389648</ele>
        <time>2024-01-30T08:24:14.000Z</time>
      </trkpt>
      <trkpt lat="44.30552" lon="3.26365">
        <ele>451.60000610352</ele>
        <time>2024-01-30T08:24:15.000Z</time>
      </trkpt>
      <trkpt lat="44.30557" lon="3.26406">
        <ele>452.39999389648</ele>
        <time>2024-01-30T08:24:17.000Z</time>
      </trkpt>
      <trkpt lat="44.30559" lon="3.26424">
        <ele>453.39999389648</ele>
        <time>2024-01-30T08:24:18.000Z</time>
      </trkpt>
      <trkpt lat="44.30559" lon="3.26438">
        <ele>453.60000610352</ele>
        <time>2024-01-30T08:24:19.000Z</time>
      </trkpt>
      <trkpt lat="44.30558" lon="3.26459">
        <ele>454</ele>
        <time>2024-01-30T08:24:20.000Z</time>
      </trkpt>
      <trkpt lat="44.30552" lon="3.26489">
        <ele>454.39999389648</ele>
        <time>2024-01-30T08:24:22.000Z</time>
      </trkpt>
      <trkpt lat="44.30548" lon="3.26504">
        <ele>454.79998779297</ele>
        <time>2024-01-30T08:24:23.000Z</time>
      </trkpt>
      <trkpt lat="44.30539" lon="3.26532">
        <ele>455.39999389648</ele>
        <time>2024-01-30T08:24:25.000Z</time>
      </trkpt>
      <trkpt lat="44.30535" lon="3.26559">
        <ele>455.79998779297</ele>
        <time>2024-01-30T08:24:27.000Z</time>
      </trkpt>
      <trkpt lat="44.30537" lon="3.26571">
        <ele>456.20001220703</ele>
        <time>2024-01-30T08:24:28.000Z</time>
      </trkpt>
      <trkpt lat="44.30541" lon="3.26583">
        <ele>456.39999389648</ele>
        <time>2024-01-30T08:24:29.000Z</time>
      </trkpt>
      <trkpt lat="44.30549" lon="3.26608">
        <ele>457.79998779297</ele>
        <time>2024-01-30T08:24:31.000Z</time>
      </trkpt>
      <trkpt lat="44.30551" lon="3.26622">
        <ele>458</ele>
        <time>2024-01-30T08:24:32.000Z</time>
      </trkpt>
      <trkpt lat="44.30552" lon="3.26637">
        <ele>458</ele>
        <time>2024-01-30T08:24:33.000Z</time>
      </trkpt>
      <trkpt lat="44.3055" lon="3.26669">
        <ele>458.60000610352</ele>
        <time>2024-01-30T08:24:35.000Z</time>
      </trkpt>
      <trkpt lat="44.30548" lon="3.26686">
        <ele>458.79998779297</ele>
        <time>2024-01-30T08:24:36.000Z</time>
      </trkpt>
      <trkpt lat="44.30543" lon="3.26706">
        <ele>458.79998779297</ele>
        <time>2024-01-30T08:24:37.000Z</time>
      </trkpt>
      <trkpt lat="44.30538" lon="3.26724">
        <ele>458.79998779297</ele>
        <time>2024-01-30T08:24:38.000Z</time>
      </trkpt>
      <trkpt lat="44.30524" lon="3.26759">
        <ele>458.79998779297</ele>
        <time>2024-01-30T08:24:40.000Z</time>
      </trkpt>
      <trkpt lat="44.30514" lon="3.26776">
        <ele>459</ele>
        <time>2024-01-30T08:24:41.000Z</time>
      </trkpt>
      <trkpt lat="44.30504" lon="3.26792">
        <ele>459</ele>
        <time>2024-01-30T08:24:42.000Z</time>
      </trkpt>
      <trkpt lat="44.30482" lon="3.26818">
        <ele>459</ele>
        <time>2024-01-30T08:24:44.000Z</time>
      </trkpt>
      <trkpt lat="44.30423" lon="3.26868">
        <ele>458.39999389648</ele>
        <time>2024-01-30T08:24:48.000Z</time>
      </trkpt>
      <trkpt lat="44.30371" lon="3.26918">
        <ele>458</ele>
        <time>2024-01-30T08:24:52.000Z</time>
      </trkpt>
      <trkpt lat="44.30343" lon="3.26951">
        <ele>457.60000610352</ele>
        <time>2024-01-30T08:24:54.000Z</time>
      </trkpt>
      <trkpt lat="44.3032" lon="3.26984">
        <ele>457</ele>
        <time>2024-01-30T08:24:56.000Z</time>
      </trkpt>
      <trkpt lat="44.30311" lon="3.27002">
        <ele>456.79998779297</ele>
        <time>2024-01-30T08:24:57.000Z</time>
      </trkpt>
      <trkpt lat="44.30296" lon="3.2704">
        <ele>456.20001220703</ele>
        <time>2024-01-30T08:24:59.000Z</time>
      </trkpt>
      <trkpt lat="44.30292" lon="3.27076">
        <ele>455.39999389648</ele>
        <time>2024-01-30T08:25:01.000Z</time>
      </trkpt>
      <trkpt lat="44.30294" lon="3.27092">
        <ele>455</ele>
        <time>2024-01-30T08:25:02.000Z</time>
      </trkpt>
      <trkpt lat="44.30297" lon="3.27108">
        <ele>454.79998779297</ele>
        <time>2024-01-30T08:25:03.000Z</time>
      </trkpt>
      <trkpt lat="44.30298" lon="3.27122">
        <ele>454.60000610352</ele>
        <time>2024-01-30T08:25:04.000Z</time>
      </trkpt>
      <trkpt lat="44.30295" lon="3.27135">
        <ele>454.60000610352</ele>
        <time>2024-01-30T08:25:05.000Z</time>
      </trkpt>
      <trkpt lat="44.30289" lon="3.27145">
        <ele>454.60000610352</ele>
        <time>2024-01-30T08:25:06.000Z</time>
      </trkpt>
      <trkpt lat="44.3028" lon="3.27153">
        <ele>454.60000610352</ele>
        <time>2024-01-30T08:25:07.000Z</time>
      </trkpt>
      <trkpt lat="44.30271" lon="3.27163">
        <ele>454.79998779297</ele>
        <time>2024-01-30T08:25:08.000Z</time>
      </trkpt>
      <trkpt lat="44.30259" lon="3.27188">
        <ele>455</ele>
        <time>2024-01-30T08:25:10.000Z</time>
      </trkpt>
      <trkpt lat="44.30254" lon="3.27218">
        <ele>455.20001220703</ele>
        <time>2024-01-30T08:25:12.000Z</time>
      </trkpt>
      <trkpt lat="44.30258" lon="3.27233">
        <ele>456</ele>
        <time>2024-01-30T08:25:13.000Z</time>
      </trkpt>
      <trkpt lat="44.3026" lon="3.27244">
        <ele>456.20001220703</ele>
        <time>2024-01-30T08:25:14.000Z</time>
      </trkpt>
      <trkpt lat="44.3026" lon="3.27279">
        <ele>456.79998779297</ele>
        <time>2024-01-30T08:25:16.000Z</time>
      </trkpt>
      <trkpt lat="44.30258" lon="3.27291">
        <ele>457.20001220703</ele>
        <time>2024-01-30T08:25:17.000Z</time>
      </trkpt>
      <trkpt lat="44.30253" lon="3.27306">
        <ele>457.60000610352</ele>
        <time>2024-01-30T08:25:18.000Z</time>
      </trkpt>
      <trkpt lat="44.30244" lon="3.27321">
        <ele>457.79998779297</ele>
        <time>2024-01-30T08:25:19.000Z</time>
      </trkpt>
      <trkpt lat="44.30236" lon="3.27329">
        <ele>458</ele>
        <time>2024-01-30T08:25:20.000Z</time>
      </trkpt>
      <trkpt lat="44.30212" lon="3.27347">
        <ele>458.39999389648</ele>
        <time>2024-01-30T08:25:22.000Z</time>
      </trkpt>
      <trkpt lat="44.30182" lon="3.27373">
        <ele>459.39999389648</ele>
        <time>2024-01-30T08:25:25.000Z</time>
      </trkpt>
      <trkpt lat="44.30175" lon="3.27378">
        <ele>459.60000610352</ele>
        <time>2024-01-30T08:25:26.000Z</time>
      </trkpt>
      <trkpt lat="44.30163" lon="3.27384">
        <ele>459.79998779297</ele>
        <time>2024-01-30T08:25:27.000Z</time>
      </trkpt>
      <trkpt lat="44.30154" lon="3.27389">
        <ele>460</ele>
        <time>2024-01-30T08:25:28.000Z</time>
      </trkpt>
      <trkpt lat="44.3014" lon="3.27403">
        <ele>460.39999389648</ele>
        <time>2024-01-30T08:25:30.000Z</time>
      </trkpt>
      <trkpt lat="44.30133" lon="3.27411">
        <ele>461.39999389648</ele>
        <time>2024-01-30T08:25:31.000Z</time>
      </trkpt>
      <trkpt lat="44.30113" lon="3.27438">
        <ele>462.60000610352</ele>
        <time>2024-01-30T08:25:34.000Z</time>
      </trkpt>
      <trkpt lat="44.30096" lon="3.27471">
        <ele>463.79998779297</ele>
        <time>2024-01-30T08:25:37.000Z</time>
      </trkpt>
      <trkpt lat="44.30091" lon="3.27481">
        <ele>464</ele>
        <time>2024-01-30T08:25:38.000Z</time>
      </trkpt>
      <trkpt lat="44.30085" lon="3.27497">
        <ele>464.60000610352</ele>
        <time>2024-01-30T08:25:39.000Z</time>
      </trkpt>
      <trkpt lat="44.30075" lon="3.27527">
        <ele>465.79998779297</ele>
        <time>2024-01-30T08:25:41.000Z</time>
      </trkpt>
      <trkpt lat="44.30063" lon="3.27558">
        <ele>466.79998779297</ele>
        <time>2024-01-30T08:25:43.000Z</time>
      </trkpt>
      <trkpt lat="44.30044" lon="3.27604">
        <ele>468.20001220703</ele>
        <time>2024-01-30T08:25:46.000Z</time>
      </trkpt>
      <trkpt lat="44.30031" lon="3.27629">
        <ele>469.20001220703</ele>
        <time>2024-01-30T08:25:48.000Z</time>
      </trkpt>
      <trkpt lat="44.3002" lon="3.27643">
        <ele>469.79998779297</ele>
        <time>2024-01-30T08:25:49.000Z</time>
      </trkpt>
      <trkpt lat="44.30013" lon="3.27652">
        <ele>470.39999389648</ele>
        <time>2024-01-30T08:25:50.000Z</time>
      </trkpt>
      <trkpt lat="44.30002" lon="3.27662">
        <ele>471</ele>
        <time>2024-01-30T08:25:51.000Z</time>
      </trkpt>
      <trkpt lat="44.29992" lon="3.27672">
        <ele>471.39999389648</ele>
        <time>2024-01-30T08:25:52.000Z</time>
      </trkpt>
      <trkpt lat="44.29984" lon="3.27684">
        <ele>471.39999389648</ele>
        <time>2024-01-30T08:25:53.000Z</time>
      </trkpt>
      <trkpt lat="44.29978" lon="3.27697">
        <ele>472</ele>
        <time>2024-01-30T08:25:54.000Z</time>
      </trkpt>
      <trkpt lat="44.29973" lon="3.27712">
        <ele>472.20001220703</ele>
        <time>2024-01-30T08:25:55.000Z</time>
      </trkpt>
      <trkpt lat="44.29972" lon="3.27726">
        <ele>472.39999389648</ele>
        <time>2024-01-30T08:25:56.000Z</time>
      </trkpt>
      <trkpt lat="44.29977" lon="3.27752">
        <ele>472.79998779297</ele>
        <time>2024-01-30T08:25:58.000Z</time>
      </trkpt>
      <trkpt lat="44.2998" lon="3.27764">
        <ele>473.39999389648</ele>
        <time>2024-01-30T08:25:59.000Z</time>
      </trkpt>
      <trkpt lat="44.29979" lon="3.27788">
        <ele>474.20001220703</ele>
        <time>2024-01-30T08:26:01.000Z</time>
      </trkpt>
      <trkpt lat="44.29975" lon="3.27799">
        <ele>474.60000610352</ele>
        <time>2024-01-30T08:26:02.000Z</time>
      </trkpt>
      <trkpt lat="44.29968" lon="3.27812">
        <ele>474.79998779297</ele>
        <time>2024-01-30T08:26:03.000Z</time>
      </trkpt>
      <trkpt lat="44.29962" lon="3.27818">
        <ele>475</ele>
        <time>2024-01-30T08:26:04.000Z</time>
      </trkpt>
      <trkpt lat="44.29953" lon="3.27826">
        <ele>476</ele>
        <time>2024-01-30T08:26:05.000Z</time>
      </trkpt>
      <trkpt lat="44.29945" lon="3.27836">
        <ele>476.39999389648</ele>
        <time>2024-01-30T08:26:06.000Z</time>
      </trkpt>
      <trkpt lat="44.29937" lon="3.27851">
        <ele>477.20001220703</ele>
        <time>2024-01-30T08:26:07.000Z</time>
      </trkpt>
      <trkpt lat="44.29934" lon="3.27864">
        <ele>477.60000610352</ele>
        <time>2024-01-30T08:26:08.000Z</time>
      </trkpt>
      <trkpt lat="44.29932" lon="3.27881">
        <ele>478.60000610352</ele>
        <time>2024-01-30T08:26:09.000Z</time>
      </trkpt>
      <trkpt lat="44.29931" lon="3.27898">
        <ele>479</ele>
        <time>2024-01-30T08:26:10.000Z</time>
      </trkpt>
      <trkpt lat="44.29929" lon="3.27915">
        <ele>479.39999389648</ele>
        <time>2024-01-30T08:26:11.000Z</time>
      </trkpt>
      <trkpt lat="44.29925" lon="3.27931">
        <ele>480</ele>
        <time>2024-01-30T08:26:12.000Z</time>
      </trkpt>
      <trkpt lat="44.29919" lon="3.27945">
        <ele>480.60000610352</ele>
        <time>2024-01-30T08:26:13.000Z</time>
      </trkpt>
      <trkpt lat="44.29911" lon="3.27958">
        <ele>481</ele>
        <time>2024-01-30T08:26:14.000Z</time>
      </trkpt>
      <trkpt lat="44.29891" lon="3.27985">
        <ele>482.20001220703</ele>
        <time>2024-01-30T08:26:16.000Z</time>
      </trkpt>
      <trkpt lat="44.29874" lon="3.28013">
        <ele>483.20001220703</ele>
        <time>2024-01-30T08:26:18.000Z</time>
      </trkpt>
      <trkpt lat="44.2986" lon="3.28037">
        <ele>484.20001220703</ele>
        <time>2024-01-30T08:26:20.000Z</time>
      </trkpt>
      <trkpt lat="44.29854" lon="3.28052">
        <ele>484.39999389648</ele>
        <time>2024-01-30T08:26:21.000Z</time>
      </trkpt>
      <trkpt lat="44.29851" lon="3.28067">
        <ele>484.79998779297</ele>
        <time>2024-01-30T08:26:22.000Z</time>
      </trkpt>
      <trkpt lat="44.29847" lon="3.28097">
        <ele>485.39999389648</ele>
        <time>2024-01-30T08:26:24.000Z</time>
      </trkpt>
      <trkpt lat="44.29846" lon="3.2811">
        <ele>485.60000610352</ele>
        <time>2024-01-30T08:26:25.000Z</time>
      </trkpt>
      <trkpt lat="44.29837" lon="3.28135">
        <ele>486.60000610352</ele>
        <time>2024-01-30T08:26:27.000Z</time>
      </trkpt>
      <trkpt lat="44.29824" lon="3.28149">
        <ele>487.39999389648</ele>
        <time>2024-01-30T08:26:29.000Z</time>
      </trkpt>
      <trkpt lat="44.29813" lon="3.28152">
        <ele>487.60000610352</ele>
        <time>2024-01-30T08:26:30.000Z</time>
      </trkpt>
      <trkpt lat="44.29802" lon="3.28152">
        <ele>488</ele>
        <time>2024-01-30T08:26:31.000Z</time>
      </trkpt>
      <trkpt lat="44.29792" lon="3.28153">
        <ele>488.20001220703</ele>
        <time>2024-01-30T08:26:32.000Z</time>
      </trkpt>
      <trkpt lat="44.29775" lon="3.28163">
        <ele>488.79998779297</ele>
        <time>2024-01-30T08:26:34.000Z</time>
      </trkpt>
      <trkpt lat="44.29759" lon="3.28196">
        <ele>490.20001220703</ele>
        <time>2024-01-30T08:26:37.000Z</time>
      </trkpt>
      <trkpt lat="44.29739" lon="3.28245">
        <ele>490.39999389648</ele>
        <time>2024-01-30T08:26:41.000Z</time>
      </trkpt>
      <trkpt lat="44.29741" lon="3.2828">
        <ele>490.39999389648</ele>
        <time>2024-01-30T08:26:44.000Z</time>
      </trkpt>
      <trkpt lat="44.29751" lon="3.28307">
        <ele>490.60000610352</ele>
        <time>2024-01-30T08:26:46.000Z</time>
      </trkpt>
      <trkpt lat="44.29758" lon="3.2832">
        <ele>490.60000610352</ele>
        <time>2024-01-30T08:26:47.000Z</time>
      </trkpt>
      <trkpt lat="44.29764" lon="3.28333">
        <ele>490.60000610352</ele>
        <time>2024-01-30T08:26:48.000Z</time>
      </trkpt>
      <trkpt lat="44.29771" lon="3.28362">
        <ele>490.39999389648</ele>
        <time>2024-01-30T08:26:50.000Z</time>
      </trkpt>
      <trkpt lat="44.29765" lon="3.28395">
        <ele>490.20001220703</ele>
        <time>2024-01-30T08:26:52.000Z</time>
      </trkpt>
      <trkpt lat="44.29747" lon="3.28437">
        <ele>489.79998779297</ele>
        <time>2024-01-30T08:26:55.000Z</time>
      </trkpt>
      <trkpt lat="44.29744" lon="3.28468">
        <ele>489.60000610352</ele>
        <time>2024-01-30T08:26:57.000Z</time>
      </trkpt>
      <trkpt lat="44.29751" lon="3.28498">
        <ele>489.39999389648</ele>
        <time>2024-01-30T08:26:59.000Z</time>
      </trkpt>
      <trkpt lat="44.2976" lon="3.28526">
        <ele>489.20001220703</ele>
        <time>2024-01-30T08:27:01.000Z</time>
      </trkpt>
      <trkpt lat="44.29763" lon="3.28553">
        <ele>489</ele>
        <time>2024-01-30T08:27:03.000Z</time>
      </trkpt>
      <trkpt lat="44.29757" lon="3.28579">
        <ele>488.79998779297</ele>
        <time>2024-01-30T08:27:05.000Z</time>
      </trkpt>
      <trkpt lat="44.2975" lon="3.28607">
        <ele>488.60000610352</ele>
        <time>2024-01-30T08:27:07.000Z</time>
      </trkpt>
      <trkpt lat="44.29751" lon="3.28621">
        <ele>488.60000610352</ele>
        <time>2024-01-30T08:27:08.000Z</time>
      </trkpt>
      <trkpt lat="44.29754" lon="3.28635">
        <ele>488.60000610352</ele>
        <time>2024-01-30T08:27:09.000Z</time>
      </trkpt>
      <trkpt lat="44.29761" lon="3.28665">
        <ele>488.39999389648</ele>
        <time>2024-01-30T08:27:11.000Z</time>
      </trkpt>
      <trkpt lat="44.29762" lon="3.28701">
        <ele>488.39999389648</ele>
        <time>2024-01-30T08:27:13.000Z</time>
      </trkpt>
      <trkpt lat="44.29761" lon="3.28716">
        <ele>488.39999389648</ele>
        <time>2024-01-30T08:27:14.000Z</time>
      </trkpt>
      <trkpt lat="44.29761" lon="3.28732">
        <ele>488.20001220703</ele>
        <time>2024-01-30T08:27:15.000Z</time>
      </trkpt>
      <trkpt lat="44.29766" lon="3.28758">
        <ele>487.60000610352</ele>
        <time>2024-01-30T08:27:17.000Z</time>
      </trkpt>
      <trkpt lat="44.29775" lon="3.28783">
        <ele>487.39999389648</ele>
        <time>2024-01-30T08:27:19.000Z</time>
      </trkpt>
      <trkpt lat="44.29777" lon="3.28796">
        <ele>487.20001220703</ele>
        <time>2024-01-30T08:27:20.000Z</time>
      </trkpt>
      <trkpt lat="44.29777" lon="3.28813">
        <ele>487.20001220703</ele>
        <time>2024-01-30T08:27:21.000Z</time>
      </trkpt>
      <trkpt lat="44.29775" lon="3.28828">
        <ele>487</ele>
        <time>2024-01-30T08:27:22.000Z</time>
      </trkpt>
      <trkpt lat="44.29775" lon="3.28841">
        <ele>486.79998779297</ele>
        <time>2024-01-30T08:27:23.000Z</time>
      </trkpt>
      <trkpt lat="44.29778" lon="3.28874">
        <ele>486.20001220703</ele>
        <time>2024-01-30T08:27:25.000Z</time>
      </trkpt>
      <trkpt lat="44.29782" lon="3.28888">
        <ele>486</ele>
        <time>2024-01-30T08:27:26.000Z</time>
      </trkpt>
      <trkpt lat="44.29794" lon="3.28927">
        <ele>485</ele>
        <time>2024-01-30T08:27:29.000Z</time>
      </trkpt>
      <trkpt lat="44.298" lon="3.28938">
        <ele>484.79998779297</ele>
        <time>2024-01-30T08:27:30.000Z</time>
      </trkpt>
      <trkpt lat="44.29807" lon="3.28947">
        <ele>484.39999389648</ele>
        <time>2024-01-30T08:27:31.000Z</time>
      </trkpt>
      <trkpt lat="44.29815" lon="3.28953">
        <ele>483.79998779297</ele>
        <time>2024-01-30T08:27:32.000Z</time>
      </trkpt>
      <trkpt lat="44.29824" lon="3.28955">
        <ele>483.60000610352</ele>
        <time>2024-01-30T08:27:33.000Z</time>
      </trkpt>
      <trkpt lat="44.29842" lon="3.28955">
        <ele>483.39999389648</ele>
        <time>2024-01-30T08:27:35.000Z</time>
      </trkpt>
      <trkpt lat="44.29886" lon="3.28966">
        <ele>482.60000610352</ele>
        <time>2024-01-30T08:27:39.000Z</time>
      </trkpt>
      <trkpt lat="44.29895" lon="3.2897">
        <ele>482.20001220703</ele>
        <time>2024-01-30T08:27:40.000Z</time>
      </trkpt>
      <trkpt lat="44.29905" lon="3.28976">
        <ele>482</ele>
        <time>2024-01-30T08:27:41.000Z</time>
      </trkpt>
      <trkpt lat="44.29916" lon="3.28985">
        <ele>481.79998779297</ele>
        <time>2024-01-30T08:27:42.000Z</time>
      </trkpt>
      <trkpt lat="44.29948" lon="3.29019">
        <ele>481</ele>
        <time>2024-01-30T08:27:45.000Z</time>
      </trkpt>
      <trkpt lat="44.2996" lon="3.29031">
        <ele>480.79998779297</ele>
        <time>2024-01-30T08:27:46.000Z</time>
      </trkpt>
      <trkpt lat="44.29998" lon="3.2907">
        <ele>479.60000610352</ele>
        <time>2024-01-30T08:27:49.000Z</time>
      </trkpt>
      <trkpt lat="44.30023" lon="3.29092">
        <ele>478.60000610352</ele>
        <time>2024-01-30T08:27:51.000Z</time>
      </trkpt>
      <trkpt lat="44.30045" lon="3.29116">
        <ele>477.79998779297</ele>
        <time>2024-01-30T08:27:53.000Z</time>
      </trkpt>
      <trkpt lat="44.30052" lon="3.29132">
        <ele>477.20001220703</ele>
        <time>2024-01-30T08:27:54.000Z</time>
      </trkpt>
      <trkpt lat="44.30057" lon="3.2915">
        <ele>477</ele>
        <time>2024-01-30T08:27:55.000Z</time>
      </trkpt>
      <trkpt lat="44.30069" lon="3.29189">
        <ele>476.60000610352</ele>
        <time>2024-01-30T08:27:57.000Z</time>
      </trkpt>
      <trkpt lat="44.30086" lon="3.29234">
        <ele>476</ele>
        <time>2024-01-30T08:27:59.000Z</time>
      </trkpt>
      <trkpt lat="44.30101" lon="3.29271">
        <ele>475</ele>
        <time>2024-01-30T08:28:01.000Z</time>
      </trkpt>
      <trkpt lat="44.30121" lon="3.29334">
        <ele>473.79998779297</ele>
        <time>2024-01-30T08:28:04.000Z</time>
      </trkpt>
      <trkpt lat="44.30132" lon="3.29379">
        <ele>472.60000610352</ele>
        <time>2024-01-30T08:28:06.000Z</time>
      </trkpt>
      <trkpt lat="44.30138" lon="3.29397">
        <ele>471.79998779297</ele>
        <time>2024-01-30T08:28:07.000Z</time>
      </trkpt>
      <trkpt lat="44.30145" lon="3.29413">
        <ele>471</ele>
        <time>2024-01-30T08:28:08.000Z</time>
      </trkpt>
      <trkpt lat="44.30153" lon="3.29427">
        <ele>470.60000610352</ele>
        <time>2024-01-30T08:28:09.000Z</time>
      </trkpt>
      <trkpt lat="44.30162" lon="3.2944">
        <ele>469.79998779297</ele>
        <time>2024-01-30T08:28:10.000Z</time>
      </trkpt>
      <trkpt lat="44.30171" lon="3.29452">
        <ele>469.20001220703</ele>
        <time>2024-01-30T08:28:11.000Z</time>
      </trkpt>
      <trkpt lat="44.30177" lon="3.29464">
        <ele>468.79998779297</ele>
        <time>2024-01-30T08:28:12.000Z</time>
      </trkpt>
      <trkpt lat="44.30181" lon="3.29477">
        <ele>468.20001220703</ele>
        <time>2024-01-30T08:28:13.000Z</time>
      </trkpt>
      <trkpt lat="44.30183" lon="3.29491">
        <ele>468</ele>
        <time>2024-01-30T08:28:14.000Z</time>
      </trkpt>
      <trkpt lat="44.30182" lon="3.29505">
        <ele>467.79998779297</ele>
        <time>2024-01-30T08:28:15.000Z</time>
      </trkpt>
      <trkpt lat="44.30181" lon="3.29529">
        <ele>467</ele>
        <time>2024-01-30T08:28:17.000Z</time>
      </trkpt>
      <trkpt lat="44.30186" lon="3.29553">
        <ele>466.20001220703</ele>
        <time>2024-01-30T08:28:19.000Z</time>
      </trkpt>
      <trkpt lat="44.30193" lon="3.29561">
        <ele>466</ele>
        <time>2024-01-30T08:28:20.000Z</time>
      </trkpt>
      <trkpt lat="44.30206" lon="3.29577">
        <ele>465.60000610352</ele>
        <time>2024-01-30T08:28:22.000Z</time>
      </trkpt>
      <trkpt lat="44.30214" lon="3.29585">
        <ele>465.39999389648</ele>
        <time>2024-01-30T08:28:23.000Z</time>
      </trkpt>
      <trkpt lat="44.30233" lon="3.29596">
        <ele>464.60000610352</ele>
        <time>2024-01-30T08:28:25.000Z</time>
      </trkpt>
      <trkpt lat="44.30264" lon="3.29598">
        <ele>464.20001220703</ele>
        <time>2024-01-30T08:28:28.000Z</time>
      </trkpt>
      <trkpt lat="44.30282" lon="3.29596">
        <ele>463.39999389648</ele>
        <time>2024-01-30T08:28:30.000Z</time>
      </trkpt>
      <trkpt lat="44.30304" lon="3.29605">
        <ele>462.79998779297</ele>
        <time>2024-01-30T08:28:32.000Z</time>
      </trkpt>
      <trkpt lat="44.30321" lon="3.29623">
        <ele>462.20001220703</ele>
        <time>2024-01-30T08:28:34.000Z</time>
      </trkpt>
      <trkpt lat="44.30331" lon="3.29631">
        <ele>462</ele>
        <time>2024-01-30T08:28:35.000Z</time>
      </trkpt>
      <trkpt lat="44.30366" lon="3.29647">
        <ele>461.39999389648</ele>
        <time>2024-01-30T08:28:38.000Z</time>
      </trkpt>
      <trkpt lat="44.30391" lon="3.29656">
        <ele>461</ele>
        <time>2024-01-30T08:28:40.000Z</time>
      </trkpt>
      <trkpt lat="44.30416" lon="3.29669">
        <ele>460.39999389648</ele>
        <time>2024-01-30T08:28:42.000Z</time>
      </trkpt>
      <trkpt lat="44.30429" lon="3.29677">
        <ele>460</ele>
        <time>2024-01-30T08:28:43.000Z</time>
      </trkpt>
      <trkpt lat="44.30461" lon="3.29707">
        <ele>458.79998779297</ele>
        <time>2024-01-30T08:28:46.000Z</time>
      </trkpt>
      <trkpt lat="44.30478" lon="3.29735">
        <ele>457.60000610352</ele>
        <time>2024-01-30T08:28:48.000Z</time>
      </trkpt>
      <trkpt lat="44.30486" lon="3.29745">
        <ele>457</ele>
        <time>2024-01-30T08:28:49.000Z</time>
      </trkpt>
      <trkpt lat="44.30495" lon="3.29754">
        <ele>456.39999389648</ele>
        <time>2024-01-30T08:28:50.000Z</time>
      </trkpt>
      <trkpt lat="44.30505" lon="3.29759">
        <ele>456</ele>
        <time>2024-01-30T08:28:51.000Z</time>
      </trkpt>
      <trkpt lat="44.30522" lon="3.29773">
        <ele>455.79998779297</ele>
        <time>2024-01-30T08:28:53.000Z</time>
      </trkpt>
      <trkpt lat="44.3053" lon="3.29784">
        <ele>455.79998779297</ele>
        <time>2024-01-30T08:28:54.000Z</time>
      </trkpt>
      <trkpt lat="44.30559" lon="3.29838">
        <ele>455.79998779297</ele>
        <time>2024-01-30T08:28:58.000Z</time>
      </trkpt>
      <trkpt lat="44.30602" lon="3.29908">
        <ele>456.60000610352</ele>
        <time>2024-01-30T08:29:03.000Z</time>
      </trkpt>
      <trkpt lat="44.30609" lon="3.29923">
        <ele>457</ele>
        <time>2024-01-30T08:29:04.000Z</time>
      </trkpt>
      <trkpt lat="44.30617" lon="3.29954">
        <ele>457.39999389648</ele>
        <time>2024-01-30T08:29:06.000Z</time>
      </trkpt>
      <trkpt lat="44.30618" lon="3.29972">
        <ele>457.60000610352</ele>
        <time>2024-01-30T08:29:07.000Z</time>
      </trkpt>
      <trkpt lat="44.30621" lon="3.30005">
        <ele>458.60000610352</ele>
        <time>2024-01-30T08:29:09.000Z</time>
      </trkpt>
      <trkpt lat="44.30625" lon="3.30021">
        <ele>459</ele>
        <time>2024-01-30T08:29:10.000Z</time>
      </trkpt>
      <trkpt lat="44.3063" lon="3.30037">
        <ele>459.20001220703</ele>
        <time>2024-01-30T08:29:11.000Z</time>
      </trkpt>
      <trkpt lat="44.30636" lon="3.30053">
        <ele>459.60000610352</ele>
        <time>2024-01-30T08:29:12.000Z</time>
      </trkpt>
      <trkpt lat="44.3064" lon="3.30071">
        <ele>460.20001220703</ele>
        <time>2024-01-30T08:29:13.000Z</time>
      </trkpt>
      <trkpt lat="44.30646" lon="3.3011">
        <ele>461.20001220703</ele>
        <time>2024-01-30T08:29:15.000Z</time>
      </trkpt>
      <trkpt lat="44.30649" lon="3.30167">
        <ele>462.39999389648</ele>
        <time>2024-01-30T08:29:18.000Z</time>
      </trkpt>
      <trkpt lat="44.30644" lon="3.302">
        <ele>463</ele>
        <time>2024-01-30T08:29:20.000Z</time>
      </trkpt>
      <trkpt lat="44.30639" lon="3.30214">
        <ele>463.39999389648</ele>
        <time>2024-01-30T08:29:21.000Z</time>
      </trkpt>
      <trkpt lat="44.30636" lon="3.30229">
        <ele>463.60000610352</ele>
        <time>2024-01-30T08:29:22.000Z</time>
      </trkpt>
      <trkpt lat="44.30635" lon="3.30259">
        <ele>463.79998779297</ele>
        <time>2024-01-30T08:29:24.000Z</time>
      </trkpt>
      <trkpt lat="44.30648" lon="3.30298">
        <ele>464.60000610352</ele>
        <time>2024-01-30T08:29:27.000Z</time>
      </trkpt>
      <trkpt lat="44.30649" lon="3.30326">
        <ele>465.20001220703</ele>
        <time>2024-01-30T08:29:29.000Z</time>
      </trkpt>
      <trkpt lat="44.30646" lon="3.30339">
        <ele>465.60000610352</ele>
        <time>2024-01-30T08:29:30.000Z</time>
      </trkpt>
      <trkpt lat="44.3064" lon="3.3035">
        <ele>465.79998779297</ele>
        <time>2024-01-30T08:29:31.000Z</time>
      </trkpt>
      <trkpt lat="44.30625" lon="3.30369">
        <ele>466.79998779297</ele>
        <time>2024-01-30T08:29:33.000Z</time>
      </trkpt>
      <trkpt lat="44.30618" lon="3.3038">
        <ele>467.39999389648</ele>
        <time>2024-01-30T08:29:34.000Z</time>
      </trkpt>
      <trkpt lat="44.30612" lon="3.30395">
        <ele>468</ele>
        <time>2024-01-30T08:29:35.000Z</time>
      </trkpt>
      <trkpt lat="44.30592" lon="3.30449">
        <ele>469.20001220703</ele>
        <time>2024-01-30T08:29:38.000Z</time>
      </trkpt>
      <trkpt lat="44.30585" lon="3.30466">
        <ele>469.79998779297</ele>
        <time>2024-01-30T08:29:39.000Z</time>
      </trkpt>
      <trkpt lat="44.30571" lon="3.30497">
        <ele>470.39999389648</ele>
        <time>2024-01-30T08:29:41.000Z</time>
      </trkpt>
      <trkpt lat="44.30559" lon="3.30534">
        <ele>470.60000610352</ele>
        <time>2024-01-30T08:29:43.000Z</time>
      </trkpt>
      <trkpt lat="44.30548" lon="3.30576">
        <ele>470.79998779297</ele>
        <time>2024-01-30T08:29:45.000Z</time>
      </trkpt>
      <trkpt lat="44.30532" lon="3.30611">
        <ele>471</ele>
        <time>2024-01-30T08:29:47.000Z</time>
      </trkpt>
      <trkpt lat="44.30512" lon="3.30643">
        <ele>471.39999389648</ele>
        <time>2024-01-30T08:29:49.000Z</time>
      </trkpt>
      <trkpt lat="44.30485" lon="3.3069">
        <ele>471.60000610352</ele>
        <time>2024-01-30T08:29:52.000Z</time>
      </trkpt>
      <trkpt lat="44.30451" lon="3.30758">
        <ele>472</ele>
        <time>2024-01-30T08:29:56.000Z</time>
      </trkpt>
      <trkpt lat="44.30442" lon="3.30776">
        <ele>472.20001220703</ele>
        <time>2024-01-30T08:29:57.000Z</time>
      </trkpt>
      <trkpt lat="44.30424" lon="3.30813">
        <ele>472.39999389648</ele>
        <time>2024-01-30T08:29:59.000Z</time>
      </trkpt>
      <trkpt lat="44.30409" lon="3.30855">
        <ele>473</ele>
        <time>2024-01-30T08:30:01.000Z</time>
      </trkpt>
      <trkpt lat="44.30376" lon="3.30934">
        <ele>473.79998779297</ele>
        <time>2024-01-30T08:30:05.000Z</time>
      </trkpt>
      <trkpt lat="44.30332" lon="3.3101">
        <ele>474</ele>
        <time>2024-01-30T08:30:09.000Z</time>
      </trkpt>
      <trkpt lat="44.30307" lon="3.31044">
        <ele>474</ele>
        <time>2024-01-30T08:30:11.000Z</time>
      </trkpt>
      <trkpt lat="44.30291" lon="3.3106">
        <ele>474.20001220703</ele>
        <time>2024-01-30T08:30:12.000Z</time>
      </trkpt>
      <trkpt lat="44.30237" lon="3.31108">
        <ele>474.39999389648</ele>
        <time>2024-01-30T08:30:16.000Z</time>
      </trkpt>
      <trkpt lat="44.30222" lon="3.31118">
        <ele>474.39999389648</ele>
        <time>2024-01-30T08:30:17.000Z</time>
      </trkpt>
      <trkpt lat="44.30179" lon="3.3115">
        <ele>474.60000610352</ele>
        <time>2024-01-30T08:30:20.000Z</time>
      </trkpt>
      <trkpt lat="44.30164" lon="3.31166">
        <ele>474.60000610352</ele>
        <time>2024-01-30T08:30:21.000Z</time>
      </trkpt>
      <trkpt lat="44.30139" lon="3.31188">
        <ele>474.60000610352</ele>
        <time>2024-01-30T08:30:23.000Z</time>
      </trkpt>
      <trkpt lat="44.30124" lon="3.31197">
        <ele>475</ele>
        <time>2024-01-30T08:30:24.000Z</time>
      </trkpt>
      <trkpt lat="44.30064" lon="3.31228">
        <ele>475</ele>
        <time>2024-01-30T08:30:28.000Z</time>
      </trkpt>
      <trkpt lat="44.30049" lon="3.31237">
        <ele>474.79998779297</ele>
        <time>2024-01-30T08:30:29.000Z</time>
      </trkpt>
      <trkpt lat="44.30012" lon="3.31261">
        <ele>473.20001220703</ele>
        <time>2024-01-30T08:30:32.000Z</time>
      </trkpt>
      <trkpt lat="44.30003" lon="3.3127">
        <ele>472.39999389648</ele>
        <time>2024-01-30T08:30:33.000Z</time>
      </trkpt>
      <trkpt lat="44.29996" lon="3.3128">
        <ele>472.20001220703</ele>
        <time>2024-01-30T08:30:34.000Z</time>
      </trkpt>
      <trkpt lat="44.29993" lon="3.31291">
        <ele>472</ele>
        <time>2024-01-30T08:30:35.000Z</time>
      </trkpt>
      <trkpt lat="44.29995" lon="3.31315">
        <ele>472</ele>
        <time>2024-01-30T08:30:37.000Z</time>
      </trkpt>
      <trkpt lat="44.30018" lon="3.31355">
        <ele>472</ele>
        <time>2024-01-30T08:30:40.000Z</time>
      </trkpt>
      <trkpt lat="44.30045" lon="3.31393">
        <ele>471</ele>
        <time>2024-01-30T08:30:43.000Z</time>
      </trkpt>
      <trkpt lat="44.30065" lon="3.31422">
        <ele>470.79998779297</ele>
        <time>2024-01-30T08:30:45.000Z</time>
      </trkpt>
      <trkpt lat="44.30074" lon="3.31439">
        <ele>470.60000610352</ele>
        <time>2024-01-30T08:30:46.000Z</time>
      </trkpt>
      <trkpt lat="44.30096" lon="3.31496">
        <ele>470</ele>
        <time>2024-01-30T08:30:49.000Z</time>
      </trkpt>
      <trkpt lat="44.30101" lon="3.31517">
        <ele>469.79998779297</ele>
        <time>2024-01-30T08:30:50.000Z</time>
      </trkpt>
      <trkpt lat="44.30113" lon="3.3158">
        <ele>468.60000610352</ele>
        <time>2024-01-30T08:30:53.000Z</time>
      </trkpt>
      <trkpt lat="44.30117" lon="3.31601">
        <ele>467.79998779297</ele>
        <time>2024-01-30T08:30:54.000Z</time>
      </trkpt>
      <trkpt lat="44.30122" lon="3.3162">
        <ele>467.20001220703</ele>
        <time>2024-01-30T08:30:55.000Z</time>
      </trkpt>
      <trkpt lat="44.30131" lon="3.31655">
        <ele>466</ele>
        <time>2024-01-30T08:30:57.000Z</time>
      </trkpt>
      <trkpt lat="44.30135" lon="3.31671">
        <ele>464.79998779297</ele>
        <time>2024-01-30T08:30:58.000Z</time>
      </trkpt>
      <trkpt lat="44.30138" lon="3.31686">
        <ele>464.39999389648</ele>
        <time>2024-01-30T08:30:59.000Z</time>
      </trkpt>
      <trkpt lat="44.30139" lon="3.31716">
        <ele>463.79998779297</ele>
        <time>2024-01-30T08:31:01.000Z</time>
      </trkpt>
      <trkpt lat="44.30132" lon="3.31759">
        <ele>462.20001220703</ele>
        <time>2024-01-30T08:31:04.000Z</time>
      </trkpt>
      <trkpt lat="44.30131" lon="3.31774">
        <ele>462</ele>
        <time>2024-01-30T08:31:05.000Z</time>
      </trkpt>
      <trkpt lat="44.30128" lon="3.31832">
        <ele>460.79998779297</ele>
        <time>2024-01-30T08:31:09.000Z</time>
      </trkpt>
      <trkpt lat="44.30127" lon="3.31878">
        <ele>459.60000610352</ele>
        <time>2024-01-30T08:31:12.000Z</time>
      </trkpt>
      <trkpt lat="44.30125" lon="3.31917">
        <ele>458.60000610352</ele>
        <time>2024-01-30T08:31:15.000Z</time>
      </trkpt>
      <trkpt lat="44.30125" lon="3.31928">
        <ele>458</ele>
        <time>2024-01-30T08:31:16.000Z</time>
      </trkpt>
      <trkpt lat="44.30125" lon="3.3195">
        <ele>457.39999389648</ele>
        <time>2024-01-30T08:31:18.000Z</time>
      </trkpt>
      <trkpt lat="44.30126" lon="3.3196">
        <ele>457</ele>
        <time>2024-01-30T08:31:19.000Z</time>
      </trkpt>
      <trkpt lat="44.30127" lon="3.31968">
        <ele>456.39999389648</ele>
        <time>2024-01-30T08:31:20.000Z</time>
      </trkpt>
      <trkpt lat="44.30129" lon="3.31977">
        <ele>456.20001220703</ele>
        <time>2024-01-30T08:31:21.000Z</time>
      </trkpt>
      <trkpt lat="44.30133" lon="3.32011">
        <ele>454.60000610352</ele>
        <time>2024-01-30T08:31:25.000Z</time>
      </trkpt>
      <trkpt lat="44.30133" lon="3.32017">
        <ele>454.20001220703</ele>
        <time>2024-01-30T08:31:26.000Z</time>
      </trkpt>
      <trkpt lat="44.30129" lon="3.3203">
        <ele>453.60000610352</ele>
        <time>2024-01-30T08:31:29.000Z</time>
      </trkpt>
      <trkpt lat="44.30126" lon="3.32032">
        <ele>453.60000610352</ele>
        <time>2024-01-30T08:31:30.000Z</time>
      </trkpt>
      <trkpt lat="44.30116" lon="3.32036">
        <ele>453</ele>
        <time>2024-01-30T08:31:33.000Z</time>
      </trkpt>
      <trkpt lat="44.30091" lon="3.32044">
        <ele>453.20001220703</ele>
        <time>2024-01-30T08:31:40.000Z</time>
      </trkpt>
      <trkpt lat="44.30066" lon="3.32059">
        <ele>454.39999389648</ele>
        <time>2024-01-30T08:31:46.000Z</time>
      </trkpt>
      <trkpt lat="44.30036" lon="3.32079">
        <ele>454.60000610352</ele>
        <time>2024-01-30T08:31:52.000Z</time>
      </trkpt>
      <trkpt lat="44.30012" lon="3.32097">
        <ele>454.39999389648</ele>
        <time>2024-01-30T08:31:57.000Z</time>
      </trkpt>
      <trkpt lat="44.3001" lon="3.32102">
        <ele>454.39999389648</ele>
        <time>2024-01-30T08:31:58.000Z</time>
      </trkpt>
      <trkpt lat="44.3001" lon="3.32108">
        <ele>454.39999389648</ele>
        <time>2024-01-30T08:31:59.000Z</time>
      </trkpt>
      <trkpt lat="44.30013" lon="3.32121">
        <ele>454.60000610352</ele>
        <time>2024-01-30T08:32:01.000Z</time>
      </trkpt>
      <trkpt lat="44.30015" lon="3.32127">
        <ele>454.60000610352</ele>
        <time>2024-01-30T08:32:02.000Z</time>
      </trkpt>
      <trkpt lat="44.30032" lon="3.32167">
        <ele>455.39999389648</ele>
        <time>2024-01-30T08:32:08.000Z</time>
      </trkpt>
      <trkpt lat="44.30039" lon="3.32181">
        <ele>455.60000610352</ele>
        <time>2024-01-30T08:32:10.000Z</time>
      </trkpt>
      <trkpt lat="44.30052" lon="3.3221">
        <ele>457.39999389648</ele>
        <time>2024-01-30T08:32:14.000Z</time>
      </trkpt>
      <trkpt lat="44.30058" lon="3.32226">
        <ele>458.60000610352</ele>
        <time>2024-01-30T08:32:16.000Z</time>
      </trkpt>
      <trkpt lat="44.30065" lon="3.3224">
        <ele>459.79998779297</ele>
        <time>2024-01-30T08:32:18.000Z</time>
      </trkpt>
      <trkpt lat="44.3007" lon="3.32254">
        <ele>461</ele>
        <time>2024-01-30T08:32:20.000Z</time>
      </trkpt>
      <trkpt lat="44.30076" lon="3.32268">
        <ele>462.20001220703</ele>
        <time>2024-01-30T08:32:22.000Z</time>
      </trkpt>
      <trkpt lat="44.30081" lon="3.32282">
        <ele>463.39999389648</ele>
        <time>2024-01-30T08:32:24.000Z</time>
      </trkpt>
      <trkpt lat="44.30084" lon="3.32289">
        <ele>463.79998779297</ele>
        <time>2024-01-30T08:32:25.000Z</time>
      </trkpt>
      <trkpt lat="44.30086" lon="3.32295">
        <ele>464.60000610352</ele>
        <time>2024-01-30T08:32:26.000Z</time>
      </trkpt>
      <trkpt lat="44.30088" lon="3.32302">
        <ele>465.20001220703</ele>
        <time>2024-01-30T08:32:27.000Z</time>
      </trkpt>
      <trkpt lat="44.30089" lon="3.32308">
        <ele>465.60000610352</ele>
        <time>2024-01-30T08:32:28.000Z</time>
      </trkpt>
      <trkpt lat="44.3009" lon="3.32314">
        <ele>466.39999389648</ele>
        <time>2024-01-30T08:32:29.000Z</time>
      </trkpt>
      <trkpt lat="44.3009" lon="3.32319">
        <ele>466.60000610352</ele>
        <time>2024-01-30T08:32:30.000Z</time>
      </trkpt>
      <trkpt lat="44.30091" lon="3.32333">
        <ele>467.39999389648</ele>
        <time>2024-01-30T08:32:34.000Z</time>
      </trkpt>
      <trkpt lat="44.30091" lon="3.32335">
        <ele>467.79998779297</ele>
        <time>2024-01-30T08:32:35.000Z</time>
      </trkpt>
      <trkpt lat="44.30091" lon="3.32343">
        <ele>468.39999389648</ele>
        <time>2024-01-30T08:32:39.000Z</time>
      </trkpt>
      <trkpt lat="44.30091" lon="3.32345">
        <ele>468.79998779297</ele>
        <time>2024-01-30T08:32:40.000Z</time>
      </trkpt>
      <trkpt lat="44.3009" lon="3.32346">
        <ele>469</ele>
        <time>2024-01-30T08:32:41.000Z</time>
      </trkpt>
      <trkpt lat="44.30085" lon="3.32344">
        <ele>469.60000610352</ele>
        <time>2024-01-30T08:32:44.000Z</time>
      </trkpt>
      <trkpt lat="44.30083" lon="3.32341">
        <ele>469.79998779297</ele>
        <time>2024-01-30T08:32:45.000Z</time>
      </trkpt>
      <trkpt lat="44.30083" lon="3.32338">
        <ele>469.79998779297</ele>
        <time>2024-01-30T08:32:46.000Z</time>
      </trkpt>
      <trkpt lat="44.30081" lon="3.32323">
        <ele>470.79998779297</ele>
        <time>2024-01-30T08:32:49.000Z</time>
      </trkpt>
      <trkpt lat="44.30079" lon="3.32316">
        <ele>471.20001220703</ele>
        <time>2024-01-30T08:32:50.000Z</time>
      </trkpt>
      <trkpt lat="44.30073" lon="3.32303">
        <ele>472.20001220703</ele>
        <time>2024-01-30T08:32:52.000Z</time>
      </trkpt>
      <trkpt lat="44.30067" lon="3.32287">
        <ele>473.39999389648</ele>
        <time>2024-01-30T08:32:54.000Z</time>
      </trkpt>
      <trkpt lat="44.30064" lon="3.3228">
        <ele>473.79998779297</ele>
        <time>2024-01-30T08:32:55.000Z</time>
      </trkpt>
      <trkpt lat="44.30058" lon="3.32265">
        <ele>474.60000610352</ele>
        <time>2024-01-30T08:32:57.000Z</time>
      </trkpt>
      <trkpt lat="44.30052" lon="3.3225">
        <ele>476</ele>
        <time>2024-01-30T08:32:59.000Z</time>
      </trkpt>
      <trkpt lat="44.30046" lon="3.32236">
        <ele>477.20001220703</ele>
        <time>2024-01-30T08:33:01.000Z</time>
      </trkpt>
      <trkpt lat="44.30041" lon="3.32225">
        <ele>478</ele>
        <time>2024-01-30T08:33:03.000Z</time>
      </trkpt>
      <trkpt lat="44.30039" lon="3.32221">
        <ele>478.39999389648</ele>
        <time>2024-01-30T08:33:04.000Z</time>
      </trkpt>
      <trkpt lat="44.30032" lon="3.32222">
        <ele>478.79998779297</ele>
        <time>2024-01-30T08:33:06.000Z</time>
      </trkpt>
      <trkpt lat="44.3003" lon="3.3223">
        <ele>479.60000610352</ele>
        <time>2024-01-30T08:33:08.000Z</time>
      </trkpt>
      <trkpt lat="44.30031" lon="3.32235">
        <ele>480</ele>
        <time>2024-01-30T08:33:09.000Z</time>
      </trkpt>
      <trkpt lat="44.30037" lon="3.32247">
        <ele>480.79998779297</ele>
        <time>2024-01-30T08:33:12.000Z</time>
      </trkpt>
      <trkpt lat="44.30038" lon="3.32253">
        <ele>481.39999389648</ele>
        <time>2024-01-30T08:33:13.000Z</time>
      </trkpt>
      <trkpt lat="44.3004" lon="3.3226">
        <ele>481.79998779297</ele>
        <time>2024-01-30T08:33:14.000Z</time>
      </trkpt>
      <trkpt lat="44.30043" lon="3.32268">
        <ele>482.20001220703</ele>
        <time>2024-01-30T08:33:15.000Z</time>
      </trkpt>
      <trkpt lat="44.30047" lon="3.3228">
        <ele>483.39999389648</ele>
        <time>2024-01-30T08:33:17.000Z</time>
      </trkpt>
      <trkpt lat="44.3005" lon="3.32291">
        <ele>484.60000610352</ele>
        <time>2024-01-30T08:33:19.000Z</time>
      </trkpt>
      <trkpt lat="44.30051" lon="3.32304">
        <ele>485.79998779297</ele>
        <time>2024-01-30T08:33:21.000Z</time>
      </trkpt>
      <trkpt lat="44.30048" lon="3.32318">
        <ele>486.79998779297</ele>
        <time>2024-01-30T08:33:23.000Z</time>
      </trkpt>
      <trkpt lat="44.30048" lon="3.32333">
        <ele>488</ele>
        <time>2024-01-30T08:33:25.000Z</time>
      </trkpt>
      <trkpt lat="44.30049" lon="3.3234">
        <ele>488.39999389648</ele>
        <time>2024-01-30T08:33:26.000Z</time>
      </trkpt>
      <trkpt lat="44.30051" lon="3.32346">
        <ele>489</ele>
        <time>2024-01-30T08:33:27.000Z</time>
      </trkpt>
      <trkpt lat="44.30052" lon="3.32352">
        <ele>489.60000610352</ele>
        <time>2024-01-30T08:33:28.000Z</time>
      </trkpt>
      <trkpt lat="44.30053" lon="3.32357">
        <ele>490.20001220703</ele>
        <time>2024-01-30T08:33:29.000Z</time>
      </trkpt>
      <trkpt lat="44.30052" lon="3.32364">
        <ele>491.20001220703</ele>
        <time>2024-01-30T08:33:31.000Z</time>
      </trkpt>
      <trkpt lat="44.30052" lon="3.32366">
        <ele>491.39999389648</ele>
        <time>2024-01-30T08:33:32.000Z</time>
      </trkpt>
      <trkpt lat="44.30047" lon="3.32365">
        <ele>492.39999389648</ele>
        <time>2024-01-30T08:33:34.000Z</time>
      </trkpt>
      <trkpt lat="44.30045" lon="3.32362">
        <ele>492.79998779297</ele>
        <time>2024-01-30T08:33:35.000Z</time>
      </trkpt>
      <trkpt lat="44.30043" lon="3.32346">
        <ele>493.60000610352</ele>
        <time>2024-01-30T08:33:38.000Z</time>
      </trkpt>
      <trkpt lat="44.30042" lon="3.32339">
        <ele>493.79998779297</ele>
        <time>2024-01-30T08:33:39.000Z</time>
      </trkpt>
      <trkpt lat="44.30042" lon="3.32333">
        <ele>494.20001220703</ele>
        <time>2024-01-30T08:33:40.000Z</time>
      </trkpt>
      <trkpt lat="44.30042" lon="3.32321">
        <ele>495</ele>
        <time>2024-01-30T08:33:42.000Z</time>
      </trkpt>
      <trkpt lat="44.30043" lon="3.32316">
        <ele>495.20001220703</ele>
        <time>2024-01-30T08:33:43.000Z</time>
      </trkpt>
      <trkpt lat="44.30042" lon="3.32306">
        <ele>496.20001220703</ele>
        <time>2024-01-30T08:33:45.000Z</time>
      </trkpt>
      <trkpt lat="44.3004" lon="3.32304">
        <ele>496.39999389648</ele>
        <time>2024-01-30T08:33:46.000Z</time>
      </trkpt>
      <trkpt lat="44.30037" lon="3.32304">
        <ele>496.79998779297</ele>
        <time>2024-01-30T08:33:47.000Z</time>
      </trkpt>
      <trkpt lat="44.30035" lon="3.32305">
        <ele>497.20001220703</ele>
        <time>2024-01-30T08:33:49.000Z</time>
      </trkpt>
      <trkpt lat="44.30037" lon="3.32304">
        <ele>497.60000610352</ele>
        <time>2024-01-30T08:33:52.000Z</time>
      </trkpt>
      <trkpt lat="44.30037" lon="3.32304">
        <ele>497.60000610352</ele>
        <time>2024-01-30T08:33:53.000Z</time>
      </trkpt>
      <trkpt lat="44.30037" lon="3.32304">
        <ele>497.60000610352</ele>
        <time>2024-01-30T08:33:58.000Z</time>
      </trkpt>
      <trkpt lat="44.30036" lon="3.32306">
        <ele>497.60000610352</ele>
        <time>2024-01-30T08:33:59.000Z</time>
      </trkpt>
      <trkpt lat="44.30035" lon="3.32316">
        <ele>498</ele>
        <time>2024-01-30T08:34:02.000Z</time>
      </trkpt>
      <trkpt lat="44.30034" lon="3.3232">
        <ele>498.39999389648</ele>
        <time>2024-01-30T08:34:03.000Z</time>
      </trkpt>
      <trkpt lat="44.30032" lon="3.32338">
        <ele>499.39999389648</ele>
        <time>2024-01-30T08:34:06.000Z</time>
      </trkpt>
      <trkpt lat="44.30032" lon="3.32344">
        <ele>499.60000610352</ele>
        <time>2024-01-30T08:34:07.000Z</time>
      </trkpt>
      <trkpt lat="44.30031" lon="3.32351">
        <ele>500.39999389648</ele>
        <time>2024-01-30T08:34:08.000Z</time>
      </trkpt>
      <trkpt lat="44.30032" lon="3.32359">
        <ele>501</ele>
        <time>2024-01-30T08:34:09.000Z</time>
      </trkpt>
      <trkpt lat="44.30033" lon="3.32366">
        <ele>501.79998779297</ele>
        <time>2024-01-30T08:34:10.000Z</time>
      </trkpt>
      <trkpt lat="44.30035" lon="3.32372">
        <ele>502.20001220703</ele>
        <time>2024-01-30T08:34:11.000Z</time>
      </trkpt>
      <trkpt lat="44.30039" lon="3.32383">
        <ele>502.79998779297</ele>
        <time>2024-01-30T08:34:13.000Z</time>
      </trkpt>
      <trkpt lat="44.30044" lon="3.32386">
        <ele>503.39999389648</ele>
        <time>2024-01-30T08:34:14.000Z</time>
      </trkpt>
      <trkpt lat="44.30048" lon="3.32388">
        <ele>503.79998779297</ele>
        <time>2024-01-30T08:34:15.000Z</time>
      </trkpt>
      <trkpt lat="44.30058" lon="3.32389">
        <ele>504.79998779297</ele>
        <time>2024-01-30T08:34:17.000Z</time>
      </trkpt>
      <trkpt lat="44.30063" lon="3.32391">
        <ele>505.20001220703</ele>
        <time>2024-01-30T08:34:18.000Z</time>
      </trkpt>
      <trkpt lat="44.30073" lon="3.32393">
        <ele>506.39999389648</ele>
        <time>2024-01-30T08:34:20.000Z</time>
      </trkpt>
      <trkpt lat="44.30084" lon="3.32396">
        <ele>507.79998779297</ele>
        <time>2024-01-30T08:34:22.000Z</time>
      </trkpt>
      <trkpt lat="44.30089" lon="3.32398">
        <ele>508.60000610352</ele>
        <time>2024-01-30T08:34:23.000Z</time>
      </trkpt>
      <trkpt lat="44.30093" lon="3.32398">
        <ele>509.20001220703</ele>
        <time>2024-01-30T08:34:24.000Z</time>
      </trkpt>
      <trkpt lat="44.30097" lon="3.32402">
        <ele>510.20001220703</ele>
        <time>2024-01-30T08:34:26.000Z</time>
      </trkpt>
      <trkpt lat="44.30098" lon="3.32405">
        <ele>510.79998779297</ele>
        <time>2024-01-30T08:34:27.000Z</time>
      </trkpt>
      <trkpt lat="44.30096" lon="3.3241">
        <ele>511.39999389648</ele>
        <time>2024-01-30T08:34:29.000Z</time>
      </trkpt>
      <trkpt lat="44.30094" lon="3.32411">
        <ele>511.79998779297</ele>
        <time>2024-01-30T08:34:31.000Z</time>
      </trkpt>
      <trkpt lat="44.30093" lon="3.3241">
        <ele>512</ele>
        <time>2024-01-30T08:34:32.000Z</time>
      </trkpt>
      <trkpt lat="44.30093" lon="3.3241">
        <ele>512</ele>
        <time>2024-01-30T08:34:33.000Z</time>
      </trkpt>
      <trkpt lat="44.30081" lon="3.32405">
        <ele>513</ele>
        <time>2024-01-30T08:34:38.000Z</time>
      </trkpt>
      <trkpt lat="44.30072" lon="3.32403">
        <ele>514</ele>
        <time>2024-01-30T08:34:40.000Z</time>
      </trkpt>
      <trkpt lat="44.30064" lon="3.32403">
        <ele>515</ele>
        <time>2024-01-30T08:34:42.000Z</time>
      </trkpt>
      <trkpt lat="44.30058" lon="3.32404">
        <ele>515.79998779297</ele>
        <time>2024-01-30T08:34:43.000Z</time>
      </trkpt>
      <trkpt lat="44.30047" lon="3.32408">
        <ele>516.79998779297</ele>
        <time>2024-01-30T08:34:45.000Z</time>
      </trkpt>
      <trkpt lat="44.30041" lon="3.32411">
        <ele>517.20001220703</ele>
        <time>2024-01-30T08:34:46.000Z</time>
      </trkpt>
      <trkpt lat="44.30035" lon="3.32413">
        <ele>517.79998779297</ele>
        <time>2024-01-30T08:34:47.000Z</time>
      </trkpt>
      <trkpt lat="44.30029" lon="3.32415">
        <ele>518.40002441406</ele>
        <time>2024-01-30T08:34:48.000Z</time>
      </trkpt>
      <trkpt lat="44.30022" lon="3.32414">
        <ele>519.59997558594</ele>
        <time>2024-01-30T08:34:49.000Z</time>
      </trkpt>
      <trkpt lat="44.30008" lon="3.32411">
        <ele>520.59997558594</ele>
        <time>2024-01-30T08:34:51.000Z</time>
      </trkpt>
      <trkpt lat="44.29995" lon="3.32403">
        <ele>522.20001220703</ele>
        <time>2024-01-30T08:34:53.000Z</time>
      </trkpt>
      <trkpt lat="44.29984" lon="3.32392">
        <ele>523.59997558594</ele>
        <time>2024-01-30T08:34:55.000Z</time>
      </trkpt>
      <trkpt lat="44.29978" lon="3.32376">
        <ele>524.79998779297</ele>
        <time>2024-01-30T08:34:57.000Z</time>
      </trkpt>
      <trkpt lat="44.29977" lon="3.32359">
        <ele>526</ele>
        <time>2024-01-30T08:34:59.000Z</time>
      </trkpt>
      <trkpt lat="44.29978" lon="3.3235">
        <ele>526.79998779297</ele>
        <time>2024-01-30T08:35:00.000Z</time>
      </trkpt>
      <trkpt lat="44.2998" lon="3.32341">
        <ele>527.59997558594</ele>
        <time>2024-01-30T08:35:01.000Z</time>
      </trkpt>
      <trkpt lat="44.29989" lon="3.32326">
        <ele>529</ele>
        <time>2024-01-30T08:35:03.000Z</time>
      </trkpt>
      <trkpt lat="44.29993" lon="3.3232">
        <ele>529.40002441406</ele>
        <time>2024-01-30T08:35:04.000Z</time>
      </trkpt>
      <trkpt lat="44.30002" lon="3.3231">
        <ele>530.40002441406</ele>
        <time>2024-01-30T08:35:06.000Z</time>
      </trkpt>
      <trkpt lat="44.30004" lon="3.32305">
        <ele>530.79998779297</ele>
        <time>2024-01-30T08:35:07.000Z</time>
      </trkpt>
      <trkpt lat="44.30005" lon="3.323">
        <ele>530.79998779297</ele>
        <time>2024-01-30T08:35:08.000Z</time>
      </trkpt>
      <trkpt lat="44.3" lon="3.32293">
        <ele>531.40002441406</ele>
        <time>2024-01-30T08:35:10.000Z</time>
      </trkpt>
      <trkpt lat="44.29995" lon="3.32293">
        <ele>531.79998779297</ele>
        <time>2024-01-30T08:35:11.000Z</time>
      </trkpt>
      <trkpt lat="44.29991" lon="3.32296">
        <ele>532.20001220703</ele>
        <time>2024-01-30T08:35:12.000Z</time>
      </trkpt>
      <trkpt lat="44.29987" lon="3.32301">
        <ele>533</ele>
        <time>2024-01-30T08:35:13.000Z</time>
      </trkpt>
      <trkpt lat="44.2998" lon="3.32313">
        <ele>534.20001220703</ele>
        <time>2024-01-30T08:35:15.000Z</time>
      </trkpt>
      <trkpt lat="44.29975" lon="3.32319">
        <ele>534.79998779297</ele>
        <time>2024-01-30T08:35:16.000Z</time>
      </trkpt>
      <trkpt lat="44.2997" lon="3.32326">
        <ele>535.40002441406</ele>
        <time>2024-01-30T08:35:17.000Z</time>
      </trkpt>
      <trkpt lat="44.29959" lon="3.32338">
        <ele>536.79998779297</ele>
        <time>2024-01-30T08:35:19.000Z</time>
      </trkpt>
      <trkpt lat="44.29954" lon="3.32344">
        <ele>537.40002441406</ele>
        <time>2024-01-30T08:35:20.000Z</time>
      </trkpt>
      <trkpt lat="44.2995" lon="3.32352">
        <ele>538</ele>
        <time>2024-01-30T08:35:21.000Z</time>
      </trkpt>
      <trkpt lat="44.29946" lon="3.3236">
        <ele>538.79998779297</ele>
        <time>2024-01-30T08:35:22.000Z</time>
      </trkpt>
      <trkpt lat="44.29944" lon="3.32368">
        <ele>539.59997558594</ele>
        <time>2024-01-30T08:35:23.000Z</time>
      </trkpt>
      <trkpt lat="44.29943" lon="3.32378">
        <ele>540.20001220703</ele>
        <time>2024-01-30T08:35:24.000Z</time>
      </trkpt>
      <trkpt lat="44.29943" lon="3.32387">
        <ele>540.79998779297</ele>
        <time>2024-01-30T08:35:25.000Z</time>
      </trkpt>
      <trkpt lat="44.29943" lon="3.32397">
        <ele>541.79998779297</ele>
        <time>2024-01-30T08:35:26.000Z</time>
      </trkpt>
      <trkpt lat="44.29944" lon="3.32406">
        <ele>542.20001220703</ele>
        <time>2024-01-30T08:35:27.000Z</time>
      </trkpt>
      <trkpt lat="44.29946" lon="3.32415">
        <ele>543</ele>
        <time>2024-01-30T08:35:28.000Z</time>
      </trkpt>
      <trkpt lat="44.29949" lon="3.32424">
        <ele>543.79998779297</ele>
        <time>2024-01-30T08:35:29.000Z</time>
      </trkpt>
      <trkpt lat="44.29952" lon="3.32432">
        <ele>544.20001220703</ele>
        <time>2024-01-30T08:35:30.000Z</time>
      </trkpt>
      <trkpt lat="44.2996" lon="3.32445">
        <ele>545.20001220703</ele>
        <time>2024-01-30T08:35:32.000Z</time>
      </trkpt>
      <trkpt lat="44.29976" lon="3.32449">
        <ele>546.59997558594</ele>
        <time>2024-01-30T08:35:34.000Z</time>
      </trkpt>
      <trkpt lat="44.29991" lon="3.3245">
        <ele>547.79998779297</ele>
        <time>2024-01-30T08:35:36.000Z</time>
      </trkpt>
      <trkpt lat="44.30005" lon="3.32455">
        <ele>549</ele>
        <time>2024-01-30T08:35:38.000Z</time>
      </trkpt>
      <trkpt lat="44.30011" lon="3.32458">
        <ele>549.59997558594</ele>
        <time>2024-01-30T08:35:39.000Z</time>
      </trkpt>
      <trkpt lat="44.30017" lon="3.32462">
        <ele>550.59997558594</ele>
        <time>2024-01-30T08:35:40.000Z</time>
      </trkpt>
      <trkpt lat="44.30031" lon="3.32467">
        <ele>551.79998779297</ele>
        <time>2024-01-30T08:35:42.000Z</time>
      </trkpt>
      <trkpt lat="44.30045" lon="3.32471">
        <ele>553</ele>
        <time>2024-01-30T08:35:44.000Z</time>
      </trkpt>
      <trkpt lat="44.30053" lon="3.32473">
        <ele>553.79998779297</ele>
        <time>2024-01-30T08:35:45.000Z</time>
      </trkpt>
      <trkpt lat="44.30059" lon="3.32474">
        <ele>554.40002441406</ele>
        <time>2024-01-30T08:35:46.000Z</time>
      </trkpt>
      <trkpt lat="44.30072" lon="3.32478">
        <ele>555.79998779297</ele>
        <time>2024-01-30T08:35:48.000Z</time>
      </trkpt>
      <trkpt lat="44.30082" lon="3.32482">
        <ele>556.59997558594</ele>
        <time>2024-01-30T08:35:50.000Z</time>
      </trkpt>
      <trkpt lat="44.30084" lon="3.32486">
        <ele>557</ele>
        <time>2024-01-30T08:35:51.000Z</time>
      </trkpt>
      <trkpt lat="44.30085" lon="3.32489">
        <ele>557.20001220703</ele>
        <time>2024-01-30T08:35:52.000Z</time>
      </trkpt>
      <trkpt lat="44.30082" lon="3.32493">
        <ele>557.40002441406</ele>
        <time>2024-01-30T08:35:54.000Z</time>
      </trkpt>
      <trkpt lat="44.3008" lon="3.32494">
        <ele>557.79998779297</ele>
        <time>2024-01-30T08:35:55.000Z</time>
      </trkpt>
      <trkpt lat="44.30078" lon="3.32493">
        <ele>558</ele>
        <time>2024-01-30T08:35:56.000Z</time>
      </trkpt>
      <trkpt lat="44.30065" lon="3.32488">
        <ele>558.79998779297</ele>
        <time>2024-01-30T08:35:59.000Z</time>
      </trkpt>
      <trkpt lat="44.30059" lon="3.32486">
        <ele>559.20001220703</ele>
        <time>2024-01-30T08:36:00.000Z</time>
      </trkpt>
      <trkpt lat="44.30052" lon="3.32486">
        <ele>559.79998779297</ele>
        <time>2024-01-30T08:36:01.000Z</time>
      </trkpt>
      <trkpt lat="44.30044" lon="3.32486">
        <ele>560.40002441406</ele>
        <time>2024-01-30T08:36:02.000Z</time>
      </trkpt>
      <trkpt lat="44.30036" lon="3.32487">
        <ele>561.59997558594</ele>
        <time>2024-01-30T08:36:03.000Z</time>
      </trkpt>
      <trkpt lat="44.3002" lon="3.32487">
        <ele>563.20001220703</ele>
        <time>2024-01-30T08:36:05.000Z</time>
      </trkpt>
      <trkpt lat="44.30004" lon="3.32486">
        <ele>564.59997558594</ele>
        <time>2024-01-30T08:36:07.000Z</time>
      </trkpt>
      <trkpt lat="44.29988" lon="3.32488">
        <ele>566.20001220703</ele>
        <time>2024-01-30T08:36:09.000Z</time>
      </trkpt>
      <trkpt lat="44.29973" lon="3.32494">
        <ele>567.79998779297</ele>
        <time>2024-01-30T08:36:11.000Z</time>
      </trkpt>
      <trkpt lat="44.29958" lon="3.325">
        <ele>569</ele>
        <time>2024-01-30T08:36:13.000Z</time>
      </trkpt>
      <trkpt lat="44.29951" lon="3.32503">
        <ele>570</ele>
        <time>2024-01-30T08:36:14.000Z</time>
      </trkpt>
      <trkpt lat="44.29944" lon="3.32506">
        <ele>570.79998779297</ele>
        <time>2024-01-30T08:36:15.000Z</time>
      </trkpt>
      <trkpt lat="44.29938" lon="3.32508">
        <ele>571.40002441406</ele>
        <time>2024-01-30T08:36:16.000Z</time>
      </trkpt>
      <trkpt lat="44.29931" lon="3.32508">
        <ele>572.40002441406</ele>
        <time>2024-01-30T08:36:17.000Z</time>
      </trkpt>
      <trkpt lat="44.29925" lon="3.32506">
        <ele>573.20001220703</ele>
        <time>2024-01-30T08:36:18.000Z</time>
      </trkpt>
      <trkpt lat="44.29919" lon="3.32501">
        <ele>573.59997558594</ele>
        <time>2024-01-30T08:36:19.000Z</time>
      </trkpt>
      <trkpt lat="44.29914" lon="3.32495">
        <ele>574</ele>
        <time>2024-01-30T08:36:20.000Z</time>
      </trkpt>
      <trkpt lat="44.2991" lon="3.32488">
        <ele>574.79998779297</ele>
        <time>2024-01-30T08:36:21.000Z</time>
      </trkpt>
      <trkpt lat="44.29905" lon="3.3248">
        <ele>575.40002441406</ele>
        <time>2024-01-30T08:36:22.000Z</time>
      </trkpt>
      <trkpt lat="44.29899" lon="3.32472">
        <ele>576.20001220703</ele>
        <time>2024-01-30T08:36:23.000Z</time>
      </trkpt>
      <trkpt lat="44.29886" lon="3.3246">
        <ele>577.79998779297</ele>
        <time>2024-01-30T08:36:25.000Z</time>
      </trkpt>
      <trkpt lat="44.29873" lon="3.32448">
        <ele>579.79998779297</ele>
        <time>2024-01-30T08:36:27.000Z</time>
      </trkpt>
      <trkpt lat="44.29861" lon="3.32433">
        <ele>581.20001220703</ele>
        <time>2024-01-30T08:36:29.000Z</time>
      </trkpt>
      <trkpt lat="44.29857" lon="3.32427">
        <ele>581.59997558594</ele>
        <time>2024-01-30T08:36:30.000Z</time>
      </trkpt>
      <trkpt lat="44.29853" lon="3.32419">
        <ele>583</ele>
        <time>2024-01-30T08:36:31.000Z</time>
      </trkpt>
      <trkpt lat="44.29848" lon="3.32404">
        <ele>583.79998779297</ele>
        <time>2024-01-30T08:36:33.000Z</time>
      </trkpt>
      <trkpt lat="44.29847" lon="3.32398">
        <ele>584.40002441406</ele>
        <time>2024-01-30T08:36:34.000Z</time>
      </trkpt>
      <trkpt lat="44.29845" lon="3.32392">
        <ele>585</ele>
        <time>2024-01-30T08:36:35.000Z</time>
      </trkpt>
      <trkpt lat="44.29842" lon="3.32389">
        <ele>585.40002441406</ele>
        <time>2024-01-30T08:36:36.000Z</time>
      </trkpt>
      <trkpt lat="44.29839" lon="3.32387">
        <ele>585.59997558594</ele>
        <time>2024-01-30T08:36:37.000Z</time>
      </trkpt>
      <trkpt lat="44.29835" lon="3.32392">
        <ele>586</ele>
        <time>2024-01-30T08:36:39.000Z</time>
      </trkpt>
      <trkpt lat="44.29835" lon="3.32397">
        <ele>586.59997558594</ele>
        <time>2024-01-30T08:36:40.000Z</time>
      </trkpt>
      <trkpt lat="44.29841" lon="3.32408">
        <ele>587.20001220703</ele>
        <time>2024-01-30T08:36:42.000Z</time>
      </trkpt>
      <trkpt lat="44.29844" lon="3.32416">
        <ele>587.59997558594</ele>
        <time>2024-01-30T08:36:43.000Z</time>
      </trkpt>
      <trkpt lat="44.29847" lon="3.32432">
        <ele>588.59997558594</ele>
        <time>2024-01-30T08:36:45.000Z</time>
      </trkpt>
      <trkpt lat="44.2985" lon="3.32441">
        <ele>589</ele>
        <time>2024-01-30T08:36:46.000Z</time>
      </trkpt>
      <trkpt lat="44.29855" lon="3.32457">
        <ele>590.20001220703</ele>
        <time>2024-01-30T08:36:48.000Z</time>
      </trkpt>
      <trkpt lat="44.29859" lon="3.32464">
        <ele>590.79998779297</ele>
        <time>2024-01-30T08:36:49.000Z</time>
      </trkpt>
      <trkpt lat="44.29862" lon="3.32471">
        <ele>591.40002441406</ele>
        <time>2024-01-30T08:36:50.000Z</time>
      </trkpt>
      <trkpt lat="44.29875" lon="3.32489">
        <ele>593.20001220703</ele>
        <time>2024-01-30T08:36:53.000Z</time>
      </trkpt>
      <trkpt lat="44.29879" lon="3.32495">
        <ele>594</ele>
        <time>2024-01-30T08:36:54.000Z</time>
      </trkpt>
      <trkpt lat="44.29885" lon="3.32502">
        <ele>594.40002441406</ele>
        <time>2024-01-30T08:36:55.000Z</time>
      </trkpt>
      <trkpt lat="44.2989" lon="3.32517">
        <ele>595.79998779297</ele>
        <time>2024-01-30T08:36:57.000Z</time>
      </trkpt>
      <trkpt lat="44.2989" lon="3.32524">
        <ele>596.40002441406</ele>
        <time>2024-01-30T08:36:58.000Z</time>
      </trkpt>
      <trkpt lat="44.29893" lon="3.32533">
        <ele>597.40002441406</ele>
        <time>2024-01-30T08:36:59.000Z</time>
      </trkpt>
      <trkpt lat="44.29898" lon="3.32556">
        <ele>599</ele>
        <time>2024-01-30T08:37:02.000Z</time>
      </trkpt>
      <trkpt lat="44.29904" lon="3.32567">
        <ele>600.20001220703</ele>
        <time>2024-01-30T08:37:04.000Z</time>
      </trkpt>
      <trkpt lat="44.29914" lon="3.32574">
        <ele>601.59997558594</ele>
        <time>2024-01-30T08:37:06.000Z</time>
      </trkpt>
      <trkpt lat="44.29921" lon="3.32575">
        <ele>602.20001220703</ele>
        <time>2024-01-30T08:37:07.000Z</time>
      </trkpt>
      <trkpt lat="44.29929" lon="3.32575">
        <ele>603</ele>
        <time>2024-01-30T08:37:08.000Z</time>
      </trkpt>
      <trkpt lat="44.29945" lon="3.32573">
        <ele>604</ele>
        <time>2024-01-30T08:37:10.000Z</time>
      </trkpt>
      <trkpt lat="44.29952" lon="3.32572">
        <ele>604.40002441406</ele>
        <time>2024-01-30T08:37:11.000Z</time>
      </trkpt>
      <trkpt lat="44.29958" lon="3.3257">
        <ele>605.20001220703</ele>
        <time>2024-01-30T08:37:12.000Z</time>
      </trkpt>
      <trkpt lat="44.29972" lon="3.32567">
        <ele>606.40002441406</ele>
        <time>2024-01-30T08:37:14.000Z</time>
      </trkpt>
      <trkpt lat="44.29979" lon="3.32566">
        <ele>606.79998779297</ele>
        <time>2024-01-30T08:37:15.000Z</time>
      </trkpt>
      <trkpt lat="44.29985" lon="3.32565">
        <ele>607.59997558594</ele>
        <time>2024-01-30T08:37:16.000Z</time>
      </trkpt>
      <trkpt lat="44.29992" lon="3.32565">
        <ele>608.20001220703</ele>
        <time>2024-01-30T08:37:17.000Z</time>
      </trkpt>
      <trkpt lat="44.29999" lon="3.32566">
        <ele>608.79998779297</ele>
        <time>2024-01-30T08:37:18.000Z</time>
      </trkpt>
      <trkpt lat="44.30005" lon="3.32568">
        <ele>609.59997558594</ele>
        <time>2024-01-30T08:37:19.000Z</time>
      </trkpt>
      <trkpt lat="44.30011" lon="3.32571">
        <ele>610.20001220703</ele>
        <time>2024-01-30T08:37:20.000Z</time>
      </trkpt>
      <trkpt lat="44.30017" lon="3.32575">
        <ele>611</ele>
        <time>2024-01-30T08:37:21.000Z</time>
      </trkpt>
      <trkpt lat="44.30022" lon="3.32579">
        <ele>611.40002441406</ele>
        <time>2024-01-30T08:37:22.000Z</time>
      </trkpt>
      <trkpt lat="44.30032" lon="3.32592">
        <ele>613</ele>
        <time>2024-01-30T08:37:24.000Z</time>
      </trkpt>
      <trkpt lat="44.30037" lon="3.326">
        <ele>614</ele>
        <time>2024-01-30T08:37:25.000Z</time>
      </trkpt>
      <trkpt lat="44.30042" lon="3.32609">
        <ele>614.79998779297</ele>
        <time>2024-01-30T08:37:26.000Z</time>
      </trkpt>
      <trkpt lat="44.30046" lon="3.32618">
        <ele>615.59997558594</ele>
        <time>2024-01-30T08:37:27.000Z</time>
      </trkpt>
      <trkpt lat="44.30054" lon="3.32634">
        <ele>617.20001220703</ele>
        <time>2024-01-30T08:37:29.000Z</time>
      </trkpt>
      <trkpt lat="44.3006" lon="3.32641">
        <ele>618.40002441406</ele>
        <time>2024-01-30T08:37:30.000Z</time>
      </trkpt>
      <trkpt lat="44.30068" lon="3.32647">
        <ele>618.79998779297</ele>
        <time>2024-01-30T08:37:31.000Z</time>
      </trkpt>
      <trkpt lat="44.30076" lon="3.32652">
        <ele>619.59997558594</ele>
        <time>2024-01-30T08:37:32.000Z</time>
      </trkpt>
      <trkpt lat="44.30092" lon="3.32663">
        <ele>621</ele>
        <time>2024-01-30T08:37:34.000Z</time>
      </trkpt>
      <trkpt lat="44.30107" lon="3.32674">
        <ele>622.79998779297</ele>
        <time>2024-01-30T08:37:36.000Z</time>
      </trkpt>
      <trkpt lat="44.30119" lon="3.32683">
        <ele>624</ele>
        <time>2024-01-30T08:37:38.000Z</time>
      </trkpt>
      <trkpt lat="44.30123" lon="3.32686">
        <ele>624.20001220703</ele>
        <time>2024-01-30T08:37:39.000Z</time>
      </trkpt>
      <trkpt lat="44.30129" lon="3.32693">
        <ele>624.79998779297</ele>
        <time>2024-01-30T08:37:41.000Z</time>
      </trkpt>
      <trkpt lat="44.3013" lon="3.32697">
        <ele>625.20001220703</ele>
        <time>2024-01-30T08:37:42.000Z</time>
      </trkpt>
      <trkpt lat="44.30127" lon="3.32702">
        <ele>625.79998779297</ele>
        <time>2024-01-30T08:37:44.000Z</time>
      </trkpt>
      <trkpt lat="44.30125" lon="3.32701">
        <ele>626.20001220703</ele>
        <time>2024-01-30T08:37:45.000Z</time>
      </trkpt>
      <trkpt lat="44.30122" lon="3.32699">
        <ele>626.40002441406</ele>
        <time>2024-01-30T08:37:46.000Z</time>
      </trkpt>
      <trkpt lat="44.30112" lon="3.32689">
        <ele>627.40002441406</ele>
        <time>2024-01-30T08:37:50.000Z</time>
      </trkpt>
      <trkpt lat="44.30108" lon="3.32686">
        <ele>627.79998779297</ele>
        <time>2024-01-30T08:37:51.000Z</time>
      </trkpt>
      <trkpt lat="44.30097" lon="3.32679">
        <ele>628.79998779297</ele>
        <time>2024-01-30T08:37:53.000Z</time>
      </trkpt>
      <trkpt lat="44.3009" lon="3.32676">
        <ele>629.59997558594</ele>
        <time>2024-01-30T08:37:54.000Z</time>
      </trkpt>
      <trkpt lat="44.30083" lon="3.32673">
        <ele>630.20001220703</ele>
        <time>2024-01-30T08:37:55.000Z</time>
      </trkpt>
      <trkpt lat="44.30069" lon="3.32668">
        <ele>631.20001220703</ele>
        <time>2024-01-30T08:37:57.000Z</time>
      </trkpt>
      <trkpt lat="44.30055" lon="3.32663">
        <ele>632.79998779297</ele>
        <time>2024-01-30T08:37:59.000Z</time>
      </trkpt>
      <trkpt lat="44.30049" lon="3.32659">
        <ele>633.79998779297</ele>
        <time>2024-01-30T08:38:00.000Z</time>
      </trkpt>
      <trkpt lat="44.30042" lon="3.32653">
        <ele>634.40002441406</ele>
        <time>2024-01-30T08:38:01.000Z</time>
      </trkpt>
      <trkpt lat="44.30031" lon="3.32642">
        <ele>635.59997558594</ele>
        <time>2024-01-30T08:38:03.000Z</time>
      </trkpt>
      <trkpt lat="44.30019" lon="3.3263">
        <ele>636.79998779297</ele>
        <time>2024-01-30T08:38:05.000Z</time>
      </trkpt>
      <trkpt lat="44.3001" lon="3.3262">
        <ele>637.79998779297</ele>
        <time>2024-01-30T08:38:07.000Z</time>
      </trkpt>
      <trkpt lat="44.30005" lon="3.32616">
        <ele>638.40002441406</ele>
        <time>2024-01-30T08:38:08.000Z</time>
      </trkpt>
      <trkpt lat="44.29999" lon="3.32613">
        <ele>639</ele>
        <time>2024-01-30T08:38:09.000Z</time>
      </trkpt>
      <trkpt lat="44.29993" lon="3.32611">
        <ele>639.59997558594</ele>
        <time>2024-01-30T08:38:10.000Z</time>
      </trkpt>
      <trkpt lat="44.29987" lon="3.3261">
        <ele>640.20001220703</ele>
        <time>2024-01-30T08:38:11.000Z</time>
      </trkpt>
      <trkpt lat="44.29981" lon="3.32611">
        <ele>640.79998779297</ele>
        <time>2024-01-30T08:38:12.000Z</time>
      </trkpt>
      <trkpt lat="44.29975" lon="3.32612">
        <ele>641.40002441406</ele>
        <time>2024-01-30T08:38:13.000Z</time>
      </trkpt>
      <trkpt lat="44.29961" lon="3.32616">
        <ele>642.59997558594</ele>
        <time>2024-01-30T08:38:15.000Z</time>
      </trkpt>
      <trkpt lat="44.29948" lon="3.32622">
        <ele>644.40002441406</ele>
        <time>2024-01-30T08:38:17.000Z</time>
      </trkpt>
      <trkpt lat="44.29941" lon="3.32625">
        <ele>645</ele>
        <time>2024-01-30T08:38:18.000Z</time>
      </trkpt>
      <trkpt lat="44.29934" lon="3.32629">
        <ele>645.79998779297</ele>
        <time>2024-01-30T08:38:19.000Z</time>
      </trkpt>
      <trkpt lat="44.29921" lon="3.32638">
        <ele>647</ele>
        <time>2024-01-30T08:38:21.000Z</time>
      </trkpt>
      <trkpt lat="44.29913" lon="3.32643">
        <ele>648</ele>
        <time>2024-01-30T08:38:22.000Z</time>
      </trkpt>
      <trkpt lat="44.299" lon="3.32653">
        <ele>649.79998779297</ele>
        <time>2024-01-30T08:38:24.000Z</time>
      </trkpt>
      <trkpt lat="44.29894" lon="3.32656">
        <ele>650.40002441406</ele>
        <time>2024-01-30T08:38:25.000Z</time>
      </trkpt>
      <trkpt lat="44.29887" lon="3.32658">
        <ele>651.20001220703</ele>
        <time>2024-01-30T08:38:26.000Z</time>
      </trkpt>
      <trkpt lat="44.2988" lon="3.32658">
        <ele>652</ele>
        <time>2024-01-30T08:38:27.000Z</time>
      </trkpt>
      <trkpt lat="44.29873" lon="3.32657">
        <ele>653</ele>
        <time>2024-01-30T08:38:28.000Z</time>
      </trkpt>
      <trkpt lat="44.29858" lon="3.32652">
        <ele>654.20001220703</ele>
        <time>2024-01-30T08:38:30.000Z</time>
      </trkpt>
      <trkpt lat="44.29845" lon="3.32644">
        <ele>655.59997558594</ele>
        <time>2024-01-30T08:38:32.000Z</time>
      </trkpt>
      <trkpt lat="44.29838" lon="3.3263">
        <ele>656.79998779297</ele>
        <time>2024-01-30T08:38:34.000Z</time>
      </trkpt>
      <trkpt lat="44.29834" lon="3.32623">
        <ele>657.40002441406</ele>
        <time>2024-01-30T08:38:35.000Z</time>
      </trkpt>
      <trkpt lat="44.2983" lon="3.32617">
        <ele>658.20001220703</ele>
        <time>2024-01-30T08:38:36.000Z</time>
      </trkpt>
      <trkpt lat="44.29824" lon="3.32614">
        <ele>658.79998779297</ele>
        <time>2024-01-30T08:38:37.000Z</time>
      </trkpt>
      <trkpt lat="44.29818" lon="3.32612">
        <ele>659.59997558594</ele>
        <time>2024-01-30T08:38:38.000Z</time>
      </trkpt>
      <trkpt lat="44.29804" lon="3.3261">
        <ele>661</ele>
        <time>2024-01-30T08:38:40.000Z</time>
      </trkpt>
      <trkpt lat="44.29798" lon="3.32608">
        <ele>661.79998779297</ele>
        <time>2024-01-30T08:38:41.000Z</time>
      </trkpt>
      <trkpt lat="44.29791" lon="3.32604">
        <ele>662.79998779297</ele>
        <time>2024-01-30T08:38:42.000Z</time>
      </trkpt>
      <trkpt lat="44.29784" lon="3.32597">
        <ele>663.79998779297</ele>
        <time>2024-01-30T08:38:43.000Z</time>
      </trkpt>
      <trkpt lat="44.29779" lon="3.3259">
        <ele>664.79998779297</ele>
        <time>2024-01-30T08:38:44.000Z</time>
      </trkpt>
      <trkpt lat="44.29776" lon="3.32583">
        <ele>665.40002441406</ele>
        <time>2024-01-30T08:38:45.000Z</time>
      </trkpt>
      <trkpt lat="44.29773" lon="3.32574">
        <ele>666.20001220703</ele>
        <time>2024-01-30T08:38:46.000Z</time>
      </trkpt>
      <trkpt lat="44.29771" lon="3.32563">
        <ele>667.20001220703</ele>
        <time>2024-01-30T08:38:47.000Z</time>
      </trkpt>
      <trkpt lat="44.29766" lon="3.32542">
        <ele>668.59997558594</ele>
        <time>2024-01-30T08:38:49.000Z</time>
      </trkpt>
      <trkpt lat="44.29759" lon="3.32521">
        <ele>670.20001220703</ele>
        <time>2024-01-30T08:38:51.000Z</time>
      </trkpt>
      <trkpt lat="44.29755" lon="3.32511">
        <ele>671.20001220703</ele>
        <time>2024-01-30T08:38:52.000Z</time>
      </trkpt>
      <trkpt lat="44.29747" lon="3.32491">
        <ele>673</ele>
        <time>2024-01-30T08:38:54.000Z</time>
      </trkpt>
      <trkpt lat="44.2974" lon="3.32473">
        <ele>674.40002441406</ele>
        <time>2024-01-30T08:38:56.000Z</time>
      </trkpt>
      <trkpt lat="44.29736" lon="3.32465">
        <ele>675.20001220703</ele>
        <time>2024-01-30T08:38:57.000Z</time>
      </trkpt>
      <trkpt lat="44.2973" lon="3.32458">
        <ele>676.40002441406</ele>
        <time>2024-01-30T08:38:58.000Z</time>
      </trkpt>
      <trkpt lat="44.29725" lon="3.32451">
        <ele>677.59997558594</ele>
        <time>2024-01-30T08:38:59.000Z</time>
      </trkpt>
      <trkpt lat="44.29714" lon="3.32437">
        <ele>678.59997558594</ele>
        <time>2024-01-30T08:39:01.000Z</time>
      </trkpt>
      <trkpt lat="44.2971" lon="3.32429">
        <ele>680.20001220703</ele>
        <time>2024-01-30T08:39:02.000Z</time>
      </trkpt>
      <trkpt lat="44.29708" lon="3.3242">
        <ele>680.79998779297</ele>
        <time>2024-01-30T08:39:03.000Z</time>
      </trkpt>
      <trkpt lat="44.29707" lon="3.32412">
        <ele>681.59997558594</ele>
        <time>2024-01-30T08:39:04.000Z</time>
      </trkpt>
      <trkpt lat="44.29707" lon="3.32404">
        <ele>682.40002441406</ele>
        <time>2024-01-30T08:39:05.000Z</time>
      </trkpt>
      <trkpt lat="44.29706" lon="3.32394">
        <ele>683.20001220703</ele>
        <time>2024-01-30T08:39:06.000Z</time>
      </trkpt>
      <trkpt lat="44.297" lon="3.32379">
        <ele>684.40002441406</ele>
        <time>2024-01-30T08:39:08.000Z</time>
      </trkpt>
      <trkpt lat="44.29694" lon="3.32369">
        <ele>685.40002441406</ele>
        <time>2024-01-30T08:39:10.000Z</time>
      </trkpt>
      <trkpt lat="44.29693" lon="3.32357">
        <ele>686.40002441406</ele>
        <time>2024-01-30T08:39:12.000Z</time>
      </trkpt>
      <trkpt lat="44.29692" lon="3.32351">
        <ele>686.79998779297</ele>
        <time>2024-01-30T08:39:13.000Z</time>
      </trkpt>
      <trkpt lat="44.29693" lon="3.32344">
        <ele>687.20001220703</ele>
        <time>2024-01-30T08:39:14.000Z</time>
      </trkpt>
      <trkpt lat="44.297" lon="3.3233">
        <ele>688.59997558594</ele>
        <time>2024-01-30T08:39:16.000Z</time>
      </trkpt>
      <trkpt lat="44.29703" lon="3.32322">
        <ele>689.40002441406</ele>
        <time>2024-01-30T08:39:17.000Z</time>
      </trkpt>
      <trkpt lat="44.29706" lon="3.32314">
        <ele>690</ele>
        <time>2024-01-30T08:39:18.000Z</time>
      </trkpt>
      <trkpt lat="44.29713" lon="3.32298">
        <ele>692</ele>
        <time>2024-01-30T08:39:20.000Z</time>
      </trkpt>
      <trkpt lat="44.29717" lon="3.32291">
        <ele>692.59997558594</ele>
        <time>2024-01-30T08:39:21.000Z</time>
      </trkpt>
      <trkpt lat="44.29721" lon="3.32283">
        <ele>693.40002441406</ele>
        <time>2024-01-30T08:39:22.000Z</time>
      </trkpt>
      <trkpt lat="44.29729" lon="3.32268">
        <ele>695</ele>
        <time>2024-01-30T08:39:24.000Z</time>
      </trkpt>
      <trkpt lat="44.29737" lon="3.32252">
        <ele>696.79998779297</ele>
        <time>2024-01-30T08:39:26.000Z</time>
      </trkpt>
      <trkpt lat="44.29741" lon="3.32244">
        <ele>697.40002441406</ele>
        <time>2024-01-30T08:39:27.000Z</time>
      </trkpt>
      <trkpt lat="44.29745" lon="3.32235">
        <ele>698.20001220703</ele>
        <time>2024-01-30T08:39:28.000Z</time>
      </trkpt>
      <trkpt lat="44.29752" lon="3.3222">
        <ele>699.20001220703</ele>
        <time>2024-01-30T08:39:30.000Z</time>
      </trkpt>
      <trkpt lat="44.29754" lon="3.32208">
        <ele>699.79998779297</ele>
        <time>2024-01-30T08:39:32.000Z</time>
      </trkpt>
      <trkpt lat="44.29749" lon="3.32199">
        <ele>700.40002441406</ele>
        <time>2024-01-30T08:39:34.000Z</time>
      </trkpt>
      <trkpt lat="44.29746" lon="3.322">
        <ele>700.79998779297</ele>
        <time>2024-01-30T08:39:35.000Z</time>
      </trkpt>
      <trkpt lat="44.29743" lon="3.32203">
        <ele>701.40002441406</ele>
        <time>2024-01-30T08:39:36.000Z</time>
      </trkpt>
      <trkpt lat="44.29739" lon="3.32216">
        <ele>702.59997558594</ele>
        <time>2024-01-30T08:39:38.000Z</time>
      </trkpt>
      <trkpt lat="44.29731" lon="3.3223">
        <ele>704</ele>
        <time>2024-01-30T08:39:40.000Z</time>
      </trkpt>
      <trkpt lat="44.29726" lon="3.32236">
        <ele>704.79998779297</ele>
        <time>2024-01-30T08:39:41.000Z</time>
      </trkpt>
      <trkpt lat="44.2972" lon="3.32242">
        <ele>705.59997558594</ele>
        <time>2024-01-30T08:39:42.000Z</time>
      </trkpt>
      <trkpt lat="44.29708" lon="3.32256">
        <ele>706.59997558594</ele>
        <time>2024-01-30T08:39:44.000Z</time>
      </trkpt>
      <trkpt lat="44.29702" lon="3.32263">
        <ele>707.79998779297</ele>
        <time>2024-01-30T08:39:45.000Z</time>
      </trkpt>
      <trkpt lat="44.29689" lon="3.32278">
        <ele>709.40002441406</ele>
        <time>2024-01-30T08:39:47.000Z</time>
      </trkpt>
      <trkpt lat="44.29678" lon="3.32294">
        <ele>710.59997558594</ele>
        <time>2024-01-30T08:39:49.000Z</time>
      </trkpt>
      <trkpt lat="44.29673" lon="3.32302">
        <ele>711.79998779297</ele>
        <time>2024-01-30T08:39:50.000Z</time>
      </trkpt>
      <trkpt lat="44.29661" lon="3.32315">
        <ele>713.59997558594</ele>
        <time>2024-01-30T08:39:52.000Z</time>
      </trkpt>
      <trkpt lat="44.29656" lon="3.32322">
        <ele>714.59997558594</ele>
        <time>2024-01-30T08:39:53.000Z</time>
      </trkpt>
      <trkpt lat="44.29643" lon="3.32334">
        <ele>716.40002441406</ele>
        <time>2024-01-30T08:39:55.000Z</time>
      </trkpt>
      <trkpt lat="44.29639" lon="3.3234">
        <ele>717</ele>
        <time>2024-01-30T08:39:56.000Z</time>
      </trkpt>
      <trkpt lat="44.29635" lon="3.3235">
        <ele>717.59997558594</ele>
        <time>2024-01-30T08:39:57.000Z</time>
      </trkpt>
      <trkpt lat="44.29633" lon="3.32359">
        <ele>718.59997558594</ele>
        <time>2024-01-30T08:39:58.000Z</time>
      </trkpt>
      <trkpt lat="44.29632" lon="3.32369">
        <ele>719.40002441406</ele>
        <time>2024-01-30T08:39:59.000Z</time>
      </trkpt>
      <trkpt lat="44.29632" lon="3.32379">
        <ele>720.40002441406</ele>
        <time>2024-01-30T08:40:00.000Z</time>
      </trkpt>
      <trkpt lat="44.29634" lon="3.32389">
        <ele>721</ele>
        <time>2024-01-30T08:40:01.000Z</time>
      </trkpt>
      <trkpt lat="44.29639" lon="3.32407">
        <ele>722.40002441406</ele>
        <time>2024-01-30T08:40:03.000Z</time>
      </trkpt>
      <trkpt lat="44.29638" lon="3.32423">
        <ele>723.79998779297</ele>
        <time>2024-01-30T08:40:05.000Z</time>
      </trkpt>
      <trkpt lat="44.29635" lon="3.32437">
        <ele>725</ele>
        <time>2024-01-30T08:40:07.000Z</time>
      </trkpt>
      <trkpt lat="44.29636" lon="3.32455">
        <ele>726.59997558594</ele>
        <time>2024-01-30T08:40:09.000Z</time>
      </trkpt>
      <trkpt lat="44.29642" lon="3.32473">
        <ele>728</ele>
        <time>2024-01-30T08:40:11.000Z</time>
      </trkpt>
      <trkpt lat="44.29646" lon="3.32482">
        <ele>729</ele>
        <time>2024-01-30T08:40:12.000Z</time>
      </trkpt>
      <trkpt lat="44.2965" lon="3.32491">
        <ele>730</ele>
        <time>2024-01-30T08:40:13.000Z</time>
      </trkpt>
      <trkpt lat="44.29666" lon="3.32517">
        <ele>732</ele>
        <time>2024-01-30T08:40:16.000Z</time>
      </trkpt>
      <trkpt lat="44.2967" lon="3.32526">
        <ele>732.59997558594</ele>
        <time>2024-01-30T08:40:17.000Z</time>
      </trkpt>
      <trkpt lat="44.29672" lon="3.32536">
        <ele>733.20001220703</ele>
        <time>2024-01-30T08:40:18.000Z</time>
      </trkpt>
      <trkpt lat="44.29673" lon="3.32546">
        <ele>734.20001220703</ele>
        <time>2024-01-30T08:40:19.000Z</time>
      </trkpt>
      <trkpt lat="44.29673" lon="3.32557">
        <ele>735</ele>
        <time>2024-01-30T08:40:20.000Z</time>
      </trkpt>
      <trkpt lat="44.29672" lon="3.32568">
        <ele>736.40002441406</ele>
        <time>2024-01-30T08:40:21.000Z</time>
      </trkpt>
      <trkpt lat="44.29669" lon="3.32592">
        <ele>738</ele>
        <time>2024-01-30T08:40:23.000Z</time>
      </trkpt>
      <trkpt lat="44.29666" lon="3.32619">
        <ele>740</ele>
        <time>2024-01-30T08:40:25.000Z</time>
      </trkpt>
      <trkpt lat="44.29665" lon="3.32633">
        <ele>741.20001220703</ele>
        <time>2024-01-30T08:40:26.000Z</time>
      </trkpt>
      <trkpt lat="44.29664" lon="3.32647">
        <ele>742.59997558594</ele>
        <time>2024-01-30T08:40:27.000Z</time>
      </trkpt>
      <trkpt lat="44.29665" lon="3.32661">
        <ele>743.59997558594</ele>
        <time>2024-01-30T08:40:28.000Z</time>
      </trkpt>
      <trkpt lat="44.29666" lon="3.32675">
        <ele>744.59997558594</ele>
        <time>2024-01-30T08:40:29.000Z</time>
      </trkpt>
      <trkpt lat="44.29668" lon="3.32689">
        <ele>746.20001220703</ele>
        <time>2024-01-30T08:40:30.000Z</time>
      </trkpt>
      <trkpt lat="44.29671" lon="3.32701">
        <ele>747</ele>
        <time>2024-01-30T08:40:31.000Z</time>
      </trkpt>
      <trkpt lat="44.29675" lon="3.32713">
        <ele>748</ele>
        <time>2024-01-30T08:40:32.000Z</time>
      </trkpt>
      <trkpt lat="44.29681" lon="3.32724">
        <ele>749</ele>
        <time>2024-01-30T08:40:33.000Z</time>
      </trkpt>
      <trkpt lat="44.29688" lon="3.32732">
        <ele>749.79998779297</ele>
        <time>2024-01-30T08:40:34.000Z</time>
      </trkpt>
      <trkpt lat="44.29697" lon="3.3274">
        <ele>751.20001220703</ele>
        <time>2024-01-30T08:40:35.000Z</time>
      </trkpt>
      <trkpt lat="44.29705" lon="3.32749">
        <ele>752</ele>
        <time>2024-01-30T08:40:36.000Z</time>
      </trkpt>
      <trkpt lat="44.29713" lon="3.32759">
        <ele>752.40002441406</ele>
        <time>2024-01-30T08:40:37.000Z</time>
      </trkpt>
      <trkpt lat="44.2972" lon="3.32771">
        <ele>754.20001220703</ele>
        <time>2024-01-30T08:40:39.000Z</time>
      </trkpt>
      <trkpt lat="44.29725" lon="3.32775">
        <ele>754.79998779297</ele>
        <time>2024-01-30T08:40:40.000Z</time>
      </trkpt>
      <trkpt lat="44.2973" lon="3.32778">
        <ele>755.40002441406</ele>
        <time>2024-01-30T08:40:41.000Z</time>
      </trkpt>
      <trkpt lat="44.29737" lon="3.32781">
        <ele>756.40002441406</ele>
        <time>2024-01-30T08:40:42.000Z</time>
      </trkpt>
      <trkpt lat="44.29744" lon="3.32785">
        <ele>757.20001220703</ele>
        <time>2024-01-30T08:40:43.000Z</time>
      </trkpt>
      <trkpt lat="44.29748" lon="3.32792">
        <ele>758.20001220703</ele>
        <time>2024-01-30T08:40:44.000Z</time>
      </trkpt>
      <trkpt lat="44.29752" lon="3.32801">
        <ele>759.40002441406</ele>
        <time>2024-01-30T08:40:45.000Z</time>
      </trkpt>
      <trkpt lat="44.2976" lon="3.32823">
        <ele>761</ele>
        <time>2024-01-30T08:40:47.000Z</time>
      </trkpt>
      <trkpt lat="44.29765" lon="3.32829">
        <ele>762</ele>
        <time>2024-01-30T08:40:48.000Z</time>
      </trkpt>
      <trkpt lat="44.29772" lon="3.32836">
        <ele>762.40002441406</ele>
        <time>2024-01-30T08:40:49.000Z</time>
      </trkpt>
      <trkpt lat="44.29781" lon="3.32841">
        <ele>764</ele>
        <time>2024-01-30T08:40:50.000Z</time>
      </trkpt>
      <trkpt lat="44.29791" lon="3.32848">
        <ele>765</ele>
        <time>2024-01-30T08:40:51.000Z</time>
      </trkpt>
      <trkpt lat="44.298" lon="3.32854">
        <ele>766</ele>
        <time>2024-01-30T08:40:52.000Z</time>
      </trkpt>
      <trkpt lat="44.29818" lon="3.32869">
        <ele>768</ele>
        <time>2024-01-30T08:40:54.000Z</time>
      </trkpt>
      <trkpt lat="44.29827" lon="3.32877">
        <ele>769</ele>
        <time>2024-01-30T08:40:55.000Z</time>
      </trkpt>
      <trkpt lat="44.29834" lon="3.32885">
        <ele>770.20001220703</ele>
        <time>2024-01-30T08:40:56.000Z</time>
      </trkpt>
      <trkpt lat="44.29847" lon="3.32899">
        <ele>772.20001220703</ele>
        <time>2024-01-30T08:40:58.000Z</time>
      </trkpt>
      <trkpt lat="44.29856" lon="3.32904">
        <ele>773.40002441406</ele>
        <time>2024-01-30T08:40:59.000Z</time>
      </trkpt>
      <trkpt lat="44.29867" lon="3.32906">
        <ele>774.59997558594</ele>
        <time>2024-01-30T08:41:00.000Z</time>
      </trkpt>
      <trkpt lat="44.29879" lon="3.32906">
        <ele>776</ele>
        <time>2024-01-30T08:41:01.000Z</time>
      </trkpt>
      <trkpt lat="44.2989" lon="3.32905">
        <ele>776.79998779297</ele>
        <time>2024-01-30T08:41:02.000Z</time>
      </trkpt>
      <trkpt lat="44.29901" lon="3.32903">
        <ele>778.40002441406</ele>
        <time>2024-01-30T08:41:03.000Z</time>
      </trkpt>
      <trkpt lat="44.29921" lon="3.32902">
        <ele>780.20001220703</ele>
        <time>2024-01-30T08:41:05.000Z</time>
      </trkpt>
      <trkpt lat="44.29938" lon="3.32904">
        <ele>781.40002441406</ele>
        <time>2024-01-30T08:41:07.000Z</time>
      </trkpt>
      <trkpt lat="44.29952" lon="3.32909">
        <ele>782.59997558594</ele>
        <time>2024-01-30T08:41:09.000Z</time>
      </trkpt>
      <trkpt lat="44.29956" lon="3.3291">
        <ele>783.20001220703</ele>
        <time>2024-01-30T08:41:10.000Z</time>
      </trkpt>
      <trkpt lat="44.29958" lon="3.32916">
        <ele>783.79998779297</ele>
        <time>2024-01-30T08:41:11.000Z</time>
      </trkpt>
      <trkpt lat="44.29964" lon="3.32931">
        <ele>784.79998779297</ele>
        <time>2024-01-30T08:41:13.000Z</time>
      </trkpt>
      <trkpt lat="44.29965" lon="3.32942">
        <ele>785.79998779297</ele>
        <time>2024-01-30T08:41:14.000Z</time>
      </trkpt>
      <trkpt lat="44.29964" lon="3.32964">
        <ele>787.40002441406</ele>
        <time>2024-01-30T08:41:16.000Z</time>
      </trkpt>
      <trkpt lat="44.29961" lon="3.32987">
        <ele>789.20001220703</ele>
        <time>2024-01-30T08:41:18.000Z</time>
      </trkpt>
      <trkpt lat="44.29956" lon="3.33012">
        <ele>790.79998779297</ele>
        <time>2024-01-30T08:41:20.000Z</time>
      </trkpt>
      <trkpt lat="44.29953" lon="3.33024">
        <ele>791.79998779297</ele>
        <time>2024-01-30T08:41:21.000Z</time>
      </trkpt>
      <trkpt lat="44.2995" lon="3.33035">
        <ele>792.20001220703</ele>
        <time>2024-01-30T08:41:22.000Z</time>
      </trkpt>
      <trkpt lat="44.29947" lon="3.33046">
        <ele>793.59997558594</ele>
        <time>2024-01-30T08:41:23.000Z</time>
      </trkpt>
      <trkpt lat="44.29946" lon="3.33058">
        <ele>794.40002441406</ele>
        <time>2024-01-30T08:41:24.000Z</time>
      </trkpt>
      <trkpt lat="44.29946" lon="3.33071">
        <ele>795.40002441406</ele>
        <time>2024-01-30T08:41:25.000Z</time>
      </trkpt>
      <trkpt lat="44.29947" lon="3.33084">
        <ele>797</ele>
        <time>2024-01-30T08:41:26.000Z</time>
      </trkpt>
      <trkpt lat="44.29949" lon="3.33112">
        <ele>799</ele>
        <time>2024-01-30T08:41:28.000Z</time>
      </trkpt>
      <trkpt lat="44.2995" lon="3.33126">
        <ele>799.59997558594</ele>
        <time>2024-01-30T08:41:29.000Z</time>
      </trkpt>
      <trkpt lat="44.2995" lon="3.33141">
        <ele>801.40002441406</ele>
        <time>2024-01-30T08:41:30.000Z</time>
      </trkpt>
      <trkpt lat="44.29951" lon="3.33157">
        <ele>802.59997558594</ele>
        <time>2024-01-30T08:41:31.000Z</time>
      </trkpt>
      <trkpt lat="44.29954" lon="3.33189">
        <ele>804.40002441406</ele>
        <time>2024-01-30T08:41:33.000Z</time>
      </trkpt>
      <trkpt lat="44.29955" lon="3.33204">
        <ele>806</ele>
        <time>2024-01-30T08:41:34.000Z</time>
      </trkpt>
      <trkpt lat="44.29957" lon="3.3322">
        <ele>807</ele>
        <time>2024-01-30T08:41:35.000Z</time>
      </trkpt>
      <trkpt lat="44.29959" lon="3.33236">
        <ele>808.20001220703</ele>
        <time>2024-01-30T08:41:36.000Z</time>
      </trkpt>
      <trkpt lat="44.29961" lon="3.3325">
        <ele>809.20001220703</ele>
        <time>2024-01-30T08:41:37.000Z</time>
      </trkpt>
      <trkpt lat="44.29964" lon="3.33276">
        <ele>811</ele>
        <time>2024-01-30T08:41:39.000Z</time>
      </trkpt>
      <trkpt lat="44.29961" lon="3.33301">
        <ele>812.79998779297</ele>
        <time>2024-01-30T08:41:41.000Z</time>
      </trkpt>
      <trkpt lat="44.29957" lon="3.33311">
        <ele>813.79998779297</ele>
        <time>2024-01-30T08:41:42.000Z</time>
      </trkpt>
      <trkpt lat="44.29951" lon="3.33328">
        <ele>815.40002441406</ele>
        <time>2024-01-30T08:41:44.000Z</time>
      </trkpt>
      <trkpt lat="44.29947" lon="3.3334">
        <ele>816.20001220703</ele>
        <time>2024-01-30T08:41:46.000Z</time>
      </trkpt>
      <trkpt lat="44.29945" lon="3.33347">
        <ele>816.40002441406</ele>
        <time>2024-01-30T08:41:49.000Z</time>
      </trkpt>
      <trkpt lat="44.29943" lon="3.33352">
        <ele>817.20001220703</ele>
        <time>2024-01-30T08:41:54.000Z</time>
      </trkpt>
      <trkpt lat="44.29935" lon="3.33371">
        <ele>817.59997558594</ele>
        <time>2024-01-30T08:41:59.000Z</time>
      </trkpt>
      <trkpt lat="44.2992" lon="3.33407">
        <ele>817.59997558594</ele>
        <time>2024-01-30T08:42:08.000Z</time>
      </trkpt>
      <trkpt lat="44.2991" lon="3.33427">
        <ele>817</ele>
        <time>2024-01-30T08:42:14.000Z</time>
      </trkpt>
      <trkpt lat="44.29909" lon="3.33429">
        <ele>816.79998779297</ele>
        <time>2024-01-30T08:42:18.000Z</time>
      </trkpt>
      <trkpt lat="44.29909" lon="3.33429">
        <ele>816.59997558594</ele>
        <time>2024-01-30T08:42:29.000Z</time>
      </trkpt>
      <trkpt lat="44.29909" lon="3.33429">
        <ele>816.59997558594</ele>
        <time>2024-01-30T08:42:38.000Z</time>
      </trkpt>
      <trkpt lat="44.29909" lon="3.33429">
        <ele>816.59997558594</ele>
        <time>2024-01-30T08:42:52.000Z</time>
      </trkpt>
      <trkpt lat="44.29909" lon="3.33429">
        <ele>816.40002441406</ele>
        <time>2024-01-30T08:42:59.000Z</time>
      </trkpt>
      <trkpt lat="44.29909" lon="3.33429">
        <ele>816</ele>
        <time>2024-01-30T08:43:41.000Z</time>
      </trkpt>
      <trkpt lat="44.29909" lon="3.33429">
        <ele>815.79998779297</ele>
        <time>2024-01-30T08:44:07.000Z</time>
      </trkpt>
      <trkpt lat="44.29909" lon="3.33429">
        <ele>815.59997558594</ele>
        <time>2024-01-30T08:44:26.000Z</time>
      </trkpt>
      <trkpt lat="44.29909" lon="3.33429">
        <ele>815.59997558594</ele>
        <time>2024-01-30T08:44:34.000Z</time>
      </trkpt>
      <trkpt lat="44.29909" lon="3.33429">
        <ele>815.20001220703</ele>
        <time>2024-01-30T08:45:01.000Z</time>
      </trkpt>
      <trkpt lat="44.29909" lon="3.33429">
        <ele>814.79998779297</ele>
        <time>2024-01-30T08:45:14.000Z</time>
      </trkpt>
      <trkpt lat="44.29909" lon="3.33429">
        <ele>814.59997558594</ele>
        <time>2024-01-30T08:45:43.000Z</time>
      </trkpt>
      <trkpt lat="44.29909" lon="3.33429">
        <ele>814.59997558594</ele>
        <time>2024-01-30T08:45:45.000Z</time>
      </trkpt>
      <trkpt lat="44.29909" lon="3.33429">
        <ele>814.40002441406</ele>
        <time>2024-01-30T08:46:04.000Z</time>
      </trkpt>
      <trkpt lat="44.29909" lon="3.33429">
        <ele>814.40002441406</ele>
        <time>2024-01-30T08:46:09.000Z</time>
      </trkpt>
      <trkpt lat="44.29904" lon="3.33438">
        <ele>814.40002441406</ele>
        <time>2024-01-30T08:46:29.000Z</time>
      </trkpt>
      <trkpt lat="44.29898" lon="3.33453">
        <ele>814.20001220703</ele>
        <time>2024-01-30T08:46:32.000Z</time>
      </trkpt>
      <trkpt lat="44.29895" lon="3.33459">
        <ele>814</ele>
        <time>2024-01-30T08:46:33.000Z</time>
      </trkpt>
      <trkpt lat="44.29882" lon="3.33488">
        <ele>813.20001220703</ele>
        <time>2024-01-30T08:46:36.000Z</time>
      </trkpt>
      <trkpt lat="44.29878" lon="3.33499">
        <ele>813.20001220703</ele>
        <time>2024-01-30T08:46:37.000Z</time>
      </trkpt>
      <trkpt lat="44.29853" lon="3.33551">
        <ele>812.40002441406</ele>
        <time>2024-01-30T08:46:41.000Z</time>
      </trkpt>
      <trkpt lat="44.29845" lon="3.33565">
        <ele>812</ele>
        <time>2024-01-30T08:46:42.000Z</time>
      </trkpt>
      <trkpt lat="44.29807" lon="3.33624">
        <ele>811.40002441406</ele>
        <time>2024-01-30T08:46:46.000Z</time>
      </trkpt>
      <trkpt lat="44.29767" lon="3.33687">
        <ele>811</ele>
        <time>2024-01-30T08:46:50.000Z</time>
      </trkpt>
      <trkpt lat="44.29737" lon="3.33734">
        <ele>810.79998779297</ele>
        <time>2024-01-30T08:46:53.000Z</time>
      </trkpt>
      <trkpt lat="44.29697" lon="3.33797">
        <ele>810.59997558594</ele>
        <time>2024-01-30T08:46:57.000Z</time>
      </trkpt>
      <trkpt lat="44.29657" lon="3.33859">
        <ele>810.40002441406</ele>
        <time>2024-01-30T08:47:01.000Z</time>
      </trkpt>
      <trkpt lat="44.29618" lon="3.33922">
        <ele>810.59997558594</ele>
        <time>2024-01-30T08:47:05.000Z</time>
      </trkpt>
      <trkpt lat="44.29579" lon="3.33983">
        <ele>810.40002441406</ele>
        <time>2024-01-30T08:47:09.000Z</time>
      </trkpt>
      <trkpt lat="44.2957" lon="3.33997">
        <ele>810.20001220703</ele>
        <time>2024-01-30T08:47:10.000Z</time>
      </trkpt>
      <trkpt lat="44.29552" lon="3.34024">
        <ele>810</ele>
        <time>2024-01-30T08:47:12.000Z</time>
      </trkpt>
      <trkpt lat="44.29533" lon="3.34048">
        <ele>810</ele>
        <time>2024-01-30T08:47:14.000Z</time>
      </trkpt>
      <trkpt lat="44.29523" lon="3.34058">
        <ele>810</ele>
        <time>2024-01-30T08:47:15.000Z</time>
      </trkpt>
      <trkpt lat="44.29512" lon="3.34066">
        <ele>810</ele>
        <time>2024-01-30T08:47:16.000Z</time>
      </trkpt>
      <trkpt lat="44.29477" lon="3.34085">
        <ele>810.79998779297</ele>
        <time>2024-01-30T08:47:19.000Z</time>
      </trkpt>
      <trkpt lat="44.29468" lon="3.34091">
        <ele>811.40002441406</ele>
        <time>2024-01-30T08:47:20.000Z</time>
      </trkpt>
      <trkpt lat="44.29415" lon="3.34124">
        <ele>812.20001220703</ele>
        <time>2024-01-30T08:47:25.000Z</time>
      </trkpt>
      <trkpt lat="44.29406" lon="3.3413">
        <ele>812.20001220703</ele>
        <time>2024-01-30T08:47:26.000Z</time>
      </trkpt>
      <trkpt lat="44.29384" lon="3.34143">
        <ele>812</ele>
        <time>2024-01-30T08:47:29.000Z</time>
      </trkpt>
      <trkpt lat="44.29374" lon="3.34148">
        <ele>812</ele>
        <time>2024-01-30T08:47:32.000Z</time>
      </trkpt>
      <trkpt lat="44.29366" lon="3.34166">
        <ele>812.20001220703</ele>
        <time>2024-01-30T08:47:36.000Z</time>
      </trkpt>
      <trkpt lat="44.29365" lon="3.3417">
        <ele>812.20001220703</ele>
        <time>2024-01-30T08:47:37.000Z</time>
      </trkpt>
      <trkpt lat="44.29362" lon="3.34176">
        <ele>811.59997558594</ele>
        <time>2024-01-30T08:47:40.000Z</time>
      </trkpt>
      <trkpt lat="44.29362" lon="3.34176">
        <ele>811.40002441406</ele>
        <time>2024-01-30T08:47:44.000Z</time>
      </trkpt>
      <trkpt lat="44.29363" lon="3.34174">
        <ele>811.40002441406</ele>
        <time>2024-01-30T08:47:51.000Z</time>
      </trkpt>
      <trkpt lat="44.29365" lon="3.34171">
        <ele>811.40002441406</ele>
        <time>2024-01-30T08:47:53.000Z</time>
      </trkpt>
      <trkpt lat="44.29372" lon="3.34156">
        <ele>811.79998779297</ele>
        <time>2024-01-30T08:48:00.000Z</time>
      </trkpt>
      <trkpt lat="44.29376" lon="3.34151">
        <ele>812</ele>
        <time>2024-01-30T08:48:06.000Z</time>
      </trkpt>
      <trkpt lat="44.29376" lon="3.34151">
        <ele>812</ele>
        <time>2024-01-30T08:48:19.000Z</time>
      </trkpt>
      <trkpt lat="44.29376" lon="3.34151">
        <ele>812</ele>
        <time>2024-01-30T08:48:38.000Z</time>
      </trkpt>
      <trkpt lat="44.29376" lon="3.34151">
        <ele>812</ele>
        <time>2024-01-30T08:48:52.000Z</time>
      </trkpt>
      <trkpt lat="44.29376" lon="3.34151">
        <ele>812</ele>
        <time>2024-01-30T08:49:05.000Z</time>
      </trkpt>
      <trkpt lat="44.29376" lon="3.34151">
        <ele>812</ele>
        <time>2024-01-30T08:49:20.000Z</time>
      </trkpt>
      <trkpt lat="44.29375" lon="3.34154">
        <ele>811.79998779297</ele>
        <time>2024-01-30T08:49:35.000Z</time>
      </trkpt>
      <trkpt lat="44.29365" lon="3.3417">
        <ele>811.79998779297</ele>
        <time>2024-01-30T08:49:39.000Z</time>
      </trkpt>
      <trkpt lat="44.29352" lon="3.34205">
        <ele>811.40002441406</ele>
        <time>2024-01-30T08:49:43.000Z</time>
      </trkpt>
      <trkpt lat="44.29333" lon="3.3426">
        <ele>810.20001220703</ele>
        <time>2024-01-30T08:49:47.000Z</time>
      </trkpt>
      <trkpt lat="44.29317" lon="3.34307">
        <ele>808.20001220703</ele>
        <time>2024-01-30T08:49:50.000Z</time>
      </trkpt>
      <trkpt lat="44.29303" lon="3.34335">
        <ele>807.20001220703</ele>
        <time>2024-01-30T08:49:52.000Z</time>
      </trkpt>
      <trkpt lat="44.29264" lon="3.344">
        <ele>806.40002441406</ele>
        <time>2024-01-30T08:49:57.000Z</time>
      </trkpt>
      <trkpt lat="44.2925" lon="3.34423">
        <ele>806.20001220703</ele>
        <time>2024-01-30T08:49:59.000Z</time>
      </trkpt>
      <trkpt lat="44.29216" lon="3.34482">
        <ele>806.59997558594</ele>
        <time>2024-01-30T08:50:04.000Z</time>
      </trkpt>
      <trkpt lat="44.29177" lon="3.34546">
        <ele>806.79998779297</ele>
        <time>2024-01-30T08:50:09.000Z</time>
      </trkpt>
      <trkpt lat="44.29168" lon="3.34559">
        <ele>806.79998779297</ele>
        <time>2024-01-30T08:50:10.000Z</time>
      </trkpt>
      <trkpt lat="44.2913" lon="3.34614">
        <ele>807.20001220703</ele>
        <time>2024-01-30T08:50:14.000Z</time>
      </trkpt>
      <trkpt lat="44.2911" lon="3.34643">
        <ele>807.59997558594</ele>
        <time>2024-01-30T08:50:16.000Z</time>
      </trkpt>
      <trkpt lat="44.2908" lon="3.34688">
        <ele>808.20001220703</ele>
        <time>2024-01-30T08:50:19.000Z</time>
      </trkpt>
      <trkpt lat="44.29039" lon="3.34748">
        <ele>808.79998779297</ele>
        <time>2024-01-30T08:50:23.000Z</time>
      </trkpt>
      <trkpt lat="44.28999" lon="3.34806">
        <ele>808.79998779297</ele>
        <time>2024-01-30T08:50:27.000Z</time>
      </trkpt>
      <trkpt lat="44.28972" lon="3.34844">
        <ele>808.79998779297</ele>
        <time>2024-01-30T08:50:30.000Z</time>
      </trkpt>
      <trkpt lat="44.2896" lon="3.34869">
        <ele>809</ele>
        <time>2024-01-30T08:50:32.000Z</time>
      </trkpt>
      <trkpt lat="44.28955" lon="3.34883">
        <ele>809.20001220703</ele>
        <time>2024-01-30T08:50:33.000Z</time>
      </trkpt>
      <trkpt lat="44.28932" lon="3.3496">
        <ele>810.20001220703</ele>
        <time>2024-01-30T08:50:38.000Z</time>
      </trkpt>
      <trkpt lat="44.28927" lon="3.34976">
        <ele>810.20001220703</ele>
        <time>2024-01-30T08:50:39.000Z</time>
      </trkpt>
      <trkpt lat="44.28922" lon="3.34993">
        <ele>810.40002441406</ele>
        <time>2024-01-30T08:50:40.000Z</time>
      </trkpt>
      <trkpt lat="44.28915" lon="3.35028">
        <ele>810.79998779297</ele>
        <time>2024-01-30T08:50:42.000Z</time>
      </trkpt>
      <trkpt lat="44.28914" lon="3.35047">
        <ele>811</ele>
        <time>2024-01-30T08:50:43.000Z</time>
      </trkpt>
      <trkpt lat="44.28915" lon="3.35065">
        <ele>811</ele>
        <time>2024-01-30T08:50:44.000Z</time>
      </trkpt>
      <trkpt lat="44.28916" lon="3.35085">
        <ele>811.40002441406</ele>
        <time>2024-01-30T08:50:45.000Z</time>
      </trkpt>
      <trkpt lat="44.28918" lon="3.35106">
        <ele>811.40002441406</ele>
        <time>2024-01-30T08:50:46.000Z</time>
      </trkpt>
      <trkpt lat="44.28923" lon="3.35147">
        <ele>812.40002441406</ele>
        <time>2024-01-30T08:50:48.000Z</time>
      </trkpt>
      <trkpt lat="44.2893" lon="3.35213">
        <ele>812.79998779297</ele>
        <time>2024-01-30T08:50:51.000Z</time>
      </trkpt>
      <trkpt lat="44.28932" lon="3.35235">
        <ele>813</ele>
        <time>2024-01-30T08:50:52.000Z</time>
      </trkpt>
      <trkpt lat="44.28937" lon="3.3528">
        <ele>813.40002441406</ele>
        <time>2024-01-30T08:50:54.000Z</time>
      </trkpt>
      <trkpt lat="44.28947" lon="3.35371">
        <ele>813.79998779297</ele>
        <time>2024-01-30T08:50:58.000Z</time>
      </trkpt>
      <trkpt lat="44.28952" lon="3.35415">
        <ele>814</ele>
        <time>2024-01-30T08:51:00.000Z</time>
      </trkpt>
      <trkpt lat="44.28965" lon="3.35498">
        <ele>814.59997558594</ele>
        <time>2024-01-30T08:51:04.000Z</time>
      </trkpt>
      <trkpt lat="44.28983" lon="3.35577">
        <ele>815.20001220703</ele>
        <time>2024-01-30T08:51:08.000Z</time>
      </trkpt>
      <trkpt lat="44.28989" lon="3.35596">
        <ele>815.20001220703</ele>
        <time>2024-01-30T08:51:09.000Z</time>
      </trkpt>
      <trkpt lat="44.2901" lon="3.35653">
        <ele>815.79998779297</ele>
        <time>2024-01-30T08:51:12.000Z</time>
      </trkpt>
      <trkpt lat="44.2903" lon="3.35711">
        <ele>816.20001220703</ele>
        <time>2024-01-30T08:51:15.000Z</time>
      </trkpt>
      <trkpt lat="44.29052" lon="3.35772">
        <ele>816.79998779297</ele>
        <time>2024-01-30T08:51:18.000Z</time>
      </trkpt>
      <trkpt lat="44.29076" lon="3.35832">
        <ele>817</ele>
        <time>2024-01-30T08:51:21.000Z</time>
      </trkpt>
      <trkpt lat="44.29098" lon="3.35892">
        <ele>818</ele>
        <time>2024-01-30T08:51:24.000Z</time>
      </trkpt>
      <trkpt lat="44.29129" lon="3.35971">
        <ele>819</ele>
        <time>2024-01-30T08:51:28.000Z</time>
      </trkpt>
      <trkpt lat="44.29161" lon="3.3605">
        <ele>819</ele>
        <time>2024-01-30T08:51:32.000Z</time>
      </trkpt>
      <trkpt lat="44.29183" lon="3.3611">
        <ele>819</ele>
        <time>2024-01-30T08:51:35.000Z</time>
      </trkpt>
      <trkpt lat="44.29191" lon="3.3613">
        <ele>819.20001220703</ele>
        <time>2024-01-30T08:51:36.000Z</time>
      </trkpt>
      <trkpt lat="44.29219" lon="3.36206">
        <ele>819.40002441406</ele>
        <time>2024-01-30T08:51:40.000Z</time>
      </trkpt>
      <trkpt lat="44.29233" lon="3.36241">
        <ele>819.40002441406</ele>
        <time>2024-01-30T08:51:42.000Z</time>
      </trkpt>
      <trkpt lat="44.29249" lon="3.36283">
        <ele>819.59997558594</ele>
        <time>2024-01-30T08:51:45.000Z</time>
      </trkpt>
      <trkpt lat="44.2926" lon="3.3631">
        <ele>819.59997558594</ele>
        <time>2024-01-30T08:51:48.000Z</time>
      </trkpt>
      <trkpt lat="44.29262" lon="3.36321">
        <ele>819.79998779297</ele>
        <time>2024-01-30T08:51:51.000Z</time>
      </trkpt>
      <trkpt lat="44.29266" lon="3.36327">
        <ele>820.20001220703</ele>
        <time>2024-01-30T08:51:53.000Z</time>
      </trkpt>
      <trkpt lat="44.29269" lon="3.36329">
        <ele>820.20001220703</ele>
        <time>2024-01-30T08:51:54.000Z</time>
      </trkpt>
      <trkpt lat="44.29273" lon="3.3633">
        <ele>820.40002441406</ele>
        <time>2024-01-30T08:51:55.000Z</time>
      </trkpt>
      <trkpt lat="44.29279" lon="3.36332">
        <ele>820.40002441406</ele>
        <time>2024-01-30T08:51:56.000Z</time>
      </trkpt>
      <trkpt lat="44.29293" lon="3.36337">
        <ele>821.40002441406</ele>
        <time>2024-01-30T08:51:58.000Z</time>
      </trkpt>
      <trkpt lat="44.29302" lon="3.36341">
        <ele>821.40002441406</ele>
        <time>2024-01-30T08:51:59.000Z</time>
      </trkpt>
      <trkpt lat="44.29345" lon="3.36356">
        <ele>822.59997558594</ele>
        <time>2024-01-30T08:52:03.000Z</time>
      </trkpt>
      <trkpt lat="44.29389" lon="3.36374">
        <ele>824</ele>
        <time>2024-01-30T08:52:06.000Z</time>
      </trkpt>
      <trkpt lat="44.29421" lon="3.36386">
        <ele>825</ele>
        <time>2024-01-30T08:52:08.000Z</time>
      </trkpt>
      <trkpt lat="44.29474" lon="3.36407">
        <ele>826.59997558594</ele>
        <time>2024-01-30T08:52:11.000Z</time>
      </trkpt>
      <trkpt lat="44.29526" lon="3.36427">
        <ele>828.20001220703</ele>
        <time>2024-01-30T08:52:14.000Z</time>
      </trkpt>
      <trkpt lat="44.29561" lon="3.36441">
        <ele>829.40002441406</ele>
        <time>2024-01-30T08:52:16.000Z</time>
      </trkpt>
      <trkpt lat="44.29596" lon="3.36455">
        <ele>830.79998779297</ele>
        <time>2024-01-30T08:52:18.000Z</time>
      </trkpt>
      <trkpt lat="44.29632" lon="3.3647">
        <ele>832</ele>
        <time>2024-01-30T08:52:20.000Z</time>
      </trkpt>
      <trkpt lat="44.2965" lon="3.36477">
        <ele>832.40002441406</ele>
        <time>2024-01-30T08:52:21.000Z</time>
      </trkpt>
      <trkpt lat="44.29686" lon="3.36492">
        <ele>833</ele>
        <time>2024-01-30T08:52:23.000Z</time>
      </trkpt>
      <trkpt lat="44.29741" lon="3.36514">
        <ele>833.20001220703</ele>
        <time>2024-01-30T08:52:26.000Z</time>
      </trkpt>
      <trkpt lat="44.2978" lon="3.3653">
        <ele>833</ele>
        <time>2024-01-30T08:52:28.000Z</time>
      </trkpt>
      <trkpt lat="44.29821" lon="3.36546">
        <ele>832.20001220703</ele>
        <time>2024-01-30T08:52:30.000Z</time>
      </trkpt>
      <trkpt lat="44.29842" lon="3.36555">
        <ele>831.79998779297</ele>
        <time>2024-01-30T08:52:31.000Z</time>
      </trkpt>
      <trkpt lat="44.29904" lon="3.36581">
        <ele>830.20001220703</ele>
        <time>2024-01-30T08:52:34.000Z</time>
      </trkpt>
      <trkpt lat="44.29966" lon="3.36606">
        <ele>829.20001220703</ele>
        <time>2024-01-30T08:52:37.000Z</time>
      </trkpt>
      <trkpt lat="44.30026" lon="3.36631">
        <ele>829</ele>
        <time>2024-01-30T08:52:40.000Z</time>
      </trkpt>
      <trkpt lat="44.30087" lon="3.36656">
        <ele>829.40002441406</ele>
        <time>2024-01-30T08:52:43.000Z</time>
      </trkpt>
      <trkpt lat="44.30147" lon="3.3668">
        <ele>829.40002441406</ele>
        <time>2024-01-30T08:52:46.000Z</time>
      </trkpt>
      <trkpt lat="44.30205" lon="3.36704">
        <ele>829.40002441406</ele>
        <time>2024-01-30T08:52:49.000Z</time>
      </trkpt>
      <trkpt lat="44.30242" lon="3.36721">
        <ele>829.20001220703</ele>
        <time>2024-01-30T08:52:51.000Z</time>
      </trkpt>
      <trkpt lat="44.30297" lon="3.36758">
        <ele>829</ele>
        <time>2024-01-30T08:52:54.000Z</time>
      </trkpt>
      <trkpt lat="44.30348" lon="3.36808">
        <ele>829</ele>
        <time>2024-01-30T08:52:57.000Z</time>
      </trkpt>
      <trkpt lat="44.30365" lon="3.36824">
        <ele>829</ele>
        <time>2024-01-30T08:52:58.000Z</time>
      </trkpt>
      <trkpt lat="44.30415" lon="3.36877">
        <ele>830</ele>
        <time>2024-01-30T08:53:01.000Z</time>
      </trkpt>
      <trkpt lat="44.30451" lon="3.36912">
        <ele>830.20001220703</ele>
        <time>2024-01-30T08:53:03.000Z</time>
      </trkpt>
      <trkpt lat="44.30487" lon="3.36948">
        <ele>830.40002441406</ele>
        <time>2024-01-30T08:53:05.000Z</time>
      </trkpt>
      <trkpt lat="44.30541" lon="3.37001">
        <ele>830.79998779297</ele>
        <time>2024-01-30T08:53:08.000Z</time>
      </trkpt>
      <trkpt lat="44.30594" lon="3.37055">
        <ele>831.20001220703</ele>
        <time>2024-01-30T08:53:11.000Z</time>
      </trkpt>
      <trkpt lat="44.30612" lon="3.37073">
        <ele>831.40002441406</ele>
        <time>2024-01-30T08:53:12.000Z</time>
      </trkpt>
      <trkpt lat="44.3063" lon="3.37091">
        <ele>831.40002441406</ele>
        <time>2024-01-30T08:53:13.000Z</time>
      </trkpt>
      <trkpt lat="44.30684" lon="3.37144">
        <ele>832.59997558594</ele>
        <time>2024-01-30T08:53:16.000Z</time>
      </trkpt>
      <trkpt lat="44.30738" lon="3.37197">
        <ele>833.59997558594</ele>
        <time>2024-01-30T08:53:19.000Z</time>
      </trkpt>
      <trkpt lat="44.30774" lon="3.37233">
        <ele>835.20001220703</ele>
        <time>2024-01-30T08:53:21.000Z</time>
      </trkpt>
      <trkpt lat="44.30809" lon="3.37267">
        <ele>836.59997558594</ele>
        <time>2024-01-30T08:53:23.000Z</time>
      </trkpt>
      <trkpt lat="44.30826" lon="3.37284">
        <ele>837.20001220703</ele>
        <time>2024-01-30T08:53:24.000Z</time>
      </trkpt>
      <trkpt lat="44.30844" lon="3.37301">
        <ele>838</ele>
        <time>2024-01-30T08:53:25.000Z</time>
      </trkpt>
      <trkpt lat="44.30877" lon="3.37334">
        <ele>839.20001220703</ele>
        <time>2024-01-30T08:53:27.000Z</time>
      </trkpt>
      <trkpt lat="44.30925" lon="3.37382">
        <ele>839.59997558594</ele>
        <time>2024-01-30T08:53:30.000Z</time>
      </trkpt>
      <trkpt lat="44.3094" lon="3.37397">
        <ele>839.79998779297</ele>
        <time>2024-01-30T08:53:31.000Z</time>
      </trkpt>
      <trkpt lat="44.30985" lon="3.37441">
        <ele>839.79998779297</ele>
        <time>2024-01-30T08:53:34.000Z</time>
      </trkpt>
      <trkpt lat="44.31029" lon="3.37484">
        <ele>839.59997558594</ele>
        <time>2024-01-30T08:53:37.000Z</time>
      </trkpt>
      <trkpt lat="44.31066" lon="3.37522">
        <ele>839.20001220703</ele>
        <time>2024-01-30T08:53:40.000Z</time>
      </trkpt>
      <trkpt lat="44.31099" lon="3.37553">
        <ele>839.20001220703</ele>
        <time>2024-01-30T08:53:43.000Z</time>
      </trkpt>
      <trkpt lat="44.31132" lon="3.37585">
        <ele>840.40002441406</ele>
        <time>2024-01-30T08:53:46.000Z</time>
      </trkpt>
      <trkpt lat="44.31154" lon="3.37607">
        <ele>841.79998779297</ele>
        <time>2024-01-30T08:53:48.000Z</time>
      </trkpt>
      <trkpt lat="44.31178" lon="3.37631">
        <ele>843.20001220703</ele>
        <time>2024-01-30T08:53:50.000Z</time>
      </trkpt>
      <trkpt lat="44.31203" lon="3.37655">
        <ele>844.59997558594</ele>
        <time>2024-01-30T08:53:52.000Z</time>
      </trkpt>
      <trkpt lat="44.31215" lon="3.37668">
        <ele>845.59997558594</ele>
        <time>2024-01-30T08:53:53.000Z</time>
      </trkpt>
      <trkpt lat="44.31228" lon="3.3768">
        <ele>846.59997558594</ele>
        <time>2024-01-30T08:53:54.000Z</time>
      </trkpt>
      <trkpt lat="44.31254" lon="3.37705">
        <ele>848</ele>
        <time>2024-01-30T08:53:56.000Z</time>
      </trkpt>
      <trkpt lat="44.31267" lon="3.37717">
        <ele>849.20001220703</ele>
        <time>2024-01-30T08:53:57.000Z</time>
      </trkpt>
      <trkpt lat="44.31294" lon="3.3774">
        <ele>851</ele>
        <time>2024-01-30T08:53:59.000Z</time>
      </trkpt>
      <trkpt lat="44.31309" lon="3.37749">
        <ele>852.20001220703</ele>
        <time>2024-01-30T08:54:00.000Z</time>
      </trkpt>
      <trkpt lat="44.31337" lon="3.37768">
        <ele>854</ele>
        <time>2024-01-30T08:54:02.000Z</time>
      </trkpt>
      <trkpt lat="44.3135" lon="3.37779">
        <ele>854.79998779297</ele>
        <time>2024-01-30T08:54:03.000Z</time>
      </trkpt>
      <trkpt lat="44.31361" lon="3.37793">
        <ele>855.79998779297</ele>
        <time>2024-01-30T08:54:04.000Z</time>
      </trkpt>
      <trkpt lat="44.31372" lon="3.37808">
        <ele>857</ele>
        <time>2024-01-30T08:54:05.000Z</time>
      </trkpt>
      <trkpt lat="44.3139" lon="3.37841">
        <ele>858.79998779297</ele>
        <time>2024-01-30T08:54:07.000Z</time>
      </trkpt>
      <trkpt lat="44.31414" lon="3.37885">
        <ele>860.40002441406</ele>
        <time>2024-01-30T08:54:10.000Z</time>
      </trkpt>
      <trkpt lat="44.31422" lon="3.37897">
        <ele>861</ele>
        <time>2024-01-30T08:54:11.000Z</time>
      </trkpt>
      <trkpt lat="44.31431" lon="3.37905">
        <ele>861.40002441406</ele>
        <time>2024-01-30T08:54:12.000Z</time>
      </trkpt>
      <trkpt lat="44.3144" lon="3.3791">
        <ele>861.79998779297</ele>
        <time>2024-01-30T08:54:13.000Z</time>
      </trkpt>
      <trkpt lat="44.31459" lon="3.37912">
        <ele>863</ele>
        <time>2024-01-30T08:54:15.000Z</time>
      </trkpt>
      <trkpt lat="44.3147" lon="3.3791">
        <ele>863.79998779297</ele>
        <time>2024-01-30T08:54:16.000Z</time>
      </trkpt>
      <trkpt lat="44.31482" lon="3.37909">
        <ele>864.59997558594</ele>
        <time>2024-01-30T08:54:17.000Z</time>
      </trkpt>
      <trkpt lat="44.31493" lon="3.3791">
        <ele>865.20001220703</ele>
        <time>2024-01-30T08:54:18.000Z</time>
      </trkpt>
      <trkpt lat="44.31504" lon="3.37913">
        <ele>865.79998779297</ele>
        <time>2024-01-30T08:54:19.000Z</time>
      </trkpt>
      <trkpt lat="44.31515" lon="3.37918">
        <ele>866.59997558594</ele>
        <time>2024-01-30T08:54:20.000Z</time>
      </trkpt>
      <trkpt lat="44.31524" lon="3.37928">
        <ele>867.59997558594</ele>
        <time>2024-01-30T08:54:21.000Z</time>
      </trkpt>
      <trkpt lat="44.3154" lon="3.37953">
        <ele>869.59997558594</ele>
        <time>2024-01-30T08:54:23.000Z</time>
      </trkpt>
      <trkpt lat="44.31556" lon="3.37977">
        <ele>870.79998779297</ele>
        <time>2024-01-30T08:54:25.000Z</time>
      </trkpt>
      <trkpt lat="44.31577" lon="3.37991">
        <ele>871.79998779297</ele>
        <time>2024-01-30T08:54:27.000Z</time>
      </trkpt>
      <trkpt lat="44.31588" lon="3.37993">
        <ele>872.40002441406</ele>
        <time>2024-01-30T08:54:28.000Z</time>
      </trkpt>
      <trkpt lat="44.316" lon="3.37991">
        <ele>873</ele>
        <time>2024-01-30T08:54:29.000Z</time>
      </trkpt>
      <trkpt lat="44.31611" lon="3.37986">
        <ele>874</ele>
        <time>2024-01-30T08:54:30.000Z</time>
      </trkpt>
      <trkpt lat="44.31635" lon="3.37971">
        <ele>876</ele>
        <time>2024-01-30T08:54:32.000Z</time>
      </trkpt>
      <trkpt lat="44.3166" lon="3.37962">
        <ele>877</ele>
        <time>2024-01-30T08:54:34.000Z</time>
      </trkpt>
      <trkpt lat="44.31673" lon="3.3796">
        <ele>878.40002441406</ele>
        <time>2024-01-30T08:54:35.000Z</time>
      </trkpt>
      <trkpt lat="44.31686" lon="3.37961">
        <ele>879.20001220703</ele>
        <time>2024-01-30T08:54:36.000Z</time>
      </trkpt>
      <trkpt lat="44.31699" lon="3.37964">
        <ele>880.40002441406</ele>
        <time>2024-01-30T08:54:37.000Z</time>
      </trkpt>
      <trkpt lat="44.31713" lon="3.3797">
        <ele>881.40002441406</ele>
        <time>2024-01-30T08:54:38.000Z</time>
      </trkpt>
      <trkpt lat="44.31742" lon="3.37985">
        <ele>883.40002441406</ele>
        <time>2024-01-30T08:54:40.000Z</time>
      </trkpt>
      <trkpt lat="44.31774" lon="3.37998">
        <ele>885.40002441406</ele>
        <time>2024-01-30T08:54:42.000Z</time>
      </trkpt>
      <trkpt lat="44.31791" lon="3.38003">
        <ele>886.40002441406</ele>
        <time>2024-01-30T08:54:43.000Z</time>
      </trkpt>
      <trkpt lat="44.31826" lon="3.38008">
        <ele>888.79998779297</ele>
        <time>2024-01-30T08:54:45.000Z</time>
      </trkpt>
      <trkpt lat="44.31843" lon="3.38009">
        <ele>889.40002441406</ele>
        <time>2024-01-30T08:54:46.000Z</time>
      </trkpt>
      <trkpt lat="44.31859" lon="3.38011">
        <ele>890.79998779297</ele>
        <time>2024-01-30T08:54:47.000Z</time>
      </trkpt>
      <trkpt lat="44.3189" lon="3.38019">
        <ele>892.40002441406</ele>
        <time>2024-01-30T08:54:49.000Z</time>
      </trkpt>
      <trkpt lat="44.31923" lon="3.38033">
        <ele>894.59997558594</ele>
        <time>2024-01-30T08:54:51.000Z</time>
      </trkpt>
      <trkpt lat="44.31939" lon="3.38039">
        <ele>896</ele>
        <time>2024-01-30T08:54:52.000Z</time>
      </trkpt>
      <trkpt lat="44.3197" lon="3.38055">
        <ele>898.20001220703</ele>
        <time>2024-01-30T08:54:54.000Z</time>
      </trkpt>
      <trkpt lat="44.32001" lon="3.38068">
        <ele>899.79998779297</ele>
        <time>2024-01-30T08:54:56.000Z</time>
      </trkpt>
      <trkpt lat="44.32017" lon="3.38074">
        <ele>900.79998779297</ele>
        <time>2024-01-30T08:54:57.000Z</time>
      </trkpt>
      <trkpt lat="44.32032" lon="3.38081">
        <ele>902</ele>
        <time>2024-01-30T08:54:58.000Z</time>
      </trkpt>
      <trkpt lat="44.3207" lon="3.38101">
        <ele>903</ele>
        <time>2024-01-30T08:55:01.000Z</time>
      </trkpt>
      <trkpt lat="44.32085" lon="3.38115">
        <ele>903</ele>
        <time>2024-01-30T08:55:03.000Z</time>
      </trkpt>
      <trkpt lat="44.32091" lon="3.38122">
        <ele>902.59997558594</ele>
        <time>2024-01-30T08:55:04.000Z</time>
      </trkpt>
      <trkpt lat="44.32107" lon="3.38142">
        <ele>902</ele>
        <time>2024-01-30T08:55:07.000Z</time>
      </trkpt>
      <trkpt lat="44.3212" lon="3.3816">
        <ele>901.20001220703</ele>
        <time>2024-01-30T08:55:09.000Z</time>
      </trkpt>
      <trkpt lat="44.32127" lon="3.38171">
        <ele>900.59997558594</ele>
        <time>2024-01-30T08:55:10.000Z</time>
      </trkpt>
      <trkpt lat="44.32139" lon="3.38195">
        <ele>899.40002441406</ele>
        <time>2024-01-30T08:55:12.000Z</time>
      </trkpt>
      <trkpt lat="44.32144" lon="3.38207">
        <ele>898.59997558594</ele>
        <time>2024-01-30T08:55:13.000Z</time>
      </trkpt>
      <trkpt lat="44.32149" lon="3.3822">
        <ele>898.20001220703</ele>
        <time>2024-01-30T08:55:14.000Z</time>
      </trkpt>
      <trkpt lat="44.32162" lon="3.38245">
        <ele>896.59997558594</ele>
        <time>2024-01-30T08:55:16.000Z</time>
      </trkpt>
      <trkpt lat="44.32171" lon="3.38256">
        <ele>895.79998779297</ele>
        <time>2024-01-30T08:55:17.000Z</time>
      </trkpt>
      <trkpt lat="44.32179" lon="3.38264">
        <ele>895</ele>
        <time>2024-01-30T08:55:18.000Z</time>
      </trkpt>
      <trkpt lat="44.32188" lon="3.38272">
        <ele>894.20001220703</ele>
        <time>2024-01-30T08:55:19.000Z</time>
      </trkpt>
      <trkpt lat="44.32198" lon="3.38278">
        <ele>893.79998779297</ele>
        <time>2024-01-30T08:55:20.000Z</time>
      </trkpt>
      <trkpt lat="44.32208" lon="3.38284">
        <ele>893</ele>
        <time>2024-01-30T08:55:21.000Z</time>
      </trkpt>
      <trkpt lat="44.3222" lon="3.3829">
        <ele>892</ele>
        <time>2024-01-30T08:55:22.000Z</time>
      </trkpt>
      <trkpt lat="44.32243" lon="3.38299">
        <ele>891</ele>
        <time>2024-01-30T08:55:24.000Z</time>
      </trkpt>
      <trkpt lat="44.32255" lon="3.38303">
        <ele>890.20001220703</ele>
        <time>2024-01-30T08:55:25.000Z</time>
      </trkpt>
      <trkpt lat="44.32267" lon="3.38306">
        <ele>889.40002441406</ele>
        <time>2024-01-30T08:55:26.000Z</time>
      </trkpt>
      <trkpt lat="44.32293" lon="3.38314">
        <ele>887.79998779297</ele>
        <time>2024-01-30T08:55:28.000Z</time>
      </trkpt>
      <trkpt lat="44.32319" lon="3.38322">
        <ele>886.20001220703</ele>
        <time>2024-01-30T08:55:30.000Z</time>
      </trkpt>
      <trkpt lat="44.32346" lon="3.38329">
        <ele>884.40002441406</ele>
        <time>2024-01-30T08:55:32.000Z</time>
      </trkpt>
      <trkpt lat="44.32373" lon="3.38339">
        <ele>882.59997558594</ele>
        <time>2024-01-30T08:55:34.000Z</time>
      </trkpt>
      <trkpt lat="44.324" lon="3.38351">
        <ele>880.79998779297</ele>
        <time>2024-01-30T08:55:36.000Z</time>
      </trkpt>
      <trkpt lat="44.32414" lon="3.38358">
        <ele>880.20001220703</ele>
        <time>2024-01-30T08:55:37.000Z</time>
      </trkpt>
      <trkpt lat="44.32427" lon="3.38364">
        <ele>879.20001220703</ele>
        <time>2024-01-30T08:55:38.000Z</time>
      </trkpt>
      <trkpt lat="44.3244" lon="3.38371">
        <ele>878.20001220703</ele>
        <time>2024-01-30T08:55:39.000Z</time>
      </trkpt>
      <trkpt lat="44.32452" lon="3.38378">
        <ele>877</ele>
        <time>2024-01-30T08:55:40.000Z</time>
      </trkpt>
      <trkpt lat="44.32477" lon="3.38394">
        <ele>875.20001220703</ele>
        <time>2024-01-30T08:55:42.000Z</time>
      </trkpt>
      <trkpt lat="44.32489" lon="3.38403">
        <ele>874.40002441406</ele>
        <time>2024-01-30T08:55:43.000Z</time>
      </trkpt>
      <trkpt lat="44.32502" lon="3.38412">
        <ele>873.40002441406</ele>
        <time>2024-01-30T08:55:44.000Z</time>
      </trkpt>
      <trkpt lat="44.32513" lon="3.38422">
        <ele>872.40002441406</ele>
        <time>2024-01-30T08:55:45.000Z</time>
      </trkpt>
      <trkpt lat="44.32537" lon="3.38442">
        <ele>870.79998779297</ele>
        <time>2024-01-30T08:55:47.000Z</time>
      </trkpt>
      <trkpt lat="44.32562" lon="3.38462">
        <ele>868.79998779297</ele>
        <time>2024-01-30T08:55:49.000Z</time>
      </trkpt>
      <trkpt lat="44.32574" lon="3.38471">
        <ele>867.79998779297</ele>
        <time>2024-01-30T08:55:50.000Z</time>
      </trkpt>
      <trkpt lat="44.32587" lon="3.3848">
        <ele>866.79998779297</ele>
        <time>2024-01-30T08:55:51.000Z</time>
      </trkpt>
      <trkpt lat="44.3261" lon="3.38499">
        <ele>864.79998779297</ele>
        <time>2024-01-30T08:55:53.000Z</time>
      </trkpt>
      <trkpt lat="44.32621" lon="3.3851">
        <ele>863.79998779297</ele>
        <time>2024-01-30T08:55:54.000Z</time>
      </trkpt>
      <trkpt lat="44.3263" lon="3.38521">
        <ele>862.79998779297</ele>
        <time>2024-01-30T08:55:55.000Z</time>
      </trkpt>
      <trkpt lat="44.32638" lon="3.38533">
        <ele>861.79998779297</ele>
        <time>2024-01-30T08:55:56.000Z</time>
      </trkpt>
      <trkpt lat="44.32645" lon="3.38543">
        <ele>861</ele>
        <time>2024-01-30T08:55:57.000Z</time>
      </trkpt>
      <trkpt lat="44.32653" lon="3.3855">
        <ele>860</ele>
        <time>2024-01-30T08:55:58.000Z</time>
      </trkpt>
      <trkpt lat="44.32663" lon="3.38555">
        <ele>859.20001220703</ele>
        <time>2024-01-30T08:55:59.000Z</time>
      </trkpt>
      <trkpt lat="44.32672" lon="3.38555">
        <ele>858.79998779297</ele>
        <time>2024-01-30T08:56:00.000Z</time>
      </trkpt>
      <trkpt lat="44.32683" lon="3.38553">
        <ele>858</ele>
        <time>2024-01-30T08:56:01.000Z</time>
      </trkpt>
      <trkpt lat="44.32694" lon="3.38551">
        <ele>857.59997558594</ele>
        <time>2024-01-30T08:56:02.000Z</time>
      </trkpt>
      <trkpt lat="44.32706" lon="3.3855">
        <ele>856.79998779297</ele>
        <time>2024-01-30T08:56:03.000Z</time>
      </trkpt>
      <trkpt lat="44.32718" lon="3.38551">
        <ele>856</ele>
        <time>2024-01-30T08:56:04.000Z</time>
      </trkpt>
      <trkpt lat="44.3273" lon="3.38554">
        <ele>855.20001220703</ele>
        <time>2024-01-30T08:56:05.000Z</time>
      </trkpt>
      <trkpt lat="44.32742" lon="3.38558">
        <ele>854.40002441406</ele>
        <time>2024-01-30T08:56:06.000Z</time>
      </trkpt>
      <trkpt lat="44.32767" lon="3.38564">
        <ele>852.79998779297</ele>
        <time>2024-01-30T08:56:08.000Z</time>
      </trkpt>
      <trkpt lat="44.32779" lon="3.38563">
        <ele>852.20001220703</ele>
        <time>2024-01-30T08:56:09.000Z</time>
      </trkpt>
      <trkpt lat="44.32792" lon="3.38559">
        <ele>851.40002441406</ele>
        <time>2024-01-30T08:56:10.000Z</time>
      </trkpt>
      <trkpt lat="44.32804" lon="3.38551">
        <ele>850.79998779297</ele>
        <time>2024-01-30T08:56:11.000Z</time>
      </trkpt>
      <trkpt lat="44.32815" lon="3.38539">
        <ele>849.79998779297</ele>
        <time>2024-01-30T08:56:12.000Z</time>
      </trkpt>
      <trkpt lat="44.32825" lon="3.38526">
        <ele>849</ele>
        <time>2024-01-30T08:56:13.000Z</time>
      </trkpt>
      <trkpt lat="44.32834" lon="3.38511">
        <ele>848</ele>
        <time>2024-01-30T08:56:14.000Z</time>
      </trkpt>
      <trkpt lat="44.32851" lon="3.38483">
        <ele>846.20001220703</ele>
        <time>2024-01-30T08:56:16.000Z</time>
      </trkpt>
      <trkpt lat="44.32861" lon="3.38471">
        <ele>845</ele>
        <time>2024-01-30T08:56:17.000Z</time>
      </trkpt>
      <trkpt lat="44.32871" lon="3.38461">
        <ele>844</ele>
        <time>2024-01-30T08:56:18.000Z</time>
      </trkpt>
      <trkpt lat="44.3288" lon="3.38452">
        <ele>842.59997558594</ele>
        <time>2024-01-30T08:56:19.000Z</time>
      </trkpt>
      <trkpt lat="44.3289" lon="3.38445">
        <ele>841.59997558594</ele>
        <time>2024-01-30T08:56:20.000Z</time>
      </trkpt>
      <trkpt lat="44.32907" lon="3.38435">
        <ele>839.79998779297</ele>
        <time>2024-01-30T08:56:22.000Z</time>
      </trkpt>
      <trkpt lat="44.32914" lon="3.38434">
        <ele>838.59997558594</ele>
        <time>2024-01-30T08:56:23.000Z</time>
      </trkpt>
      <trkpt lat="44.32919" lon="3.38434">
        <ele>838</ele>
        <time>2024-01-30T08:56:24.000Z</time>
      </trkpt>
      <trkpt lat="44.32924" lon="3.38436">
        <ele>837.40002441406</ele>
        <time>2024-01-30T08:56:25.000Z</time>
      </trkpt>
      <trkpt lat="44.32927" lon="3.38439">
        <ele>837</ele>
        <time>2024-01-30T08:56:26.000Z</time>
      </trkpt>
      <trkpt lat="44.32932" lon="3.38447">
        <ele>836.59997558594</ele>
        <time>2024-01-30T08:56:28.000Z</time>
      </trkpt>
      <trkpt lat="44.32932" lon="3.38451">
        <ele>836</ele>
        <time>2024-01-30T08:56:29.000Z</time>
      </trkpt>
      <trkpt lat="44.32931" lon="3.3846">
        <ele>835.59997558594</ele>
        <time>2024-01-30T08:56:31.000Z</time>
      </trkpt>
      <trkpt lat="44.32928" lon="3.38468">
        <ele>835</ele>
        <time>2024-01-30T08:56:33.000Z</time>
      </trkpt>
      <trkpt lat="44.32921" lon="3.38484">
        <ele>834.40002441406</ele>
        <time>2024-01-30T08:56:36.000Z</time>
      </trkpt>
      <trkpt lat="44.32918" lon="3.3849">
        <ele>834.20001220703</ele>
        <time>2024-01-30T08:56:37.000Z</time>
      </trkpt>
      <trkpt lat="44.32916" lon="3.38499">
        <ele>834</ele>
        <time>2024-01-30T08:56:38.000Z</time>
      </trkpt>
      <trkpt lat="44.32915" lon="3.38512">
        <ele>833.59997558594</ele>
        <time>2024-01-30T08:56:39.000Z</time>
      </trkpt>
      <trkpt lat="44.32914" lon="3.38536">
        <ele>833.20001220703</ele>
        <time>2024-01-30T08:56:41.000Z</time>
      </trkpt>
      <trkpt lat="44.32915" lon="3.3855">
        <ele>832.79998779297</ele>
        <time>2024-01-30T08:56:42.000Z</time>
      </trkpt>
      <trkpt lat="44.32918" lon="3.38564">
        <ele>832.59997558594</ele>
        <time>2024-01-30T08:56:43.000Z</time>
      </trkpt>
      <trkpt lat="44.32924" lon="3.38591">
        <ele>831.20001220703</ele>
        <time>2024-01-30T08:56:45.000Z</time>
      </trkpt>
      <trkpt lat="44.32934" lon="3.38621">
        <ele>829.59997558594</ele>
        <time>2024-01-30T08:56:47.000Z</time>
      </trkpt>
      <trkpt lat="44.32939" lon="3.38634">
        <ele>828.59997558594</ele>
        <time>2024-01-30T08:56:48.000Z</time>
      </trkpt>
      <trkpt lat="44.32943" lon="3.38644">
        <ele>827.59997558594</ele>
        <time>2024-01-30T08:56:49.000Z</time>
      </trkpt>
      <trkpt lat="44.32949" lon="3.38653">
        <ele>826.79998779297</ele>
        <time>2024-01-30T08:56:50.000Z</time>
      </trkpt>
      <trkpt lat="44.32953" lon="3.38662">
        <ele>826</ele>
        <time>2024-01-30T08:56:51.000Z</time>
      </trkpt>
      <trkpt lat="44.32957" lon="3.3868">
        <ele>825.20001220703</ele>
        <time>2024-01-30T08:56:53.000Z</time>
      </trkpt>
      <trkpt lat="44.32956" lon="3.38689">
        <ele>824.79998779297</ele>
        <time>2024-01-30T08:56:54.000Z</time>
      </trkpt>
      <trkpt lat="44.32951" lon="3.38709">
        <ele>823.59997558594</ele>
        <time>2024-01-30T08:56:56.000Z</time>
      </trkpt>
      <trkpt lat="44.32948" lon="3.38729">
        <ele>823.20001220703</ele>
        <time>2024-01-30T08:56:58.000Z</time>
      </trkpt>
      <trkpt lat="44.32949" lon="3.3874">
        <ele>822.40002441406</ele>
        <time>2024-01-30T08:56:59.000Z</time>
      </trkpt>
      <trkpt lat="44.32953" lon="3.38751">
        <ele>822</ele>
        <time>2024-01-30T08:57:00.000Z</time>
      </trkpt>
      <trkpt lat="44.32965" lon="3.38771">
        <ele>821.20001220703</ele>
        <time>2024-01-30T08:57:02.000Z</time>
      </trkpt>
      <trkpt lat="44.32972" lon="3.38781">
        <ele>820.20001220703</ele>
        <time>2024-01-30T08:57:03.000Z</time>
      </trkpt>
      <trkpt lat="44.32978" lon="3.3879">
        <ele>819.59997558594</ele>
        <time>2024-01-30T08:57:04.000Z</time>
      </trkpt>
      <trkpt lat="44.32982" lon="3.38799">
        <ele>818.59997558594</ele>
        <time>2024-01-30T08:57:05.000Z</time>
      </trkpt>
      <trkpt lat="44.32985" lon="3.38805">
        <ele>817.59997558594</ele>
        <time>2024-01-30T08:57:06.000Z</time>
      </trkpt>
      <trkpt lat="44.32989" lon="3.38809">
        <ele>816.59997558594</ele>
        <time>2024-01-30T08:57:07.000Z</time>
      </trkpt>
      <trkpt lat="44.32992" lon="3.38812">
        <ele>816.59997558594</ele>
        <time>2024-01-30T08:57:08.000Z</time>
      </trkpt>
      <trkpt lat="44.32997" lon="3.38813">
        <ele>816</ele>
        <time>2024-01-30T08:57:09.000Z</time>
      </trkpt>
      <trkpt lat="44.33" lon="3.38814">
        <ele>816</ele>
        <time>2024-01-30T08:57:10.000Z</time>
      </trkpt>
      <trkpt lat="44.33003" lon="3.38816">
        <ele>815.59997558594</ele>
        <time>2024-01-30T08:57:14.000Z</time>
      </trkpt>
      <trkpt lat="44.33003" lon="3.38816">
        <ele>815.59997558594</ele>
        <time>2024-01-30T08:57:22.000Z</time>
      </trkpt>
      <trkpt lat="44.33003" lon="3.38816">
        <ele>815.79998779297</ele>
        <time>2024-01-30T08:57:33.000Z</time>
      </trkpt>
      <trkpt lat="44.33003" lon="3.38823">
        <ele>816</ele>
        <time>2024-01-30T08:57:43.000Z</time>
      </trkpt>
      <trkpt lat="44.33004" lon="3.38834">
        <ele>815.79998779297</ele>
        <time>2024-01-30T08:57:45.000Z</time>
      </trkpt>
      <trkpt lat="44.33006" lon="3.38841">
        <ele>815.59997558594</ele>
        <time>2024-01-30T08:57:46.000Z</time>
      </trkpt>
      <trkpt lat="44.33013" lon="3.3886">
        <ele>815.40002441406</ele>
        <time>2024-01-30T08:57:48.000Z</time>
      </trkpt>
      <trkpt lat="44.33016" lon="3.38871">
        <ele>815.20001220703</ele>
        <time>2024-01-30T08:57:49.000Z</time>
      </trkpt>
      <trkpt lat="44.3302" lon="3.38884">
        <ele>814.79998779297</ele>
        <time>2024-01-30T08:57:50.000Z</time>
      </trkpt>
      <trkpt lat="44.33028" lon="3.38914">
        <ele>813.59997558594</ele>
        <time>2024-01-30T08:57:52.000Z</time>
      </trkpt>
      <trkpt lat="44.33031" lon="3.38931">
        <ele>812.79998779297</ele>
        <time>2024-01-30T08:57:53.000Z</time>
      </trkpt>
      <trkpt lat="44.33034" lon="3.38948">
        <ele>812.20001220703</ele>
        <time>2024-01-30T08:57:54.000Z</time>
      </trkpt>
      <trkpt lat="44.33045" lon="3.38979">
        <ele>810.40002441406</ele>
        <time>2024-01-30T08:57:56.000Z</time>
      </trkpt>
      <trkpt lat="44.3306" lon="3.39012">
        <ele>809.20001220703</ele>
        <time>2024-01-30T08:57:58.000Z</time>
      </trkpt>
      <trkpt lat="44.33076" lon="3.3904">
        <ele>807.59997558594</ele>
        <time>2024-01-30T08:58:00.000Z</time>
      </trkpt>
      <trkpt lat="44.33083" lon="3.3905">
        <ele>806.79998779297</ele>
        <time>2024-01-30T08:58:01.000Z</time>
      </trkpt>
      <trkpt lat="44.33092" lon="3.39058">
        <ele>805.59997558594</ele>
        <time>2024-01-30T08:58:02.000Z</time>
      </trkpt>
      <trkpt lat="44.33114" lon="3.39073">
        <ele>804.59997558594</ele>
        <time>2024-01-30T08:58:04.000Z</time>
      </trkpt>
      <trkpt lat="44.33137" lon="3.39084">
        <ele>802.59997558594</ele>
        <time>2024-01-30T08:58:06.000Z</time>
      </trkpt>
      <trkpt lat="44.33147" lon="3.39089">
        <ele>802.20001220703</ele>
        <time>2024-01-30T08:58:07.000Z</time>
      </trkpt>
      <trkpt lat="44.33156" lon="3.39091">
        <ele>801.40002441406</ele>
        <time>2024-01-30T08:58:08.000Z</time>
      </trkpt>
      <trkpt lat="44.33166" lon="3.39087">
        <ele>800.40002441406</ele>
        <time>2024-01-30T08:58:09.000Z</time>
      </trkpt>
      <trkpt lat="44.33174" lon="3.39081">
        <ele>800</ele>
        <time>2024-01-30T08:58:10.000Z</time>
      </trkpt>
      <trkpt lat="44.33181" lon="3.39072">
        <ele>799.20001220703</ele>
        <time>2024-01-30T08:58:11.000Z</time>
      </trkpt>
      <trkpt lat="44.33196" lon="3.39049">
        <ele>798</ele>
        <time>2024-01-30T08:58:13.000Z</time>
      </trkpt>
      <trkpt lat="44.33204" lon="3.39024">
        <ele>796.59997558594</ele>
        <time>2024-01-30T08:58:15.000Z</time>
      </trkpt>
      <trkpt lat="44.33212" lon="3.39">
        <ele>795.40002441406</ele>
        <time>2024-01-30T08:58:17.000Z</time>
      </trkpt>
      <trkpt lat="44.33216" lon="3.38991">
        <ele>794.79998779297</ele>
        <time>2024-01-30T08:58:18.000Z</time>
      </trkpt>
      <trkpt lat="44.33221" lon="3.3898">
        <ele>794.20001220703</ele>
        <time>2024-01-30T08:58:19.000Z</time>
      </trkpt>
      <trkpt lat="44.33233" lon="3.38962">
        <ele>792.59997558594</ele>
        <time>2024-01-30T08:58:21.000Z</time>
      </trkpt>
      <trkpt lat="44.33251" lon="3.3895">
        <ele>791.40002441406</ele>
        <time>2024-01-30T08:58:23.000Z</time>
      </trkpt>
      <trkpt lat="44.33258" lon="3.38941">
        <ele>790.79998779297</ele>
        <time>2024-01-30T08:58:24.000Z</time>
      </trkpt>
      <trkpt lat="44.33265" lon="3.38931">
        <ele>790.40002441406</ele>
        <time>2024-01-30T08:58:25.000Z</time>
      </trkpt>
      <trkpt lat="44.33275" lon="3.38909">
        <ele>789.20001220703</ele>
        <time>2024-01-30T08:58:27.000Z</time>
      </trkpt>
      <trkpt lat="44.33281" lon="3.389">
        <ele>788.40002441406</ele>
        <time>2024-01-30T08:58:28.000Z</time>
      </trkpt>
      <trkpt lat="44.33286" lon="3.38892">
        <ele>787.40002441406</ele>
        <time>2024-01-30T08:58:29.000Z</time>
      </trkpt>
      <trkpt lat="44.33294" lon="3.38887">
        <ele>786.79998779297</ele>
        <time>2024-01-30T08:58:30.000Z</time>
      </trkpt>
      <trkpt lat="44.33301" lon="3.38887">
        <ele>786.20001220703</ele>
        <time>2024-01-30T08:58:31.000Z</time>
      </trkpt>
      <trkpt lat="44.33307" lon="3.3889">
        <ele>785.59997558594</ele>
        <time>2024-01-30T08:58:32.000Z</time>
      </trkpt>
      <trkpt lat="44.33315" lon="3.38895">
        <ele>785.20001220703</ele>
        <time>2024-01-30T08:58:33.000Z</time>
      </trkpt>
      <trkpt lat="44.33328" lon="3.38913">
        <ele>784.40002441406</ele>
        <time>2024-01-30T08:58:35.000Z</time>
      </trkpt>
      <trkpt lat="44.33334" lon="3.38924">
        <ele>783.40002441406</ele>
        <time>2024-01-30T08:58:36.000Z</time>
      </trkpt>
      <trkpt lat="44.33337" lon="3.38936">
        <ele>783</ele>
        <time>2024-01-30T08:58:37.000Z</time>
      </trkpt>
      <trkpt lat="44.3334" lon="3.3895">
        <ele>782.20001220703</ele>
        <time>2024-01-30T08:58:38.000Z</time>
      </trkpt>
      <trkpt lat="44.33348" lon="3.38977">
        <ele>780.40002441406</ele>
        <time>2024-01-30T08:58:40.000Z</time>
      </trkpt>
      <trkpt lat="44.33353" lon="3.38991">
        <ele>779.79998779297</ele>
        <time>2024-01-30T08:58:41.000Z</time>
      </trkpt>
      <trkpt lat="44.33359" lon="3.39003">
        <ele>779.40002441406</ele>
        <time>2024-01-30T08:58:42.000Z</time>
      </trkpt>
      <trkpt lat="44.33367" lon="3.39013">
        <ele>779</ele>
        <time>2024-01-30T08:58:43.000Z</time>
      </trkpt>
      <trkpt lat="44.33388" lon="3.39028">
        <ele>777.40002441406</ele>
        <time>2024-01-30T08:58:45.000Z</time>
      </trkpt>
      <trkpt lat="44.33407" lon="3.39042">
        <ele>775.59997558594</ele>
        <time>2024-01-30T08:58:47.000Z</time>
      </trkpt>
      <trkpt lat="44.33423" lon="3.39056">
        <ele>774</ele>
        <time>2024-01-30T08:58:49.000Z</time>
      </trkpt>
      <trkpt lat="44.3343" lon="3.39061">
        <ele>773</ele>
        <time>2024-01-30T08:58:50.000Z</time>
      </trkpt>
      <trkpt lat="44.33436" lon="3.39065">
        <ele>772.79998779297</ele>
        <time>2024-01-30T08:58:51.000Z</time>
      </trkpt>
      <trkpt lat="44.33444" lon="3.39061">
        <ele>772.59997558594</ele>
        <time>2024-01-30T08:58:53.000Z</time>
      </trkpt>
      <trkpt lat="44.33441" lon="3.3905">
        <ele>772.59997558594</ele>
        <time>2024-01-30T08:58:55.000Z</time>
      </trkpt>
      <trkpt lat="44.33435" lon="3.39046">
        <ele>772.59997558594</ele>
        <time>2024-01-30T08:58:56.000Z</time>
      </trkpt>
      <trkpt lat="44.33428" lon="3.39044">
        <ele>772.79998779297</ele>
        <time>2024-01-30T08:58:57.000Z</time>
      </trkpt>
      <trkpt lat="44.33412" lon="3.39038">
        <ele>772.40002441406</ele>
        <time>2024-01-30T08:58:59.000Z</time>
      </trkpt>
      <trkpt lat="44.33395" lon="3.39026">
        <ele>772.20001220703</ele>
        <time>2024-01-30T08:59:01.000Z</time>
      </trkpt>
      <trkpt lat="44.33386" lon="3.39019">
        <ele>771.59997558594</ele>
        <time>2024-01-30T08:59:02.000Z</time>
      </trkpt>
      <trkpt lat="44.33369" lon="3.38999">
        <ele>770.20001220703</ele>
        <time>2024-01-30T08:59:04.000Z</time>
      </trkpt>
      <trkpt lat="44.33362" lon="3.38987">
        <ele>769.79998779297</ele>
        <time>2024-01-30T08:59:05.000Z</time>
      </trkpt>
      <trkpt lat="44.33357" lon="3.38973">
        <ele>769.59997558594</ele>
        <time>2024-01-30T08:59:06.000Z</time>
      </trkpt>
      <trkpt lat="44.33353" lon="3.38958">
        <ele>768</ele>
        <time>2024-01-30T08:59:07.000Z</time>
      </trkpt>
      <trkpt lat="44.3335" lon="3.38942">
        <ele>767.59997558594</ele>
        <time>2024-01-30T08:59:08.000Z</time>
      </trkpt>
      <trkpt lat="44.33345" lon="3.38908">
        <ele>766.40002441406</ele>
        <time>2024-01-30T08:59:10.000Z</time>
      </trkpt>
      <trkpt lat="44.33342" lon="3.38891">
        <ele>765.40002441406</ele>
        <time>2024-01-30T08:59:11.000Z</time>
      </trkpt>
      <trkpt lat="44.33337" lon="3.38875">
        <ele>764.40002441406</ele>
        <time>2024-01-30T08:59:12.000Z</time>
      </trkpt>
      <trkpt lat="44.33332" lon="3.38861">
        <ele>763.79998779297</ele>
        <time>2024-01-30T08:59:13.000Z</time>
      </trkpt>
      <trkpt lat="44.33317" lon="3.3884">
        <ele>761.79998779297</ele>
        <time>2024-01-30T08:59:15.000Z</time>
      </trkpt>
      <trkpt lat="44.33309" lon="3.38834">
        <ele>760.59997558594</ele>
        <time>2024-01-30T08:59:16.000Z</time>
      </trkpt>
      <trkpt lat="44.33302" lon="3.38831">
        <ele>759.79998779297</ele>
        <time>2024-01-30T08:59:17.000Z</time>
      </trkpt>
      <trkpt lat="44.33297" lon="3.38828">
        <ele>759.20001220703</ele>
        <time>2024-01-30T08:59:18.000Z</time>
      </trkpt>
      <trkpt lat="44.33292" lon="3.38825">
        <ele>758.79998779297</ele>
        <time>2024-01-30T08:59:19.000Z</time>
      </trkpt>
      <trkpt lat="44.33291" lon="3.38818">
        <ele>758.20001220703</ele>
        <time>2024-01-30T08:59:21.000Z</time>
      </trkpt>
      <trkpt lat="44.33295" lon="3.38816">
        <ele>758.20001220703</ele>
        <time>2024-01-30T08:59:23.000Z</time>
      </trkpt>
      <trkpt lat="44.333" lon="3.38818">
        <ele>758</ele>
        <time>2024-01-30T08:59:24.000Z</time>
      </trkpt>
      <trkpt lat="44.33319" lon="3.38835">
        <ele>757.59997558594</ele>
        <time>2024-01-30T08:59:27.000Z</time>
      </trkpt>
      <trkpt lat="44.33334" lon="3.3885">
        <ele>756.59997558594</ele>
        <time>2024-01-30T08:59:29.000Z</time>
      </trkpt>
      <trkpt lat="44.33341" lon="3.38858">
        <ele>756.40002441406</ele>
        <time>2024-01-30T08:59:30.000Z</time>
      </trkpt>
      <trkpt lat="44.33346" lon="3.38868">
        <ele>755.40002441406</ele>
        <time>2024-01-30T08:59:31.000Z</time>
      </trkpt>
      <trkpt lat="44.33349" lon="3.3888">
        <ele>755</ele>
        <time>2024-01-30T08:59:32.000Z</time>
      </trkpt>
      <trkpt lat="44.33353" lon="3.38892">
        <ele>754.40002441406</ele>
        <time>2024-01-30T08:59:33.000Z</time>
      </trkpt>
      <trkpt lat="44.33355" lon="3.38906">
        <ele>754</ele>
        <time>2024-01-30T08:59:34.000Z</time>
      </trkpt>
      <trkpt lat="44.33359" lon="3.3892">
        <ele>753.20001220703</ele>
        <time>2024-01-30T08:59:35.000Z</time>
      </trkpt>
      <trkpt lat="44.33366" lon="3.38948">
        <ele>751.79998779297</ele>
        <time>2024-01-30T08:59:37.000Z</time>
      </trkpt>
      <trkpt lat="44.33377" lon="3.38973">
        <ele>750.40002441406</ele>
        <time>2024-01-30T08:59:39.000Z</time>
      </trkpt>
      <trkpt lat="44.33398" lon="3.38989">
        <ele>749.40002441406</ele>
        <time>2024-01-30T08:59:41.000Z</time>
      </trkpt>
      <trkpt lat="44.3341" lon="3.38996">
        <ele>748.59997558594</ele>
        <time>2024-01-30T08:59:42.000Z</time>
      </trkpt>
      <trkpt lat="44.33421" lon="3.39001">
        <ele>748.20001220703</ele>
        <time>2024-01-30T08:59:43.000Z</time>
      </trkpt>
      <trkpt lat="44.33443" lon="3.39003">
        <ele>746.20001220703</ele>
        <time>2024-01-30T08:59:45.000Z</time>
      </trkpt>
      <trkpt lat="44.33463" lon="3.39007">
        <ele>744.79998779297</ele>
        <time>2024-01-30T08:59:47.000Z</time>
      </trkpt>
      <trkpt lat="44.33471" lon="3.39015">
        <ele>744</ele>
        <time>2024-01-30T08:59:48.000Z</time>
      </trkpt>
      <trkpt lat="44.33476" lon="3.39025">
        <ele>743.40002441406</ele>
        <time>2024-01-30T08:59:49.000Z</time>
      </trkpt>
      <trkpt lat="44.33486" lon="3.39048">
        <ele>742.20001220703</ele>
        <time>2024-01-30T08:59:51.000Z</time>
      </trkpt>
      <trkpt lat="44.33494" lon="3.39057">
        <ele>741.59997558594</ele>
        <time>2024-01-30T08:59:52.000Z</time>
      </trkpt>
      <trkpt lat="44.33504" lon="3.39063">
        <ele>740.79998779297</ele>
        <time>2024-01-30T08:59:53.000Z</time>
      </trkpt>
      <trkpt lat="44.33514" lon="3.39066">
        <ele>740.20001220703</ele>
        <time>2024-01-30T08:59:54.000Z</time>
      </trkpt>
      <trkpt lat="44.33525" lon="3.39067">
        <ele>739.79998779297</ele>
        <time>2024-01-30T08:59:55.000Z</time>
      </trkpt>
      <trkpt lat="44.33549" lon="3.39064">
        <ele>738.40002441406</ele>
        <time>2024-01-30T08:59:57.000Z</time>
      </trkpt>
      <trkpt lat="44.33571" lon="3.39053">
        <ele>737.20001220703</ele>
        <time>2024-01-30T08:59:59.000Z</time>
      </trkpt>
      <trkpt lat="44.3358" lon="3.39043">
        <ele>736.40002441406</ele>
        <time>2024-01-30T09:00:00.000Z</time>
      </trkpt>
      <trkpt lat="44.33589" lon="3.39033">
        <ele>735.79998779297</ele>
        <time>2024-01-30T09:00:01.000Z</time>
      </trkpt>
      <trkpt lat="44.33607" lon="3.39014">
        <ele>734</ele>
        <time>2024-01-30T09:00:03.000Z</time>
      </trkpt>
      <trkpt lat="44.33615" lon="3.39007">
        <ele>733</ele>
        <time>2024-01-30T09:00:04.000Z</time>
      </trkpt>
      <trkpt lat="44.33622" lon="3.39002">
        <ele>732.20001220703</ele>
        <time>2024-01-30T09:00:05.000Z</time>
      </trkpt>
      <trkpt lat="44.33628" lon="3.39">
        <ele>731.40002441406</ele>
        <time>2024-01-30T09:00:06.000Z</time>
      </trkpt>
      <trkpt lat="44.33634" lon="3.39002">
        <ele>730.59997558594</ele>
        <time>2024-01-30T09:00:07.000Z</time>
      </trkpt>
      <trkpt lat="44.33638" lon="3.39008">
        <ele>730</ele>
        <time>2024-01-30T09:00:08.000Z</time>
      </trkpt>
      <trkpt lat="44.3364" lon="3.39016">
        <ele>729.40002441406</ele>
        <time>2024-01-30T09:00:09.000Z</time>
      </trkpt>
      <trkpt lat="44.3364" lon="3.39026">
        <ele>728.79998779297</ele>
        <time>2024-01-30T09:00:10.000Z</time>
      </trkpt>
      <trkpt lat="44.33639" lon="3.3905">
        <ele>728.20001220703</ele>
        <time>2024-01-30T09:00:12.000Z</time>
      </trkpt>
      <trkpt lat="44.3364" lon="3.39063">
        <ele>727.79998779297</ele>
        <time>2024-01-30T09:00:13.000Z</time>
      </trkpt>
      <trkpt lat="44.33643" lon="3.39075">
        <ele>727.20001220703</ele>
        <time>2024-01-30T09:00:14.000Z</time>
      </trkpt>
      <trkpt lat="44.33649" lon="3.39085">
        <ele>726.59997558594</ele>
        <time>2024-01-30T09:00:15.000Z</time>
      </trkpt>
      <trkpt lat="44.33657" lon="3.39094">
        <ele>726</ele>
        <time>2024-01-30T09:00:16.000Z</time>
      </trkpt>
      <trkpt lat="44.33667" lon="3.39103">
        <ele>725.40002441406</ele>
        <time>2024-01-30T09:00:17.000Z</time>
      </trkpt>
      <trkpt lat="44.33678" lon="3.39112">
        <ele>724.79998779297</ele>
        <time>2024-01-30T09:00:18.000Z</time>
      </trkpt>
      <trkpt lat="44.33688" lon="3.39122">
        <ele>724.20001220703</ele>
        <time>2024-01-30T09:00:19.000Z</time>
      </trkpt>
      <trkpt lat="44.33703" lon="3.39146">
        <ele>722.79998779297</ele>
        <time>2024-01-30T09:00:21.000Z</time>
      </trkpt>
      <trkpt lat="44.33717" lon="3.39171">
        <ele>721.20001220703</ele>
        <time>2024-01-30T09:00:23.000Z</time>
      </trkpt>
      <trkpt lat="44.33732" lon="3.39191">
        <ele>719.20001220703</ele>
        <time>2024-01-30T09:00:25.000Z</time>
      </trkpt>
      <trkpt lat="44.3374" lon="3.39197">
        <ele>718.79998779297</ele>
        <time>2024-01-30T09:00:26.000Z</time>
      </trkpt>
      <trkpt lat="44.3375" lon="3.39199">
        <ele>718</ele>
        <time>2024-01-30T09:00:27.000Z</time>
      </trkpt>
      <trkpt lat="44.3376" lon="3.39199">
        <ele>717.79998779297</ele>
        <time>2024-01-30T09:00:28.000Z</time>
      </trkpt>
      <trkpt lat="44.33771" lon="3.39196">
        <ele>717.20001220703</ele>
        <time>2024-01-30T09:00:29.000Z</time>
      </trkpt>
      <trkpt lat="44.33782" lon="3.39191">
        <ele>716.59997558594</ele>
        <time>2024-01-30T09:00:30.000Z</time>
      </trkpt>
      <trkpt lat="44.33796" lon="3.39182">
        <ele>716</ele>
        <time>2024-01-30T09:00:31.000Z</time>
      </trkpt>
      <trkpt lat="44.33808" lon="3.39174">
        <ele>715.59997558594</ele>
        <time>2024-01-30T09:00:32.000Z</time>
      </trkpt>
      <trkpt lat="44.33826" lon="3.39162">
        <ele>712.79998779297</ele>
        <time>2024-01-30T09:00:34.000Z</time>
      </trkpt>
      <trkpt lat="44.33844" lon="3.39157">
        <ele>711</ele>
        <time>2024-01-30T09:00:36.000Z</time>
      </trkpt>
      <trkpt lat="44.33858" lon="3.39166">
        <ele>710.20001220703</ele>
        <time>2024-01-30T09:00:38.000Z</time>
      </trkpt>
      <trkpt lat="44.33863" lon="3.39176">
        <ele>709.79998779297</ele>
        <time>2024-01-30T09:00:39.000Z</time>
      </trkpt>
      <trkpt lat="44.33868" lon="3.39188">
        <ele>709.59997558594</ele>
        <time>2024-01-30T09:00:40.000Z</time>
      </trkpt>
      <trkpt lat="44.33872" lon="3.39202">
        <ele>709.20001220703</ele>
        <time>2024-01-30T09:00:41.000Z</time>
      </trkpt>
      <trkpt lat="44.33876" lon="3.39216">
        <ele>708.40002441406</ele>
        <time>2024-01-30T09:00:42.000Z</time>
      </trkpt>
      <trkpt lat="44.33882" lon="3.39246">
        <ele>706.79998779297</ele>
        <time>2024-01-30T09:00:44.000Z</time>
      </trkpt>
      <trkpt lat="44.33888" lon="3.39259">
        <ele>706</ele>
        <time>2024-01-30T09:00:45.000Z</time>
      </trkpt>
      <trkpt lat="44.33896" lon="3.39269">
        <ele>705.40002441406</ele>
        <time>2024-01-30T09:00:46.000Z</time>
      </trkpt>
      <trkpt lat="44.33907" lon="3.39278">
        <ele>704.79998779297</ele>
        <time>2024-01-30T09:00:47.000Z</time>
      </trkpt>
      <trkpt lat="44.33931" lon="3.39289">
        <ele>703.79998779297</ele>
        <time>2024-01-30T09:00:49.000Z</time>
      </trkpt>
      <trkpt lat="44.33944" lon="3.39291">
        <ele>703</ele>
        <time>2024-01-30T09:00:50.000Z</time>
      </trkpt>
      <trkpt lat="44.33957" lon="3.3929">
        <ele>701.79998779297</ele>
        <time>2024-01-30T09:00:51.000Z</time>
      </trkpt>
      <trkpt lat="44.33982" lon="3.39284">
        <ele>700</ele>
        <time>2024-01-30T09:00:53.000Z</time>
      </trkpt>
      <trkpt lat="44.33992" lon="3.39285">
        <ele>698.59997558594</ele>
        <time>2024-01-30T09:00:54.000Z</time>
      </trkpt>
      <trkpt lat="44.34001" lon="3.39288">
        <ele>697.59997558594</ele>
        <time>2024-01-30T09:00:55.000Z</time>
      </trkpt>
      <trkpt lat="44.34008" lon="3.39296">
        <ele>696.59997558594</ele>
        <time>2024-01-30T09:00:56.000Z</time>
      </trkpt>
      <trkpt lat="44.34012" lon="3.39306">
        <ele>696</ele>
        <time>2024-01-30T09:00:57.000Z</time>
      </trkpt>
      <trkpt lat="44.34013" lon="3.39319">
        <ele>695.59997558594</ele>
        <time>2024-01-30T09:00:58.000Z</time>
      </trkpt>
      <trkpt lat="44.34012" lon="3.39334">
        <ele>695</ele>
        <time>2024-01-30T09:00:59.000Z</time>
      </trkpt>
      <trkpt lat="44.34009" lon="3.39351">
        <ele>694.59997558594</ele>
        <time>2024-01-30T09:01:00.000Z</time>
      </trkpt>
      <trkpt lat="44.34005" lon="3.3937">
        <ele>694</ele>
        <time>2024-01-30T09:01:01.000Z</time>
      </trkpt>
      <trkpt lat="44.34" lon="3.39388">
        <ele>693.20001220703</ele>
        <time>2024-01-30T09:01:02.000Z</time>
      </trkpt>
      <trkpt lat="44.33994" lon="3.39406">
        <ele>692.40002441406</ele>
        <time>2024-01-30T09:01:03.000Z</time>
      </trkpt>
      <trkpt lat="44.33976" lon="3.39438">
        <ele>690.20001220703</ele>
        <time>2024-01-30T09:01:05.000Z</time>
      </trkpt>
      <trkpt lat="44.3396" lon="3.39466">
        <ele>688.20001220703</ele>
        <time>2024-01-30T09:01:07.000Z</time>
      </trkpt>
      <trkpt lat="44.33953" lon="3.39478">
        <ele>686.79998779297</ele>
        <time>2024-01-30T09:01:08.000Z</time>
      </trkpt>
      <trkpt lat="44.33947" lon="3.39504">
        <ele>685.40002441406</ele>
        <time>2024-01-30T09:01:10.000Z</time>
      </trkpt>
      <trkpt lat="44.33956" lon="3.3953">
        <ele>685</ele>
        <time>2024-01-30T09:01:12.000Z</time>
      </trkpt>
      <trkpt lat="44.33964" lon="3.39543">
        <ele>684.79998779297</ele>
        <time>2024-01-30T09:01:13.000Z</time>
      </trkpt>
      <trkpt lat="44.33973" lon="3.39554">
        <ele>684.20001220703</ele>
        <time>2024-01-30T09:01:14.000Z</time>
      </trkpt>
      <trkpt lat="44.33984" lon="3.39565">
        <ele>683.40002441406</ele>
        <time>2024-01-30T09:01:15.000Z</time>
      </trkpt>
      <trkpt lat="44.33995" lon="3.39574">
        <ele>682.59997558594</ele>
        <time>2024-01-30T09:01:16.000Z</time>
      </trkpt>
      <trkpt lat="44.34006" lon="3.39583">
        <ele>681.59997558594</ele>
        <time>2024-01-30T09:01:17.000Z</time>
      </trkpt>
      <trkpt lat="44.34014" lon="3.39591">
        <ele>680.20001220703</ele>
        <time>2024-01-30T09:01:18.000Z</time>
      </trkpt>
      <trkpt lat="44.3402" lon="3.39599">
        <ele>679.20001220703</ele>
        <time>2024-01-30T09:01:19.000Z</time>
      </trkpt>
      <trkpt lat="44.34024" lon="3.39608">
        <ele>678.20001220703</ele>
        <time>2024-01-30T09:01:20.000Z</time>
      </trkpt>
      <trkpt lat="44.34024" lon="3.39618">
        <ele>677.20001220703</ele>
        <time>2024-01-30T09:01:21.000Z</time>
      </trkpt>
      <trkpt lat="44.34022" lon="3.39628">
        <ele>676.59997558594</ele>
        <time>2024-01-30T09:01:22.000Z</time>
      </trkpt>
      <trkpt lat="44.34018" lon="3.39638">
        <ele>676</ele>
        <time>2024-01-30T09:01:23.000Z</time>
      </trkpt>
      <trkpt lat="44.34016" lon="3.39649">
        <ele>675.59997558594</ele>
        <time>2024-01-30T09:01:24.000Z</time>
      </trkpt>
      <trkpt lat="44.34019" lon="3.39672">
        <ele>675</ele>
        <time>2024-01-30T09:01:26.000Z</time>
      </trkpt>
      <trkpt lat="44.34023" lon="3.39683">
        <ele>674.40002441406</ele>
        <time>2024-01-30T09:01:27.000Z</time>
      </trkpt>
      <trkpt lat="44.34041" lon="3.39717">
        <ele>673.20001220703</ele>
        <time>2024-01-30T09:01:30.000Z</time>
      </trkpt>
      <trkpt lat="44.34046" lon="3.39731">
        <ele>672.20001220703</ele>
        <time>2024-01-30T09:01:31.000Z</time>
      </trkpt>
      <trkpt lat="44.34048" lon="3.39746">
        <ele>671.59997558594</ele>
        <time>2024-01-30T09:01:32.000Z</time>
      </trkpt>
      <trkpt lat="44.34049" lon="3.39761">
        <ele>671</ele>
        <time>2024-01-30T09:01:33.000Z</time>
      </trkpt>
      <trkpt lat="44.34048" lon="3.39778">
        <ele>670.20001220703</ele>
        <time>2024-01-30T09:01:34.000Z</time>
      </trkpt>
      <trkpt lat="44.34048" lon="3.39811">
        <ele>668.59997558594</ele>
        <time>2024-01-30T09:01:36.000Z</time>
      </trkpt>
      <trkpt lat="44.34049" lon="3.39829">
        <ele>668</ele>
        <time>2024-01-30T09:01:37.000Z</time>
      </trkpt>
      <trkpt lat="44.34053" lon="3.39847">
        <ele>667</ele>
        <time>2024-01-30T09:01:38.000Z</time>
      </trkpt>
      <trkpt lat="44.3406" lon="3.3988">
        <ele>665.20001220703</ele>
        <time>2024-01-30T09:01:40.000Z</time>
      </trkpt>
      <trkpt lat="44.34064" lon="3.39893">
        <ele>664.20001220703</ele>
        <time>2024-01-30T09:01:41.000Z</time>
      </trkpt>
      <trkpt lat="44.34069" lon="3.39904">
        <ele>663.20001220703</ele>
        <time>2024-01-30T09:01:42.000Z</time>
      </trkpt>
      <trkpt lat="44.34076" lon="3.39914">
        <ele>662.79998779297</ele>
        <time>2024-01-30T09:01:43.000Z</time>
      </trkpt>
      <trkpt lat="44.34085" lon="3.39918">
        <ele>662.59997558594</ele>
        <time>2024-01-30T09:01:44.000Z</time>
      </trkpt>
      <trkpt lat="44.341" lon="3.39916">
        <ele>662.79998779297</ele>
        <time>2024-01-30T09:01:46.000Z</time>
      </trkpt>
      <trkpt lat="44.34121" lon="3.39889">
        <ele>662.79998779297</ele>
        <time>2024-01-30T09:01:49.000Z</time>
      </trkpt>
      <trkpt lat="44.34151" lon="3.39869">
        <ele>662</ele>
        <time>2024-01-30T09:01:52.000Z</time>
      </trkpt>
      <trkpt lat="44.34166" lon="3.39863">
        <ele>661.40002441406</ele>
        <time>2024-01-30T09:01:53.000Z</time>
      </trkpt>
      <trkpt lat="44.34196" lon="3.39855">
        <ele>660.40002441406</ele>
        <time>2024-01-30T09:01:55.000Z</time>
      </trkpt>
      <trkpt lat="44.34212" lon="3.3985">
        <ele>659.59997558594</ele>
        <time>2024-01-30T09:01:56.000Z</time>
      </trkpt>
      <trkpt lat="44.34227" lon="3.39845">
        <ele>658.59997558594</ele>
        <time>2024-01-30T09:01:57.000Z</time>
      </trkpt>
      <trkpt lat="44.34241" lon="3.39836">
        <ele>657.40002441406</ele>
        <time>2024-01-30T09:01:58.000Z</time>
      </trkpt>
      <trkpt lat="44.34252" lon="3.3983">
        <ele>656.20001220703</ele>
        <time>2024-01-30T09:01:59.000Z</time>
      </trkpt>
      <trkpt lat="44.34266" lon="3.39825">
        <ele>655.40002441406</ele>
        <time>2024-01-30T09:02:00.000Z</time>
      </trkpt>
      <trkpt lat="44.34278" lon="3.39824">
        <ele>654.20001220703</ele>
        <time>2024-01-30T09:02:01.000Z</time>
      </trkpt>
      <trkpt lat="44.3429" lon="3.39827">
        <ele>653.20001220703</ele>
        <time>2024-01-30T09:02:02.000Z</time>
      </trkpt>
      <trkpt lat="44.34303" lon="3.39833">
        <ele>652.20001220703</ele>
        <time>2024-01-30T09:02:03.000Z</time>
      </trkpt>
      <trkpt lat="44.34311" lon="3.39842">
        <ele>651.40002441406</ele>
        <time>2024-01-30T09:02:04.000Z</time>
      </trkpt>
      <trkpt lat="44.34321" lon="3.39853">
        <ele>650.59997558594</ele>
        <time>2024-01-30T09:02:05.000Z</time>
      </trkpt>
      <trkpt lat="44.34331" lon="3.39865">
        <ele>649.79998779297</ele>
        <time>2024-01-30T09:02:06.000Z</time>
      </trkpt>
      <trkpt lat="44.3434" lon="3.39876">
        <ele>649</ele>
        <time>2024-01-30T09:02:07.000Z</time>
      </trkpt>
      <trkpt lat="44.34364" lon="3.39893">
        <ele>647.79998779297</ele>
        <time>2024-01-30T09:02:09.000Z</time>
      </trkpt>
      <trkpt lat="44.3439" lon="3.39908">
        <ele>646</ele>
        <time>2024-01-30T09:02:11.000Z</time>
      </trkpt>
      <trkpt lat="44.34402" lon="3.39918">
        <ele>645.20001220703</ele>
        <time>2024-01-30T09:02:12.000Z</time>
      </trkpt>
      <trkpt lat="44.34412" lon="3.3993">
        <ele>643.79998779297</ele>
        <time>2024-01-30T09:02:13.000Z</time>
      </trkpt>
      <trkpt lat="44.3442" lon="3.39943">
        <ele>642.79998779297</ele>
        <time>2024-01-30T09:02:14.000Z</time>
      </trkpt>
      <trkpt lat="44.34428" lon="3.39957">
        <ele>641.59997558594</ele>
        <time>2024-01-30T09:02:15.000Z</time>
      </trkpt>
      <trkpt lat="44.34435" lon="3.39971">
        <ele>640.59997558594</ele>
        <time>2024-01-30T09:02:16.000Z</time>
      </trkpt>
      <trkpt lat="44.34444" lon="3.39981">
        <ele>639.79998779297</ele>
        <time>2024-01-30T09:02:17.000Z</time>
      </trkpt>
      <trkpt lat="44.34456" lon="3.3999">
        <ele>639.40002441406</ele>
        <time>2024-01-30T09:02:18.000Z</time>
      </trkpt>
      <trkpt lat="44.34481" lon="3.40004">
        <ele>638.20001220703</ele>
        <time>2024-01-30T09:02:20.000Z</time>
      </trkpt>
      <trkpt lat="44.34497" lon="3.40009">
        <ele>637</ele>
        <time>2024-01-30T09:02:21.000Z</time>
      </trkpt>
      <trkpt lat="44.34511" lon="3.40009">
        <ele>636.20001220703</ele>
        <time>2024-01-30T09:02:22.000Z</time>
      </trkpt>
      <trkpt lat="44.34523" lon="3.40009">
        <ele>635.20001220703</ele>
        <time>2024-01-30T09:02:23.000Z</time>
      </trkpt>
      <trkpt lat="44.34554" lon="3.40013">
        <ele>633.20001220703</ele>
        <time>2024-01-30T09:02:25.000Z</time>
      </trkpt>
      <trkpt lat="44.34569" lon="3.40018">
        <ele>632.20001220703</ele>
        <time>2024-01-30T09:02:26.000Z</time>
      </trkpt>
      <trkpt lat="44.34584" lon="3.40022">
        <ele>631</ele>
        <time>2024-01-30T09:02:27.000Z</time>
      </trkpt>
      <trkpt lat="44.34615" lon="3.40029">
        <ele>629</ele>
        <time>2024-01-30T09:02:29.000Z</time>
      </trkpt>
      <trkpt lat="44.34647" lon="3.40039">
        <ele>627.59997558594</ele>
        <time>2024-01-30T09:02:31.000Z</time>
      </trkpt>
      <trkpt lat="44.34662" lon="3.40046">
        <ele>626</ele>
        <time>2024-01-30T09:02:32.000Z</time>
      </trkpt>
      <trkpt lat="44.34688" lon="3.40058">
        <ele>624</ele>
        <time>2024-01-30T09:02:34.000Z</time>
      </trkpt>
      <trkpt lat="44.34705" lon="3.40066">
        <ele>622.79998779297</ele>
        <time>2024-01-30T09:02:35.000Z</time>
      </trkpt>
      <trkpt lat="44.34719" lon="3.40069">
        <ele>621.40002441406</ele>
        <time>2024-01-30T09:02:36.000Z</time>
      </trkpt>
      <trkpt lat="44.34734" lon="3.40069">
        <ele>620.40002441406</ele>
        <time>2024-01-30T09:02:37.000Z</time>
      </trkpt>
      <trkpt lat="44.34762" lon="3.40062">
        <ele>618.79998779297</ele>
        <time>2024-01-30T09:02:39.000Z</time>
      </trkpt>
      <trkpt lat="44.34777" lon="3.40059">
        <ele>617.59997558594</ele>
        <time>2024-01-30T09:02:40.000Z</time>
      </trkpt>
      <trkpt lat="44.34792" lon="3.40056">
        <ele>617</ele>
        <time>2024-01-30T09:02:41.000Z</time>
      </trkpt>
      <trkpt lat="44.34808" lon="3.40055">
        <ele>616</ele>
        <time>2024-01-30T09:02:42.000Z</time>
      </trkpt>
      <trkpt lat="44.34823" lon="3.40055">
        <ele>614.79998779297</ele>
        <time>2024-01-30T09:02:43.000Z</time>
      </trkpt>
      <trkpt lat="44.34837" lon="3.40059">
        <ele>613.79998779297</ele>
        <time>2024-01-30T09:02:44.000Z</time>
      </trkpt>
      <trkpt lat="44.34851" lon="3.40065">
        <ele>612.20001220703</ele>
        <time>2024-01-30T09:02:45.000Z</time>
      </trkpt>
      <trkpt lat="44.34864" lon="3.4007">
        <ele>611</ele>
        <time>2024-01-30T09:02:46.000Z</time>
      </trkpt>
      <trkpt lat="44.34878" lon="3.40072">
        <ele>609.59997558594</ele>
        <time>2024-01-30T09:02:47.000Z</time>
      </trkpt>
      <trkpt lat="44.34906" lon="3.40071">
        <ele>608</ele>
        <time>2024-01-30T09:02:49.000Z</time>
      </trkpt>
      <trkpt lat="44.3492" lon="3.40072">
        <ele>607.40002441406</ele>
        <time>2024-01-30T09:02:50.000Z</time>
      </trkpt>
      <trkpt lat="44.34934" lon="3.40075">
        <ele>606.40002441406</ele>
        <time>2024-01-30T09:02:51.000Z</time>
      </trkpt>
      <trkpt lat="44.34947" lon="3.40079">
        <ele>605.20001220703</ele>
        <time>2024-01-30T09:02:52.000Z</time>
      </trkpt>
      <trkpt lat="44.34959" lon="3.40086">
        <ele>603.79998779297</ele>
        <time>2024-01-30T09:02:53.000Z</time>
      </trkpt>
      <trkpt lat="44.3497" lon="3.40096">
        <ele>602.20001220703</ele>
        <time>2024-01-30T09:02:54.000Z</time>
      </trkpt>
      <trkpt lat="44.34978" lon="3.40109">
        <ele>601.79998779297</ele>
        <time>2024-01-30T09:02:55.000Z</time>
      </trkpt>
      <trkpt lat="44.34985" lon="3.40124">
        <ele>601.20001220703</ele>
        <time>2024-01-30T09:02:56.000Z</time>
      </trkpt>
      <trkpt lat="44.34997" lon="3.40159">
        <ele>600</ele>
        <time>2024-01-30T09:02:58.000Z</time>
      </trkpt>
      <trkpt lat="44.3501" lon="3.40197">
        <ele>598.40002441406</ele>
        <time>2024-01-30T09:03:00.000Z</time>
      </trkpt>
      <trkpt lat="44.35015" lon="3.40215">
        <ele>597.40002441406</ele>
        <time>2024-01-30T09:03:01.000Z</time>
      </trkpt>
      <trkpt lat="44.35018" lon="3.40232">
        <ele>595.59997558594</ele>
        <time>2024-01-30T09:03:02.000Z</time>
      </trkpt>
      <trkpt lat="44.35023" lon="3.40247">
        <ele>594.59997558594</ele>
        <time>2024-01-30T09:03:03.000Z</time>
      </trkpt>
      <trkpt lat="44.35031" lon="3.4026">
        <ele>593.40002441406</ele>
        <time>2024-01-30T09:03:04.000Z</time>
      </trkpt>
      <trkpt lat="44.35039" lon="3.40269">
        <ele>592.79998779297</ele>
        <time>2024-01-30T09:03:05.000Z</time>
      </trkpt>
      <trkpt lat="44.35053" lon="3.40282">
        <ele>592.40002441406</ele>
        <time>2024-01-30T09:03:06.000Z</time>
      </trkpt>
      <trkpt lat="44.35066" lon="3.40292">
        <ele>591.59997558594</ele>
        <time>2024-01-30T09:03:07.000Z</time>
      </trkpt>
      <trkpt lat="44.35078" lon="3.40305">
        <ele>590.79998779297</ele>
        <time>2024-01-30T09:03:08.000Z</time>
      </trkpt>
      <trkpt lat="44.3509" lon="3.40319">
        <ele>589.79998779297</ele>
        <time>2024-01-30T09:03:09.000Z</time>
      </trkpt>
      <trkpt lat="44.35101" lon="3.40332">
        <ele>589</ele>
        <time>2024-01-30T09:03:10.000Z</time>
      </trkpt>
      <trkpt lat="44.35124" lon="3.40358">
        <ele>587</ele>
        <time>2024-01-30T09:03:12.000Z</time>
      </trkpt>
      <trkpt lat="44.35136" lon="3.40372">
        <ele>586</ele>
        <time>2024-01-30T09:03:13.000Z</time>
      </trkpt>
      <trkpt lat="44.35149" lon="3.40386">
        <ele>585</ele>
        <time>2024-01-30T09:03:14.000Z</time>
      </trkpt>
      <trkpt lat="44.35173" lon="3.40414">
        <ele>583.20001220703</ele>
        <time>2024-01-30T09:03:16.000Z</time>
      </trkpt>
      <trkpt lat="44.35185" lon="3.40429">
        <ele>581.79998779297</ele>
        <time>2024-01-30T09:03:17.000Z</time>
      </trkpt>
      <trkpt lat="44.35207" lon="3.40461">
        <ele>580</ele>
        <time>2024-01-30T09:03:19.000Z</time>
      </trkpt>
      <trkpt lat="44.35218" lon="3.40477">
        <ele>578.79998779297</ele>
        <time>2024-01-30T09:03:20.000Z</time>
      </trkpt>
      <trkpt lat="44.35231" lon="3.40491">
        <ele>577.79998779297</ele>
        <time>2024-01-30T09:03:21.000Z</time>
      </trkpt>
      <trkpt lat="44.35244" lon="3.40504">
        <ele>576.59997558594</ele>
        <time>2024-01-30T09:03:22.000Z</time>
      </trkpt>
      <trkpt lat="44.35257" lon="3.40516">
        <ele>575.40002441406</ele>
        <time>2024-01-30T09:03:23.000Z</time>
      </trkpt>
      <trkpt lat="44.35283" lon="3.40542">
        <ele>573.40002441406</ele>
        <time>2024-01-30T09:03:25.000Z</time>
      </trkpt>
      <trkpt lat="44.35297" lon="3.40554">
        <ele>572.20001220703</ele>
        <time>2024-01-30T09:03:26.000Z</time>
      </trkpt>
      <trkpt lat="44.35312" lon="3.40564">
        <ele>571.20001220703</ele>
        <time>2024-01-30T09:03:27.000Z</time>
      </trkpt>
      <trkpt lat="44.35327" lon="3.40574">
        <ele>570</ele>
        <time>2024-01-30T09:03:28.000Z</time>
      </trkpt>
      <trkpt lat="44.35341" lon="3.40584">
        <ele>569</ele>
        <time>2024-01-30T09:03:29.000Z</time>
      </trkpt>
      <trkpt lat="44.35355" lon="3.40596">
        <ele>568</ele>
        <time>2024-01-30T09:03:30.000Z</time>
      </trkpt>
      <trkpt lat="44.35366" lon="3.40608">
        <ele>566.59997558594</ele>
        <time>2024-01-30T09:03:31.000Z</time>
      </trkpt>
      <trkpt lat="44.35395" lon="3.40625">
        <ele>564.40002441406</ele>
        <time>2024-01-30T09:03:33.000Z</time>
      </trkpt>
      <trkpt lat="44.35411" lon="3.40631">
        <ele>563.59997558594</ele>
        <time>2024-01-30T09:03:34.000Z</time>
      </trkpt>
      <trkpt lat="44.35426" lon="3.40638">
        <ele>562.59997558594</ele>
        <time>2024-01-30T09:03:35.000Z</time>
      </trkpt>
      <trkpt lat="44.35457" lon="3.40651">
        <ele>560.40002441406</ele>
        <time>2024-01-30T09:03:37.000Z</time>
      </trkpt>
      <trkpt lat="44.35487" lon="3.40672">
        <ele>558.40002441406</ele>
        <time>2024-01-30T09:03:39.000Z</time>
      </trkpt>
      <trkpt lat="44.355" lon="3.40685">
        <ele>557.20001220703</ele>
        <time>2024-01-30T09:03:40.000Z</time>
      </trkpt>
      <trkpt lat="44.35513" lon="3.40698">
        <ele>556</ele>
        <time>2024-01-30T09:03:41.000Z</time>
      </trkpt>
      <trkpt lat="44.35526" lon="3.40709">
        <ele>555</ele>
        <time>2024-01-30T09:03:42.000Z</time>
      </trkpt>
      <trkpt lat="44.35541" lon="3.40717">
        <ele>553.59997558594</ele>
        <time>2024-01-30T09:03:43.000Z</time>
      </trkpt>
      <trkpt lat="44.35556" lon="3.40722">
        <ele>552.79998779297</ele>
        <time>2024-01-30T09:03:44.000Z</time>
      </trkpt>
      <trkpt lat="44.35572" lon="3.40726">
        <ele>551.40002441406</ele>
        <time>2024-01-30T09:03:45.000Z</time>
      </trkpt>
      <trkpt lat="44.35588" lon="3.40731">
        <ele>550.79998779297</ele>
        <time>2024-01-30T09:03:46.000Z</time>
      </trkpt>
      <trkpt lat="44.35604" lon="3.40737">
        <ele>549.59997558594</ele>
        <time>2024-01-30T09:03:47.000Z</time>
      </trkpt>
      <trkpt lat="44.35637" lon="3.40751">
        <ele>547.40002441406</ele>
        <time>2024-01-30T09:03:49.000Z</time>
      </trkpt>
      <trkpt lat="44.35653" lon="3.40759">
        <ele>546.20001220703</ele>
        <time>2024-01-30T09:03:50.000Z</time>
      </trkpt>
      <trkpt lat="44.35687" lon="3.40774">
        <ele>544.20001220703</ele>
        <time>2024-01-30T09:03:52.000Z</time>
      </trkpt>
      <trkpt lat="44.35704" lon="3.40782">
        <ele>543</ele>
        <time>2024-01-30T09:03:53.000Z</time>
      </trkpt>
      <trkpt lat="44.35721" lon="3.4079">
        <ele>541.59997558594</ele>
        <time>2024-01-30T09:03:54.000Z</time>
      </trkpt>
      <trkpt lat="44.35756" lon="3.40807">
        <ele>539.40002441406</ele>
        <time>2024-01-30T09:03:56.000Z</time>
      </trkpt>
      <trkpt lat="44.35773" lon="3.40816">
        <ele>538.20001220703</ele>
        <time>2024-01-30T09:03:57.000Z</time>
      </trkpt>
      <trkpt lat="44.3579" lon="3.40825">
        <ele>537.20001220703</ele>
        <time>2024-01-30T09:03:58.000Z</time>
      </trkpt>
      <trkpt lat="44.35807" lon="3.40835">
        <ele>536</ele>
        <time>2024-01-30T09:03:59.000Z</time>
      </trkpt>
      <trkpt lat="44.3584" lon="3.40857">
        <ele>533.59997558594</ele>
        <time>2024-01-30T09:04:01.000Z</time>
      </trkpt>
      <trkpt lat="44.35855" lon="3.40867">
        <ele>532.40002441406</ele>
        <time>2024-01-30T09:04:02.000Z</time>
      </trkpt>
      <trkpt lat="44.35869" lon="3.40876">
        <ele>530.59997558594</ele>
        <time>2024-01-30T09:04:03.000Z</time>
      </trkpt>
      <trkpt lat="44.35883" lon="3.40885">
        <ele>529.20001220703</ele>
        <time>2024-01-30T09:04:04.000Z</time>
      </trkpt>
      <trkpt lat="44.35896" lon="3.40893">
        <ele>527.59997558594</ele>
        <time>2024-01-30T09:04:05.000Z</time>
      </trkpt>
      <trkpt lat="44.35908" lon="3.40903">
        <ele>526.59997558594</ele>
        <time>2024-01-30T09:04:06.000Z</time>
      </trkpt>
      <trkpt lat="44.35919" lon="3.40914">
        <ele>525.59997558594</ele>
        <time>2024-01-30T09:04:07.000Z</time>
      </trkpt>
      <trkpt lat="44.35928" lon="3.40927">
        <ele>524.40002441406</ele>
        <time>2024-01-30T09:04:08.000Z</time>
      </trkpt>
      <trkpt lat="44.35936" lon="3.40941">
        <ele>523.40002441406</ele>
        <time>2024-01-30T09:04:09.000Z</time>
      </trkpt>
      <trkpt lat="44.35942" lon="3.40956">
        <ele>522.40002441406</ele>
        <time>2024-01-30T09:04:10.000Z</time>
      </trkpt>
      <trkpt lat="44.35946" lon="3.4097">
        <ele>521.79998779297</ele>
        <time>2024-01-30T09:04:11.000Z</time>
      </trkpt>
      <trkpt lat="44.35949" lon="3.40984">
        <ele>520.40002441406</ele>
        <time>2024-01-30T09:04:12.000Z</time>
      </trkpt>
      <trkpt lat="44.35951" lon="3.40997">
        <ele>519.40002441406</ele>
        <time>2024-01-30T09:04:13.000Z</time>
      </trkpt>
      <trkpt lat="44.35953" lon="3.41007">
        <ele>518.40002441406</ele>
        <time>2024-01-30T09:04:14.000Z</time>
      </trkpt>
      <trkpt lat="44.35965" lon="3.41022">
        <ele>517.20001220703</ele>
        <time>2024-01-30T09:04:16.000Z</time>
      </trkpt>
      <trkpt lat="44.3599" lon="3.41041">
        <ele>515.79998779297</ele>
        <time>2024-01-30T09:04:19.000Z</time>
      </trkpt>
      <trkpt lat="44.35996" lon="3.41051">
        <ele>515.20001220703</ele>
        <time>2024-01-30T09:04:20.000Z</time>
      </trkpt>
      <trkpt lat="44.36001" lon="3.41063">
        <ele>514.40002441406</ele>
        <time>2024-01-30T09:04:21.000Z</time>
      </trkpt>
      <trkpt lat="44.36014" lon="3.4109">
        <ele>513.40002441406</ele>
        <time>2024-01-30T09:04:23.000Z</time>
      </trkpt>
      <trkpt lat="44.36017" lon="3.41105">
        <ele>513</ele>
        <time>2024-01-30T09:04:24.000Z</time>
      </trkpt>
      <trkpt lat="44.36023" lon="3.41136">
        <ele>511.20001220703</ele>
        <time>2024-01-30T09:04:26.000Z</time>
      </trkpt>
      <trkpt lat="44.36025" lon="3.41152">
        <ele>510.39999389648</ele>
        <time>2024-01-30T09:04:27.000Z</time>
      </trkpt>
      <trkpt lat="44.36028" lon="3.41166">
        <ele>509.60000610352</ele>
        <time>2024-01-30T09:04:28.000Z</time>
      </trkpt>
      <trkpt lat="44.36033" lon="3.41177">
        <ele>508.20001220703</ele>
        <time>2024-01-30T09:04:29.000Z</time>
      </trkpt>
      <trkpt lat="44.36041" lon="3.41187">
        <ele>507.39999389648</ele>
        <time>2024-01-30T09:04:30.000Z</time>
      </trkpt>
      <trkpt lat="44.36051" lon="3.41194">
        <ele>506.79998779297</ele>
        <time>2024-01-30T09:04:31.000Z</time>
      </trkpt>
      <trkpt lat="44.36065" lon="3.41211">
        <ele>506.20001220703</ele>
        <time>2024-01-30T09:04:33.000Z</time>
      </trkpt>
      <trkpt lat="44.36072" lon="3.41221">
        <ele>506</ele>
        <time>2024-01-30T09:04:34.000Z</time>
      </trkpt>
      <trkpt lat="44.36079" lon="3.41232">
        <ele>505.60000610352</ele>
        <time>2024-01-30T09:04:35.000Z</time>
      </trkpt>
      <trkpt lat="44.36091" lon="3.41257">
        <ele>504</ele>
        <time>2024-01-30T09:04:37.000Z</time>
      </trkpt>
      <trkpt lat="44.36098" lon="3.41269">
        <ele>503.60000610352</ele>
        <time>2024-01-30T09:04:38.000Z</time>
      </trkpt>
      <trkpt lat="44.36105" lon="3.41281">
        <ele>502.60000610352</ele>
        <time>2024-01-30T09:04:39.000Z</time>
      </trkpt>
      <trkpt lat="44.36113" lon="3.41291">
        <ele>501.79998779297</ele>
        <time>2024-01-30T09:04:40.000Z</time>
      </trkpt>
      <trkpt lat="44.36121" lon="3.413">
        <ele>501.20001220703</ele>
        <time>2024-01-30T09:04:41.000Z</time>
      </trkpt>
      <trkpt lat="44.36129" lon="3.41309">
        <ele>500.39999389648</ele>
        <time>2024-01-30T09:04:42.000Z</time>
      </trkpt>
      <trkpt lat="44.36137" lon="3.4132">
        <ele>500</ele>
        <time>2024-01-30T09:04:43.000Z</time>
      </trkpt>
      <trkpt lat="44.36152" lon="3.41339">
        <ele>498.79998779297</ele>
        <time>2024-01-30T09:04:45.000Z</time>
      </trkpt>
      <trkpt lat="44.3616" lon="3.41348">
        <ele>498.39999389648</ele>
        <time>2024-01-30T09:04:46.000Z</time>
      </trkpt>
      <trkpt lat="44.36177" lon="3.41363">
        <ele>496.79998779297</ele>
        <time>2024-01-30T09:04:48.000Z</time>
      </trkpt>
      <trkpt lat="44.36187" lon="3.41369">
        <ele>496.60000610352</ele>
        <time>2024-01-30T09:04:49.000Z</time>
      </trkpt>
      <trkpt lat="44.36195" lon="3.41372">
        <ele>496</ele>
        <time>2024-01-30T09:04:50.000Z</time>
      </trkpt>
      <trkpt lat="44.36207" lon="3.41377">
        <ele>495.39999389648</ele>
        <time>2024-01-30T09:04:51.000Z</time>
      </trkpt>
      <trkpt lat="44.3624" lon="3.41384">
        <ele>494.20001220703</ele>
        <time>2024-01-30T09:04:54.000Z</time>
      </trkpt>
      <trkpt lat="44.36248" lon="3.41386">
        <ele>493.60000610352</ele>
        <time>2024-01-30T09:04:55.000Z</time>
      </trkpt>
      <trkpt lat="44.36257" lon="3.41388">
        <ele>492.79998779297</ele>
        <time>2024-01-30T09:04:56.000Z</time>
      </trkpt>
      <trkpt lat="44.36276" lon="3.41392">
        <ele>491.79998779297</ele>
        <time>2024-01-30T09:04:58.000Z</time>
      </trkpt>
      <trkpt lat="44.36293" lon="3.41394">
        <ele>491</ele>
        <time>2024-01-30T09:05:00.000Z</time>
      </trkpt>
      <trkpt lat="44.36302" lon="3.41393">
        <ele>490</ele>
        <time>2024-01-30T09:05:01.000Z</time>
      </trkpt>
      <trkpt lat="44.36312" lon="3.4139">
        <ele>489.39999389648</ele>
        <time>2024-01-30T09:05:02.000Z</time>
      </trkpt>
      <trkpt lat="44.36319" lon="3.41386">
        <ele>489</ele>
        <time>2024-01-30T09:05:03.000Z</time>
      </trkpt>
      <trkpt lat="44.36327" lon="3.41383">
        <ele>488.60000610352</ele>
        <time>2024-01-30T09:05:04.000Z</time>
      </trkpt>
      <trkpt lat="44.36349" lon="3.4137">
        <ele>487.20001220703</ele>
        <time>2024-01-30T09:05:07.000Z</time>
      </trkpt>
      <trkpt lat="44.36363" lon="3.41361">
        <ele>486.20001220703</ele>
        <time>2024-01-30T09:05:09.000Z</time>
      </trkpt>
      <trkpt lat="44.36381" lon="3.41347">
        <ele>485</ele>
        <time>2024-01-30T09:05:12.000Z</time>
      </trkpt>
      <trkpt lat="44.36392" lon="3.41335">
        <ele>484.20001220703</ele>
        <time>2024-01-30T09:05:14.000Z</time>
      </trkpt>
      <trkpt lat="44.36403" lon="3.41321">
        <ele>483.79998779297</ele>
        <time>2024-01-30T09:05:16.000Z</time>
      </trkpt>
      <trkpt lat="44.36418" lon="3.41293">
        <ele>482.39999389648</ele>
        <time>2024-01-30T09:05:19.000Z</time>
      </trkpt>
      <trkpt lat="44.36431" lon="3.41261">
        <ele>481.20001220703</ele>
        <time>2024-01-30T09:05:22.000Z</time>
      </trkpt>
      <trkpt lat="44.36435" lon="3.4125">
        <ele>480.79998779297</ele>
        <time>2024-01-30T09:05:23.000Z</time>
      </trkpt>
      <trkpt lat="44.36438" lon="3.41239">
        <ele>480.20001220703</ele>
        <time>2024-01-30T09:05:24.000Z</time>
      </trkpt>
      <trkpt lat="44.36443" lon="3.41202">
        <ele>478.60000610352</ele>
        <time>2024-01-30T09:05:27.000Z</time>
      </trkpt>
      <trkpt lat="44.36443" lon="3.41178">
        <ele>477.60000610352</ele>
        <time>2024-01-30T09:05:29.000Z</time>
      </trkpt>
      <trkpt lat="44.36442" lon="3.41145">
        <ele>476.20001220703</ele>
        <time>2024-01-30T09:05:32.000Z</time>
      </trkpt>
      <trkpt lat="44.3644" lon="3.41134">
        <ele>475.79998779297</ele>
        <time>2024-01-30T09:05:33.000Z</time>
      </trkpt>
      <trkpt lat="44.36434" lon="3.41096">
        <ele>475.20001220703</ele>
        <time>2024-01-30T09:05:37.000Z</time>
      </trkpt>
      <trkpt lat="44.36433" lon="3.41087">
        <ele>475.20001220703</ele>
        <time>2024-01-30T09:05:38.000Z</time>
      </trkpt>
      <trkpt lat="44.36433" lon="3.41065">
        <ele>474.79998779297</ele>
        <time>2024-01-30T09:05:41.000Z</time>
      </trkpt>
      <trkpt lat="44.36434" lon="3.41059">
        <ele>474.79998779297</ele>
        <time>2024-01-30T09:05:42.000Z</time>
      </trkpt>
      <trkpt lat="44.36438" lon="3.41049">
        <ele>474.79998779297</ele>
        <time>2024-01-30T09:05:44.000Z</time>
      </trkpt>
      <trkpt lat="44.36445" lon="3.41044">
        <ele>475</ele>
        <time>2024-01-30T09:05:46.000Z</time>
      </trkpt>
      <trkpt lat="44.36454" lon="3.41041">
        <ele>475</ele>
        <time>2024-01-30T09:05:48.000Z</time>
      </trkpt>
      <trkpt lat="44.36474" lon="3.41038">
        <ele>475.20001220703</ele>
        <time>2024-01-30T09:05:51.000Z</time>
      </trkpt>
      <trkpt lat="44.36521" lon="3.41031">
        <ele>474.20001220703</ele>
        <time>2024-01-30T09:05:59.000Z</time>
      </trkpt>
      <trkpt lat="44.36534" lon="3.41028">
        <ele>473</ele>
        <time>2024-01-30T09:06:01.000Z</time>
      </trkpt>
      <trkpt lat="44.36544" lon="3.41026">
        <ele>471.79998779297</ele>
        <time>2024-01-30T09:06:03.000Z</time>
      </trkpt>
      <trkpt lat="44.36551" lon="3.41025">
        <ele>470.20001220703</ele>
        <time>2024-01-30T09:06:05.000Z</time>
      </trkpt>
      <trkpt lat="44.36553" lon="3.41025">
        <ele>469.79998779297</ele>
        <time>2024-01-30T09:06:08.000Z</time>
      </trkpt>
      <trkpt lat="44.36561" lon="3.41035">
        <ele>469.60000610352</ele>
        <time>2024-01-30T09:06:13.000Z</time>
      </trkpt>
      <trkpt lat="44.36567" lon="3.41047">
        <ele>467.7</ele>
      </trkpt>
      <trkpt lat="44.36578" lon="3.4105">
        <ele>472.79998779297</ele>
        <time>2024-01-30T09:51:16.000Z</time>
      </trkpt>
      <trkpt lat="44.36584" lon="3.41052">
        <ele>473</ele>
        <time>2024-01-30T09:51:17.000Z</time>
      </trkpt>
      <trkpt lat="44.36602" lon="3.41057">
        <ele>474.20001220703</ele>
        <time>2024-01-30T09:51:20.000Z</time>
      </trkpt>
      <trkpt lat="44.36607" lon="3.41059">
        <ele>474.60000610352</ele>
        <time>2024-01-30T09:51:21.000Z</time>
      </trkpt>
      <trkpt lat="44.36617" lon="3.4106">
        <ele>475.20001220703</ele>
        <time>2024-01-30T09:51:22.000Z</time>
      </trkpt>
      <trkpt lat="44.36625" lon="3.41061">
        <ele>476</ele>
        <time>2024-01-30T09:51:23.000Z</time>
      </trkpt>
      <trkpt lat="44.36632" lon="3.41061">
        <ele>476.39999389648</ele>
        <time>2024-01-30T09:51:24.000Z</time>
      </trkpt>
      <trkpt lat="44.36639" lon="3.4106">
        <ele>477.39999389648</ele>
        <time>2024-01-30T09:51:25.000Z</time>
      </trkpt>
      <trkpt lat="44.36646" lon="3.41058">
        <ele>478</ele>
        <time>2024-01-30T09:51:26.000Z</time>
      </trkpt>
      <trkpt lat="44.36662" lon="3.4105">
        <ele>479.39999389648</ele>
        <time>2024-01-30T09:51:28.000Z</time>
      </trkpt>
      <trkpt lat="44.36679" lon="3.41044">
        <ele>481</ele>
        <time>2024-01-30T09:51:30.000Z</time>
      </trkpt>
      <trkpt lat="44.36694" lon="3.41039">
        <ele>482.20001220703</ele>
        <time>2024-01-30T09:51:32.000Z</time>
      </trkpt>
      <trkpt lat="44.367" lon="3.41035">
        <ele>482.39999389648</ele>
        <time>2024-01-30T09:51:33.000Z</time>
      </trkpt>
      <trkpt lat="44.36706" lon="3.41032">
        <ele>483</ele>
        <time>2024-01-30T09:51:34.000Z</time>
      </trkpt>
      <trkpt lat="44.3671" lon="3.41028">
        <ele>483.20001220703</ele>
        <time>2024-01-30T09:51:35.000Z</time>
      </trkpt>
      <trkpt lat="44.36712" lon="3.41021">
        <ele>483.60000610352</ele>
        <time>2024-01-30T09:51:36.000Z</time>
      </trkpt>
      <trkpt lat="44.36712" lon="3.41013">
        <ele>484</ele>
        <time>2024-01-30T09:51:37.000Z</time>
      </trkpt>
      <trkpt lat="44.3671" lon="3.41006">
        <ele>484.39999389648</ele>
        <time>2024-01-30T09:51:38.000Z</time>
      </trkpt>
      <trkpt lat="44.36707" lon="3.40998">
        <ele>484.79998779297</ele>
        <time>2024-01-30T09:51:39.000Z</time>
      </trkpt>
      <trkpt lat="44.36699" lon="3.40984">
        <ele>485.79998779297</ele>
        <time>2024-01-30T09:51:41.000Z</time>
      </trkpt>
      <trkpt lat="44.36693" lon="3.40979">
        <ele>486.39999389648</ele>
        <time>2024-01-30T09:51:42.000Z</time>
      </trkpt>
      <trkpt lat="44.36686" lon="3.40974">
        <ele>487</ele>
        <time>2024-01-30T09:51:43.000Z</time>
      </trkpt>
      <trkpt lat="44.36674" lon="3.40962">
        <ele>488.20001220703</ele>
        <time>2024-01-30T09:51:45.000Z</time>
      </trkpt>
      <trkpt lat="44.36662" lon="3.40952">
        <ele>489</ele>
        <time>2024-01-30T09:51:47.000Z</time>
      </trkpt>
      <trkpt lat="44.36655" lon="3.40948">
        <ele>489.20001220703</ele>
        <time>2024-01-30T09:51:48.000Z</time>
      </trkpt>
      <trkpt lat="44.36647" lon="3.40945">
        <ele>489.39999389648</ele>
        <time>2024-01-30T09:51:49.000Z</time>
      </trkpt>
      <trkpt lat="44.36632" lon="3.40945">
        <ele>490.20001220703</ele>
        <time>2024-01-30T09:51:51.000Z</time>
      </trkpt>
      <trkpt lat="44.36619" lon="3.40948">
        <ele>490.79998779297</ele>
        <time>2024-01-30T09:51:53.000Z</time>
      </trkpt>
      <trkpt lat="44.36607" lon="3.40949">
        <ele>491.39999389648</ele>
        <time>2024-01-30T09:51:55.000Z</time>
      </trkpt>
      <trkpt lat="44.36588" lon="3.4095">
        <ele>492.20001220703</ele>
        <time>2024-01-30T09:51:58.000Z</time>
      </trkpt>
      <trkpt lat="44.36582" lon="3.4095">
        <ele>492.79998779297</ele>
        <time>2024-01-30T09:51:59.000Z</time>
      </trkpt>
      <trkpt lat="44.36576" lon="3.40945">
        <ele>493</ele>
        <time>2024-01-30T09:52:00.000Z</time>
      </trkpt>
      <trkpt lat="44.36566" lon="3.40931">
        <ele>493.79998779297</ele>
        <time>2024-01-30T09:52:02.000Z</time>
      </trkpt>
      <trkpt lat="44.36561" lon="3.40922">
        <ele>494.39999389648</ele>
        <time>2024-01-30T09:52:03.000Z</time>
      </trkpt>
      <trkpt lat="44.36556" lon="3.40913">
        <ele>495</ele>
        <time>2024-01-30T09:52:04.000Z</time>
      </trkpt>
      <trkpt lat="44.36549" lon="3.40907">
        <ele>495.39999389648</ele>
        <time>2024-01-30T09:52:05.000Z</time>
      </trkpt>
      <trkpt lat="44.36541" lon="3.40901">
        <ele>495.79998779297</ele>
        <time>2024-01-30T09:52:06.000Z</time>
      </trkpt>
      <trkpt lat="44.36533" lon="3.40896">
        <ele>496.39999389648</ele>
        <time>2024-01-30T09:52:07.000Z</time>
      </trkpt>
      <trkpt lat="44.36523" lon="3.40892">
        <ele>497.39999389648</ele>
        <time>2024-01-30T09:52:08.000Z</time>
      </trkpt>
      <trkpt lat="44.36503" lon="3.40883">
        <ele>499</ele>
        <time>2024-01-30T09:52:10.000Z</time>
      </trkpt>
      <trkpt lat="44.36482" lon="3.40874">
        <ele>500.39999389648</ele>
        <time>2024-01-30T09:52:12.000Z</time>
      </trkpt>
      <trkpt lat="44.3646" lon="3.40866">
        <ele>501.79998779297</ele>
        <time>2024-01-30T09:52:14.000Z</time>
      </trkpt>
      <trkpt lat="44.36449" lon="3.40865">
        <ele>502.60000610352</ele>
        <time>2024-01-30T09:52:15.000Z</time>
      </trkpt>
      <trkpt lat="44.36439" lon="3.40866">
        <ele>503.39999389648</ele>
        <time>2024-01-30T09:52:16.000Z</time>
      </trkpt>
      <trkpt lat="44.36408" lon="3.40872">
        <ele>505.20001220703</ele>
        <time>2024-01-30T09:52:19.000Z</time>
      </trkpt>
      <trkpt lat="44.36399" lon="3.40874">
        <ele>506</ele>
        <time>2024-01-30T09:52:20.000Z</time>
      </trkpt>
      <trkpt lat="44.36391" lon="3.40877">
        <ele>506.39999389648</ele>
        <time>2024-01-30T09:52:21.000Z</time>
      </trkpt>
      <trkpt lat="44.36384" lon="3.40881">
        <ele>506.79998779297</ele>
        <time>2024-01-30T09:52:22.000Z</time>
      </trkpt>
      <trkpt lat="44.36377" lon="3.40886">
        <ele>507.20001220703</ele>
        <time>2024-01-30T09:52:23.000Z</time>
      </trkpt>
      <trkpt lat="44.36371" lon="3.40894">
        <ele>507.39999389648</ele>
        <time>2024-01-30T09:52:24.000Z</time>
      </trkpt>
      <trkpt lat="44.36364" lon="3.40914">
        <ele>508.79998779297</ele>
        <time>2024-01-30T09:52:26.000Z</time>
      </trkpt>
      <trkpt lat="44.36358" lon="3.40935">
        <ele>509.79998779297</ele>
        <time>2024-01-30T09:52:28.000Z</time>
      </trkpt>
      <trkpt lat="44.36354" lon="3.40944">
        <ele>510.20001220703</ele>
        <time>2024-01-30T09:52:29.000Z</time>
      </trkpt>
      <trkpt lat="44.36349" lon="3.40952">
        <ele>511</ele>
        <time>2024-01-30T09:52:30.000Z</time>
      </trkpt>
      <trkpt lat="44.36341" lon="3.40957">
        <ele>512</ele>
        <time>2024-01-30T09:52:31.000Z</time>
      </trkpt>
      <trkpt lat="44.36325" lon="3.40965">
        <ele>513.40002441406</ele>
        <time>2024-01-30T09:52:33.000Z</time>
      </trkpt>
      <trkpt lat="44.36317" lon="3.40969">
        <ele>514</ele>
        <time>2024-01-30T09:52:34.000Z</time>
      </trkpt>
      <trkpt lat="44.36309" lon="3.40976">
        <ele>514.59997558594</ele>
        <time>2024-01-30T09:52:35.000Z</time>
      </trkpt>
      <trkpt lat="44.36302" lon="3.40984">
        <ele>515.20001220703</ele>
        <time>2024-01-30T09:52:36.000Z</time>
      </trkpt>
      <trkpt lat="44.36296" lon="3.40993">
        <ele>515.59997558594</ele>
        <time>2024-01-30T09:52:37.000Z</time>
      </trkpt>
      <trkpt lat="44.36291" lon="3.41004">
        <ele>516.20001220703</ele>
        <time>2024-01-30T09:52:38.000Z</time>
      </trkpt>
      <trkpt lat="44.36286" lon="3.41015">
        <ele>517</ele>
        <time>2024-01-30T09:52:39.000Z</time>
      </trkpt>
      <trkpt lat="44.36281" lon="3.41025">
        <ele>518</ele>
        <time>2024-01-30T09:52:40.000Z</time>
      </trkpt>
      <trkpt lat="44.36276" lon="3.41035">
        <ele>518.20001220703</ele>
        <time>2024-01-30T09:52:41.000Z</time>
      </trkpt>
      <trkpt lat="44.36268" lon="3.41054">
        <ele>519.40002441406</ele>
        <time>2024-01-30T09:52:43.000Z</time>
      </trkpt>
      <trkpt lat="44.36264" lon="3.41062">
        <ele>519.59997558594</ele>
        <time>2024-01-30T09:52:44.000Z</time>
      </trkpt>
      <trkpt lat="44.3626" lon="3.41068">
        <ele>520.20001220703</ele>
        <time>2024-01-30T09:52:45.000Z</time>
      </trkpt>
      <trkpt lat="44.36254" lon="3.41072">
        <ele>521</ele>
        <time>2024-01-30T09:52:46.000Z</time>
      </trkpt>
      <trkpt lat="44.36244" lon="3.4107">
        <ele>521.79998779297</ele>
        <time>2024-01-30T09:52:48.000Z</time>
      </trkpt>
      <trkpt lat="44.36241" lon="3.41066">
        <ele>522.20001220703</ele>
        <time>2024-01-30T09:52:49.000Z</time>
      </trkpt>
      <trkpt lat="44.36238" lon="3.4106">
        <ele>522.40002441406</ele>
        <time>2024-01-30T09:52:50.000Z</time>
      </trkpt>
      <trkpt lat="44.36235" lon="3.41051">
        <ele>522.79998779297</ele>
        <time>2024-01-30T09:52:51.000Z</time>
      </trkpt>
      <trkpt lat="44.36232" lon="3.41042">
        <ele>523.40002441406</ele>
        <time>2024-01-30T09:52:52.000Z</time>
      </trkpt>
      <trkpt lat="44.36228" lon="3.41031">
        <ele>524.59997558594</ele>
        <time>2024-01-30T09:52:53.000Z</time>
      </trkpt>
      <trkpt lat="44.36225" lon="3.4102">
        <ele>524.79998779297</ele>
        <time>2024-01-30T09:52:54.000Z</time>
      </trkpt>
      <trkpt lat="44.36217" lon="3.40994">
        <ele>526.20001220703</ele>
        <time>2024-01-30T09:52:56.000Z</time>
      </trkpt>
      <trkpt lat="44.36209" lon="3.40969">
        <ele>527.59997558594</ele>
        <time>2024-01-30T09:52:58.000Z</time>
      </trkpt>
      <trkpt lat="44.362" lon="3.40941">
        <ele>528.79998779297</ele>
        <time>2024-01-30T09:53:00.000Z</time>
      </trkpt>
      <trkpt lat="44.3619" lon="3.40912">
        <ele>530</ele>
        <time>2024-01-30T09:53:02.000Z</time>
      </trkpt>
      <trkpt lat="44.36184" lon="3.40897">
        <ele>531</ele>
        <time>2024-01-30T09:53:03.000Z</time>
      </trkpt>
      <trkpt lat="44.36178" lon="3.4088">
        <ele>532.20001220703</ele>
        <time>2024-01-30T09:53:04.000Z</time>
      </trkpt>
      <trkpt lat="44.36164" lon="3.40841">
        <ele>534.20001220703</ele>
        <time>2024-01-30T09:53:07.000Z</time>
      </trkpt>
      <trkpt lat="44.3616" lon="3.40827">
        <ele>535.20001220703</ele>
        <time>2024-01-30T09:53:08.000Z</time>
      </trkpt>
      <trkpt lat="44.36152" lon="3.40794">
        <ele>536.79998779297</ele>
        <time>2024-01-30T09:53:10.000Z</time>
      </trkpt>
      <trkpt lat="44.36143" lon="3.40761">
        <ele>538.59997558594</ele>
        <time>2024-01-30T09:53:12.000Z</time>
      </trkpt>
      <trkpt lat="44.36137" lon="3.40741">
        <ele>539.20001220703</ele>
        <time>2024-01-30T09:53:13.000Z</time>
      </trkpt>
      <trkpt lat="44.36132" lon="3.40725">
        <ele>540</ele>
        <time>2024-01-30T09:53:14.000Z</time>
      </trkpt>
      <trkpt lat="44.3612" lon="3.40693">
        <ele>541.79998779297</ele>
        <time>2024-01-30T09:53:16.000Z</time>
      </trkpt>
      <trkpt lat="44.36115" lon="3.40678">
        <ele>542.40002441406</ele>
        <time>2024-01-30T09:53:17.000Z</time>
      </trkpt>
      <trkpt lat="44.3611" lon="3.40663">
        <ele>543.20001220703</ele>
        <time>2024-01-30T09:53:18.000Z</time>
      </trkpt>
      <trkpt lat="44.36104" lon="3.40636">
        <ele>544.40002441406</ele>
        <time>2024-01-30T09:53:20.000Z</time>
      </trkpt>
      <trkpt lat="44.36099" lon="3.40609">
        <ele>545.79998779297</ele>
        <time>2024-01-30T09:53:22.000Z</time>
      </trkpt>
      <trkpt lat="44.36095" lon="3.40598">
        <ele>546.40002441406</ele>
        <time>2024-01-30T09:53:23.000Z</time>
      </trkpt>
      <trkpt lat="44.36088" lon="3.40586">
        <ele>547</ele>
        <time>2024-01-30T09:53:24.000Z</time>
      </trkpt>
      <trkpt lat="44.36083" lon="3.40581">
        <ele>547.59997558594</ele>
        <time>2024-01-30T09:53:25.000Z</time>
      </trkpt>
      <trkpt lat="44.36072" lon="3.40573">
        <ele>548.59997558594</ele>
        <time>2024-01-30T09:53:26.000Z</time>
      </trkpt>
      <trkpt lat="44.36063" lon="3.40568">
        <ele>549</ele>
        <time>2024-01-30T09:53:27.000Z</time>
      </trkpt>
      <trkpt lat="44.36052" lon="3.40564">
        <ele>549.59997558594</ele>
        <time>2024-01-30T09:53:28.000Z</time>
      </trkpt>
      <trkpt lat="44.36034" lon="3.40555">
        <ele>550.59997558594</ele>
        <time>2024-01-30T09:53:30.000Z</time>
      </trkpt>
      <trkpt lat="44.36024" lon="3.40537">
        <ele>552.40002441406</ele>
        <time>2024-01-30T09:53:32.000Z</time>
      </trkpt>
      <trkpt lat="44.36019" lon="3.40523">
        <ele>552.79998779297</ele>
        <time>2024-01-30T09:53:33.000Z</time>
      </trkpt>
      <trkpt lat="44.36014" lon="3.4051">
        <ele>553.79998779297</ele>
        <time>2024-01-30T09:53:34.000Z</time>
      </trkpt>
      <trkpt lat="44.36009" lon="3.405">
        <ele>554.79998779297</ele>
        <time>2024-01-30T09:53:35.000Z</time>
      </trkpt>
      <trkpt lat="44.36" lon="3.40487">
        <ele>555.20001220703</ele>
        <time>2024-01-30T09:53:36.000Z</time>
      </trkpt>
      <trkpt lat="44.35991" lon="3.40477">
        <ele>556.40002441406</ele>
        <time>2024-01-30T09:53:37.000Z</time>
      </trkpt>
      <trkpt lat="44.35983" lon="3.40468">
        <ele>556.79998779297</ele>
        <time>2024-01-30T09:53:38.000Z</time>
      </trkpt>
      <trkpt lat="44.35968" lon="3.40451">
        <ele>558</ele>
        <time>2024-01-30T09:53:40.000Z</time>
      </trkpt>
      <trkpt lat="44.35953" lon="3.40431">
        <ele>559.40002441406</ele>
        <time>2024-01-30T09:53:42.000Z</time>
      </trkpt>
      <trkpt lat="44.35945" lon="3.40417">
        <ele>560.40002441406</ele>
        <time>2024-01-30T09:53:43.000Z</time>
      </trkpt>
      <trkpt lat="44.35932" lon="3.40393">
        <ele>561.79998779297</ele>
        <time>2024-01-30T09:53:45.000Z</time>
      </trkpt>
      <trkpt lat="44.35924" lon="3.40383">
        <ele>562.59997558594</ele>
        <time>2024-01-30T09:53:46.000Z</time>
      </trkpt>
      <trkpt lat="44.35915" lon="3.40374">
        <ele>564</ele>
        <time>2024-01-30T09:53:47.000Z</time>
      </trkpt>
      <trkpt lat="44.35907" lon="3.40368">
        <ele>564.59997558594</ele>
        <time>2024-01-30T09:53:48.000Z</time>
      </trkpt>
      <trkpt lat="44.35896" lon="3.40359">
        <ele>565.20001220703</ele>
        <time>2024-01-30T09:53:49.000Z</time>
      </trkpt>
      <trkpt lat="44.35875" lon="3.40346">
        <ele>566.40002441406</ele>
        <time>2024-01-30T09:53:51.000Z</time>
      </trkpt>
      <trkpt lat="44.35857" lon="3.40334">
        <ele>568.40002441406</ele>
        <time>2024-01-30T09:53:53.000Z</time>
      </trkpt>
      <trkpt lat="44.35845" lon="3.40327">
        <ele>569.20001220703</ele>
        <time>2024-01-30T09:53:54.000Z</time>
      </trkpt>
      <trkpt lat="44.35836" lon="3.40322">
        <ele>569.79998779297</ele>
        <time>2024-01-30T09:53:55.000Z</time>
      </trkpt>
      <trkpt lat="44.3582" lon="3.40313">
        <ele>571</ele>
        <time>2024-01-30T09:53:57.000Z</time>
      </trkpt>
      <trkpt lat="44.3581" lon="3.40311">
        <ele>571.20001220703</ele>
        <time>2024-01-30T09:53:58.000Z</time>
      </trkpt>
      <trkpt lat="44.35801" lon="3.40312">
        <ele>572</ele>
        <time>2024-01-30T09:53:59.000Z</time>
      </trkpt>
      <trkpt lat="44.35793" lon="3.40312">
        <ele>572.59997558594</ele>
        <time>2024-01-30T09:54:00.000Z</time>
      </trkpt>
      <trkpt lat="44.35784" lon="3.4031">
        <ele>573</ele>
        <time>2024-01-30T09:54:01.000Z</time>
      </trkpt>
      <trkpt lat="44.35778" lon="3.40308">
        <ele>573.59997558594</ele>
        <time>2024-01-30T09:54:02.000Z</time>
      </trkpt>
      <trkpt lat="44.35768" lon="3.40304">
        <ele>574.20001220703</ele>
        <time>2024-01-30T09:54:03.000Z</time>
      </trkpt>
      <trkpt lat="44.35755" lon="3.40294">
        <ele>575</ele>
        <time>2024-01-30T09:54:05.000Z</time>
      </trkpt>
      <trkpt lat="44.35743" lon="3.40267">
        <ele>576.40002441406</ele>
        <time>2024-01-30T09:54:08.000Z</time>
      </trkpt>
      <trkpt lat="44.35739" lon="3.40253">
        <ele>576.79998779297</ele>
        <time>2024-01-30T09:54:10.000Z</time>
      </trkpt>
      <trkpt lat="44.35738" lon="3.40249">
        <ele>577.40002441406</ele>
        <time>2024-01-30T09:54:11.000Z</time>
      </trkpt>
      <trkpt lat="44.35738" lon="3.40246">
        <ele>577.59997558594</ele>
        <time>2024-01-30T09:54:12.000Z</time>
      </trkpt>
      <trkpt lat="44.35738" lon="3.40244">
        <ele>578.40002441406</ele>
        <time>2024-01-30T09:54:14.000Z</time>
      </trkpt>
      <trkpt lat="44.35738" lon="3.40244">
        <ele>578.59997558594</ele>
        <time>2024-01-30T09:54:15.000Z</time>
      </trkpt>
      <trkpt lat="44.35738" lon="3.40244">
        <ele>579</ele>
        <time>2024-01-30T09:54:20.000Z</time>
      </trkpt>
      <trkpt lat="44.35738" lon="3.40244">
        <ele>579.20001220703</ele>
        <time>2024-01-30T09:54:43.000Z</time>
      </trkpt>
      <trkpt lat="44.35741" lon="3.40243">
        <ele>579.59997558594</ele>
        <time>2024-01-30T09:54:56.000Z</time>
      </trkpt>
      <trkpt lat="44.35743" lon="3.40242">
        <ele>579.79998779297</ele>
        <time>2024-01-30T09:54:57.000Z</time>
      </trkpt>
      <trkpt lat="44.35745" lon="3.40243">
        <ele>579.79998779297</ele>
        <time>2024-01-30T09:54:58.000Z</time>
      </trkpt>
      <trkpt lat="44.35748" lon="3.40249">
        <ele>580</ele>
        <time>2024-01-30T09:55:00.000Z</time>
      </trkpt>
      <trkpt lat="44.35754" lon="3.40266">
        <ele>580.59997558594</ele>
        <time>2024-01-30T09:55:03.000Z</time>
      </trkpt>
      <trkpt lat="44.35757" lon="3.40271">
        <ele>580.79998779297</ele>
        <time>2024-01-30T09:55:04.000Z</time>
      </trkpt>
      <trkpt lat="44.35767" lon="3.40289">
        <ele>581.20001220703</ele>
        <time>2024-01-30T09:55:07.000Z</time>
      </trkpt>
      <trkpt lat="44.35778" lon="3.40299">
        <ele>582.20001220703</ele>
        <time>2024-01-30T09:55:09.000Z</time>
      </trkpt>
      <trkpt lat="44.35798" lon="3.40307">
        <ele>583.59997558594</ele>
        <time>2024-01-30T09:55:12.000Z</time>
      </trkpt>
      <trkpt lat="44.35805" lon="3.40307">
        <ele>583.79998779297</ele>
        <time>2024-01-30T09:55:13.000Z</time>
      </trkpt>
      <trkpt lat="44.35813" lon="3.40306">
        <ele>584.59997558594</ele>
        <time>2024-01-30T09:55:14.000Z</time>
      </trkpt>
      <trkpt lat="44.35828" lon="3.40303">
        <ele>585.59997558594</ele>
        <time>2024-01-30T09:55:16.000Z</time>
      </trkpt>
      <trkpt lat="44.35843" lon="3.40309">
        <ele>587</ele>
        <time>2024-01-30T09:55:18.000Z</time>
      </trkpt>
      <trkpt lat="44.35851" lon="3.40315">
        <ele>587.59997558594</ele>
        <time>2024-01-30T09:55:19.000Z</time>
      </trkpt>
      <trkpt lat="44.35858" lon="3.4032">
        <ele>587.79998779297</ele>
        <time>2024-01-30T09:55:20.000Z</time>
      </trkpt>
      <trkpt lat="44.35868" lon="3.40324">
        <ele>588.20001220703</ele>
        <time>2024-01-30T09:55:21.000Z</time>
      </trkpt>
      <trkpt lat="44.35878" lon="3.40327">
        <ele>589.20001220703</ele>
        <time>2024-01-30T09:55:22.000Z</time>
      </trkpt>
      <trkpt lat="44.35889" lon="3.40329">
        <ele>590</ele>
        <time>2024-01-30T09:55:23.000Z</time>
      </trkpt>
      <trkpt lat="44.35911" lon="3.40333">
        <ele>591.40002441406</ele>
        <time>2024-01-30T09:55:25.000Z</time>
      </trkpt>
      <trkpt lat="44.35931" lon="3.40337">
        <ele>593.20001220703</ele>
        <time>2024-01-30T09:55:27.000Z</time>
      </trkpt>
      <trkpt lat="44.35941" lon="3.40342">
        <ele>593.79998779297</ele>
        <time>2024-01-30T09:55:28.000Z</time>
      </trkpt>
      <trkpt lat="44.35951" lon="3.40348">
        <ele>594.59997558594</ele>
        <time>2024-01-30T09:55:29.000Z</time>
      </trkpt>
      <trkpt lat="44.3597" lon="3.40365">
        <ele>596</ele>
        <time>2024-01-30T09:55:31.000Z</time>
      </trkpt>
      <trkpt lat="44.35977" lon="3.40374">
        <ele>596.59997558594</ele>
        <time>2024-01-30T09:55:32.000Z</time>
      </trkpt>
      <trkpt lat="44.35984" lon="3.40383">
        <ele>597.20001220703</ele>
        <time>2024-01-30T09:55:33.000Z</time>
      </trkpt>
      <trkpt lat="44.3599" lon="3.40394">
        <ele>598</ele>
        <time>2024-01-30T09:55:34.000Z</time>
      </trkpt>
      <trkpt lat="44.35996" lon="3.40405">
        <ele>598.59997558594</ele>
        <time>2024-01-30T09:55:35.000Z</time>
      </trkpt>
      <trkpt lat="44.36009" lon="3.40424">
        <ele>599.79998779297</ele>
        <time>2024-01-30T09:55:37.000Z</time>
      </trkpt>
      <trkpt lat="44.36018" lon="3.40434">
        <ele>600</ele>
        <time>2024-01-30T09:55:38.000Z</time>
      </trkpt>
      <trkpt lat="44.36027" lon="3.4044">
        <ele>600.79998779297</ele>
        <time>2024-01-30T09:55:39.000Z</time>
      </trkpt>
      <trkpt lat="44.36037" lon="3.40443">
        <ele>601.79998779297</ele>
        <time>2024-01-30T09:55:40.000Z</time>
      </trkpt>
      <trkpt lat="44.36045" lon="3.40445">
        <ele>602.59997558594</ele>
        <time>2024-01-30T09:55:41.000Z</time>
      </trkpt>
      <trkpt lat="44.36056" lon="3.40451">
        <ele>603.59997558594</ele>
        <time>2024-01-30T09:55:42.000Z</time>
      </trkpt>
      <trkpt lat="44.36073" lon="3.40466">
        <ele>604.59997558594</ele>
        <time>2024-01-30T09:55:44.000Z</time>
      </trkpt>
      <trkpt lat="44.36082" lon="3.40473">
        <ele>605.40002441406</ele>
        <time>2024-01-30T09:55:45.000Z</time>
      </trkpt>
      <trkpt lat="44.36102" lon="3.40479">
        <ele>606.40002441406</ele>
        <time>2024-01-30T09:55:47.000Z</time>
      </trkpt>
      <trkpt lat="44.36124" lon="3.40483">
        <ele>607.79998779297</ele>
        <time>2024-01-30T09:55:49.000Z</time>
      </trkpt>
      <trkpt lat="44.36143" lon="3.40489">
        <ele>609</ele>
        <time>2024-01-30T09:55:51.000Z</time>
      </trkpt>
      <trkpt lat="44.36154" lon="3.40496">
        <ele>609.59997558594</ele>
        <time>2024-01-30T09:55:52.000Z</time>
      </trkpt>
      <trkpt lat="44.36162" lon="3.40504">
        <ele>610.20001220703</ele>
        <time>2024-01-30T09:55:53.000Z</time>
      </trkpt>
      <trkpt lat="44.36172" lon="3.40526">
        <ele>611.59997558594</ele>
        <time>2024-01-30T09:55:55.000Z</time>
      </trkpt>
      <trkpt lat="44.3618" lon="3.40555">
        <ele>613</ele>
        <time>2024-01-30T09:55:57.000Z</time>
      </trkpt>
      <trkpt lat="44.36184" lon="3.40569">
        <ele>614.20001220703</ele>
        <time>2024-01-30T09:55:58.000Z</time>
      </trkpt>
      <trkpt lat="44.36189" lon="3.40585">
        <ele>615.40002441406</ele>
        <time>2024-01-30T09:55:59.000Z</time>
      </trkpt>
      <trkpt lat="44.36199" lon="3.40615">
        <ele>616.59997558594</ele>
        <time>2024-01-30T09:56:01.000Z</time>
      </trkpt>
      <trkpt lat="44.36211" lon="3.40643">
        <ele>618.20001220703</ele>
        <time>2024-01-30T09:56:03.000Z</time>
      </trkpt>
      <trkpt lat="44.36224" lon="3.40671">
        <ele>619.79998779297</ele>
        <time>2024-01-30T09:56:05.000Z</time>
      </trkpt>
      <trkpt lat="44.36237" lon="3.40698">
        <ele>621.20001220703</ele>
        <time>2024-01-30T09:56:07.000Z</time>
      </trkpt>
      <trkpt lat="44.36249" lon="3.40722">
        <ele>623</ele>
        <time>2024-01-30T09:56:09.000Z</time>
      </trkpt>
      <trkpt lat="44.3626" lon="3.40742">
        <ele>623.79998779297</ele>
        <time>2024-01-30T09:56:11.000Z</time>
      </trkpt>
      <trkpt lat="44.36267" lon="3.4075">
        <ele>624.40002441406</ele>
        <time>2024-01-30T09:56:12.000Z</time>
      </trkpt>
      <trkpt lat="44.36273" lon="3.40754">
        <ele>625.20001220703</ele>
        <time>2024-01-30T09:56:13.000Z</time>
      </trkpt>
      <trkpt lat="44.36283" lon="3.40757">
        <ele>626</ele>
        <time>2024-01-30T09:56:14.000Z</time>
      </trkpt>
      <trkpt lat="44.3629" lon="3.40756">
        <ele>626.59997558594</ele>
        <time>2024-01-30T09:56:15.000Z</time>
      </trkpt>
      <trkpt lat="44.363" lon="3.40753">
        <ele>627.20001220703</ele>
        <time>2024-01-30T09:56:16.000Z</time>
      </trkpt>
      <trkpt lat="44.36311" lon="3.40748">
        <ele>627.79998779297</ele>
        <time>2024-01-30T09:56:17.000Z</time>
      </trkpt>
      <trkpt lat="44.36318" lon="3.40745">
        <ele>628.79998779297</ele>
        <time>2024-01-30T09:56:18.000Z</time>
      </trkpt>
      <trkpt lat="44.36328" lon="3.40742">
        <ele>629.20001220703</ele>
        <time>2024-01-30T09:56:19.000Z</time>
      </trkpt>
      <trkpt lat="44.36339" lon="3.40743">
        <ele>629.79998779297</ele>
        <time>2024-01-30T09:56:20.000Z</time>
      </trkpt>
      <trkpt lat="44.36349" lon="3.40746">
        <ele>630.40002441406</ele>
        <time>2024-01-30T09:56:21.000Z</time>
      </trkpt>
      <trkpt lat="44.36359" lon="3.40747">
        <ele>630.79998779297</ele>
        <time>2024-01-30T09:56:22.000Z</time>
      </trkpt>
      <trkpt lat="44.36377" lon="3.40747">
        <ele>631.59997558594</ele>
        <time>2024-01-30T09:56:24.000Z</time>
      </trkpt>
      <trkpt lat="44.36397" lon="3.4074">
        <ele>632.59997558594</ele>
        <time>2024-01-30T09:56:26.000Z</time>
      </trkpt>
      <trkpt lat="44.36405" lon="3.40735">
        <ele>633.20001220703</ele>
        <time>2024-01-30T09:56:27.000Z</time>
      </trkpt>
      <trkpt lat="44.36412" lon="3.40728">
        <ele>633.79998779297</ele>
        <time>2024-01-30T09:56:28.000Z</time>
      </trkpt>
      <trkpt lat="44.36425" lon="3.4071">
        <ele>635.40002441406</ele>
        <time>2024-01-30T09:56:30.000Z</time>
      </trkpt>
      <trkpt lat="44.36435" lon="3.40686">
        <ele>636.20001220703</ele>
        <time>2024-01-30T09:56:32.000Z</time>
      </trkpt>
      <trkpt lat="44.36438" lon="3.40673">
        <ele>637</ele>
        <time>2024-01-30T09:56:33.000Z</time>
      </trkpt>
      <trkpt lat="44.3644" lon="3.40659">
        <ele>637.40002441406</ele>
        <time>2024-01-30T09:56:34.000Z</time>
      </trkpt>
      <trkpt lat="44.36443" lon="3.40634">
        <ele>638.40002441406</ele>
        <time>2024-01-30T09:56:36.000Z</time>
      </trkpt>
      <trkpt lat="44.36447" lon="3.40619">
        <ele>639.40002441406</ele>
        <time>2024-01-30T09:56:37.000Z</time>
      </trkpt>
      <trkpt lat="44.36451" lon="3.40607">
        <ele>639.79998779297</ele>
        <time>2024-01-30T09:56:38.000Z</time>
      </trkpt>
      <trkpt lat="44.36457" lon="3.40597">
        <ele>640.59997558594</ele>
        <time>2024-01-30T09:56:39.000Z</time>
      </trkpt>
      <trkpt lat="44.36464" lon="3.4059">
        <ele>641.20001220703</ele>
        <time>2024-01-30T09:56:40.000Z</time>
      </trkpt>
      <trkpt lat="44.3647" lon="3.40586">
        <ele>641.59997558594</ele>
        <time>2024-01-30T09:56:41.000Z</time>
      </trkpt>
      <trkpt lat="44.36489" lon="3.40586">
        <ele>642.79998779297</ele>
        <time>2024-01-30T09:56:43.000Z</time>
      </trkpt>
      <trkpt lat="44.36498" lon="3.40591">
        <ele>643.40002441406</ele>
        <time>2024-01-30T09:56:44.000Z</time>
      </trkpt>
      <trkpt lat="44.36508" lon="3.40597">
        <ele>644.20001220703</ele>
        <time>2024-01-30T09:56:45.000Z</time>
      </trkpt>
      <trkpt lat="44.36526" lon="3.40609">
        <ele>645.59997558594</ele>
        <time>2024-01-30T09:56:47.000Z</time>
      </trkpt>
      <trkpt lat="44.36536" lon="3.40614">
        <ele>646.40002441406</ele>
        <time>2024-01-30T09:56:48.000Z</time>
      </trkpt>
      <trkpt lat="44.36548" lon="3.40621">
        <ele>647</ele>
        <time>2024-01-30T09:56:49.000Z</time>
      </trkpt>
      <trkpt lat="44.36567" lon="3.40631">
        <ele>648.20001220703</ele>
        <time>2024-01-30T09:56:51.000Z</time>
      </trkpt>
      <trkpt lat="44.36586" lon="3.4064">
        <ele>649.40002441406</ele>
        <time>2024-01-30T09:56:53.000Z</time>
      </trkpt>
      <trkpt lat="44.36596" lon="3.40643">
        <ele>650.40002441406</ele>
        <time>2024-01-30T09:56:54.000Z</time>
      </trkpt>
      <trkpt lat="44.36606" lon="3.40644">
        <ele>650.79998779297</ele>
        <time>2024-01-30T09:56:55.000Z</time>
      </trkpt>
      <trkpt lat="44.36616" lon="3.40644">
        <ele>652</ele>
        <time>2024-01-30T09:56:56.000Z</time>
      </trkpt>
      <trkpt lat="44.36637" lon="3.40639">
        <ele>653.40002441406</ele>
        <time>2024-01-30T09:56:58.000Z</time>
      </trkpt>
      <trkpt lat="44.36656" lon="3.40629">
        <ele>654.59997558594</ele>
        <time>2024-01-30T09:57:00.000Z</time>
      </trkpt>
      <trkpt lat="44.36665" lon="3.40622">
        <ele>655.20001220703</ele>
        <time>2024-01-30T09:57:01.000Z</time>
      </trkpt>
      <trkpt lat="44.36673" lon="3.40614">
        <ele>655.79998779297</ele>
        <time>2024-01-30T09:57:02.000Z</time>
      </trkpt>
      <trkpt lat="44.36688" lon="3.40596">
        <ele>657.20001220703</ele>
        <time>2024-01-30T09:57:04.000Z</time>
      </trkpt>
      <trkpt lat="44.36697" lon="3.40589">
        <ele>657.79998779297</ele>
        <time>2024-01-30T09:57:05.000Z</time>
      </trkpt>
      <trkpt lat="44.36703" lon="3.40587">
        <ele>658</ele>
        <time>2024-01-30T09:57:06.000Z</time>
      </trkpt>
      <trkpt lat="44.36711" lon="3.40589">
        <ele>658.40002441406</ele>
        <time>2024-01-30T09:57:07.000Z</time>
      </trkpt>
      <trkpt lat="44.36719" lon="3.40595">
        <ele>659.40002441406</ele>
        <time>2024-01-30T09:57:08.000Z</time>
      </trkpt>
      <trkpt lat="44.36736" lon="3.4061">
        <ele>661</ele>
        <time>2024-01-30T09:57:10.000Z</time>
      </trkpt>
      <trkpt lat="44.36757" lon="3.40625">
        <ele>662.59997558594</ele>
        <time>2024-01-30T09:57:12.000Z</time>
      </trkpt>
      <trkpt lat="44.36768" lon="3.40631">
        <ele>663.79998779297</ele>
        <time>2024-01-30T09:57:13.000Z</time>
      </trkpt>
      <trkpt lat="44.3678" lon="3.40635">
        <ele>664.59997558594</ele>
        <time>2024-01-30T09:57:14.000Z</time>
      </trkpt>
      <trkpt lat="44.36794" lon="3.40639">
        <ele>665.59997558594</ele>
        <time>2024-01-30T09:57:15.000Z</time>
      </trkpt>
      <trkpt lat="44.36818" lon="3.40641">
        <ele>666.79998779297</ele>
        <time>2024-01-30T09:57:17.000Z</time>
      </trkpt>
      <trkpt lat="44.3683" lon="3.4064">
        <ele>667.59997558594</ele>
        <time>2024-01-30T09:57:18.000Z</time>
      </trkpt>
      <trkpt lat="44.36842" lon="3.40637">
        <ele>667.79998779297</ele>
        <time>2024-01-30T09:57:19.000Z</time>
      </trkpt>
      <trkpt lat="44.36864" lon="3.40628">
        <ele>669.20001220703</ele>
        <time>2024-01-30T09:57:21.000Z</time>
      </trkpt>
      <trkpt lat="44.36875" lon="3.40626">
        <ele>670</ele>
        <time>2024-01-30T09:57:22.000Z</time>
      </trkpt>
      <trkpt lat="44.36886" lon="3.40626">
        <ele>670.79998779297</ele>
        <time>2024-01-30T09:57:23.000Z</time>
      </trkpt>
      <trkpt lat="44.36896" lon="3.4063">
        <ele>671.79998779297</ele>
        <time>2024-01-30T09:57:24.000Z</time>
      </trkpt>
      <trkpt lat="44.36905" lon="3.40637">
        <ele>672.59997558594</ele>
        <time>2024-01-30T09:57:25.000Z</time>
      </trkpt>
      <trkpt lat="44.36913" lon="3.40649">
        <ele>673.79998779297</ele>
        <time>2024-01-30T09:57:26.000Z</time>
      </trkpt>
      <trkpt lat="44.3692" lon="3.40662">
        <ele>675</ele>
        <time>2024-01-30T09:57:27.000Z</time>
      </trkpt>
      <trkpt lat="44.36929" lon="3.40674">
        <ele>675.59997558594</ele>
        <time>2024-01-30T09:57:28.000Z</time>
      </trkpt>
      <trkpt lat="44.36938" lon="3.40687">
        <ele>676.20001220703</ele>
        <time>2024-01-30T09:57:29.000Z</time>
      </trkpt>
      <trkpt lat="44.36956" lon="3.40712">
        <ele>677.79998779297</ele>
        <time>2024-01-30T09:57:31.000Z</time>
      </trkpt>
      <trkpt lat="44.36963" lon="3.40723">
        <ele>678.79998779297</ele>
        <time>2024-01-30T09:57:32.000Z</time>
      </trkpt>
      <trkpt lat="44.36969" lon="3.40738">
        <ele>679.40002441406</ele>
        <time>2024-01-30T09:57:33.000Z</time>
      </trkpt>
      <trkpt lat="44.36975" lon="3.40755">
        <ele>680.20001220703</ele>
        <time>2024-01-30T09:57:34.000Z</time>
      </trkpt>
      <trkpt lat="44.36979" lon="3.40773">
        <ele>681.59997558594</ele>
        <time>2024-01-30T09:57:35.000Z</time>
      </trkpt>
      <trkpt lat="44.36988" lon="3.40809">
        <ele>683.20001220703</ele>
        <time>2024-01-30T09:57:37.000Z</time>
      </trkpt>
      <trkpt lat="44.36996" lon="3.40844">
        <ele>685</ele>
        <time>2024-01-30T09:57:39.000Z</time>
      </trkpt>
      <trkpt lat="44.36999" lon="3.40862">
        <ele>686</ele>
        <time>2024-01-30T09:57:40.000Z</time>
      </trkpt>
      <trkpt lat="44.37002" lon="3.4088">
        <ele>686.79998779297</ele>
        <time>2024-01-30T09:57:41.000Z</time>
      </trkpt>
      <trkpt lat="44.37005" lon="3.40897">
        <ele>687.59997558594</ele>
        <time>2024-01-30T09:57:42.000Z</time>
      </trkpt>
      <trkpt lat="44.37016" lon="3.4093">
        <ele>689</ele>
        <time>2024-01-30T09:57:44.000Z</time>
      </trkpt>
      <trkpt lat="44.37027" lon="3.40961">
        <ele>690.59997558594</ele>
        <time>2024-01-30T09:57:46.000Z</time>
      </trkpt>
      <trkpt lat="44.37035" lon="3.40979">
        <ele>691</ele>
        <time>2024-01-30T09:57:47.000Z</time>
      </trkpt>
      <trkpt lat="44.37043" lon="3.40991">
        <ele>691.20001220703</ele>
        <time>2024-01-30T09:57:48.000Z</time>
      </trkpt>
      <trkpt lat="44.37052" lon="3.41002">
        <ele>692.20001220703</ele>
        <time>2024-01-30T09:57:49.000Z</time>
      </trkpt>
      <trkpt lat="44.37073" lon="3.41018">
        <ele>693.79998779297</ele>
        <time>2024-01-30T09:57:51.000Z</time>
      </trkpt>
      <trkpt lat="44.37097" lon="3.41029">
        <ele>695.59997558594</ele>
        <time>2024-01-30T09:57:53.000Z</time>
      </trkpt>
      <trkpt lat="44.37122" lon="3.41036">
        <ele>697</ele>
        <time>2024-01-30T09:57:55.000Z</time>
      </trkpt>
      <trkpt lat="44.37147" lon="3.4104">
        <ele>698.59997558594</ele>
        <time>2024-01-30T09:57:57.000Z</time>
      </trkpt>
      <trkpt lat="44.37157" lon="3.41044">
        <ele>699.20001220703</ele>
        <time>2024-01-30T09:57:58.000Z</time>
      </trkpt>
      <trkpt lat="44.37167" lon="3.41051">
        <ele>700.20001220703</ele>
        <time>2024-01-30T09:57:59.000Z</time>
      </trkpt>
      <trkpt lat="44.37186" lon="3.41067">
        <ele>701.79998779297</ele>
        <time>2024-01-30T09:58:01.000Z</time>
      </trkpt>
      <trkpt lat="44.37196" lon="3.41074">
        <ele>702.59997558594</ele>
        <time>2024-01-30T09:58:02.000Z</time>
      </trkpt>
      <trkpt lat="44.37203" lon="3.41078">
        <ele>703.40002441406</ele>
        <time>2024-01-30T09:58:03.000Z</time>
      </trkpt>
      <trkpt lat="44.37221" lon="3.41093">
        <ele>704.40002441406</ele>
        <time>2024-01-30T09:58:05.000Z</time>
      </trkpt>
      <trkpt lat="44.37226" lon="3.41101">
        <ele>705</ele>
        <time>2024-01-30T09:58:06.000Z</time>
      </trkpt>
      <trkpt lat="44.37228" lon="3.41108">
        <ele>705.79998779297</ele>
        <time>2024-01-30T09:58:07.000Z</time>
      </trkpt>
      <trkpt lat="44.37229" lon="3.41121">
        <ele>706.59997558594</ele>
        <time>2024-01-30T09:58:08.000Z</time>
      </trkpt>
      <trkpt lat="44.37228" lon="3.41132">
        <ele>707</ele>
        <time>2024-01-30T09:58:09.000Z</time>
      </trkpt>
      <trkpt lat="44.37227" lon="3.41157">
        <ele>708.40002441406</ele>
        <time>2024-01-30T09:58:11.000Z</time>
      </trkpt>
      <trkpt lat="44.3723" lon="3.4117">
        <ele>708.79998779297</ele>
        <time>2024-01-30T09:58:12.000Z</time>
      </trkpt>
      <trkpt lat="44.37234" lon="3.41179">
        <ele>709.40002441406</ele>
        <time>2024-01-30T09:58:13.000Z</time>
      </trkpt>
      <trkpt lat="44.37247" lon="3.41201">
        <ele>711.20001220703</ele>
        <time>2024-01-30T09:58:15.000Z</time>
      </trkpt>
      <trkpt lat="44.37264" lon="3.41227">
        <ele>712.79998779297</ele>
        <time>2024-01-30T09:58:17.000Z</time>
      </trkpt>
      <trkpt lat="44.37281" lon="3.41248">
        <ele>714.79998779297</ele>
        <time>2024-01-30T09:58:19.000Z</time>
      </trkpt>
      <trkpt lat="44.37299" lon="3.41272">
        <ele>716.20001220703</ele>
        <time>2024-01-30T09:58:21.000Z</time>
      </trkpt>
      <trkpt lat="44.37317" lon="3.41296">
        <ele>717.40002441406</ele>
        <time>2024-01-30T09:58:23.000Z</time>
      </trkpt>
      <trkpt lat="44.37324" lon="3.4131">
        <ele>718.20001220703</ele>
        <time>2024-01-30T09:58:24.000Z</time>
      </trkpt>
      <trkpt lat="44.37327" lon="3.41325">
        <ele>719.20001220703</ele>
        <time>2024-01-30T09:58:25.000Z</time>
      </trkpt>
      <trkpt lat="44.3733" lon="3.41346">
        <ele>720.20001220703</ele>
        <time>2024-01-30T09:58:26.000Z</time>
      </trkpt>
      <trkpt lat="44.37331" lon="3.41361">
        <ele>720.59997558594</ele>
        <time>2024-01-30T09:58:27.000Z</time>
      </trkpt>
      <trkpt lat="44.37332" lon="3.4138">
        <ele>721.79998779297</ele>
        <time>2024-01-30T09:58:28.000Z</time>
      </trkpt>
      <trkpt lat="44.37335" lon="3.41417">
        <ele>723</ele>
        <time>2024-01-30T09:58:30.000Z</time>
      </trkpt>
      <trkpt lat="44.37346" lon="3.4145">
        <ele>724.59997558594</ele>
        <time>2024-01-30T09:58:32.000Z</time>
      </trkpt>
      <trkpt lat="44.37354" lon="3.41464">
        <ele>725.59997558594</ele>
        <time>2024-01-30T09:58:33.000Z</time>
      </trkpt>
      <trkpt lat="44.37374" lon="3.41489">
        <ele>727.59997558594</ele>
        <time>2024-01-30T09:58:35.000Z</time>
      </trkpt>
      <trkpt lat="44.37385" lon="3.41501">
        <ele>728.59997558594</ele>
        <time>2024-01-30T09:58:36.000Z</time>
      </trkpt>
      <trkpt lat="44.37406" lon="3.41529">
        <ele>730.40002441406</ele>
        <time>2024-01-30T09:58:38.000Z</time>
      </trkpt>
      <trkpt lat="44.37412" lon="3.4154">
        <ele>731.40002441406</ele>
        <time>2024-01-30T09:58:39.000Z</time>
      </trkpt>
      <trkpt lat="44.37421" lon="3.41557">
        <ele>732.20001220703</ele>
        <time>2024-01-30T09:58:40.000Z</time>
      </trkpt>
      <trkpt lat="44.37427" lon="3.41572">
        <ele>733</ele>
        <time>2024-01-30T09:58:41.000Z</time>
      </trkpt>
      <trkpt lat="44.37439" lon="3.416">
        <ele>734.20001220703</ele>
        <time>2024-01-30T09:58:43.000Z</time>
      </trkpt>
      <trkpt lat="44.37446" lon="3.41613">
        <ele>734.79998779297</ele>
        <time>2024-01-30T09:58:44.000Z</time>
      </trkpt>
      <trkpt lat="44.37454" lon="3.41625">
        <ele>735.59997558594</ele>
        <time>2024-01-30T09:58:45.000Z</time>
      </trkpt>
      <trkpt lat="44.37464" lon="3.41634">
        <ele>736</ele>
        <time>2024-01-30T09:58:46.000Z</time>
      </trkpt>
      <trkpt lat="44.37475" lon="3.41643">
        <ele>737</ele>
        <time>2024-01-30T09:58:47.000Z</time>
      </trkpt>
      <trkpt lat="44.37496" lon="3.4166">
        <ele>738.79998779297</ele>
        <time>2024-01-30T09:58:49.000Z</time>
      </trkpt>
      <trkpt lat="44.37507" lon="3.41668">
        <ele>739.79998779297</ele>
        <time>2024-01-30T09:58:50.000Z</time>
      </trkpt>
      <trkpt lat="44.37519" lon="3.41673">
        <ele>740.59997558594</ele>
        <time>2024-01-30T09:58:51.000Z</time>
      </trkpt>
      <trkpt lat="44.37532" lon="3.41676">
        <ele>741.59997558594</ele>
        <time>2024-01-30T09:58:52.000Z</time>
      </trkpt>
      <trkpt lat="44.37559" lon="3.41678">
        <ele>743.20001220703</ele>
        <time>2024-01-30T09:58:54.000Z</time>
      </trkpt>
      <trkpt lat="44.37585" lon="3.4168">
        <ele>744.79998779297</ele>
        <time>2024-01-30T09:58:56.000Z</time>
      </trkpt>
      <trkpt lat="44.37597" lon="3.41684">
        <ele>745.79998779297</ele>
        <time>2024-01-30T09:58:57.000Z</time>
      </trkpt>
      <trkpt lat="44.3761" lon="3.41689">
        <ele>746.79998779297</ele>
        <time>2024-01-30T09:58:58.000Z</time>
      </trkpt>
      <trkpt lat="44.37622" lon="3.41697">
        <ele>747.59997558594</ele>
        <time>2024-01-30T09:58:59.000Z</time>
      </trkpt>
      <trkpt lat="44.37634" lon="3.41707">
        <ele>748.59997558594</ele>
        <time>2024-01-30T09:59:00.000Z</time>
      </trkpt>
      <trkpt lat="44.37646" lon="3.41717">
        <ele>749.79998779297</ele>
        <time>2024-01-30T09:59:01.000Z</time>
      </trkpt>
      <trkpt lat="44.3767" lon="3.4174">
        <ele>751.59997558594</ele>
        <time>2024-01-30T09:59:03.000Z</time>
      </trkpt>
      <trkpt lat="44.37685" lon="3.41753">
        <ele>752.59997558594</ele>
        <time>2024-01-30T09:59:04.000Z</time>
      </trkpt>
      <trkpt lat="44.37696" lon="3.41764">
        <ele>753.59997558594</ele>
        <time>2024-01-30T09:59:05.000Z</time>
      </trkpt>
      <trkpt lat="44.37718" lon="3.41789">
        <ele>755.59997558594</ele>
        <time>2024-01-30T09:59:07.000Z</time>
      </trkpt>
      <trkpt lat="44.37736" lon="3.41819">
        <ele>757.40002441406</ele>
        <time>2024-01-30T09:59:09.000Z</time>
      </trkpt>
      <trkpt lat="44.37746" lon="3.41831">
        <ele>758.20001220703</ele>
        <time>2024-01-30T09:59:10.000Z</time>
      </trkpt>
      <trkpt lat="44.37757" lon="3.41841">
        <ele>759.20001220703</ele>
        <time>2024-01-30T09:59:11.000Z</time>
      </trkpt>
      <trkpt lat="44.37779" lon="3.41859">
        <ele>761</ele>
        <time>2024-01-30T09:59:13.000Z</time>
      </trkpt>
      <trkpt lat="44.37789" lon="3.41868">
        <ele>762</ele>
        <time>2024-01-30T09:59:14.000Z</time>
      </trkpt>
      <trkpt lat="44.3781" lon="3.41886">
        <ele>763.40002441406</ele>
        <time>2024-01-30T09:59:16.000Z</time>
      </trkpt>
      <trkpt lat="44.37829" lon="3.4191">
        <ele>765</ele>
        <time>2024-01-30T09:59:18.000Z</time>
      </trkpt>
      <trkpt lat="44.37836" lon="3.41921">
        <ele>766.20001220703</ele>
        <time>2024-01-30T09:59:19.000Z</time>
      </trkpt>
      <trkpt lat="44.37854" lon="3.41953">
        <ele>768</ele>
        <time>2024-01-30T09:59:21.000Z</time>
      </trkpt>
      <trkpt lat="44.37861" lon="3.41965">
        <ele>769</ele>
        <time>2024-01-30T09:59:22.000Z</time>
      </trkpt>
      <trkpt lat="44.3788" lon="3.41998">
        <ele>771</ele>
        <time>2024-01-30T09:59:24.000Z</time>
      </trkpt>
      <trkpt lat="44.37894" lon="3.4203">
        <ele>772.40002441406</ele>
        <time>2024-01-30T09:59:26.000Z</time>
      </trkpt>
      <trkpt lat="44.379" lon="3.42047">
        <ele>773.40002441406</ele>
        <time>2024-01-30T09:59:27.000Z</time>
      </trkpt>
      <trkpt lat="44.37913" lon="3.4208">
        <ele>775.40002441406</ele>
        <time>2024-01-30T09:59:29.000Z</time>
      </trkpt>
      <trkpt lat="44.37921" lon="3.42094">
        <ele>776</ele>
        <time>2024-01-30T09:59:30.000Z</time>
      </trkpt>
      <trkpt lat="44.37932" lon="3.42106">
        <ele>776.79998779297</ele>
        <time>2024-01-30T09:59:31.000Z</time>
      </trkpt>
      <trkpt lat="44.37951" lon="3.42127">
        <ele>778.59997558594</ele>
        <time>2024-01-30T09:59:33.000Z</time>
      </trkpt>
      <trkpt lat="44.37962" lon="3.42138">
        <ele>779.59997558594</ele>
        <time>2024-01-30T09:59:34.000Z</time>
      </trkpt>
      <trkpt lat="44.37973" lon="3.42149">
        <ele>780.40002441406</ele>
        <time>2024-01-30T09:59:35.000Z</time>
      </trkpt>
      <trkpt lat="44.37994" lon="3.42171">
        <ele>782</ele>
        <time>2024-01-30T09:59:37.000Z</time>
      </trkpt>
      <trkpt lat="44.38016" lon="3.42191">
        <ele>784</ele>
        <time>2024-01-30T09:59:39.000Z</time>
      </trkpt>
      <trkpt lat="44.38044" lon="3.42203">
        <ele>786</ele>
        <time>2024-01-30T09:59:41.000Z</time>
      </trkpt>
      <trkpt lat="44.38058" lon="3.42203">
        <ele>786.79998779297</ele>
        <time>2024-01-30T09:59:42.000Z</time>
      </trkpt>
      <trkpt lat="44.38071" lon="3.42201">
        <ele>787.79998779297</ele>
        <time>2024-01-30T09:59:43.000Z</time>
      </trkpt>
      <trkpt lat="44.38084" lon="3.42197">
        <ele>788.79998779297</ele>
        <time>2024-01-30T09:59:44.000Z</time>
      </trkpt>
      <trkpt lat="44.38098" lon="3.42193">
        <ele>790.20001220703</ele>
        <time>2024-01-30T09:59:45.000Z</time>
      </trkpt>
      <trkpt lat="44.38111" lon="3.42189">
        <ele>791.40002441406</ele>
        <time>2024-01-30T09:59:46.000Z</time>
      </trkpt>
      <trkpt lat="44.38124" lon="3.42186">
        <ele>792.59997558594</ele>
        <time>2024-01-30T09:59:47.000Z</time>
      </trkpt>
      <trkpt lat="44.38138" lon="3.42183">
        <ele>794.20001220703</ele>
        <time>2024-01-30T09:59:48.000Z</time>
      </trkpt>
      <trkpt lat="44.38152" lon="3.42182">
        <ele>795.59997558594</ele>
        <time>2024-01-30T09:59:49.000Z</time>
      </trkpt>
      <trkpt lat="44.38165" lon="3.42181">
        <ele>796.59997558594</ele>
        <time>2024-01-30T09:59:50.000Z</time>
      </trkpt>
      <trkpt lat="44.38179" lon="3.42184">
        <ele>798</ele>
        <time>2024-01-30T09:59:51.000Z</time>
      </trkpt>
      <trkpt lat="44.38194" lon="3.42186">
        <ele>799.59997558594</ele>
        <time>2024-01-30T09:59:52.000Z</time>
      </trkpt>
      <trkpt lat="44.38209" lon="3.4219">
        <ele>801.59997558594</ele>
        <time>2024-01-30T09:59:53.000Z</time>
      </trkpt>
      <trkpt lat="44.38224" lon="3.42193">
        <ele>803.20001220703</ele>
        <time>2024-01-30T09:59:54.000Z</time>
      </trkpt>
      <trkpt lat="44.3824" lon="3.42196">
        <ele>805</ele>
        <time>2024-01-30T09:59:55.000Z</time>
      </trkpt>
      <trkpt lat="44.38253" lon="3.42198">
        <ele>806.40002441406</ele>
        <time>2024-01-30T09:59:56.000Z</time>
      </trkpt>
      <trkpt lat="44.38272" lon="3.422">
        <ele>807.79998779297</ele>
        <time>2024-01-30T09:59:57.000Z</time>
      </trkpt>
      <trkpt lat="44.38286" lon="3.42199">
        <ele>809.59997558594</ele>
        <time>2024-01-30T09:59:58.000Z</time>
      </trkpt>
      <trkpt lat="44.38303" lon="3.42197">
        <ele>811.40002441406</ele>
        <time>2024-01-30T09:59:59.000Z</time>
      </trkpt>
      <trkpt lat="44.3832" lon="3.42193">
        <ele>813</ele>
        <time>2024-01-30T10:00:00.000Z</time>
      </trkpt>
      <trkpt lat="44.38338" lon="3.42189">
        <ele>814.59997558594</ele>
        <time>2024-01-30T10:00:01.000Z</time>
      </trkpt>
      <trkpt lat="44.38355" lon="3.42187">
        <ele>816.59997558594</ele>
        <time>2024-01-30T10:00:02.000Z</time>
      </trkpt>
      <trkpt lat="44.38373" lon="3.42186">
        <ele>818.40002441406</ele>
        <time>2024-01-30T10:00:03.000Z</time>
      </trkpt>
      <trkpt lat="44.38391" lon="3.42186">
        <ele>820.40002441406</ele>
        <time>2024-01-30T10:00:04.000Z</time>
      </trkpt>
      <trkpt lat="44.38409" lon="3.42188">
        <ele>822.20001220703</ele>
        <time>2024-01-30T10:00:05.000Z</time>
      </trkpt>
      <trkpt lat="44.38428" lon="3.42191">
        <ele>824</ele>
        <time>2024-01-30T10:00:06.000Z</time>
      </trkpt>
      <trkpt lat="44.38451" lon="3.42197">
        <ele>826.20001220703</ele>
        <time>2024-01-30T10:00:07.000Z</time>
      </trkpt>
      <trkpt lat="44.38469" lon="3.42203">
        <ele>827.79998779297</ele>
        <time>2024-01-30T10:00:08.000Z</time>
      </trkpt>
      <trkpt lat="44.38484" lon="3.42208">
        <ele>829.20001220703</ele>
        <time>2024-01-30T10:00:09.000Z</time>
      </trkpt>
      <trkpt lat="44.38501" lon="3.42216">
        <ele>831</ele>
        <time>2024-01-30T10:00:10.000Z</time>
      </trkpt>
      <trkpt lat="44.38518" lon="3.42229">
        <ele>832.59997558594</ele>
        <time>2024-01-30T10:00:11.000Z</time>
      </trkpt>
      <trkpt lat="44.38533" lon="3.42242">
        <ele>834</ele>
        <time>2024-01-30T10:00:12.000Z</time>
      </trkpt>
      <trkpt lat="44.38551" lon="3.42257">
        <ele>836</ele>
        <time>2024-01-30T10:00:13.000Z</time>
      </trkpt>
      <trkpt lat="44.38564" lon="3.42264">
        <ele>837.40002441406</ele>
        <time>2024-01-30T10:00:14.000Z</time>
      </trkpt>
      <trkpt lat="44.38582" lon="3.42271">
        <ele>839</ele>
        <time>2024-01-30T10:00:15.000Z</time>
      </trkpt>
      <trkpt lat="44.38594" lon="3.42273">
        <ele>840.59997558594</ele>
        <time>2024-01-30T10:00:16.000Z</time>
      </trkpt>
      <trkpt lat="44.38609" lon="3.42271">
        <ele>842.59997558594</ele>
        <time>2024-01-30T10:00:17.000Z</time>
      </trkpt>
      <trkpt lat="44.38625" lon="3.42264">
        <ele>844</ele>
        <time>2024-01-30T10:00:18.000Z</time>
      </trkpt>
      <trkpt lat="44.3864" lon="3.42257">
        <ele>845.79998779297</ele>
        <time>2024-01-30T10:00:19.000Z</time>
      </trkpt>
      <trkpt lat="44.38657" lon="3.42249">
        <ele>847.59997558594</ele>
        <time>2024-01-30T10:00:20.000Z</time>
      </trkpt>
      <trkpt lat="44.38675" lon="3.42241">
        <ele>849</ele>
        <time>2024-01-30T10:00:21.000Z</time>
      </trkpt>
      <trkpt lat="44.38693" lon="3.42235">
        <ele>850.20001220703</ele>
        <time>2024-01-30T10:00:22.000Z</time>
      </trkpt>
      <trkpt lat="44.38711" lon="3.4223">
        <ele>851.79998779297</ele>
        <time>2024-01-30T10:00:23.000Z</time>
      </trkpt>
      <trkpt lat="44.38729" lon="3.42225">
        <ele>853.20001220703</ele>
        <time>2024-01-30T10:00:24.000Z</time>
      </trkpt>
      <trkpt lat="44.38748" lon="3.4222">
        <ele>854.79998779297</ele>
        <time>2024-01-30T10:00:25.000Z</time>
      </trkpt>
      <trkpt lat="44.38767" lon="3.42216">
        <ele>856.20001220703</ele>
        <time>2024-01-30T10:00:26.000Z</time>
      </trkpt>
      <trkpt lat="44.38786" lon="3.42212">
        <ele>857.20001220703</ele>
        <time>2024-01-30T10:00:27.000Z</time>
      </trkpt>
      <trkpt lat="44.38805" lon="3.4221">
        <ele>858.59997558594</ele>
        <time>2024-01-30T10:00:28.000Z</time>
      </trkpt>
      <trkpt lat="44.38828" lon="3.42209">
        <ele>859.79998779297</ele>
        <time>2024-01-30T10:00:29.000Z</time>
      </trkpt>
      <trkpt lat="44.38848" lon="3.42209">
        <ele>861.20001220703</ele>
        <time>2024-01-30T10:00:30.000Z</time>
      </trkpt>
      <trkpt lat="44.38867" lon="3.42208">
        <ele>861.79998779297</ele>
        <time>2024-01-30T10:00:31.000Z</time>
      </trkpt>
      <trkpt lat="44.38885" lon="3.42209">
        <ele>863.40002441406</ele>
        <time>2024-01-30T10:00:32.000Z</time>
      </trkpt>
      <trkpt lat="44.38921" lon="3.42211">
        <ele>864.59997558594</ele>
        <time>2024-01-30T10:00:34.000Z</time>
      </trkpt>
      <trkpt lat="44.38948" lon="3.42215">
        <ele>865.20001220703</ele>
        <time>2024-01-30T10:00:36.000Z</time>
      </trkpt>
      <trkpt lat="44.38975" lon="3.42229">
        <ele>866</ele>
        <time>2024-01-30T10:00:38.000Z</time>
      </trkpt>
      <trkpt lat="44.38982" lon="3.42239">
        <ele>866.79998779297</ele>
        <time>2024-01-30T10:00:39.000Z</time>
      </trkpt>
      <trkpt lat="44.38991" lon="3.42254">
        <ele>867.59997558594</ele>
        <time>2024-01-30T10:00:40.000Z</time>
      </trkpt>
      <trkpt lat="44.38996" lon="3.42266">
        <ele>868.59997558594</ele>
        <time>2024-01-30T10:00:41.000Z</time>
      </trkpt>
      <trkpt lat="44.39002" lon="3.42282">
        <ele>869.59997558594</ele>
        <time>2024-01-30T10:00:42.000Z</time>
      </trkpt>
      <trkpt lat="44.39016" lon="3.42314">
        <ele>871.59997558594</ele>
        <time>2024-01-30T10:00:44.000Z</time>
      </trkpt>
      <trkpt lat="44.3903" lon="3.42346">
        <ele>873.40002441406</ele>
        <time>2024-01-30T10:00:46.000Z</time>
      </trkpt>
      <trkpt lat="44.39038" lon="3.42363">
        <ele>874.59997558594</ele>
        <time>2024-01-30T10:00:47.000Z</time>
      </trkpt>
      <trkpt lat="44.39046" lon="3.42377">
        <ele>875.20001220703</ele>
        <time>2024-01-30T10:00:48.000Z</time>
      </trkpt>
      <trkpt lat="44.39056" lon="3.42391">
        <ele>875.59997558594</ele>
        <time>2024-01-30T10:00:49.000Z</time>
      </trkpt>
      <trkpt lat="44.39067" lon="3.42401">
        <ele>876.40002441406</ele>
        <time>2024-01-30T10:00:50.000Z</time>
      </trkpt>
      <trkpt lat="44.39079" lon="3.42409">
        <ele>877.40002441406</ele>
        <time>2024-01-30T10:00:51.000Z</time>
      </trkpt>
      <trkpt lat="44.39108" lon="3.42422">
        <ele>879.40002441406</ele>
        <time>2024-01-30T10:00:53.000Z</time>
      </trkpt>
      <trkpt lat="44.39123" lon="3.42429">
        <ele>880.59997558594</ele>
        <time>2024-01-30T10:00:54.000Z</time>
      </trkpt>
      <trkpt lat="44.39138" lon="3.42437">
        <ele>881.79998779297</ele>
        <time>2024-01-30T10:00:55.000Z</time>
      </trkpt>
      <trkpt lat="44.39166" lon="3.42455">
        <ele>884</ele>
        <time>2024-01-30T10:00:57.000Z</time>
      </trkpt>
      <trkpt lat="44.39181" lon="3.42465">
        <ele>885.20001220703</ele>
        <time>2024-01-30T10:00:58.000Z</time>
      </trkpt>
      <trkpt lat="44.39215" lon="3.4248">
        <ele>886.79998779297</ele>
        <time>2024-01-30T10:01:00.000Z</time>
      </trkpt>
      <trkpt lat="44.39229" lon="3.42484">
        <ele>888.20001220703</ele>
        <time>2024-01-30T10:01:01.000Z</time>
      </trkpt>
      <trkpt lat="44.39269" lon="3.42489">
        <ele>890.40002441406</ele>
        <time>2024-01-30T10:01:03.000Z</time>
      </trkpt>
      <trkpt lat="44.39287" lon="3.42491">
        <ele>892</ele>
        <time>2024-01-30T10:01:04.000Z</time>
      </trkpt>
      <trkpt lat="44.39304" lon="3.42496">
        <ele>893.20001220703</ele>
        <time>2024-01-30T10:01:05.000Z</time>
      </trkpt>
      <trkpt lat="44.39322" lon="3.42503">
        <ele>894.20001220703</ele>
        <time>2024-01-30T10:01:06.000Z</time>
      </trkpt>
      <trkpt lat="44.39339" lon="3.42512">
        <ele>895.59997558594</ele>
        <time>2024-01-30T10:01:07.000Z</time>
      </trkpt>
      <trkpt lat="44.39356" lon="3.42522">
        <ele>897</ele>
        <time>2024-01-30T10:01:08.000Z</time>
      </trkpt>
      <trkpt lat="44.39373" lon="3.42533">
        <ele>898.59997558594</ele>
        <time>2024-01-30T10:01:09.000Z</time>
      </trkpt>
      <trkpt lat="44.3939" lon="3.42545">
        <ele>900</ele>
        <time>2024-01-30T10:01:10.000Z</time>
      </trkpt>
      <trkpt lat="44.39425" lon="3.42568">
        <ele>902.79998779297</ele>
        <time>2024-01-30T10:01:12.000Z</time>
      </trkpt>
      <trkpt lat="44.39444" lon="3.42577">
        <ele>903.79998779297</ele>
        <time>2024-01-30T10:01:13.000Z</time>
      </trkpt>
      <trkpt lat="44.39462" lon="3.42585">
        <ele>905</ele>
        <time>2024-01-30T10:01:14.000Z</time>
      </trkpt>
      <trkpt lat="44.3948" lon="3.42593">
        <ele>906.20001220703</ele>
        <time>2024-01-30T10:01:15.000Z</time>
      </trkpt>
      <trkpt lat="44.39496" lon="3.42604">
        <ele>907</ele>
        <time>2024-01-30T10:01:16.000Z</time>
      </trkpt>
      <trkpt lat="44.39512" lon="3.42617">
        <ele>907.40002441406</ele>
        <time>2024-01-30T10:01:17.000Z</time>
      </trkpt>
      <trkpt lat="44.39542" lon="3.42647">
        <ele>909</ele>
        <time>2024-01-30T10:01:19.000Z</time>
      </trkpt>
      <trkpt lat="44.39557" lon="3.42662">
        <ele>910.40002441406</ele>
        <time>2024-01-30T10:01:20.000Z</time>
      </trkpt>
      <trkpt lat="44.39574" lon="3.42677">
        <ele>911.59997558594</ele>
        <time>2024-01-30T10:01:21.000Z</time>
      </trkpt>
      <trkpt lat="44.3959" lon="3.42693">
        <ele>912.59997558594</ele>
        <time>2024-01-30T10:01:22.000Z</time>
      </trkpt>
      <trkpt lat="44.39606" lon="3.42708">
        <ele>913.79998779297</ele>
        <time>2024-01-30T10:01:23.000Z</time>
      </trkpt>
      <trkpt lat="44.39622" lon="3.42722">
        <ele>915</ele>
        <time>2024-01-30T10:01:24.000Z</time>
      </trkpt>
      <trkpt lat="44.39655" lon="3.42749">
        <ele>915.59997558594</ele>
        <time>2024-01-30T10:01:26.000Z</time>
      </trkpt>
      <trkpt lat="44.39672" lon="3.42761">
        <ele>916.40002441406</ele>
        <time>2024-01-30T10:01:27.000Z</time>
      </trkpt>
      <trkpt lat="44.39721" lon="3.42799">
        <ele>917.79998779297</ele>
        <time>2024-01-30T10:01:30.000Z</time>
      </trkpt>
      <trkpt lat="44.39752" lon="3.42825">
        <ele>917.79998779297</ele>
        <time>2024-01-30T10:01:32.000Z</time>
      </trkpt>
      <trkpt lat="44.39808" lon="3.42871">
        <ele>918.79998779297</ele>
        <time>2024-01-30T10:01:35.000Z</time>
      </trkpt>
      <trkpt lat="44.39825" lon="3.42886">
        <ele>920.40002441406</ele>
        <time>2024-01-30T10:01:36.000Z</time>
      </trkpt>
      <trkpt lat="44.39842" lon="3.42901">
        <ele>922</ele>
        <time>2024-01-30T10:01:37.000Z</time>
      </trkpt>
      <trkpt lat="44.3986" lon="3.42915">
        <ele>923.79998779297</ele>
        <time>2024-01-30T10:01:38.000Z</time>
      </trkpt>
      <trkpt lat="44.39877" lon="3.4293">
        <ele>925.20001220703</ele>
        <time>2024-01-30T10:01:39.000Z</time>
      </trkpt>
      <trkpt lat="44.39894" lon="3.42944">
        <ele>927</ele>
        <time>2024-01-30T10:01:40.000Z</time>
      </trkpt>
      <trkpt lat="44.39927" lon="3.4297">
        <ele>928.79998779297</ele>
        <time>2024-01-30T10:01:42.000Z</time>
      </trkpt>
      <trkpt lat="44.39944" lon="3.42981">
        <ele>930.20001220703</ele>
        <time>2024-01-30T10:01:43.000Z</time>
      </trkpt>
      <trkpt lat="44.39962" lon="3.42988">
        <ele>931.20001220703</ele>
        <time>2024-01-30T10:01:44.000Z</time>
      </trkpt>
      <trkpt lat="44.39979" lon="3.42992">
        <ele>933</ele>
        <time>2024-01-30T10:01:45.000Z</time>
      </trkpt>
      <trkpt lat="44.39996" lon="3.42994">
        <ele>934.79998779297</ele>
        <time>2024-01-30T10:01:46.000Z</time>
      </trkpt>
      <trkpt lat="44.40012" lon="3.42996">
        <ele>936.20001220703</ele>
        <time>2024-01-30T10:01:47.000Z</time>
      </trkpt>
      <trkpt lat="44.40029" lon="3.43">
        <ele>937.79998779297</ele>
        <time>2024-01-30T10:01:48.000Z</time>
      </trkpt>
      <trkpt lat="44.40046" lon="3.43004">
        <ele>939.20001220703</ele>
        <time>2024-01-30T10:01:49.000Z</time>
      </trkpt>
      <trkpt lat="44.40064" lon="3.43009">
        <ele>940.79998779297</ele>
        <time>2024-01-30T10:01:50.000Z</time>
      </trkpt>
      <trkpt lat="44.40082" lon="3.43015">
        <ele>942</ele>
        <time>2024-01-30T10:01:51.000Z</time>
      </trkpt>
      <trkpt lat="44.401" lon="3.4302">
        <ele>943.40002441406</ele>
        <time>2024-01-30T10:01:52.000Z</time>
      </trkpt>
      <trkpt lat="44.40118" lon="3.43027">
        <ele>944.40002441406</ele>
        <time>2024-01-30T10:01:53.000Z</time>
      </trkpt>
      <trkpt lat="44.40155" lon="3.43041">
        <ele>946</ele>
        <time>2024-01-30T10:01:55.000Z</time>
      </trkpt>
      <trkpt lat="44.40174" lon="3.43049">
        <ele>947.40002441406</ele>
        <time>2024-01-30T10:01:56.000Z</time>
      </trkpt>
      <trkpt lat="44.40194" lon="3.43057">
        <ele>947.79998779297</ele>
        <time>2024-01-30T10:01:57.000Z</time>
      </trkpt>
      <trkpt lat="44.40214" lon="3.43066">
        <ele>948.59997558594</ele>
        <time>2024-01-30T10:01:58.000Z</time>
      </trkpt>
      <trkpt lat="44.40252" lon="3.43088">
        <ele>950.20001220703</ele>
        <time>2024-01-30T10:02:00.000Z</time>
      </trkpt>
      <trkpt lat="44.4027" lon="3.43101">
        <ele>951.59997558594</ele>
        <time>2024-01-30T10:02:01.000Z</time>
      </trkpt>
      <trkpt lat="44.40307" lon="3.43128">
        <ele>953.59997558594</ele>
        <time>2024-01-30T10:02:03.000Z</time>
      </trkpt>
      <trkpt lat="44.40324" lon="3.43142">
        <ele>954.79998779297</ele>
        <time>2024-01-30T10:02:04.000Z</time>
      </trkpt>
      <trkpt lat="44.40342" lon="3.43156">
        <ele>955.79998779297</ele>
        <time>2024-01-30T10:02:05.000Z</time>
      </trkpt>
      <trkpt lat="44.40359" lon="3.43171">
        <ele>956.59997558594</ele>
        <time>2024-01-30T10:02:06.000Z</time>
      </trkpt>
      <trkpt lat="44.40377" lon="3.43185">
        <ele>957.79998779297</ele>
        <time>2024-01-30T10:02:07.000Z</time>
      </trkpt>
      <trkpt lat="44.40395" lon="3.43197">
        <ele>959</ele>
        <time>2024-01-30T10:02:08.000Z</time>
      </trkpt>
      <trkpt lat="44.40431" lon="3.43216">
        <ele>960.40002441406</ele>
        <time>2024-01-30T10:02:10.000Z</time>
      </trkpt>
      <trkpt lat="44.40465" lon="3.43228">
        <ele>961.40002441406</ele>
        <time>2024-01-30T10:02:12.000Z</time>
      </trkpt>
      <trkpt lat="44.40481" lon="3.43233">
        <ele>962.40002441406</ele>
        <time>2024-01-30T10:02:13.000Z</time>
      </trkpt>
      <trkpt lat="44.40495" lon="3.43236">
        <ele>963.40002441406</ele>
        <time>2024-01-30T10:02:14.000Z</time>
      </trkpt>
      <trkpt lat="44.40521" lon="3.43234">
        <ele>965.59997558594</ele>
        <time>2024-01-30T10:02:16.000Z</time>
      </trkpt>
      <trkpt lat="44.40534" lon="3.43227">
        <ele>966.59997558594</ele>
        <time>2024-01-30T10:02:17.000Z</time>
      </trkpt>
      <trkpt lat="44.4056" lon="3.43212">
        <ele>968.79998779297</ele>
        <time>2024-01-30T10:02:19.000Z</time>
      </trkpt>
      <trkpt lat="44.40574" lon="3.43205">
        <ele>970.40002441406</ele>
        <time>2024-01-30T10:02:20.000Z</time>
      </trkpt>
      <trkpt lat="44.40589" lon="3.43198">
        <ele>971.40002441406</ele>
        <time>2024-01-30T10:02:21.000Z</time>
      </trkpt>
      <trkpt lat="44.40604" lon="3.43195">
        <ele>972.59997558594</ele>
        <time>2024-01-30T10:02:22.000Z</time>
      </trkpt>
      <trkpt lat="44.40619" lon="3.43196">
        <ele>974</ele>
        <time>2024-01-30T10:02:23.000Z</time>
      </trkpt>
      <trkpt lat="44.40633" lon="3.43199">
        <ele>976</ele>
        <time>2024-01-30T10:02:24.000Z</time>
      </trkpt>
      <trkpt lat="44.40649" lon="3.43203">
        <ele>977.40002441406</ele>
        <time>2024-01-30T10:02:25.000Z</time>
      </trkpt>
      <trkpt lat="44.40665" lon="3.43208">
        <ele>978.40002441406</ele>
        <time>2024-01-30T10:02:26.000Z</time>
      </trkpt>
      <trkpt lat="44.40681" lon="3.43215">
        <ele>979.59997558594</ele>
        <time>2024-01-30T10:02:27.000Z</time>
      </trkpt>
      <trkpt lat="44.40696" lon="3.43222">
        <ele>981</ele>
        <time>2024-01-30T10:02:28.000Z</time>
      </trkpt>
      <trkpt lat="44.4071" lon="3.4323">
        <ele>982.40002441406</ele>
        <time>2024-01-30T10:02:29.000Z</time>
      </trkpt>
      <trkpt lat="44.40721" lon="3.43238">
        <ele>983.79998779297</ele>
        <time>2024-01-30T10:02:30.000Z</time>
      </trkpt>
      <trkpt lat="44.40735" lon="3.4325">
        <ele>985</ele>
        <time>2024-01-30T10:02:31.000Z</time>
      </trkpt>
      <trkpt lat="44.40751" lon="3.43266">
        <ele>986.59997558594</ele>
        <time>2024-01-30T10:02:32.000Z</time>
      </trkpt>
      <trkpt lat="44.40764" lon="3.43281">
        <ele>988.20001220703</ele>
        <time>2024-01-30T10:02:33.000Z</time>
      </trkpt>
      <trkpt lat="44.40777" lon="3.43294">
        <ele>989.59997558594</ele>
        <time>2024-01-30T10:02:34.000Z</time>
      </trkpt>
      <trkpt lat="44.40791" lon="3.43308">
        <ele>991</ele>
        <time>2024-01-30T10:02:35.000Z</time>
      </trkpt>
      <trkpt lat="44.40817" lon="3.43334">
        <ele>993.40002441406</ele>
        <time>2024-01-30T10:02:37.000Z</time>
      </trkpt>
      <trkpt lat="44.40831" lon="3.43345">
        <ele>995</ele>
        <time>2024-01-30T10:02:38.000Z</time>
      </trkpt>
      <trkpt lat="44.40845" lon="3.43355">
        <ele>996</ele>
        <time>2024-01-30T10:02:39.000Z</time>
      </trkpt>
      <trkpt lat="44.40858" lon="3.43364">
        <ele>997.40002441406</ele>
        <time>2024-01-30T10:02:40.000Z</time>
      </trkpt>
      <trkpt lat="44.40871" lon="3.43374">
        <ele>998.20001220703</ele>
        <time>2024-01-30T10:02:41.000Z</time>
      </trkpt>
      <trkpt lat="44.4088" lon="3.43383">
        <ele>999.59997558594</ele>
        <time>2024-01-30T10:02:42.000Z</time>
      </trkpt>
      <trkpt lat="44.40892" lon="3.43399">
        <ele>1001</ele>
        <time>2024-01-30T10:02:43.000Z</time>
      </trkpt>
      <trkpt lat="44.40899" lon="3.43416">
        <ele>1002</ele>
        <time>2024-01-30T10:02:44.000Z</time>
      </trkpt>
      <trkpt lat="44.40904" lon="3.43436">
        <ele>1003.4000244141</ele>
        <time>2024-01-30T10:02:45.000Z</time>
      </trkpt>
      <trkpt lat="44.40907" lon="3.43456">
        <ele>1004.799987793</ele>
        <time>2024-01-30T10:02:46.000Z</time>
      </trkpt>
      <trkpt lat="44.40909" lon="3.43477">
        <ele>1006</ele>
        <time>2024-01-30T10:02:47.000Z</time>
      </trkpt>
      <trkpt lat="44.4091" lon="3.43498">
        <ele>1007.200012207</ele>
        <time>2024-01-30T10:02:48.000Z</time>
      </trkpt>
      <trkpt lat="44.40907" lon="3.43519">
        <ele>1008.4000244141</ele>
        <time>2024-01-30T10:02:49.000Z</time>
      </trkpt>
      <trkpt lat="44.409" lon="3.43537">
        <ele>1010</ele>
        <time>2024-01-30T10:02:50.000Z</time>
      </trkpt>
      <trkpt lat="44.40891" lon="3.43554">
        <ele>1011.4000244141</ele>
        <time>2024-01-30T10:02:51.000Z</time>
      </trkpt>
      <trkpt lat="44.40882" lon="3.43569">
        <ele>1013</ele>
        <time>2024-01-30T10:02:52.000Z</time>
      </trkpt>
      <trkpt lat="44.40875" lon="3.43585">
        <ele>1014.200012207</ele>
        <time>2024-01-30T10:02:53.000Z</time>
      </trkpt>
      <trkpt lat="44.40869" lon="3.43603">
        <ele>1015.799987793</ele>
        <time>2024-01-30T10:02:54.000Z</time>
      </trkpt>
      <trkpt lat="44.40866" lon="3.43622">
        <ele>1016.799987793</ele>
        <time>2024-01-30T10:02:55.000Z</time>
      </trkpt>
      <trkpt lat="44.40864" lon="3.43642">
        <ele>1017.5999755859</ele>
        <time>2024-01-30T10:02:56.000Z</time>
      </trkpt>
      <trkpt lat="44.40863" lon="3.43663">
        <ele>1018.799987793</ele>
        <time>2024-01-30T10:02:57.000Z</time>
      </trkpt>
      <trkpt lat="44.40862" lon="3.43706">
        <ele>1020.799987793</ele>
        <time>2024-01-30T10:02:59.000Z</time>
      </trkpt>
      <trkpt lat="44.40859" lon="3.43747">
        <ele>1022.200012207</ele>
        <time>2024-01-30T10:03:01.000Z</time>
      </trkpt>
      <trkpt lat="44.40857" lon="3.43782">
        <ele>1023.200012207</ele>
        <time>2024-01-30T10:03:03.000Z</time>
      </trkpt>
      <trkpt lat="44.40856" lon="3.43797">
        <ele>1023.200012207</ele>
        <time>2024-01-30T10:03:04.000Z</time>
      </trkpt>
      <trkpt lat="44.40855" lon="3.43814">
        <ele>1023.200012207</ele>
        <time>2024-01-30T10:03:06.000Z</time>
      </trkpt>
      <trkpt lat="44.40855" lon="3.43821">
        <ele>1023.200012207</ele>
        <time>2024-01-30T10:03:09.000Z</time>
      </trkpt>
      <trkpt lat="44.40855" lon="3.43821">
        <ele>1023.200012207</ele>
        <time>2024-01-30T10:03:10.000Z</time>
        <extensions>
          <gpxtpx:TrackPointExtension xmlns:gpxtpx="http://www.garmin.com/xmlschemas/TrackPointExtension/v1">
            <gpxtpx:hr>71</gpxtpx:hr>
          </gpxtpx:TrackPointExtension>
        </extensions>
      </trkpt>
      <trkpt lat="44.40855" lon="3.43821">
        <ele>1023.4000244141</ele>
        <time>2024-01-30T10:03:11.000Z</time>
        <extensions>
          <gpxtpx:TrackPointExtension xmlns:gpxtpx="http://www.garmin.com/xmlschemas/TrackPointExtension/v1">
            <gpxtpx:hr>72</gpxtpx:hr>
          </gpxtpx:TrackPointExtension>
        </extensions>
      </trkpt>
      <trkpt lat="44.40855" lon="3.43821">
        <ele>1023.4000244141</ele>
        <time>2024-01-30T10:03:13.000Z</time>
        <extensions>
          <gpxtpx:TrackPointExtension xmlns:gpxtpx="http://www.garmin.com/xmlschemas/TrackPointExtension/v1">
            <gpxtpx:hr>75</gpxtpx:hr>
          </gpxtpx:TrackPointExtension>
        </extensions>
      </trkpt>
      <trkpt lat="44.40855" lon="3.43821">
        <ele>1023.4000244141</ele>
        <time>2024-01-30T10:03:16.000Z</time>
      </trkpt>
      <trkpt lat="44.40855" lon="3.43821">
        <ele>1023</ele>
        <time>2024-01-30T10:03:34.000Z</time>
      </trkpt>
      <trkpt lat="44.40855" lon="3.43821">
        <ele>1022.5999755859</ele>
        <time>2024-01-30T10:03:50.000Z</time>
      </trkpt>
      <trkpt lat="44.40854" lon="3.43826">
        <ele>1022.4000244141</ele>
        <time>2024-01-30T10:03:59.000Z</time>
      </trkpt>
      <trkpt lat="44.40854" lon="3.4383">
        <ele>1022.5999755859</ele>
        <time>2024-01-30T10:04:00.000Z</time>
      </trkpt>
      <trkpt lat="44.40853" lon="3.43846">
        <ele>1022.5999755859</ele>
        <time>2024-01-30T10:04:03.000Z</time>
      </trkpt>
      <trkpt lat="44.40852" lon="3.4387">
        <ele>1022</ele>
        <time>2024-01-30T10:04:06.000Z</time>
      </trkpt>
      <trkpt lat="44.40851" lon="3.4388">
        <ele>1021.5999755859</ele>
        <time>2024-01-30T10:04:07.000Z</time>
      </trkpt>
      <trkpt lat="44.40852" lon="3.43913">
        <ele>1020.799987793</ele>
        <time>2024-01-30T10:04:10.000Z</time>
      </trkpt>
      <trkpt lat="44.40854" lon="3.43925">
        <ele>1020.200012207</ele>
        <time>2024-01-30T10:04:11.000Z</time>
      </trkpt>
      <trkpt lat="44.40856" lon="3.43938">
        <ele>1019.5999755859</ele>
        <time>2024-01-30T10:04:12.000Z</time>
      </trkpt>
      <trkpt lat="44.40862" lon="3.43963">
        <ele>1018</ele>
        <time>2024-01-30T10:04:14.000Z</time>
      </trkpt>
      <trkpt lat="44.40866" lon="3.43974">
        <ele>1017.4000244141</ele>
        <time>2024-01-30T10:04:15.000Z</time>
      </trkpt>
      <trkpt lat="44.40871" lon="3.43983">
        <ele>1015.799987793</ele>
        <time>2024-01-30T10:04:16.000Z</time>
      </trkpt>
      <trkpt lat="44.40885" lon="3.43995">
        <ele>1014.799987793</ele>
        <time>2024-01-30T10:04:18.000Z</time>
      </trkpt>
      <trkpt lat="44.40894" lon="3.43999">
        <ele>1014.4000244141</ele>
        <time>2024-01-30T10:04:19.000Z</time>
      </trkpt>
      <trkpt lat="44.40912" lon="3.44008">
        <ele>1013</ele>
        <time>2024-01-30T10:04:21.000Z</time>
      </trkpt>
      <trkpt lat="44.40921" lon="3.44016">
        <ele>1012.4000244141</ele>
        <time>2024-01-30T10:04:22.000Z</time>
      </trkpt>
      <trkpt lat="44.40928" lon="3.44026">
        <ele>1011.5999755859</ele>
        <time>2024-01-30T10:04:23.000Z</time>
      </trkpt>
      <trkpt lat="44.40944" lon="3.44049">
        <ele>1010</ele>
        <time>2024-01-30T10:04:25.000Z</time>
      </trkpt>
      <trkpt lat="44.40964" lon="3.44067">
        <ele>1008</ele>
        <time>2024-01-30T10:04:27.000Z</time>
      </trkpt>
      <trkpt lat="44.40976" lon="3.44073">
        <ele>1006.5999755859</ele>
        <time>2024-01-30T10:04:28.000Z</time>
      </trkpt>
      <trkpt lat="44.40999" lon="3.44083">
        <ele>1004.799987793</ele>
        <time>2024-01-30T10:04:30.000Z</time>
      </trkpt>
      <trkpt lat="44.41009" lon="3.4409">
        <ele>1003.4000244141</ele>
        <time>2024-01-30T10:04:31.000Z</time>
      </trkpt>
      <trkpt lat="44.41018" lon="3.44099">
        <ele>1002.4000244141</ele>
        <time>2024-01-30T10:04:32.000Z</time>
      </trkpt>
      <trkpt lat="44.41025" lon="3.44111">
        <ele>1001.799987793</ele>
        <time>2024-01-30T10:04:33.000Z</time>
      </trkpt>
      <trkpt lat="44.41029" lon="3.44126">
        <ele>1000.5999755859</ele>
        <time>2024-01-30T10:04:34.000Z</time>
      </trkpt>
      <trkpt lat="44.41032" lon="3.44141">
        <ele>999.59997558594</ele>
        <time>2024-01-30T10:04:35.000Z</time>
      </trkpt>
      <trkpt lat="44.41032" lon="3.44157">
        <ele>998.79998779297</ele>
        <time>2024-01-30T10:04:36.000Z</time>
      </trkpt>
      <trkpt lat="44.4103" lon="3.44174">
        <ele>997.79998779297</ele>
        <time>2024-01-30T10:04:37.000Z</time>
      </trkpt>
      <trkpt lat="44.41024" lon="3.44208">
        <ele>996</ele>
        <time>2024-01-30T10:04:39.000Z</time>
      </trkpt>
      <trkpt lat="44.41021" lon="3.44226">
        <ele>995.20001220703</ele>
        <time>2024-01-30T10:04:40.000Z</time>
      </trkpt>
      <trkpt lat="44.4102" lon="3.44243">
        <ele>994</ele>
        <time>2024-01-30T10:04:41.000Z</time>
      </trkpt>
      <trkpt lat="44.41019" lon="3.44258">
        <ele>992.59997558594</ele>
        <time>2024-01-30T10:04:42.000Z</time>
      </trkpt>
      <trkpt lat="44.41022" lon="3.44272">
        <ele>991.20001220703</ele>
        <time>2024-01-30T10:04:43.000Z</time>
      </trkpt>
      <trkpt lat="44.41027" lon="3.44284">
        <ele>990.79998779297</ele>
        <time>2024-01-30T10:04:44.000Z</time>
      </trkpt>
      <trkpt lat="44.41036" lon="3.44294">
        <ele>990</ele>
        <time>2024-01-30T10:04:45.000Z</time>
      </trkpt>
      <trkpt lat="44.41047" lon="3.44302">
        <ele>989.79998779297</ele>
        <time>2024-01-30T10:04:46.000Z</time>
      </trkpt>
      <trkpt lat="44.41075" lon="3.44314">
        <ele>988.59997558594</ele>
        <time>2024-01-30T10:04:48.000Z</time>
      </trkpt>
      <trkpt lat="44.41108" lon="3.44324">
        <ele>987.59997558594</ele>
        <time>2024-01-30T10:04:50.000Z</time>
      </trkpt>
      <trkpt lat="44.41126" lon="3.44327">
        <ele>987.20001220703</ele>
        <time>2024-01-30T10:04:51.000Z</time>
      </trkpt>
      <trkpt lat="44.41145" lon="3.44329">
        <ele>986.40002441406</ele>
        <time>2024-01-30T10:04:52.000Z</time>
      </trkpt>
      <trkpt lat="44.41183" lon="3.44331">
        <ele>985.20001220703</ele>
        <time>2024-01-30T10:04:54.000Z</time>
      </trkpt>
      <trkpt lat="44.41203" lon="3.44332">
        <ele>984.20001220703</ele>
        <time>2024-01-30T10:04:55.000Z</time>
      </trkpt>
      <trkpt lat="44.41241" lon="3.44328">
        <ele>982.79998779297</ele>
        <time>2024-01-30T10:04:57.000Z</time>
      </trkpt>
      <trkpt lat="44.4126" lon="3.44321">
        <ele>981.40002441406</ele>
        <time>2024-01-30T10:04:58.000Z</time>
      </trkpt>
      <trkpt lat="44.41296" lon="3.443">
        <ele>979.79998779297</ele>
        <time>2024-01-30T10:05:00.000Z</time>
      </trkpt>
      <trkpt lat="44.41316" lon="3.44289">
        <ele>979.59997558594</ele>
        <time>2024-01-30T10:05:01.000Z</time>
      </trkpt>
      <trkpt lat="44.41348" lon="3.44279">
        <ele>979.20001220703</ele>
        <time>2024-01-30T10:05:03.000Z</time>
      </trkpt>
      <trkpt lat="44.41365" lon="3.44279">
        <ele>979.20001220703</ele>
        <time>2024-01-30T10:05:04.000Z</time>
      </trkpt>
      <trkpt lat="44.41382" lon="3.44283">
        <ele>979.20001220703</ele>
        <time>2024-01-30T10:05:05.000Z</time>
      </trkpt>
      <trkpt lat="44.41414" lon="3.44294">
        <ele>979.40002441406</ele>
        <time>2024-01-30T10:05:07.000Z</time>
      </trkpt>
      <trkpt lat="44.41429" lon="3.44304">
        <ele>979.59997558594</ele>
        <time>2024-01-30T10:05:08.000Z</time>
      </trkpt>
      <trkpt lat="44.41443" lon="3.44316">
        <ele>979.79998779297</ele>
        <time>2024-01-30T10:05:09.000Z</time>
      </trkpt>
      <trkpt lat="44.41455" lon="3.4433">
        <ele>980</ele>
        <time>2024-01-30T10:05:10.000Z</time>
      </trkpt>
      <trkpt lat="44.41464" lon="3.44347">
        <ele>980.20001220703</ele>
        <time>2024-01-30T10:05:11.000Z</time>
      </trkpt>
      <trkpt lat="44.41472" lon="3.44366">
        <ele>980.20001220703</ele>
        <time>2024-01-30T10:05:12.000Z</time>
      </trkpt>
      <trkpt lat="44.41486" lon="3.44408">
        <ele>980.20001220703</ele>
        <time>2024-01-30T10:05:14.000Z</time>
      </trkpt>
      <trkpt lat="44.41518" lon="3.44491">
        <ele>979.59997558594</ele>
        <time>2024-01-30T10:05:18.000Z</time>
      </trkpt>
      <trkpt lat="44.41544" lon="3.44523">
        <ele>979.40002441406</ele>
        <time>2024-01-30T10:05:20.000Z</time>
      </trkpt>
      <trkpt lat="44.41579" lon="3.44542">
        <ele>979.20001220703</ele>
        <time>2024-01-30T10:05:22.000Z</time>
      </trkpt>
      <trkpt lat="44.41635" lon="3.44567">
        <ele>979.40002441406</ele>
        <time>2024-01-30T10:05:25.000Z</time>
      </trkpt>
      <trkpt lat="44.41674" lon="3.44584">
        <ele>981.40002441406</ele>
        <time>2024-01-30T10:05:27.000Z</time>
      </trkpt>
      <trkpt lat="44.41692" lon="3.44592">
        <ele>983</ele>
        <time>2024-01-30T10:05:28.000Z</time>
      </trkpt>
      <trkpt lat="44.41711" lon="3.446">
        <ele>984.59997558594</ele>
        <time>2024-01-30T10:05:29.000Z</time>
      </trkpt>
      <trkpt lat="44.4173" lon="3.44608">
        <ele>985.79998779297</ele>
        <time>2024-01-30T10:05:30.000Z</time>
      </trkpt>
      <trkpt lat="44.41748" lon="3.44616">
        <ele>988.20001220703</ele>
        <time>2024-01-30T10:05:31.000Z</time>
      </trkpt>
      <trkpt lat="44.41767" lon="3.44624">
        <ele>989.59997558594</ele>
        <time>2024-01-30T10:05:32.000Z</time>
      </trkpt>
      <trkpt lat="44.41785" lon="3.44632">
        <ele>991.59997558594</ele>
        <time>2024-01-30T10:05:33.000Z</time>
      </trkpt>
      <trkpt lat="44.41804" lon="3.4464">
        <ele>994</ele>
        <time>2024-01-30T10:05:34.000Z</time>
      </trkpt>
      <trkpt lat="44.41822" lon="3.44648">
        <ele>995.59997558594</ele>
        <time>2024-01-30T10:05:35.000Z</time>
      </trkpt>
      <trkpt lat="44.41841" lon="3.44656">
        <ele>997.59997558594</ele>
        <time>2024-01-30T10:05:36.000Z</time>
      </trkpt>
      <trkpt lat="44.41859" lon="3.44664">
        <ele>999.59997558594</ele>
        <time>2024-01-30T10:05:37.000Z</time>
      </trkpt>
      <trkpt lat="44.41877" lon="3.44672">
        <ele>1000.5999755859</ele>
        <time>2024-01-30T10:05:38.000Z</time>
      </trkpt>
      <trkpt lat="44.41895" lon="3.44679">
        <ele>1002</ele>
        <time>2024-01-30T10:05:39.000Z</time>
      </trkpt>
      <trkpt lat="44.41912" lon="3.44687">
        <ele>1003.4000244141</ele>
        <time>2024-01-30T10:05:40.000Z</time>
      </trkpt>
      <trkpt lat="44.4193" lon="3.44695">
        <ele>1004.799987793</ele>
        <time>2024-01-30T10:05:41.000Z</time>
      </trkpt>
      <trkpt lat="44.41946" lon="3.44704">
        <ele>1006.200012207</ele>
        <time>2024-01-30T10:05:42.000Z</time>
      </trkpt>
      <trkpt lat="44.41962" lon="3.44714">
        <ele>1007.799987793</ele>
        <time>2024-01-30T10:05:43.000Z</time>
      </trkpt>
      <trkpt lat="44.41978" lon="3.44725">
        <ele>1009.4000244141</ele>
        <time>2024-01-30T10:05:44.000Z</time>
      </trkpt>
      <trkpt lat="44.42008" lon="3.4475">
        <ele>1011.799987793</ele>
        <time>2024-01-30T10:05:46.000Z</time>
      </trkpt>
      <trkpt lat="44.42038" lon="3.44776">
        <ele>1013.5999755859</ele>
        <time>2024-01-30T10:05:48.000Z</time>
      </trkpt>
      <trkpt lat="44.42053" lon="3.44789">
        <ele>1014.799987793</ele>
        <time>2024-01-30T10:05:49.000Z</time>
      </trkpt>
      <trkpt lat="44.42084" lon="3.44815">
        <ele>1016</ele>
        <time>2024-01-30T10:05:51.000Z</time>
      </trkpt>
      <trkpt lat="44.42101" lon="3.44827">
        <ele>1016.200012207</ele>
        <time>2024-01-30T10:05:52.000Z</time>
      </trkpt>
      <trkpt lat="44.42157" lon="3.44853">
        <ele>1016.5999755859</ele>
        <time>2024-01-30T10:05:55.000Z</time>
      </trkpt>
      <trkpt lat="44.42214" lon="3.44877">
        <ele>1016.799987793</ele>
        <time>2024-01-30T10:05:58.000Z</time>
      </trkpt>
      <trkpt lat="44.42272" lon="3.44897">
        <ele>1016.200012207</ele>
        <time>2024-01-30T10:06:01.000Z</time>
      </trkpt>
      <trkpt lat="44.42311" lon="3.44903">
        <ele>1015</ele>
        <time>2024-01-30T10:06:03.000Z</time>
      </trkpt>
      <trkpt lat="44.4233" lon="3.44904">
        <ele>1013.4000244141</ele>
        <time>2024-01-30T10:06:04.000Z</time>
      </trkpt>
      <trkpt lat="44.42349" lon="3.44905">
        <ele>1011.200012207</ele>
        <time>2024-01-30T10:06:05.000Z</time>
      </trkpt>
      <trkpt lat="44.4237" lon="3.44904">
        <ele>1009.200012207</ele>
        <time>2024-01-30T10:06:06.000Z</time>
      </trkpt>
      <trkpt lat="44.42391" lon="3.44903">
        <ele>1006.5999755859</ele>
        <time>2024-01-30T10:06:07.000Z</time>
      </trkpt>
      <trkpt lat="44.42413" lon="3.449">
        <ele>1004</ele>
        <time>2024-01-30T10:06:08.000Z</time>
      </trkpt>
      <trkpt lat="44.42435" lon="3.44894">
        <ele>1002</ele>
        <time>2024-01-30T10:06:09.000Z</time>
      </trkpt>
      <trkpt lat="44.42457" lon="3.44888">
        <ele>999.79998779297</ele>
        <time>2024-01-30T10:06:10.000Z</time>
      </trkpt>
      <trkpt lat="44.42479" lon="3.44881">
        <ele>997.20001220703</ele>
        <time>2024-01-30T10:06:11.000Z</time>
      </trkpt>
      <trkpt lat="44.42501" lon="3.44875">
        <ele>994.59997558594</ele>
        <time>2024-01-30T10:06:12.000Z</time>
      </trkpt>
      <trkpt lat="44.42523" lon="3.44869">
        <ele>992.40002441406</ele>
        <time>2024-01-30T10:06:13.000Z</time>
      </trkpt>
      <trkpt lat="44.42545" lon="3.44865">
        <ele>991.20001220703</ele>
        <time>2024-01-30T10:06:14.000Z</time>
      </trkpt>
      <trkpt lat="44.42567" lon="3.44863">
        <ele>989.59997558594</ele>
        <time>2024-01-30T10:06:15.000Z</time>
      </trkpt>
      <trkpt lat="44.4261" lon="3.4487">
        <ele>987.79998779297</ele>
        <time>2024-01-30T10:06:17.000Z</time>
      </trkpt>
      <trkpt lat="44.42652" lon="3.44885">
        <ele>986.20001220703</ele>
        <time>2024-01-30T10:06:19.000Z</time>
      </trkpt>
      <trkpt lat="44.42673" lon="3.44892">
        <ele>985.40002441406</ele>
        <time>2024-01-30T10:06:20.000Z</time>
      </trkpt>
      <trkpt lat="44.42695" lon="3.44898">
        <ele>984.59997558594</ele>
        <time>2024-01-30T10:06:21.000Z</time>
      </trkpt>
      <trkpt lat="44.42717" lon="3.44901">
        <ele>983.40002441406</ele>
        <time>2024-01-30T10:06:22.000Z</time>
      </trkpt>
      <trkpt lat="44.42739" lon="3.449">
        <ele>982.79998779297</ele>
        <time>2024-01-30T10:06:23.000Z</time>
      </trkpt>
      <trkpt lat="44.42805" lon="3.44881">
        <ele>982.79998779297</ele>
        <time>2024-01-30T10:06:26.000Z</time>
      </trkpt>
      <trkpt lat="44.42847" lon="3.44867">
        <ele>985.59997558594</ele>
        <time>2024-01-30T10:06:28.000Z</time>
      </trkpt>
      <trkpt lat="44.42868" lon="3.44861">
        <ele>987.79998779297</ele>
        <time>2024-01-30T10:06:29.000Z</time>
      </trkpt>
      <trkpt lat="44.42888" lon="3.44855">
        <ele>989.59997558594</ele>
        <time>2024-01-30T10:06:30.000Z</time>
      </trkpt>
      <trkpt lat="44.42908" lon="3.44849">
        <ele>991.79998779297</ele>
        <time>2024-01-30T10:06:31.000Z</time>
      </trkpt>
      <trkpt lat="44.42928" lon="3.44843">
        <ele>993</ele>
        <time>2024-01-30T10:06:32.000Z</time>
      </trkpt>
      <trkpt lat="44.42947" lon="3.44837">
        <ele>994.59997558594</ele>
        <time>2024-01-30T10:06:33.000Z</time>
      </trkpt>
      <trkpt lat="44.42965" lon="3.44832">
        <ele>997</ele>
        <time>2024-01-30T10:06:34.000Z</time>
      </trkpt>
      <trkpt lat="44.42983" lon="3.44826">
        <ele>998.40002441406</ele>
        <time>2024-01-30T10:06:35.000Z</time>
      </trkpt>
      <trkpt lat="44.43" lon="3.44822">
        <ele>1000</ele>
        <time>2024-01-30T10:06:36.000Z</time>
      </trkpt>
      <trkpt lat="44.43034" lon="3.44811">
        <ele>1002</ele>
        <time>2024-01-30T10:06:38.000Z</time>
      </trkpt>
      <trkpt lat="44.43051" lon="3.44805">
        <ele>1003</ele>
        <time>2024-01-30T10:06:39.000Z</time>
      </trkpt>
      <trkpt lat="44.43086" lon="3.44795">
        <ele>1004.200012207</ele>
        <time>2024-01-30T10:06:41.000Z</time>
      </trkpt>
      <trkpt lat="44.43142" lon="3.44782">
        <ele>1005</ele>
        <time>2024-01-30T10:06:44.000Z</time>
      </trkpt>
      <trkpt lat="44.43181" lon="3.44775">
        <ele>1005</ele>
        <time>2024-01-30T10:06:46.000Z</time>
      </trkpt>
      <trkpt lat="44.4322" lon="3.44768">
        <ele>1003</ele>
        <time>2024-01-30T10:06:48.000Z</time>
      </trkpt>
      <trkpt lat="44.43241" lon="3.44764">
        <ele>1001.5999755859</ele>
        <time>2024-01-30T10:06:49.000Z</time>
      </trkpt>
      <trkpt lat="44.43261" lon="3.44761">
        <ele>1000</ele>
        <time>2024-01-30T10:06:50.000Z</time>
      </trkpt>
      <trkpt lat="44.43282" lon="3.44757">
        <ele>998.59997558594</ele>
        <time>2024-01-30T10:06:51.000Z</time>
      </trkpt>
      <trkpt lat="44.43303" lon="3.44753">
        <ele>997.79998779297</ele>
        <time>2024-01-30T10:06:52.000Z</time>
      </trkpt>
      <trkpt lat="44.43329" lon="3.44749">
        <ele>995.20001220703</ele>
        <time>2024-01-30T10:06:53.000Z</time>
      </trkpt>
      <trkpt lat="44.43347" lon="3.44746">
        <ele>992.79998779297</ele>
        <time>2024-01-30T10:06:54.000Z</time>
      </trkpt>
      <trkpt lat="44.43369" lon="3.44742">
        <ele>990.40002441406</ele>
        <time>2024-01-30T10:06:55.000Z</time>
      </trkpt>
      <trkpt lat="44.43392" lon="3.44738">
        <ele>988</ele>
        <time>2024-01-30T10:06:56.000Z</time>
      </trkpt>
      <trkpt lat="44.43415" lon="3.44734">
        <ele>985</ele>
        <time>2024-01-30T10:06:57.000Z</time>
      </trkpt>
      <trkpt lat="44.43439" lon="3.44732">
        <ele>983</ele>
        <time>2024-01-30T10:06:58.000Z</time>
      </trkpt>
      <trkpt lat="44.43462" lon="3.44731">
        <ele>980.79998779297</ele>
        <time>2024-01-30T10:06:59.000Z</time>
      </trkpt>
      <trkpt lat="44.43486" lon="3.44732">
        <ele>978.79998779297</ele>
        <time>2024-01-30T10:07:00.000Z</time>
      </trkpt>
      <trkpt lat="44.4351" lon="3.44734">
        <ele>977.20001220703</ele>
        <time>2024-01-30T10:07:01.000Z</time>
      </trkpt>
      <trkpt lat="44.43539" lon="3.44735">
        <ele>976</ele>
        <time>2024-01-30T10:07:02.000Z</time>
      </trkpt>
      <trkpt lat="44.43582" lon="3.44733">
        <ele>975.20001220703</ele>
        <time>2024-01-30T10:07:04.000Z</time>
      </trkpt>
      <trkpt lat="44.43651" lon="3.44721">
        <ele>975.20001220703</ele>
        <time>2024-01-30T10:07:07.000Z</time>
      </trkpt>
      <trkpt lat="44.43673" lon="3.44716">
        <ele>975.59997558594</ele>
        <time>2024-01-30T10:07:08.000Z</time>
      </trkpt>
      <trkpt lat="44.43743" lon="3.44701">
        <ele>976.20001220703</ele>
        <time>2024-01-30T10:07:11.000Z</time>
      </trkpt>
      <trkpt lat="44.43781" lon="3.44692">
        <ele>977.40002441406</ele>
        <time>2024-01-30T10:07:13.000Z</time>
      </trkpt>
      <trkpt lat="44.43802" lon="3.44688">
        <ele>977.59997558594</ele>
        <time>2024-01-30T10:07:14.000Z</time>
      </trkpt>
      <trkpt lat="44.43865" lon="3.44674">
        <ele>977.59997558594</ele>
        <time>2024-01-30T10:07:17.000Z</time>
      </trkpt>
      <trkpt lat="44.43886" lon="3.4467">
        <ele>977.59997558594</ele>
        <time>2024-01-30T10:07:18.000Z</time>
      </trkpt>
      <trkpt lat="44.43928" lon="3.44665">
        <ele>977.20001220703</ele>
        <time>2024-01-30T10:07:20.000Z</time>
      </trkpt>
      <trkpt lat="44.43992" lon="3.44666">
        <ele>976.59997558594</ele>
        <time>2024-01-30T10:07:23.000Z</time>
      </trkpt>
      <trkpt lat="44.44014" lon="3.44667">
        <ele>976.40002441406</ele>
        <time>2024-01-30T10:07:24.000Z</time>
      </trkpt>
      <trkpt lat="44.44037" lon="3.44668">
        <ele>976.40002441406</ele>
        <time>2024-01-30T10:07:25.000Z</time>
      </trkpt>
      <trkpt lat="44.44104" lon="3.44671">
        <ele>975.79998779297</ele>
        <time>2024-01-30T10:07:28.000Z</time>
      </trkpt>
      <trkpt lat="44.4417" lon="3.44676">
        <ele>975.59997558594</ele>
        <time>2024-01-30T10:07:31.000Z</time>
      </trkpt>
      <trkpt lat="44.44193" lon="3.44677">
        <ele>975.20001220703</ele>
        <time>2024-01-30T10:07:32.000Z</time>
      </trkpt>
      <trkpt lat="44.44215" lon="3.44678">
        <ele>974</ele>
        <time>2024-01-30T10:07:33.000Z</time>
      </trkpt>
      <trkpt lat="44.44238" lon="3.4468">
        <ele>972.59997558594</ele>
        <time>2024-01-30T10:07:34.000Z</time>
      </trkpt>
      <trkpt lat="44.44261" lon="3.44683">
        <ele>971.20001220703</ele>
        <time>2024-01-30T10:07:35.000Z</time>
      </trkpt>
      <trkpt lat="44.44305" lon="3.44693">
        <ele>969.79998779297</ele>
        <time>2024-01-30T10:07:37.000Z</time>
      </trkpt>
      <trkpt lat="44.44328" lon="3.44701">
        <ele>968.20001220703</ele>
        <time>2024-01-30T10:07:38.000Z</time>
      </trkpt>
      <trkpt lat="44.44351" lon="3.4471">
        <ele>967</ele>
        <time>2024-01-30T10:07:39.000Z</time>
      </trkpt>
      <trkpt lat="44.44373" lon="3.44719">
        <ele>965.79998779297</ele>
        <time>2024-01-30T10:07:40.000Z</time>
      </trkpt>
      <trkpt lat="44.44396" lon="3.44729">
        <ele>964.40002441406</ele>
        <time>2024-01-30T10:07:41.000Z</time>
      </trkpt>
      <trkpt lat="44.44443" lon="3.44745">
        <ele>962.59997558594</ele>
        <time>2024-01-30T10:07:43.000Z</time>
      </trkpt>
      <trkpt lat="44.44491" lon="3.44757">
        <ele>960</ele>
        <time>2024-01-30T10:07:45.000Z</time>
      </trkpt>
      <trkpt lat="44.4454" lon="3.44763">
        <ele>958.59997558594</ele>
        <time>2024-01-30T10:07:47.000Z</time>
      </trkpt>
      <trkpt lat="44.44611" lon="3.44769">
        <ele>957.79998779297</ele>
        <time>2024-01-30T10:07:50.000Z</time>
      </trkpt>
      <trkpt lat="44.44658" lon="3.44773">
        <ele>957</ele>
        <time>2024-01-30T10:07:52.000Z</time>
      </trkpt>
      <trkpt lat="44.44729" lon="3.4478">
        <ele>956.59997558594</ele>
        <time>2024-01-30T10:07:55.000Z</time>
      </trkpt>
      <trkpt lat="44.44752" lon="3.44784">
        <ele>956.79998779297</ele>
        <time>2024-01-30T10:07:56.000Z</time>
      </trkpt>
      <trkpt lat="44.44798" lon="3.44793">
        <ele>958</ele>
        <time>2024-01-30T10:07:58.000Z</time>
      </trkpt>
      <trkpt lat="44.44845" lon="3.44804">
        <ele>959.40002441406</ele>
        <time>2024-01-30T10:08:00.000Z</time>
      </trkpt>
      <trkpt lat="44.44891" lon="3.44814">
        <ele>960.59997558594</ele>
        <time>2024-01-30T10:08:02.000Z</time>
      </trkpt>
      <trkpt lat="44.44937" lon="3.44823">
        <ele>961.40002441406</ele>
        <time>2024-01-30T10:08:04.000Z</time>
      </trkpt>
      <trkpt lat="44.44959" lon="3.44827">
        <ele>962</ele>
        <time>2024-01-30T10:08:05.000Z</time>
      </trkpt>
      <trkpt lat="44.45003" lon="3.44836">
        <ele>963.20001220703</ele>
        <time>2024-01-30T10:08:07.000Z</time>
      </trkpt>
      <trkpt lat="44.45069" lon="3.4485">
        <ele>964.59997558594</ele>
        <time>2024-01-30T10:08:10.000Z</time>
      </trkpt>
      <trkpt lat="44.45135" lon="3.44865">
        <ele>965.59997558594</ele>
        <time>2024-01-30T10:08:13.000Z</time>
      </trkpt>
      <trkpt lat="44.45157" lon="3.44869">
        <ele>965.59997558594</ele>
        <time>2024-01-30T10:08:14.000Z</time>
      </trkpt>
      <trkpt lat="44.452" lon="3.44878">
        <ele>967</ele>
        <time>2024-01-30T10:08:16.000Z</time>
      </trkpt>
      <trkpt lat="44.45265" lon="3.44892">
        <ele>968.59997558594</ele>
        <time>2024-01-30T10:08:19.000Z</time>
      </trkpt>
      <trkpt lat="44.45286" lon="3.44897">
        <ele>969.40002441406</ele>
        <time>2024-01-30T10:08:20.000Z</time>
      </trkpt>
      <trkpt lat="44.45307" lon="3.44901">
        <ele>970.40002441406</ele>
        <time>2024-01-30T10:08:21.000Z</time>
      </trkpt>
      <trkpt lat="44.4535" lon="3.44909">
        <ele>972.40002441406</ele>
        <time>2024-01-30T10:08:23.000Z</time>
      </trkpt>
      <trkpt lat="44.45371" lon="3.44914">
        <ele>973.59997558594</ele>
        <time>2024-01-30T10:08:24.000Z</time>
      </trkpt>
      <trkpt lat="44.45392" lon="3.44918">
        <ele>974.79998779297</ele>
        <time>2024-01-30T10:08:25.000Z</time>
      </trkpt>
      <trkpt lat="44.45413" lon="3.44922">
        <ele>976.20001220703</ele>
        <time>2024-01-30T10:08:26.000Z</time>
      </trkpt>
      <trkpt lat="44.45455" lon="3.44931">
        <ele>978.40002441406</ele>
        <time>2024-01-30T10:08:28.000Z</time>
      </trkpt>
      <trkpt lat="44.45476" lon="3.44935">
        <ele>979</ele>
        <time>2024-01-30T10:08:29.000Z</time>
      </trkpt>
      <trkpt lat="44.45501" lon="3.4494">
        <ele>979.59997558594</ele>
        <time>2024-01-30T10:08:30.000Z</time>
      </trkpt>
      <trkpt lat="44.45538" lon="3.44949">
        <ele>980.79998779297</ele>
        <time>2024-01-30T10:08:32.000Z</time>
      </trkpt>
      <trkpt lat="44.45579" lon="3.44964">
        <ele>981.59997558594</ele>
        <time>2024-01-30T10:08:34.000Z</time>
      </trkpt>
      <trkpt lat="44.45638" lon="3.45001">
        <ele>981.79998779297</ele>
        <time>2024-01-30T10:08:37.000Z</time>
      </trkpt>
      <trkpt lat="44.45657" lon="3.45015">
        <ele>981.59997558594</ele>
        <time>2024-01-30T10:08:38.000Z</time>
      </trkpt>
      <trkpt lat="44.45717" lon="3.45057">
        <ele>979.40002441406</ele>
        <time>2024-01-30T10:08:41.000Z</time>
      </trkpt>
      <trkpt lat="44.45758" lon="3.45086">
        <ele>977.79998779297</ele>
        <time>2024-01-30T10:08:43.000Z</time>
      </trkpt>
      <trkpt lat="44.45799" lon="3.45114">
        <ele>976</ele>
        <time>2024-01-30T10:08:45.000Z</time>
      </trkpt>
      <trkpt lat="44.45838" lon="3.45142">
        <ele>974.59997558594</ele>
        <time>2024-01-30T10:08:47.000Z</time>
      </trkpt>
      <trkpt lat="44.45874" lon="3.45167">
        <ele>973</ele>
        <time>2024-01-30T10:08:49.000Z</time>
      </trkpt>
      <trkpt lat="44.4589" lon="3.45178">
        <ele>972</ele>
        <time>2024-01-30T10:08:50.000Z</time>
      </trkpt>
      <trkpt lat="44.45903" lon="3.45189">
        <ele>971.79998779297</ele>
        <time>2024-01-30T10:08:51.000Z</time>
      </trkpt>
      <trkpt lat="44.45927" lon="3.45211">
        <ele>971.59997558594</ele>
        <time>2024-01-30T10:08:53.000Z</time>
      </trkpt>
      <trkpt lat="44.4595" lon="3.4524">
        <ele>972</ele>
        <time>2024-01-30T10:08:56.000Z</time>
      </trkpt>
      <trkpt lat="44.45966" lon="3.45267">
        <ele>972.79998779297</ele>
        <time>2024-01-30T10:08:59.000Z</time>
      </trkpt>
      <trkpt lat="44.45971" lon="3.45276">
        <ele>972.79998779297</ele>
        <time>2024-01-30T10:09:00.000Z</time>
      </trkpt>
      <trkpt lat="44.45998" lon="3.45326">
        <ele>971.79998779297</ele>
        <time>2024-01-30T10:09:06.000Z</time>
      </trkpt>
      <trkpt lat="44.46005" lon="3.45334">
        <ele>971</ele>
        <time>2024-01-30T10:09:07.000Z</time>
      </trkpt>
      <trkpt lat="44.4602" lon="3.45347">
        <ele>969.79998779297</ele>
        <time>2024-01-30T10:09:09.000Z</time>
      </trkpt>
      <trkpt lat="44.46028" lon="3.45353">
        <ele>969</ele>
        <time>2024-01-30T10:09:10.000Z</time>
      </trkpt>
      <trkpt lat="44.46036" lon="3.45359">
        <ele>968.40002441406</ele>
        <time>2024-01-30T10:09:11.000Z</time>
      </trkpt>
      <trkpt lat="44.46054" lon="3.45371">
        <ele>966.79998779297</ele>
        <time>2024-01-30T10:09:13.000Z</time>
      </trkpt>
      <trkpt lat="44.46073" lon="3.45384">
        <ele>965.40002441406</ele>
        <time>2024-01-30T10:09:15.000Z</time>
      </trkpt>
      <trkpt lat="44.46083" lon="3.45389">
        <ele>964.59997558594</ele>
        <time>2024-01-30T10:09:16.000Z</time>
      </trkpt>
      <trkpt lat="44.46094" lon="3.45394">
        <ele>963.59997558594</ele>
        <time>2024-01-30T10:09:17.000Z</time>
      </trkpt>
      <trkpt lat="44.46105" lon="3.45398">
        <ele>962.79998779297</ele>
        <time>2024-01-30T10:09:18.000Z</time>
      </trkpt>
      <trkpt lat="44.46117" lon="3.454">
        <ele>962.20001220703</ele>
        <time>2024-01-30T10:09:19.000Z</time>
      </trkpt>
      <trkpt lat="44.46132" lon="3.45402">
        <ele>961</ele>
        <time>2024-01-30T10:09:20.000Z</time>
      </trkpt>
      <trkpt lat="44.46142" lon="3.45403">
        <ele>960.40002441406</ele>
        <time>2024-01-30T10:09:21.000Z</time>
      </trkpt>
      <trkpt lat="44.46155" lon="3.45404">
        <ele>959.59997558594</ele>
        <time>2024-01-30T10:09:22.000Z</time>
      </trkpt>
      <trkpt lat="44.46178" lon="3.45406">
        <ele>957.59997558594</ele>
        <time>2024-01-30T10:09:24.000Z</time>
      </trkpt>
      <trkpt lat="44.46208" lon="3.45409">
        <ele>955.79998779297</ele>
        <time>2024-01-30T10:09:26.000Z</time>
      </trkpt>
      <trkpt lat="44.46221" lon="3.45412">
        <ele>954.40002441406</ele>
        <time>2024-01-30T10:09:27.000Z</time>
      </trkpt>
      <trkpt lat="44.46248" lon="3.45426">
        <ele>952.79998779297</ele>
        <time>2024-01-30T10:09:29.000Z</time>
      </trkpt>
      <trkpt lat="44.46275" lon="3.4544">
        <ele>950.79998779297</ele>
        <time>2024-01-30T10:09:31.000Z</time>
      </trkpt>
      <trkpt lat="44.46289" lon="3.45445">
        <ele>949.40002441406</ele>
        <time>2024-01-30T10:09:32.000Z</time>
      </trkpt>
      <trkpt lat="44.46302" lon="3.45448">
        <ele>948</ele>
        <time>2024-01-30T10:09:33.000Z</time>
      </trkpt>
      <trkpt lat="44.46315" lon="3.45451">
        <ele>946.59997558594</ele>
        <time>2024-01-30T10:09:34.000Z</time>
      </trkpt>
      <trkpt lat="44.46327" lon="3.45455">
        <ele>945.20001220703</ele>
        <time>2024-01-30T10:09:35.000Z</time>
      </trkpt>
      <trkpt lat="44.46338" lon="3.4546">
        <ele>944.20001220703</ele>
        <time>2024-01-30T10:09:36.000Z</time>
      </trkpt>
      <trkpt lat="44.46348" lon="3.45468">
        <ele>942.79998779297</ele>
        <time>2024-01-30T10:09:37.000Z</time>
      </trkpt>
      <trkpt lat="44.46356" lon="3.45479">
        <ele>941.79998779297</ele>
        <time>2024-01-30T10:09:38.000Z</time>
      </trkpt>
      <trkpt lat="44.46362" lon="3.45492">
        <ele>940.79998779297</ele>
        <time>2024-01-30T10:09:39.000Z</time>
      </trkpt>
      <trkpt lat="44.46365" lon="3.45511">
        <ele>940</ele>
        <time>2024-01-30T10:09:40.000Z</time>
      </trkpt>
      <trkpt lat="44.46364" lon="3.45527">
        <ele>939.20001220703</ele>
        <time>2024-01-30T10:09:41.000Z</time>
      </trkpt>
      <trkpt lat="44.46361" lon="3.45541">
        <ele>938.59997558594</ele>
        <time>2024-01-30T10:09:42.000Z</time>
      </trkpt>
      <trkpt lat="44.46358" lon="3.45563">
        <ele>938</ele>
        <time>2024-01-30T10:09:43.000Z</time>
      </trkpt>
      <trkpt lat="44.46355" lon="3.45582">
        <ele>936.79998779297</ele>
        <time>2024-01-30T10:09:44.000Z</time>
      </trkpt>
      <trkpt lat="44.46354" lon="3.45621">
        <ele>935.20001220703</ele>
        <time>2024-01-30T10:09:46.000Z</time>
      </trkpt>
      <trkpt lat="44.46355" lon="3.45643">
        <ele>933.79998779297</ele>
        <time>2024-01-30T10:09:47.000Z</time>
      </trkpt>
      <trkpt lat="44.46356" lon="3.45666">
        <ele>932.20001220703</ele>
        <time>2024-01-30T10:09:48.000Z</time>
      </trkpt>
      <trkpt lat="44.46357" lon="3.4569">
        <ele>930.59997558594</ele>
        <time>2024-01-30T10:09:49.000Z</time>
      </trkpt>
      <trkpt lat="44.46359" lon="3.45736">
        <ele>928.59997558594</ele>
        <time>2024-01-30T10:09:51.000Z</time>
      </trkpt>
      <trkpt lat="44.46362" lon="3.45757">
        <ele>927</ele>
        <time>2024-01-30T10:09:52.000Z</time>
      </trkpt>
      <trkpt lat="44.46365" lon="3.45777">
        <ele>925.79998779297</ele>
        <time>2024-01-30T10:09:53.000Z</time>
      </trkpt>
      <trkpt lat="44.46369" lon="3.45796">
        <ele>924.40002441406</ele>
        <time>2024-01-30T10:09:54.000Z</time>
      </trkpt>
      <trkpt lat="44.46376" lon="3.45813">
        <ele>922.59997558594</ele>
        <time>2024-01-30T10:09:55.000Z</time>
      </trkpt>
      <trkpt lat="44.46385" lon="3.45827">
        <ele>921.20001220703</ele>
        <time>2024-01-30T10:09:56.000Z</time>
      </trkpt>
      <trkpt lat="44.46395" lon="3.45838">
        <ele>920</ele>
        <time>2024-01-30T10:09:57.000Z</time>
      </trkpt>
      <trkpt lat="44.4642" lon="3.45854">
        <ele>918</ele>
        <time>2024-01-30T10:09:59.000Z</time>
      </trkpt>
      <trkpt lat="44.46433" lon="3.4586">
        <ele>917.40002441406</ele>
        <time>2024-01-30T10:10:00.000Z</time>
      </trkpt>
      <trkpt lat="44.4645" lon="3.45866">
        <ele>916.59997558594</ele>
        <time>2024-01-30T10:10:01.000Z</time>
      </trkpt>
      <trkpt lat="44.46462" lon="3.45869">
        <ele>915.40002441406</ele>
        <time>2024-01-30T10:10:02.000Z</time>
      </trkpt>
      <trkpt lat="44.4648" lon="3.45871">
        <ele>914</ele>
        <time>2024-01-30T10:10:03.000Z</time>
      </trkpt>
      <trkpt lat="44.46492" lon="3.45872">
        <ele>913.20001220703</ele>
        <time>2024-01-30T10:10:04.000Z</time>
      </trkpt>
      <trkpt lat="44.46511" lon="3.45873">
        <ele>912</ele>
        <time>2024-01-30T10:10:05.000Z</time>
      </trkpt>
      <trkpt lat="44.46526" lon="3.45875">
        <ele>910.59997558594</ele>
        <time>2024-01-30T10:10:06.000Z</time>
      </trkpt>
      <trkpt lat="44.46542" lon="3.45876">
        <ele>909.40002441406</ele>
        <time>2024-01-30T10:10:07.000Z</time>
      </trkpt>
      <trkpt lat="44.46556" lon="3.45876">
        <ele>908.20001220703</ele>
        <time>2024-01-30T10:10:08.000Z</time>
      </trkpt>
      <trkpt lat="44.46572" lon="3.45876">
        <ele>907</ele>
        <time>2024-01-30T10:10:09.000Z</time>
      </trkpt>
      <trkpt lat="44.46589" lon="3.45875">
        <ele>905.59997558594</ele>
        <time>2024-01-30T10:10:10.000Z</time>
      </trkpt>
      <trkpt lat="44.46605" lon="3.45873">
        <ele>904.20001220703</ele>
        <time>2024-01-30T10:10:11.000Z</time>
      </trkpt>
      <trkpt lat="44.4662" lon="3.45872">
        <ele>902.20001220703</ele>
        <time>2024-01-30T10:10:12.000Z</time>
      </trkpt>
      <trkpt lat="44.46635" lon="3.45871">
        <ele>900.79998779297</ele>
        <time>2024-01-30T10:10:13.000Z</time>
      </trkpt>
      <trkpt lat="44.46648" lon="3.45869">
        <ele>899.40002441406</ele>
        <time>2024-01-30T10:10:14.000Z</time>
      </trkpt>
      <trkpt lat="44.46661" lon="3.45866">
        <ele>898.20001220703</ele>
        <time>2024-01-30T10:10:15.000Z</time>
      </trkpt>
      <trkpt lat="44.46672" lon="3.45862">
        <ele>897</ele>
        <time>2024-01-30T10:10:16.000Z</time>
      </trkpt>
      <trkpt lat="44.46681" lon="3.45857">
        <ele>896</ele>
        <time>2024-01-30T10:10:17.000Z</time>
      </trkpt>
      <trkpt lat="44.46688" lon="3.45852">
        <ele>894.79998779297</ele>
        <time>2024-01-30T10:10:18.000Z</time>
      </trkpt>
      <trkpt lat="44.46693" lon="3.45849">
        <ele>894.40002441406</ele>
        <time>2024-01-30T10:10:19.000Z</time>
      </trkpt>
      <trkpt lat="44.46697" lon="3.45847">
        <ele>894.20001220703</ele>
        <time>2024-01-30T10:10:20.000Z</time>
      </trkpt>
      <trkpt lat="44.46701" lon="3.45849">
        <ele>893.79998779297</ele>
        <time>2024-01-30T10:10:21.000Z</time>
      </trkpt>
      <trkpt lat="44.46701" lon="3.45855">
        <ele>893.59997558594</ele>
        <time>2024-01-30T10:10:22.000Z</time>
      </trkpt>
      <trkpt lat="44.46691" lon="3.45865">
        <ele>893.20001220703</ele>
        <time>2024-01-30T10:10:24.000Z</time>
      </trkpt>
      <trkpt lat="44.46666" lon="3.45874">
        <ele>892.79998779297</ele>
        <time>2024-01-30T10:10:27.000Z</time>
      </trkpt>
      <trkpt lat="44.46655" lon="3.45878">
        <ele>892.20001220703</ele>
        <time>2024-01-30T10:10:28.000Z</time>
      </trkpt>
      <trkpt lat="44.4663" lon="3.45887">
        <ele>891.79998779297</ele>
        <time>2024-01-30T10:10:30.000Z</time>
      </trkpt>
      <trkpt lat="44.46613" lon="3.45894">
        <ele>891.20001220703</ele>
        <time>2024-01-30T10:10:31.000Z</time>
      </trkpt>
      <trkpt lat="44.46588" lon="3.45903">
        <ele>889.59997558594</ele>
        <time>2024-01-30T10:10:33.000Z</time>
      </trkpt>
      <trkpt lat="44.46573" lon="3.45907">
        <ele>888.79998779297</ele>
        <time>2024-01-30T10:10:34.000Z</time>
      </trkpt>
      <trkpt lat="44.4656" lon="3.45912">
        <ele>888</ele>
        <time>2024-01-30T10:10:35.000Z</time>
      </trkpt>
      <trkpt lat="44.46548" lon="3.45916">
        <ele>887</ele>
        <time>2024-01-30T10:10:36.000Z</time>
      </trkpt>
      <trkpt lat="44.46538" lon="3.45918">
        <ele>886.40002441406</ele>
        <time>2024-01-30T10:10:37.000Z</time>
      </trkpt>
      <trkpt lat="44.46528" lon="3.4592">
        <ele>885.20001220703</ele>
        <time>2024-01-30T10:10:38.000Z</time>
      </trkpt>
      <trkpt lat="44.4652" lon="3.45921">
        <ele>884.20001220703</ele>
        <time>2024-01-30T10:10:39.000Z</time>
      </trkpt>
      <trkpt lat="44.46514" lon="3.45921">
        <ele>883.20001220703</ele>
        <time>2024-01-30T10:10:40.000Z</time>
      </trkpt>
      <trkpt lat="44.46508" lon="3.45925">
        <ele>882.79998779297</ele>
        <time>2024-01-30T10:10:41.000Z</time>
      </trkpt>
      <trkpt lat="44.46503" lon="3.4593">
        <ele>882.40002441406</ele>
        <time>2024-01-30T10:10:42.000Z</time>
      </trkpt>
      <trkpt lat="44.465" lon="3.45941">
        <ele>882</ele>
        <time>2024-01-30T10:10:44.000Z</time>
      </trkpt>
      <trkpt lat="44.46514" lon="3.45942">
        <ele>882</ele>
        <time>2024-01-30T10:10:46.000Z</time>
      </trkpt>
      <trkpt lat="44.46541" lon="3.45931">
        <ele>880.79998779297</ele>
        <time>2024-01-30T10:10:49.000Z</time>
      </trkpt>
      <trkpt lat="44.46567" lon="3.45924">
        <ele>879.59997558594</ele>
        <time>2024-01-30T10:10:51.000Z</time>
      </trkpt>
      <trkpt lat="44.46583" lon="3.45922">
        <ele>878.40002441406</ele>
        <time>2024-01-30T10:10:52.000Z</time>
      </trkpt>
      <trkpt lat="44.46599" lon="3.4592">
        <ele>877.40002441406</ele>
        <time>2024-01-30T10:10:53.000Z</time>
      </trkpt>
      <trkpt lat="44.46637" lon="3.45917">
        <ele>875.20001220703</ele>
        <time>2024-01-30T10:10:55.000Z</time>
      </trkpt>
      <trkpt lat="44.46651" lon="3.45916">
        <ele>874</ele>
        <time>2024-01-30T10:10:56.000Z</time>
      </trkpt>
      <trkpt lat="44.46669" lon="3.45914">
        <ele>872.79998779297</ele>
        <time>2024-01-30T10:10:57.000Z</time>
      </trkpt>
      <trkpt lat="44.46687" lon="3.45911">
        <ele>871.59997558594</ele>
        <time>2024-01-30T10:10:58.000Z</time>
      </trkpt>
      <trkpt lat="44.46706" lon="3.45904">
        <ele>870.20001220703</ele>
        <time>2024-01-30T10:10:59.000Z</time>
      </trkpt>
      <trkpt lat="44.46724" lon="3.45896">
        <ele>869.20001220703</ele>
        <time>2024-01-30T10:11:00.000Z</time>
      </trkpt>
      <trkpt lat="44.46742" lon="3.45886">
        <ele>868.20001220703</ele>
        <time>2024-01-30T10:11:01.000Z</time>
      </trkpt>
      <trkpt lat="44.4676" lon="3.45876">
        <ele>866.79998779297</ele>
        <time>2024-01-30T10:11:02.000Z</time>
      </trkpt>
      <trkpt lat="44.46778" lon="3.45865">
        <ele>865.59997558594</ele>
        <time>2024-01-30T10:11:03.000Z</time>
      </trkpt>
      <trkpt lat="44.46795" lon="3.45855">
        <ele>864.20001220703</ele>
        <time>2024-01-30T10:11:04.000Z</time>
      </trkpt>
      <trkpt lat="44.46816" lon="3.45841">
        <ele>863.20001220703</ele>
        <time>2024-01-30T10:11:05.000Z</time>
      </trkpt>
      <trkpt lat="44.4683" lon="3.45832">
        <ele>861.59997558594</ele>
        <time>2024-01-30T10:11:06.000Z</time>
      </trkpt>
      <trkpt lat="44.46848" lon="3.4582">
        <ele>860.40002441406</ele>
        <time>2024-01-30T10:11:07.000Z</time>
      </trkpt>
      <trkpt lat="44.4687" lon="3.45806">
        <ele>859</ele>
        <time>2024-01-30T10:11:08.000Z</time>
      </trkpt>
      <trkpt lat="44.46885" lon="3.45796">
        <ele>857.59997558594</ele>
        <time>2024-01-30T10:11:09.000Z</time>
      </trkpt>
      <trkpt lat="44.46903" lon="3.45785">
        <ele>856.20001220703</ele>
        <time>2024-01-30T10:11:10.000Z</time>
      </trkpt>
      <trkpt lat="44.46926" lon="3.45773">
        <ele>854.79998779297</ele>
        <time>2024-01-30T10:11:11.000Z</time>
      </trkpt>
      <trkpt lat="44.46944" lon="3.45765">
        <ele>853.20001220703</ele>
        <time>2024-01-30T10:11:12.000Z</time>
      </trkpt>
      <trkpt lat="44.46959" lon="3.4576">
        <ele>852</ele>
        <time>2024-01-30T10:11:13.000Z</time>
      </trkpt>
      <trkpt lat="44.46977" lon="3.45754">
        <ele>850.40002441406</ele>
        <time>2024-01-30T10:11:14.000Z</time>
      </trkpt>
      <trkpt lat="44.46994" lon="3.45749">
        <ele>848.40002441406</ele>
        <time>2024-01-30T10:11:15.000Z</time>
      </trkpt>
      <trkpt lat="44.47011" lon="3.45742">
        <ele>846.79998779297</ele>
        <time>2024-01-30T10:11:16.000Z</time>
      </trkpt>
      <trkpt lat="44.47028" lon="3.45733">
        <ele>845.59997558594</ele>
        <time>2024-01-30T10:11:17.000Z</time>
      </trkpt>
      <trkpt lat="44.4704" lon="3.45725">
        <ele>844.20001220703</ele>
        <time>2024-01-30T10:11:18.000Z</time>
      </trkpt>
      <trkpt lat="44.47053" lon="3.45713">
        <ele>843.40002441406</ele>
        <time>2024-01-30T10:11:19.000Z</time>
      </trkpt>
      <trkpt lat="44.47065" lon="3.45701">
        <ele>842.59997558594</ele>
        <time>2024-01-30T10:11:20.000Z</time>
      </trkpt>
      <trkpt lat="44.47076" lon="3.45686">
        <ele>841.40002441406</ele>
        <time>2024-01-30T10:11:21.000Z</time>
      </trkpt>
      <trkpt lat="44.47086" lon="3.45669">
        <ele>840.40002441406</ele>
        <time>2024-01-30T10:11:22.000Z</time>
      </trkpt>
      <trkpt lat="44.47096" lon="3.45651">
        <ele>839.40002441406</ele>
        <time>2024-01-30T10:11:23.000Z</time>
      </trkpt>
      <trkpt lat="44.47105" lon="3.45633">
        <ele>838.20001220703</ele>
        <time>2024-01-30T10:11:24.000Z</time>
      </trkpt>
      <trkpt lat="44.47112" lon="3.45613">
        <ele>837</ele>
        <time>2024-01-30T10:11:25.000Z</time>
      </trkpt>
      <trkpt lat="44.47118" lon="3.45592">
        <ele>835.79998779297</ele>
        <time>2024-01-30T10:11:26.000Z</time>
      </trkpt>
      <trkpt lat="44.47129" lon="3.45548">
        <ele>833.40002441406</ele>
        <time>2024-01-30T10:11:28.000Z</time>
      </trkpt>
      <trkpt lat="44.47134" lon="3.45526">
        <ele>832</ele>
        <time>2024-01-30T10:11:29.000Z</time>
      </trkpt>
      <trkpt lat="44.47139" lon="3.45504">
        <ele>830.59997558594</ele>
        <time>2024-01-30T10:11:30.000Z</time>
      </trkpt>
      <trkpt lat="44.47144" lon="3.45484">
        <ele>828.59997558594</ele>
        <time>2024-01-30T10:11:31.000Z</time>
      </trkpt>
      <trkpt lat="44.47149" lon="3.45467">
        <ele>827</ele>
        <time>2024-01-30T10:11:32.000Z</time>
      </trkpt>
      <trkpt lat="44.47153" lon="3.45449">
        <ele>825.79998779297</ele>
        <time>2024-01-30T10:11:33.000Z</time>
      </trkpt>
      <trkpt lat="44.47158" lon="3.45439">
        <ele>824.79998779297</ele>
        <time>2024-01-30T10:11:34.000Z</time>
      </trkpt>
      <trkpt lat="44.47167" lon="3.4543">
        <ele>824.20001220703</ele>
        <time>2024-01-30T10:11:35.000Z</time>
      </trkpt>
      <trkpt lat="44.47181" lon="3.45428">
        <ele>824</ele>
        <time>2024-01-30T10:11:36.000Z</time>
      </trkpt>
      <trkpt lat="44.47194" lon="3.45429">
        <ele>823</ele>
        <time>2024-01-30T10:11:37.000Z</time>
      </trkpt>
      <trkpt lat="44.47221" lon="3.45428">
        <ele>820.79998779297</ele>
        <time>2024-01-30T10:11:39.000Z</time>
      </trkpt>
      <trkpt lat="44.47236" lon="3.45423">
        <ele>819.79998779297</ele>
        <time>2024-01-30T10:11:40.000Z</time>
      </trkpt>
      <trkpt lat="44.4725" lon="3.45415">
        <ele>817.79998779297</ele>
        <time>2024-01-30T10:11:41.000Z</time>
      </trkpt>
      <trkpt lat="44.47264" lon="3.45405">
        <ele>816.40002441406</ele>
        <time>2024-01-30T10:11:42.000Z</time>
      </trkpt>
      <trkpt lat="44.47277" lon="3.45394">
        <ele>814.59997558594</ele>
        <time>2024-01-30T10:11:43.000Z</time>
      </trkpt>
      <trkpt lat="44.4729" lon="3.45383">
        <ele>813.40002441406</ele>
        <time>2024-01-30T10:11:44.000Z</time>
      </trkpt>
      <trkpt lat="44.473" lon="3.4537">
        <ele>811</ele>
        <time>2024-01-30T10:11:45.000Z</time>
      </trkpt>
      <trkpt lat="44.4731" lon="3.45358">
        <ele>809.59997558594</ele>
        <time>2024-01-30T10:11:46.000Z</time>
      </trkpt>
      <trkpt lat="44.47318" lon="3.45343">
        <ele>808.40002441406</ele>
        <time>2024-01-30T10:11:47.000Z</time>
      </trkpt>
      <trkpt lat="44.47324" lon="3.45327">
        <ele>807.20001220703</ele>
        <time>2024-01-30T10:11:48.000Z</time>
      </trkpt>
      <trkpt lat="44.47334" lon="3.45291">
        <ele>805.40002441406</ele>
        <time>2024-01-30T10:11:50.000Z</time>
      </trkpt>
      <trkpt lat="44.47339" lon="3.45274">
        <ele>804</ele>
        <time>2024-01-30T10:11:51.000Z</time>
      </trkpt>
      <trkpt lat="44.47347" lon="3.45255">
        <ele>802.79998779297</ele>
        <time>2024-01-30T10:11:52.000Z</time>
      </trkpt>
      <trkpt lat="44.47354" lon="3.45243">
        <ele>801.79998779297</ele>
        <time>2024-01-30T10:11:53.000Z</time>
      </trkpt>
      <trkpt lat="44.47363" lon="3.45227">
        <ele>800.79998779297</ele>
        <time>2024-01-30T10:11:54.000Z</time>
      </trkpt>
      <trkpt lat="44.47373" lon="3.45211">
        <ele>799.40002441406</ele>
        <time>2024-01-30T10:11:55.000Z</time>
      </trkpt>
      <trkpt lat="44.47384" lon="3.45196">
        <ele>797.59997558594</ele>
        <time>2024-01-30T10:11:56.000Z</time>
      </trkpt>
      <trkpt lat="44.47397" lon="3.45182">
        <ele>795.79998779297</ele>
        <time>2024-01-30T10:11:57.000Z</time>
      </trkpt>
      <trkpt lat="44.47415" lon="3.45167">
        <ele>794</ele>
        <time>2024-01-30T10:11:58.000Z</time>
      </trkpt>
      <trkpt lat="44.47428" lon="3.45157">
        <ele>792.20001220703</ele>
        <time>2024-01-30T10:11:59.000Z</time>
      </trkpt>
      <trkpt lat="44.4744" lon="3.45147">
        <ele>790.59997558594</ele>
        <time>2024-01-30T10:12:00.000Z</time>
      </trkpt>
      <trkpt lat="44.47459" lon="3.45133">
        <ele>788.59997558594</ele>
        <time>2024-01-30T10:12:01.000Z</time>
      </trkpt>
      <trkpt lat="44.47472" lon="3.45123">
        <ele>786.59997558594</ele>
        <time>2024-01-30T10:12:02.000Z</time>
      </trkpt>
      <trkpt lat="44.47492" lon="3.45108">
        <ele>784.40002441406</ele>
        <time>2024-01-30T10:12:03.000Z</time>
      </trkpt>
      <trkpt lat="44.47507" lon="3.45097">
        <ele>782.20001220703</ele>
        <time>2024-01-30T10:12:04.000Z</time>
      </trkpt>
      <trkpt lat="44.47525" lon="3.45084">
        <ele>780.20001220703</ele>
        <time>2024-01-30T10:12:05.000Z</time>
      </trkpt>
      <trkpt lat="44.47547" lon="3.4507">
        <ele>778.40002441406</ele>
        <time>2024-01-30T10:12:06.000Z</time>
      </trkpt>
      <trkpt lat="44.47566" lon="3.4506">
        <ele>776.40002441406</ele>
        <time>2024-01-30T10:12:07.000Z</time>
      </trkpt>
      <trkpt lat="44.47585" lon="3.45052">
        <ele>773.59997558594</ele>
        <time>2024-01-30T10:12:08.000Z</time>
      </trkpt>
      <trkpt lat="44.47604" lon="3.45043">
        <ele>771.20001220703</ele>
        <time>2024-01-30T10:12:09.000Z</time>
      </trkpt>
      <trkpt lat="44.47623" lon="3.45035">
        <ele>768.20001220703</ele>
        <time>2024-01-30T10:12:10.000Z</time>
      </trkpt>
      <trkpt lat="44.4764" lon="3.45026">
        <ele>765.59997558594</ele>
        <time>2024-01-30T10:12:11.000Z</time>
      </trkpt>
      <trkpt lat="44.47657" lon="3.45017">
        <ele>763.40002441406</ele>
        <time>2024-01-30T10:12:12.000Z</time>
      </trkpt>
      <trkpt lat="44.47672" lon="3.45007">
        <ele>760.79998779297</ele>
        <time>2024-01-30T10:12:13.000Z</time>
      </trkpt>
      <trkpt lat="44.47685" lon="3.44996">
        <ele>758.59997558594</ele>
        <time>2024-01-30T10:12:14.000Z</time>
      </trkpt>
      <trkpt lat="44.47698" lon="3.44983">
        <ele>757</ele>
        <time>2024-01-30T10:12:15.000Z</time>
      </trkpt>
      <trkpt lat="44.4771" lon="3.4497">
        <ele>755.20001220703</ele>
        <time>2024-01-30T10:12:16.000Z</time>
      </trkpt>
      <trkpt lat="44.47721" lon="3.44954">
        <ele>753.40002441406</ele>
        <time>2024-01-30T10:12:17.000Z</time>
      </trkpt>
      <trkpt lat="44.4773" lon="3.44936">
        <ele>752</ele>
        <time>2024-01-30T10:12:18.000Z</time>
      </trkpt>
      <trkpt lat="44.47744" lon="3.44896">
        <ele>749.20001220703</ele>
        <time>2024-01-30T10:12:20.000Z</time>
      </trkpt>
      <trkpt lat="44.4775" lon="3.44875">
        <ele>748</ele>
        <time>2024-01-30T10:12:21.000Z</time>
      </trkpt>
      <trkpt lat="44.47756" lon="3.44855">
        <ele>746.40002441406</ele>
        <time>2024-01-30T10:12:22.000Z</time>
      </trkpt>
      <trkpt lat="44.4776" lon="3.44835">
        <ele>744.59997558594</ele>
        <time>2024-01-30T10:12:23.000Z</time>
      </trkpt>
      <trkpt lat="44.47765" lon="3.44817">
        <ele>743.20001220703</ele>
        <time>2024-01-30T10:12:24.000Z</time>
      </trkpt>
      <trkpt lat="44.47769" lon="3.448">
        <ele>742</ele>
        <time>2024-01-30T10:12:25.000Z</time>
      </trkpt>
      <trkpt lat="44.47771" lon="3.44787">
        <ele>740.59997558594</ele>
        <time>2024-01-30T10:12:26.000Z</time>
      </trkpt>
      <trkpt lat="44.47773" lon="3.44773">
        <ele>739.40002441406</ele>
        <time>2024-01-30T10:12:27.000Z</time>
      </trkpt>
      <trkpt lat="44.47774" lon="3.4475">
        <ele>737</ele>
        <time>2024-01-30T10:12:29.000Z</time>
      </trkpt>
      <trkpt lat="44.47776" lon="3.4474">
        <ele>736.40002441406</ele>
        <time>2024-01-30T10:12:30.000Z</time>
      </trkpt>
      <trkpt lat="44.47777" lon="3.44736">
        <ele>735.79998779297</ele>
        <time>2024-01-30T10:12:31.000Z</time>
      </trkpt>
      <trkpt lat="44.47781" lon="3.44734">
        <ele>735.59997558594</ele>
        <time>2024-01-30T10:12:32.000Z</time>
      </trkpt>
      <trkpt lat="44.47784" lon="3.44734">
        <ele>735.20001220703</ele>
        <time>2024-01-30T10:12:33.000Z</time>
      </trkpt>
      <trkpt lat="44.47787" lon="3.44739">
        <ele>734.79998779297</ele>
        <time>2024-01-30T10:12:34.000Z</time>
      </trkpt>
      <trkpt lat="44.47788" lon="3.44749">
        <ele>734.59997558594</ele>
        <time>2024-01-30T10:12:35.000Z</time>
      </trkpt>
      <trkpt lat="44.47788" lon="3.44775">
        <ele>734.20001220703</ele>
        <time>2024-01-30T10:12:37.000Z</time>
      </trkpt>
      <trkpt lat="44.47789" lon="3.4479">
        <ele>733.20001220703</ele>
        <time>2024-01-30T10:12:38.000Z</time>
      </trkpt>
      <trkpt lat="44.4779" lon="3.44825">
        <ele>732.79998779297</ele>
        <time>2024-01-30T10:12:40.000Z</time>
      </trkpt>
      <trkpt lat="44.4779" lon="3.44844">
        <ele>732.20001220703</ele>
        <time>2024-01-30T10:12:41.000Z</time>
      </trkpt>
      <trkpt lat="44.47788" lon="3.44879">
        <ele>730.20001220703</ele>
        <time>2024-01-30T10:12:43.000Z</time>
      </trkpt>
      <trkpt lat="44.47785" lon="3.44894">
        <ele>729.20001220703</ele>
        <time>2024-01-30T10:12:44.000Z</time>
      </trkpt>
      <trkpt lat="44.4778" lon="3.44907">
        <ele>728.20001220703</ele>
        <time>2024-01-30T10:12:45.000Z</time>
      </trkpt>
      <trkpt lat="44.47775" lon="3.44917">
        <ele>727.40002441406</ele>
        <time>2024-01-30T10:12:46.000Z</time>
      </trkpt>
      <trkpt lat="44.4777" lon="3.44927">
        <ele>726.59997558594</ele>
        <time>2024-01-30T10:12:47.000Z</time>
      </trkpt>
      <trkpt lat="44.47767" lon="3.44935">
        <ele>726.20001220703</ele>
        <time>2024-01-30T10:12:48.000Z</time>
      </trkpt>
      <trkpt lat="44.47767" lon="3.44949">
        <ele>725.59997558594</ele>
        <time>2024-01-30T10:12:50.000Z</time>
      </trkpt>
      <trkpt lat="44.47777" lon="3.4495">
        <ele>725.20001220703</ele>
        <time>2024-01-30T10:12:52.000Z</time>
      </trkpt>
      <trkpt lat="44.47781" lon="3.44944">
        <ele>725.20001220703</ele>
        <time>2024-01-30T10:12:53.000Z</time>
      </trkpt>
      <trkpt lat="44.47784" lon="3.44936">
        <ele>725</ele>
        <time>2024-01-30T10:12:54.000Z</time>
      </trkpt>
      <trkpt lat="44.47796" lon="3.44901">
        <ele>724</ele>
        <time>2024-01-30T10:12:57.000Z</time>
      </trkpt>
      <trkpt lat="44.4781" lon="3.44874">
        <ele>723</ele>
        <time>2024-01-30T10:12:59.000Z</time>
      </trkpt>
      <trkpt lat="44.47819" lon="3.4486">
        <ele>722.40002441406</ele>
        <time>2024-01-30T10:13:00.000Z</time>
      </trkpt>
      <trkpt lat="44.47827" lon="3.44845">
        <ele>721.40002441406</ele>
        <time>2024-01-30T10:13:01.000Z</time>
      </trkpt>
      <trkpt lat="44.47842" lon="3.44816">
        <ele>719.59997558594</ele>
        <time>2024-01-30T10:13:03.000Z</time>
      </trkpt>
      <trkpt lat="44.47847" lon="3.44802">
        <ele>718.20001220703</ele>
        <time>2024-01-30T10:13:04.000Z</time>
      </trkpt>
      <trkpt lat="44.47849" lon="3.44787">
        <ele>717</ele>
        <time>2024-01-30T10:13:05.000Z</time>
      </trkpt>
      <trkpt lat="44.47848" lon="3.44762">
        <ele>715.79998779297</ele>
        <time>2024-01-30T10:13:07.000Z</time>
      </trkpt>
      <trkpt lat="44.47847" lon="3.44752">
        <ele>714.79998779297</ele>
        <time>2024-01-30T10:13:08.000Z</time>
      </trkpt>
      <trkpt lat="44.47849" lon="3.44744">
        <ele>714.40002441406</ele>
        <time>2024-01-30T10:13:09.000Z</time>
      </trkpt>
      <trkpt lat="44.47851" lon="3.44739">
        <ele>714</ele>
        <time>2024-01-30T10:13:10.000Z</time>
      </trkpt>
      <trkpt lat="44.47855" lon="3.44738">
        <ele>713.59997558594</ele>
        <time>2024-01-30T10:13:11.000Z</time>
      </trkpt>
      <trkpt lat="44.47859" lon="3.4474">
        <ele>713.40002441406</ele>
        <time>2024-01-30T10:13:12.000Z</time>
      </trkpt>
      <trkpt lat="44.47863" lon="3.44755">
        <ele>712.79998779297</ele>
        <time>2024-01-30T10:13:14.000Z</time>
      </trkpt>
      <trkpt lat="44.47871" lon="3.4479">
        <ele>712.20001220703</ele>
        <time>2024-01-30T10:13:17.000Z</time>
      </trkpt>
      <trkpt lat="44.47876" lon="3.44837">
        <ele>711.20001220703</ele>
        <time>2024-01-30T10:13:20.000Z</time>
      </trkpt>
      <trkpt lat="44.47875" lon="3.44855">
        <ele>710.79998779297</ele>
        <time>2024-01-30T10:13:21.000Z</time>
      </trkpt>
      <trkpt lat="44.47871" lon="3.44871">
        <ele>710.20001220703</ele>
        <time>2024-01-30T10:13:22.000Z</time>
      </trkpt>
      <trkpt lat="44.47865" lon="3.44887">
        <ele>709.79998779297</ele>
        <time>2024-01-30T10:13:23.000Z</time>
      </trkpt>
      <trkpt lat="44.47858" lon="3.44903">
        <ele>709.20001220703</ele>
        <time>2024-01-30T10:13:24.000Z</time>
      </trkpt>
      <trkpt lat="44.47843" lon="3.44934">
        <ele>707.20001220703</ele>
        <time>2024-01-30T10:13:26.000Z</time>
      </trkpt>
      <trkpt lat="44.47833" lon="3.44949">
        <ele>706.59997558594</ele>
        <time>2024-01-30T10:13:27.000Z</time>
      </trkpt>
      <trkpt lat="44.47822" lon="3.44963">
        <ele>705.59997558594</ele>
        <time>2024-01-30T10:13:28.000Z</time>
      </trkpt>
      <trkpt lat="44.47812" lon="3.44973">
        <ele>704.79998779297</ele>
        <time>2024-01-30T10:13:29.000Z</time>
      </trkpt>
      <trkpt lat="44.47798" lon="3.44988">
        <ele>704</ele>
        <time>2024-01-30T10:13:30.000Z</time>
      </trkpt>
      <trkpt lat="44.47783" lon="3.45003">
        <ele>703</ele>
        <time>2024-01-30T10:13:31.000Z</time>
      </trkpt>
      <trkpt lat="44.4776" lon="3.45028">
        <ele>701.40002441406</ele>
        <time>2024-01-30T10:13:33.000Z</time>
      </trkpt>
      <trkpt lat="44.4775" lon="3.45039">
        <ele>699.79998779297</ele>
        <time>2024-01-30T10:13:34.000Z</time>
      </trkpt>
      <trkpt lat="44.47742" lon="3.45048">
        <ele>698.40002441406</ele>
        <time>2024-01-30T10:13:35.000Z</time>
      </trkpt>
      <trkpt lat="44.47735" lon="3.45059">
        <ele>697.20001220703</ele>
        <time>2024-01-30T10:13:36.000Z</time>
      </trkpt>
      <trkpt lat="44.4773" lon="3.45071">
        <ele>696.20001220703</ele>
        <time>2024-01-30T10:13:37.000Z</time>
      </trkpt>
      <trkpt lat="44.47728" lon="3.45084">
        <ele>695.40002441406</ele>
        <time>2024-01-30T10:13:38.000Z</time>
      </trkpt>
      <trkpt lat="44.47729" lon="3.45099">
        <ele>694.79998779297</ele>
        <time>2024-01-30T10:13:39.000Z</time>
      </trkpt>
      <trkpt lat="44.47733" lon="3.45117">
        <ele>694.20001220703</ele>
        <time>2024-01-30T10:13:40.000Z</time>
      </trkpt>
      <trkpt lat="44.47738" lon="3.4513">
        <ele>693.40002441406</ele>
        <time>2024-01-30T10:13:41.000Z</time>
      </trkpt>
      <trkpt lat="44.47746" lon="3.45147">
        <ele>692.79998779297</ele>
        <time>2024-01-30T10:13:42.000Z</time>
      </trkpt>
      <trkpt lat="44.47769" lon="3.4518">
        <ele>691</ele>
        <time>2024-01-30T10:13:44.000Z</time>
      </trkpt>
      <trkpt lat="44.47795" lon="3.45224">
        <ele>689.40002441406</ele>
        <time>2024-01-30T10:13:46.000Z</time>
      </trkpt>
      <trkpt lat="44.47806" lon="3.45242">
        <ele>688.20001220703</ele>
        <time>2024-01-30T10:13:47.000Z</time>
      </trkpt>
      <trkpt lat="44.47818" lon="3.45261">
        <ele>687</ele>
        <time>2024-01-30T10:13:48.000Z</time>
      </trkpt>
      <trkpt lat="44.4783" lon="3.45279">
        <ele>685.59997558594</ele>
        <time>2024-01-30T10:13:49.000Z</time>
      </trkpt>
      <trkpt lat="44.47844" lon="3.45295">
        <ele>685.40002441406</ele>
        <time>2024-01-30T10:13:50.000Z</time>
      </trkpt>
      <trkpt lat="44.47873" lon="3.45323">
        <ele>684.59997558594</ele>
        <time>2024-01-30T10:13:52.000Z</time>
      </trkpt>
      <trkpt lat="44.47896" lon="3.4535">
        <ele>684</ele>
        <time>2024-01-30T10:13:54.000Z</time>
      </trkpt>
      <trkpt lat="44.4792" lon="3.4538">
        <ele>683.40002441406</ele>
        <time>2024-01-30T10:13:56.000Z</time>
      </trkpt>
      <trkpt lat="44.47941" lon="3.4541">
        <ele>683</ele>
        <time>2024-01-30T10:13:58.000Z</time>
      </trkpt>
      <trkpt lat="44.47967" lon="3.45458">
        <ele>682.59997558594</ele>
        <time>2024-01-30T10:14:01.000Z</time>
      </trkpt>
      <trkpt lat="44.47972" lon="3.45475">
        <ele>682.40002441406</ele>
        <time>2024-01-30T10:14:02.000Z</time>
      </trkpt>
      <trkpt lat="44.47977" lon="3.45491">
        <ele>681.59997558594</ele>
        <time>2024-01-30T10:14:03.000Z</time>
      </trkpt>
      <trkpt lat="44.47979" lon="3.45505">
        <ele>681.40002441406</ele>
        <time>2024-01-30T10:14:04.000Z</time>
      </trkpt>
      <trkpt lat="44.4798" lon="3.4552">
        <ele>681</ele>
        <time>2024-01-30T10:14:05.000Z</time>
      </trkpt>
      <trkpt lat="44.47975" lon="3.45545">
        <ele>680.79998779297</ele>
        <time>2024-01-30T10:14:07.000Z</time>
      </trkpt>
      <trkpt lat="44.4797" lon="3.45567">
        <ele>680.40002441406</ele>
        <time>2024-01-30T10:14:09.000Z</time>
      </trkpt>
      <trkpt lat="44.47971" lon="3.45576">
        <ele>680.40002441406</ele>
        <time>2024-01-30T10:14:10.000Z</time>
      </trkpt>
      <trkpt lat="44.47977" lon="3.45583">
        <ele>680.40002441406</ele>
        <time>2024-01-30T10:14:11.000Z</time>
      </trkpt>
      <trkpt lat="44.47983" lon="3.45588">
        <ele>680.59997558594</ele>
        <time>2024-01-30T10:14:12.000Z</time>
      </trkpt>
      <trkpt lat="44.48014" lon="3.4561">
        <ele>681</ele>
        <time>2024-01-30T10:14:16.000Z</time>
      </trkpt>
      <trkpt lat="44.48019" lon="3.45616">
        <ele>681.20001220703</ele>
        <time>2024-01-30T10:14:17.000Z</time>
      </trkpt>
      <trkpt lat="44.48023" lon="3.45623">
        <ele>681.40002441406</ele>
        <time>2024-01-30T10:14:18.000Z</time>
      </trkpt>
      <trkpt lat="44.48025" lon="3.4563">
        <ele>681.79998779297</ele>
        <time>2024-01-30T10:14:19.000Z</time>
      </trkpt>
      <trkpt lat="44.48026" lon="3.45637">
        <ele>682.20001220703</ele>
        <time>2024-01-30T10:14:20.000Z</time>
      </trkpt>
      <trkpt lat="44.48027" lon="3.45646">
        <ele>682.59997558594</ele>
        <time>2024-01-30T10:14:22.000Z</time>
      </trkpt>
      <trkpt lat="44.48028" lon="3.45651">
        <ele>683</ele>
        <time>2024-01-30T10:14:26.000Z</time>
      </trkpt>
      <trkpt lat="44.48036" lon="3.45656">
        <ele>683.20001220703</ele>
        <time>2024-01-30T10:14:29.000Z</time>
      </trkpt>
      <trkpt lat="44.4805" lon="3.45649">
        <ele>683.40002441406</ele>
        <time>2024-01-30T10:14:32.000Z</time>
      </trkpt>
      <trkpt lat="44.48056" lon="3.45648">
        <ele>683.40002441406</ele>
        <time>2024-01-30T10:14:33.000Z</time>
      </trkpt>
      <trkpt lat="44.4807" lon="3.45647">
        <ele>684</ele>
        <time>2024-01-30T10:14:35.000Z</time>
      </trkpt>
      <trkpt lat="44.48077" lon="3.45649">
        <ele>684.20001220703</ele>
        <time>2024-01-30T10:14:36.000Z</time>
      </trkpt>
      <trkpt lat="44.48086" lon="3.45652">
        <ele>684.79998779297</ele>
        <time>2024-01-30T10:14:37.000Z</time>
      </trkpt>
      <trkpt lat="44.48123" lon="3.45664">
        <ele>685</ele>
        <time>2024-01-30T10:14:41.000Z</time>
      </trkpt>
      <trkpt lat="44.48164" lon="3.45679">
        <ele>685.79998779297</ele>
        <time>2024-01-30T10:14:46.000Z</time>
      </trkpt>
      <trkpt lat="44.48171" lon="3.45681">
        <ele>685.79998779297</ele>
        <time>2024-01-30T10:14:47.000Z</time>
      </trkpt>
      <trkpt lat="44.48181" lon="3.45685">
        <ele>686.59997558594</ele>
        <time>2024-01-30T10:14:49.000Z</time>
      </trkpt>
      <trkpt lat="44.48185" lon="3.45687">
        <ele>686.79998779297</ele>
        <time>2024-01-30T10:14:50.000Z</time>
      </trkpt>
      <trkpt lat="44.48189" lon="3.4569">
        <ele>687.20001220703</ele>
        <time>2024-01-30T10:14:51.000Z</time>
      </trkpt>
      <trkpt lat="44.48202" lon="3.45705">
        <ele>688.20001220703</ele>
        <time>2024-01-30T10:14:55.000Z</time>
      </trkpt>
      <trkpt lat="44.48205" lon="3.4571">
        <ele>688.59997558594</ele>
        <time>2024-01-30T10:14:56.000Z</time>
      </trkpt>
      <trkpt lat="44.4821" lon="3.45721">
        <ele>689</ele>
        <time>2024-01-30T10:14:58.000Z</time>
      </trkpt>
      <trkpt lat="44.48213" lon="3.45732">
        <ele>689.20001220703</ele>
        <time>2024-01-30T10:15:00.000Z</time>
      </trkpt>
      <trkpt lat="44.48216" lon="3.45743">
        <ele>689.59997558594</ele>
        <time>2024-01-30T10:15:03.000Z</time>
      </trkpt>
      <trkpt lat="44.48216" lon="3.45744">
        <ele>689.59997558594</ele>
        <time>2024-01-30T10:15:04.000Z</time>
      </trkpt>
      <trkpt lat="44.48217" lon="3.45744">
        <ele>690.20001220703</ele>
        <time>2024-01-30T10:15:10.000Z</time>
      </trkpt>
      <trkpt lat="44.48217" lon="3.45744">
        <ele>690.40002441406</ele>
        <time>2024-01-30T10:15:32.000Z</time>
      </trkpt>
      <trkpt lat="44.48217" lon="3.45744">
        <ele>690.40002441406</ele>
        <time>2024-01-30T10:15:57.000Z</time>
      </trkpt>
      <trkpt lat="44.48217" lon="3.45744">
        <ele>690.59997558594</ele>
        <time>2024-01-30T10:16:18.000Z</time>
      </trkpt>
      <trkpt lat="44.48217" lon="3.45744">
        <ele>690.59997558594</ele>
        <time>2024-01-30T10:16:20.000Z</time>
      </trkpt>
      <trkpt lat="44.48217" lon="3.45744">
        <ele>690.79998779297</ele>
        <time>2024-01-30T10:16:31.000Z</time>
      </trkpt>
      <trkpt lat="44.48217" lon="3.45744">
        <ele>690.79998779297</ele>
        <time>2024-01-30T10:16:52.000Z</time>
      </trkpt>
      <trkpt lat="44.48218" lon="3.45746">
        <ele>691</ele>
        <time>2024-01-30T10:17:02.000Z</time>
      </trkpt>
      <trkpt lat="44.4822" lon="3.45752">
        <ele>691.20001220703</ele>
        <time>2024-01-30T10:17:04.000Z</time>
      </trkpt>
      <trkpt lat="44.48226" lon="3.45768">
        <ele>692</ele>
        <time>2024-01-30T10:17:07.000Z</time>
      </trkpt>
      <trkpt lat="44.48227" lon="3.45771">
        <ele>692</ele>
        <time>2024-01-30T10:17:08.000Z</time>
      </trkpt>
      <trkpt lat="44.48231" lon="3.45775">
        <ele>692.40002441406</ele>
        <time>2024-01-30T10:17:09.000Z</time>
      </trkpt>
      <trkpt lat="44.48239" lon="3.45779">
        <ele>692.79998779297</ele>
        <time>2024-01-30T10:17:11.000Z</time>
      </trkpt>
      <trkpt lat="44.48244" lon="3.45779">
        <ele>693.20001220703</ele>
        <time>2024-01-30T10:17:12.000Z</time>
      </trkpt>
      <trkpt lat="44.48248" lon="3.45778">
        <ele>693.40002441406</ele>
        <time>2024-01-30T10:17:13.000Z</time>
      </trkpt>
      <trkpt lat="44.48259" lon="3.45774">
        <ele>694</ele>
        <time>2024-01-30T10:17:15.000Z</time>
      </trkpt>
      <trkpt lat="44.48265" lon="3.45775">
        <ele>694.20001220703</ele>
        <time>2024-01-30T10:17:16.000Z</time>
      </trkpt>
      <trkpt lat="44.48271" lon="3.45776">
        <ele>694.40002441406</ele>
        <time>2024-01-30T10:17:17.000Z</time>
      </trkpt>
      <trkpt lat="44.48286" lon="3.45779">
        <ele>694.79998779297</ele>
        <time>2024-01-30T10:17:19.000Z</time>
      </trkpt>
      <trkpt lat="44.48295" lon="3.45778">
        <ele>694.79998779297</ele>
        <time>2024-01-30T10:17:20.000Z</time>
      </trkpt>
      <trkpt lat="44.48304" lon="3.45775">
        <ele>695.20001220703</ele>
        <time>2024-01-30T10:17:21.000Z</time>
      </trkpt>
      <trkpt lat="44.48313" lon="3.4577">
        <ele>695.59997558594</ele>
        <time>2024-01-30T10:17:22.000Z</time>
      </trkpt>
      <trkpt lat="44.48322" lon="3.45763">
        <ele>696.20001220703</ele>
        <time>2024-01-30T10:17:23.000Z</time>
      </trkpt>
      <trkpt lat="44.4833" lon="3.45756">
        <ele>696.79998779297</ele>
        <time>2024-01-30T10:17:24.000Z</time>
      </trkpt>
      <trkpt lat="44.48338" lon="3.4575">
        <ele>697.40002441406</ele>
        <time>2024-01-30T10:17:25.000Z</time>
      </trkpt>
      <trkpt lat="44.48348" lon="3.45746">
        <ele>698.20001220703</ele>
        <time>2024-01-30T10:17:26.000Z</time>
      </trkpt>
      <trkpt lat="44.48358" lon="3.45745">
        <ele>699.20001220703</ele>
        <time>2024-01-30T10:17:27.000Z</time>
      </trkpt>
      <trkpt lat="44.48369" lon="3.45747">
        <ele>699.79998779297</ele>
        <time>2024-01-30T10:17:28.000Z</time>
      </trkpt>
      <trkpt lat="44.48394" lon="3.45755">
        <ele>701.20001220703</ele>
        <time>2024-01-30T10:17:30.000Z</time>
      </trkpt>
      <trkpt lat="44.48424" lon="3.45764">
        <ele>702.40002441406</ele>
        <time>2024-01-30T10:17:32.000Z</time>
      </trkpt>
      <trkpt lat="44.4845" lon="3.45773">
        <ele>703.79998779297</ele>
        <time>2024-01-30T10:17:34.000Z</time>
      </trkpt>
      <trkpt lat="44.48481" lon="3.45784">
        <ele>705.40002441406</ele>
        <time>2024-01-30T10:17:36.000Z</time>
      </trkpt>
      <trkpt lat="44.48511" lon="3.45796">
        <ele>706.40002441406</ele>
        <time>2024-01-30T10:17:38.000Z</time>
      </trkpt>
      <trkpt lat="44.4853" lon="3.45806">
        <ele>707.40002441406</ele>
        <time>2024-01-30T10:17:39.000Z</time>
      </trkpt>
      <trkpt lat="44.48544" lon="3.45816">
        <ele>707.79998779297</ele>
        <time>2024-01-30T10:17:40.000Z</time>
      </trkpt>
      <trkpt lat="44.48569" lon="3.45837">
        <ele>709.20001220703</ele>
        <time>2024-01-30T10:17:42.000Z</time>
      </trkpt>
      <trkpt lat="44.48597" lon="3.4587">
        <ele>710.20001220703</ele>
        <time>2024-01-30T10:17:44.000Z</time>
      </trkpt>
      <trkpt lat="44.48608" lon="3.45886">
        <ele>712</ele>
        <time>2024-01-30T10:17:45.000Z</time>
      </trkpt>
      <trkpt lat="44.48619" lon="3.45902">
        <ele>712.20001220703</ele>
        <time>2024-01-30T10:17:46.000Z</time>
      </trkpt>
      <trkpt lat="44.4863" lon="3.45916">
        <ele>713.20001220703</ele>
        <time>2024-01-30T10:17:47.000Z</time>
      </trkpt>
      <trkpt lat="44.4865" lon="3.45939">
        <ele>714.79998779297</ele>
        <time>2024-01-30T10:17:49.000Z</time>
      </trkpt>
      <trkpt lat="44.48666" lon="3.45949">
        <ele>715.40002441406</ele>
        <time>2024-01-30T10:17:50.000Z</time>
      </trkpt>
      <trkpt lat="44.48677" lon="3.45954">
        <ele>716.40002441406</ele>
        <time>2024-01-30T10:17:51.000Z</time>
      </trkpt>
      <trkpt lat="44.48708" lon="3.45962">
        <ele>717.59997558594</ele>
        <time>2024-01-30T10:17:53.000Z</time>
      </trkpt>
      <trkpt lat="44.48744" lon="3.45962">
        <ele>718.59997558594</ele>
        <time>2024-01-30T10:17:55.000Z</time>
      </trkpt>
      <trkpt lat="44.48757" lon="3.4596">
        <ele>718.79998779297</ele>
        <time>2024-01-30T10:17:56.000Z</time>
      </trkpt>
      <trkpt lat="44.48812" lon="3.45949">
        <ele>719.79998779297</ele>
        <time>2024-01-30T10:17:59.000Z</time>
      </trkpt>
      <trkpt lat="44.48846" lon="3.45939">
        <ele>719.79998779297</ele>
        <time>2024-01-30T10:18:01.000Z</time>
      </trkpt>
      <trkpt lat="44.48896" lon="3.4591">
        <ele>719.40002441406</ele>
        <time>2024-01-30T10:18:04.000Z</time>
      </trkpt>
      <trkpt lat="44.4896" lon="3.4585">
        <ele>717.59997558594</ele>
        <time>2024-01-30T10:18:08.000Z</time>
      </trkpt>
      <trkpt lat="44.48992" lon="3.45826">
        <ele>716.40002441406</ele>
        <time>2024-01-30T10:18:10.000Z</time>
      </trkpt>
      <trkpt lat="44.49011" lon="3.45814">
        <ele>716</ele>
        <time>2024-01-30T10:18:11.000Z</time>
      </trkpt>
      <trkpt lat="44.4905" lon="3.45795">
        <ele>715</ele>
        <time>2024-01-30T10:18:13.000Z</time>
      </trkpt>
      <trkpt lat="44.49069" lon="3.45787">
        <ele>715</ele>
        <time>2024-01-30T10:18:14.000Z</time>
      </trkpt>
      <trkpt lat="44.49132" lon="3.45767">
        <ele>714</ele>
        <time>2024-01-30T10:18:17.000Z</time>
      </trkpt>
      <trkpt lat="44.49188" lon="3.4575">
        <ele>712.79998779297</ele>
        <time>2024-01-30T10:18:20.000Z</time>
      </trkpt>
      <trkpt lat="44.49208" lon="3.45744">
        <ele>712.59997558594</ele>
        <time>2024-01-30T10:18:21.000Z</time>
      </trkpt>
      <trkpt lat="44.49268" lon="3.45729">
        <ele>711.40002441406</ele>
        <time>2024-01-30T10:18:24.000Z</time>
      </trkpt>
      <trkpt lat="44.49292" lon="3.45726">
        <ele>710.40002441406</ele>
        <time>2024-01-30T10:18:25.000Z</time>
      </trkpt>
      <trkpt lat="44.49308" lon="3.45726">
        <ele>710</ele>
        <time>2024-01-30T10:18:26.000Z</time>
      </trkpt>
      <trkpt lat="44.49332" lon="3.45727">
        <ele>709.40002441406</ele>
        <time>2024-01-30T10:18:27.000Z</time>
      </trkpt>
      <trkpt lat="44.49352" lon="3.45731">
        <ele>709.20001220703</ele>
        <time>2024-01-30T10:18:28.000Z</time>
      </trkpt>
      <trkpt lat="44.49372" lon="3.45736">
        <ele>708.79998779297</ele>
        <time>2024-01-30T10:18:29.000Z</time>
      </trkpt>
      <trkpt lat="44.4941" lon="3.45753">
        <ele>708</ele>
        <time>2024-01-30T10:18:31.000Z</time>
      </trkpt>
      <trkpt lat="44.49446" lon="3.45771">
        <ele>707.40002441406</ele>
        <time>2024-01-30T10:18:33.000Z</time>
      </trkpt>
      <trkpt lat="44.49497" lon="3.45799">
        <ele>706.79998779297</ele>
        <time>2024-01-30T10:18:36.000Z</time>
      </trkpt>
      <trkpt lat="44.49528" lon="3.45823">
        <ele>706.40002441406</ele>
        <time>2024-01-30T10:18:38.000Z</time>
      </trkpt>
      <trkpt lat="44.49541" lon="3.45837">
        <ele>706.20001220703</ele>
        <time>2024-01-30T10:18:39.000Z</time>
      </trkpt>
      <trkpt lat="44.49552" lon="3.45852">
        <ele>706.20001220703</ele>
        <time>2024-01-30T10:18:40.000Z</time>
      </trkpt>
      <trkpt lat="44.49568" lon="3.45885">
        <ele>706</ele>
        <time>2024-01-30T10:18:42.000Z</time>
      </trkpt>
      <trkpt lat="44.49579" lon="3.45927">
        <ele>705.79998779297</ele>
        <time>2024-01-30T10:18:44.000Z</time>
      </trkpt>
      <trkpt lat="44.49581" lon="3.45949">
        <ele>705.79998779297</ele>
        <time>2024-01-30T10:18:45.000Z</time>
      </trkpt>
      <trkpt lat="44.49583" lon="3.45976">
        <ele>705.79998779297</ele>
        <time>2024-01-30T10:18:46.000Z</time>
      </trkpt>
      <trkpt lat="44.49581" lon="3.45994">
        <ele>705.79998779297</ele>
        <time>2024-01-30T10:18:47.000Z</time>
      </trkpt>
      <trkpt lat="44.49574" lon="3.4604">
        <ele>705.79998779297</ele>
        <time>2024-01-30T10:18:49.000Z</time>
      </trkpt>
      <trkpt lat="44.49568" lon="3.46056">
        <ele>705.79998779297</ele>
        <time>2024-01-30T10:18:50.000Z</time>
      </trkpt>
      <trkpt lat="44.49558" lon="3.46078">
        <ele>705.79998779297</ele>
        <time>2024-01-30T10:18:51.000Z</time>
      </trkpt>
      <trkpt lat="44.4954" lon="3.46114">
        <ele>706</ele>
        <time>2024-01-30T10:18:53.000Z</time>
      </trkpt>
      <trkpt lat="44.49519" lon="3.46179">
        <ele>706.20001220703</ele>
        <time>2024-01-30T10:18:56.000Z</time>
      </trkpt>
      <trkpt lat="44.49517" lon="3.46221">
        <ele>706</ele>
        <time>2024-01-30T10:18:58.000Z</time>
      </trkpt>
      <trkpt lat="44.49526" lon="3.46257">
        <ele>705.79998779297</ele>
        <time>2024-01-30T10:19:00.000Z</time>
      </trkpt>
      <trkpt lat="44.49544" lon="3.4629">
        <ele>705.40002441406</ele>
        <time>2024-01-30T10:19:02.000Z</time>
      </trkpt>
      <trkpt lat="44.49556" lon="3.46303">
        <ele>705.20001220703</ele>
        <time>2024-01-30T10:19:03.000Z</time>
      </trkpt>
      <trkpt lat="44.4957" lon="3.46313">
        <ele>704.79998779297</ele>
        <time>2024-01-30T10:19:04.000Z</time>
      </trkpt>
      <trkpt lat="44.49585" lon="3.46321">
        <ele>704.59997558594</ele>
        <time>2024-01-30T10:19:05.000Z</time>
      </trkpt>
      <trkpt lat="44.4962" lon="3.4633">
        <ele>704.20001220703</ele>
        <time>2024-01-30T10:19:07.000Z</time>
      </trkpt>
      <trkpt lat="44.49633" lon="3.46328">
        <ele>703.79998779297</ele>
        <time>2024-01-30T10:19:08.000Z</time>
      </trkpt>
      <trkpt lat="44.49651" lon="3.46323">
        <ele>703.40002441406</ele>
        <time>2024-01-30T10:19:09.000Z</time>
      </trkpt>
      <trkpt lat="44.49671" lon="3.46314">
        <ele>702.79998779297</ele>
        <time>2024-01-30T10:19:10.000Z</time>
      </trkpt>
      <trkpt lat="44.49728" lon="3.46286">
        <ele>702.40002441406</ele>
        <time>2024-01-30T10:19:13.000Z</time>
      </trkpt>
      <trkpt lat="44.49748" lon="3.46277">
        <ele>702.20001220703</ele>
        <time>2024-01-30T10:19:14.000Z</time>
      </trkpt>
      <trkpt lat="44.49805" lon="3.46258">
        <ele>702.20001220703</ele>
        <time>2024-01-30T10:19:17.000Z</time>
      </trkpt>
      <trkpt lat="44.49871" lon="3.4625">
        <ele>702</ele>
        <time>2024-01-30T10:19:20.000Z</time>
      </trkpt>
      <trkpt lat="44.49892" lon="3.46249">
        <ele>701.79998779297</ele>
        <time>2024-01-30T10:19:21.000Z</time>
      </trkpt>
      <trkpt lat="44.49957" lon="3.46255">
        <ele>701.79998779297</ele>
        <time>2024-01-30T10:19:24.000Z</time>
      </trkpt>
      <trkpt lat="44.49979" lon="3.46257">
        <ele>701.79998779297</ele>
        <time>2024-01-30T10:19:25.000Z</time>
      </trkpt>
      <trkpt lat="44.50043" lon="3.46266">
        <ele>701.40002441406</ele>
        <time>2024-01-30T10:19:28.000Z</time>
      </trkpt>
      <trkpt lat="44.50102" lon="3.46275">
        <ele>701</ele>
        <time>2024-01-30T10:19:31.000Z</time>
      </trkpt>
      <trkpt lat="44.50121" lon="3.46278">
        <ele>700.59997558594</ele>
        <time>2024-01-30T10:19:32.000Z</time>
      </trkpt>
      <trkpt lat="44.50181" lon="3.46282">
        <ele>700.40002441406</ele>
        <time>2024-01-30T10:19:35.000Z</time>
      </trkpt>
      <trkpt lat="44.50198" lon="3.46281">
        <ele>700.20001220703</ele>
        <time>2024-01-30T10:19:36.000Z</time>
      </trkpt>
      <trkpt lat="44.50231" lon="3.4627">
        <ele>700.20001220703</ele>
        <time>2024-01-30T10:19:38.000Z</time>
      </trkpt>
      <trkpt lat="44.50244" lon="3.46263">
        <ele>700.20001220703</ele>
        <time>2024-01-30T10:19:39.000Z</time>
      </trkpt>
      <trkpt lat="44.50259" lon="3.46253">
        <ele>700.59997558594</ele>
        <time>2024-01-30T10:19:40.000Z</time>
      </trkpt>
      <trkpt lat="44.50287" lon="3.46225">
        <ele>701.59997558594</ele>
        <time>2024-01-30T10:19:42.000Z</time>
      </trkpt>
      <trkpt lat="44.50299" lon="3.46208">
        <ele>702.40002441406</ele>
        <time>2024-01-30T10:19:43.000Z</time>
      </trkpt>
      <trkpt lat="44.50309" lon="3.46189">
        <ele>702.79998779297</ele>
        <time>2024-01-30T10:19:44.000Z</time>
      </trkpt>
      <trkpt lat="44.50319" lon="3.46171">
        <ele>703.40002441406</ele>
        <time>2024-01-30T10:19:45.000Z</time>
      </trkpt>
      <trkpt lat="44.50328" lon="3.46152">
        <ele>703.79998779297</ele>
        <time>2024-01-30T10:19:46.000Z</time>
      </trkpt>
      <trkpt lat="44.50361" lon="3.46079">
        <ele>704.79998779297</ele>
        <time>2024-01-30T10:19:50.000Z</time>
      </trkpt>
      <trkpt lat="44.50371" lon="3.46063">
        <ele>705</ele>
        <time>2024-01-30T10:19:51.000Z</time>
      </trkpt>
      <trkpt lat="44.50392" lon="3.46034">
        <ele>705.20001220703</ele>
        <time>2024-01-30T10:19:53.000Z</time>
      </trkpt>
      <trkpt lat="44.50428" lon="3.46">
        <ele>705.20001220703</ele>
        <time>2024-01-30T10:19:56.000Z</time>
      </trkpt>
      <trkpt lat="44.50441" lon="3.45992">
        <ele>705</ele>
        <time>2024-01-30T10:19:57.000Z</time>
      </trkpt>
      <trkpt lat="44.50457" lon="3.45985">
        <ele>705</ele>
        <time>2024-01-30T10:19:58.000Z</time>
      </trkpt>
      <trkpt lat="44.50482" lon="3.45981">
        <ele>704.59997558594</ele>
        <time>2024-01-30T10:20:00.000Z</time>
      </trkpt>
      <trkpt lat="44.50513" lon="3.45987">
        <ele>704.20001220703</ele>
        <time>2024-01-30T10:20:02.000Z</time>
      </trkpt>
      <trkpt lat="44.50541" lon="3.46004">
        <ele>703.79998779297</ele>
        <time>2024-01-30T10:20:04.000Z</time>
      </trkpt>
      <trkpt lat="44.50551" lon="3.46012">
        <ele>703.59997558594</ele>
        <time>2024-01-30T10:20:05.000Z</time>
      </trkpt>
      <trkpt lat="44.50602" lon="3.46063">
        <ele>704</ele>
        <time>2024-01-30T10:20:09.000Z</time>
      </trkpt>
      <trkpt lat="44.50658" lon="3.46122">
        <ele>704</ele>
        <time>2024-01-30T10:20:13.000Z</time>
      </trkpt>
      <trkpt lat="44.50681" lon="3.46148">
        <ele>704</ele>
        <time>2024-01-30T10:20:15.000Z</time>
      </trkpt>
      <trkpt lat="44.50714" lon="3.46199">
        <ele>704.20001220703</ele>
        <time>2024-01-30T10:20:18.000Z</time>
      </trkpt>
      <trkpt lat="44.5075" lon="3.46279">
        <ele>704.40002441406</ele>
        <time>2024-01-30T10:20:22.000Z</time>
      </trkpt>
      <trkpt lat="44.5076" lon="3.46299">
        <ele>704.79998779297</ele>
        <time>2024-01-30T10:20:23.000Z</time>
      </trkpt>
      <trkpt lat="44.5079" lon="3.46363">
        <ele>706.20001220703</ele>
        <time>2024-01-30T10:20:26.000Z</time>
      </trkpt>
      <trkpt lat="44.50824" lon="3.46423">
        <ele>707.59997558594</ele>
        <time>2024-01-30T10:20:29.000Z</time>
      </trkpt>
      <trkpt lat="44.50846" lon="3.46465">
        <ele>708.79998779297</ele>
        <time>2024-01-30T10:20:31.000Z</time>
      </trkpt>
      <trkpt lat="44.50858" lon="3.46484">
        <ele>709.20001220703</ele>
        <time>2024-01-30T10:20:32.000Z</time>
      </trkpt>
      <trkpt lat="44.50882" lon="3.46524">
        <ele>711</ele>
        <time>2024-01-30T10:20:34.000Z</time>
      </trkpt>
      <trkpt lat="44.50894" lon="3.46545">
        <ele>711.40002441406</ele>
        <time>2024-01-30T10:20:35.000Z</time>
      </trkpt>
      <trkpt lat="44.50916" lon="3.46586">
        <ele>712.40002441406</ele>
        <time>2024-01-30T10:20:37.000Z</time>
      </trkpt>
      <trkpt lat="44.50938" lon="3.46628">
        <ele>713.40002441406</ele>
        <time>2024-01-30T10:20:39.000Z</time>
      </trkpt>
      <trkpt lat="44.50959" lon="3.46669">
        <ele>714.59997558594</ele>
        <time>2024-01-30T10:20:41.000Z</time>
      </trkpt>
      <trkpt lat="44.5098" lon="3.46708">
        <ele>715.79998779297</ele>
        <time>2024-01-30T10:20:43.000Z</time>
      </trkpt>
      <trkpt lat="44.51" lon="3.46748">
        <ele>716.59997558594</ele>
        <time>2024-01-30T10:20:45.000Z</time>
      </trkpt>
      <trkpt lat="44.5101" lon="3.46768">
        <ele>717</ele>
        <time>2024-01-30T10:20:46.000Z</time>
      </trkpt>
      <trkpt lat="44.51038" lon="3.46827">
        <ele>718</ele>
        <time>2024-01-30T10:20:49.000Z</time>
      </trkpt>
      <trkpt lat="44.51056" lon="3.46866">
        <ele>718.79998779297</ele>
        <time>2024-01-30T10:20:51.000Z</time>
      </trkpt>
      <trkpt lat="44.51064" lon="3.46885">
        <ele>719.20001220703</ele>
        <time>2024-01-30T10:20:52.000Z</time>
      </trkpt>
      <trkpt lat="44.51094" lon="3.4696">
        <ele>720.40002441406</ele>
        <time>2024-01-30T10:20:56.000Z</time>
      </trkpt>
      <trkpt lat="44.51101" lon="3.46977">
        <ele>720.79998779297</ele>
        <time>2024-01-30T10:20:57.000Z</time>
      </trkpt>
      <trkpt lat="44.51128" lon="3.47037">
        <ele>721.79998779297</ele>
        <time>2024-01-30T10:21:01.000Z</time>
      </trkpt>
      <trkpt lat="44.51134" lon="3.47051">
        <ele>722</ele>
        <time>2024-01-30T10:21:02.000Z</time>
      </trkpt>
      <trkpt lat="44.51141" lon="3.47062">
        <ele>722.40002441406</ele>
        <time>2024-01-30T10:21:03.000Z</time>
      </trkpt>
      <trkpt lat="44.51156" lon="3.47083">
        <ele>722.59997558594</ele>
        <time>2024-01-30T10:21:05.000Z</time>
      </trkpt>
      <trkpt lat="44.51167" lon="3.47099">
        <ele>722.79998779297</ele>
        <time>2024-01-30T10:21:07.000Z</time>
      </trkpt>
      <trkpt lat="44.51172" lon="3.47108">
        <ele>722.79998779297</ele>
        <time>2024-01-30T10:21:08.000Z</time>
      </trkpt>
      <trkpt lat="44.51177" lon="3.47125">
        <ele>723</ele>
        <time>2024-01-30T10:21:10.000Z</time>
      </trkpt>
      <trkpt lat="44.51179" lon="3.47134">
        <ele>723.20001220703</ele>
        <time>2024-01-30T10:21:11.000Z</time>
      </trkpt>
      <trkpt lat="44.51181" lon="3.47144">
        <ele>723.59997558594</ele>
        <time>2024-01-30T10:21:12.000Z</time>
      </trkpt>
      <trkpt lat="44.51184" lon="3.47153">
        <ele>723.79998779297</ele>
        <time>2024-01-30T10:21:13.000Z</time>
      </trkpt>
      <trkpt lat="44.51187" lon="3.47163">
        <ele>724</ele>
        <time>2024-01-30T10:21:14.000Z</time>
      </trkpt>
      <trkpt lat="44.51193" lon="3.47202">
        <ele>724.79998779297</ele>
        <time>2024-01-30T10:21:17.000Z</time>
      </trkpt>
      <trkpt lat="44.51197" lon="3.47217">
        <ele>724.79998779297</ele>
        <time>2024-01-30T10:21:18.000Z</time>
      </trkpt>
      <trkpt lat="44.51219" lon="3.4728">
        <ele>726.20001220703</ele>
        <time>2024-01-30T10:21:22.000Z</time>
      </trkpt>
      <trkpt lat="44.51246" lon="3.47352">
        <ele>727.20001220703</ele>
        <time>2024-01-30T10:21:26.000Z</time>
      </trkpt>
      <trkpt lat="44.51253" lon="3.4737">
        <ele>727.40002441406</ele>
        <time>2024-01-30T10:21:27.000Z</time>
      </trkpt>
      <trkpt lat="44.51283" lon="3.47444">
        <ele>728.79998779297</ele>
        <time>2024-01-30T10:21:31.000Z</time>
      </trkpt>
      <trkpt lat="44.51312" lon="3.47521">
        <ele>730</ele>
        <time>2024-01-30T10:21:35.000Z</time>
      </trkpt>
      <trkpt lat="44.51339" lon="3.47598">
        <ele>731</ele>
        <time>2024-01-30T10:21:39.000Z</time>
      </trkpt>
      <trkpt lat="44.51346" lon="3.47617">
        <ele>731.40002441406</ele>
        <time>2024-01-30T10:21:40.000Z</time>
      </trkpt>
      <trkpt lat="44.51374" lon="3.47694">
        <ele>732.20001220703</ele>
        <time>2024-01-30T10:21:44.000Z</time>
      </trkpt>
      <trkpt lat="44.51388" lon="3.47734">
        <ele>732.40002441406</ele>
        <time>2024-01-30T10:21:46.000Z</time>
      </trkpt>
      <trkpt lat="44.51414" lon="3.47815">
        <ele>732.59997558594</ele>
        <time>2024-01-30T10:21:50.000Z</time>
      </trkpt>
      <trkpt lat="44.51422" lon="3.47836">
        <ele>732.59997558594</ele>
        <time>2024-01-30T10:21:51.000Z</time>
      </trkpt>
      <trkpt lat="44.51452" lon="3.47924">
        <ele>732.40002441406</ele>
        <time>2024-01-30T10:21:55.000Z</time>
      </trkpt>
      <trkpt lat="44.51467" lon="3.47968">
        <ele>732</ele>
        <time>2024-01-30T10:21:57.000Z</time>
      </trkpt>
      <trkpt lat="44.5149" lon="3.48033">
        <ele>731.40002441406</ele>
        <time>2024-01-30T10:22:00.000Z</time>
      </trkpt>
      <trkpt lat="44.51516" lon="3.48117">
        <ele>730.59997558594</ele>
        <time>2024-01-30T10:22:04.000Z</time>
      </trkpt>
      <trkpt lat="44.51522" lon="3.48137">
        <ele>730.40002441406</ele>
        <time>2024-01-30T10:22:05.000Z</time>
      </trkpt>
      <trkpt lat="44.51544" lon="3.48215">
        <ele>729.59997558594</ele>
        <time>2024-01-30T10:22:09.000Z</time>
      </trkpt>
      <trkpt lat="44.51555" lon="3.48253">
        <ele>729.20001220703</ele>
        <time>2024-01-30T10:22:11.000Z</time>
      </trkpt>
      <trkpt lat="44.51578" lon="3.48325">
        <ele>728.20001220703</ele>
        <time>2024-01-30T10:22:15.000Z</time>
      </trkpt>
      <trkpt lat="44.51584" lon="3.48342">
        <ele>728</ele>
        <time>2024-01-30T10:22:16.000Z</time>
      </trkpt>
      <trkpt lat="44.5159" lon="3.48358">
        <ele>727.59997558594</ele>
        <time>2024-01-30T10:22:17.000Z</time>
      </trkpt>
      <trkpt lat="44.51609" lon="3.48406">
        <ele>726.79998779297</ele>
        <time>2024-01-30T10:22:20.000Z</time>
      </trkpt>
      <trkpt lat="44.51618" lon="3.48438">
        <ele>726</ele>
        <time>2024-01-30T10:22:22.000Z</time>
      </trkpt>
      <trkpt lat="44.51622" lon="3.48454">
        <ele>725.40002441406</ele>
        <time>2024-01-30T10:22:23.000Z</time>
      </trkpt>
      <trkpt lat="44.51625" lon="3.48468">
        <ele>724.20001220703</ele>
        <time>2024-01-30T10:22:24.000Z</time>
      </trkpt>
      <trkpt lat="44.51626" lon="3.4848">
        <ele>723.59997558594</ele>
        <time>2024-01-30T10:22:25.000Z</time>
      </trkpt>
      <trkpt lat="44.51626" lon="3.485">
        <ele>722.40002441406</ele>
        <time>2024-01-30T10:22:27.000Z</time>
      </trkpt>
      <trkpt lat="44.51626" lon="3.48508">
        <ele>722.20001220703</ele>
        <time>2024-01-30T10:22:28.000Z</time>
      </trkpt>
      <trkpt lat="44.51624" lon="3.48515">
        <ele>722</ele>
        <time>2024-01-30T10:22:29.000Z</time>
      </trkpt>
      <trkpt lat="44.51621" lon="3.48522">
        <ele>722</ele>
        <time>2024-01-30T10:22:30.000Z</time>
      </trkpt>
      <trkpt lat="44.51618" lon="3.48528">
        <ele>721.79998779297</ele>
        <time>2024-01-30T10:22:31.000Z</time>
      </trkpt>
      <trkpt lat="44.51615" lon="3.48536">
        <ele>721.79998779297</ele>
        <time>2024-01-30T10:22:32.000Z</time>
      </trkpt>
      <trkpt lat="44.51616" lon="3.48553">
        <ele>721.40002441406</ele>
        <time>2024-01-30T10:22:34.000Z</time>
      </trkpt>
      <trkpt lat="44.51618" lon="3.48562">
        <ele>721.40002441406</ele>
        <time>2024-01-30T10:22:35.000Z</time>
      </trkpt>
      <trkpt lat="44.5162" lon="3.48572">
        <ele>721.20001220703</ele>
        <time>2024-01-30T10:22:36.000Z</time>
      </trkpt>
      <trkpt lat="44.5162" lon="3.48583">
        <ele>721.20001220703</ele>
        <time>2024-01-30T10:22:37.000Z</time>
      </trkpt>
      <trkpt lat="44.51617" lon="3.48635">
        <ele>720.59997558594</ele>
        <time>2024-01-30T10:22:41.000Z</time>
      </trkpt>
      <trkpt lat="44.51616" lon="3.48649">
        <ele>720</ele>
        <time>2024-01-30T10:22:42.000Z</time>
      </trkpt>
      <trkpt lat="44.51612" lon="3.48708">
        <ele>719</ele>
        <time>2024-01-30T10:22:46.000Z</time>
      </trkpt>
      <trkpt lat="44.51611" lon="3.48724">
        <ele>718.40002441406</ele>
        <time>2024-01-30T10:22:47.000Z</time>
      </trkpt>
      <trkpt lat="44.51612" lon="3.48757">
        <ele>717.79998779297</ele>
        <time>2024-01-30T10:22:49.000Z</time>
      </trkpt>
      <trkpt lat="44.51616" lon="3.48804">
        <ele>716.59997558594</ele>
        <time>2024-01-30T10:22:52.000Z</time>
      </trkpt>
      <trkpt lat="44.51626" lon="3.48861">
        <ele>716</ele>
        <time>2024-01-30T10:22:56.000Z</time>
      </trkpt>
      <trkpt lat="44.51643" lon="3.4892">
        <ele>715.59997558594</ele>
        <time>2024-01-30T10:23:01.000Z</time>
      </trkpt>
      <trkpt lat="44.51667" lon="3.48988">
        <ele>716</ele>
        <time>2024-01-30T10:23:07.000Z</time>
      </trkpt>
      <trkpt lat="44.5167" lon="3.48997">
        <ele>716</ele>
        <time>2024-01-30T10:23:08.000Z</time>
      </trkpt>
      <trkpt lat="44.51702" lon="3.49068">
        <ele>715.59997558594</ele>
        <time>2024-01-30T10:23:14.000Z</time>
      </trkpt>
      <trkpt lat="44.51736" lon="3.49118">
        <ele>715.40002441406</ele>
        <time>2024-01-30T10:23:19.000Z</time>
      </trkpt>
      <trkpt lat="44.51761" lon="3.49152">
        <ele>714.40002441406</ele>
        <time>2024-01-30T10:23:24.000Z</time>
      </trkpt>
      <trkpt lat="44.51765" lon="3.49157">
        <ele>714.59997558594</ele>
        <time>2024-01-30T10:23:27.000Z</time>
      </trkpt>
      <trkpt lat="44.51773" lon="3.49162">
        <ele>715</ele>
        <time>2024-01-30T10:23:32.000Z</time>
      </trkpt>
      <trkpt lat="44.51786" lon="3.49174">
        <ele>715.59997558594</ele>
        <time>2024-01-30T10:23:36.000Z</time>
      </trkpt>
      <trkpt lat="44.5179" lon="3.49179">
        <ele>715.79998779297</ele>
        <time>2024-01-30T10:23:37.000Z</time>
      </trkpt>
      <trkpt lat="44.51798" lon="3.49192">
        <ele>716.59997558594</ele>
        <time>2024-01-30T10:23:39.000Z</time>
      </trkpt>
      <trkpt lat="44.51801" lon="3.492">
        <ele>716.59997558594</ele>
        <time>2024-01-30T10:23:40.000Z</time>
      </trkpt>
      <trkpt lat="44.51804" lon="3.4921">
        <ele>716.79998779297</ele>
        <time>2024-01-30T10:23:41.000Z</time>
      </trkpt>
      <trkpt lat="44.51811" lon="3.4925">
        <ele>718</ele>
        <time>2024-01-30T10:23:45.000Z</time>
      </trkpt>
      <trkpt lat="44.51817" lon="3.49274">
        <ele>719</ele>
        <time>2024-01-30T10:23:47.000Z</time>
      </trkpt>
      <trkpt lat="44.51819" lon="3.4929">
        <ele>719.59997558594</ele>
        <time>2024-01-30T10:23:48.000Z</time>
      </trkpt>
      <trkpt lat="44.5182" lon="3.49303">
        <ele>719.79998779297</ele>
        <time>2024-01-30T10:23:49.000Z</time>
      </trkpt>
      <trkpt lat="44.51821" lon="3.49315">
        <ele>720</ele>
        <time>2024-01-30T10:23:50.000Z</time>
      </trkpt>
      <trkpt lat="44.5182" lon="3.49339">
        <ele>720.79998779297</ele>
        <time>2024-01-30T10:23:52.000Z</time>
      </trkpt>
      <trkpt lat="44.51817" lon="3.49372">
        <ele>722</ele>
        <time>2024-01-30T10:23:55.000Z</time>
      </trkpt>
      <trkpt lat="44.51814" lon="3.49407">
        <ele>722.79998779297</ele>
        <time>2024-01-30T10:23:58.000Z</time>
      </trkpt>
      <trkpt lat="44.51814" lon="3.49418">
        <ele>723.20001220703</ele>
        <time>2024-01-30T10:23:59.000Z</time>
      </trkpt>
      <trkpt lat="44.5181" lon="3.4943">
        <ele>723.40002441406</ele>
        <time>2024-01-30T10:24:00.000Z</time>
      </trkpt>
      <trkpt lat="44.51804" lon="3.49462">
        <ele>724.40002441406</ele>
        <time>2024-01-30T10:24:03.000Z</time>
      </trkpt>
      <trkpt lat="44.51803" lon="3.49471">
        <ele>724.59997558594</ele>
        <time>2024-01-30T10:24:04.000Z</time>
      </trkpt>
      <trkpt lat="44.51799" lon="3.49506">
        <ele>725.59997558594</ele>
        <time>2024-01-30T10:24:07.000Z</time>
      </trkpt>
      <trkpt lat="44.51789" lon="3.49548">
        <ele>726.20001220703</ele>
        <time>2024-01-30T10:24:11.000Z</time>
      </trkpt>
      <trkpt lat="44.51779" lon="3.49579">
        <ele>726.79998779297</ele>
        <time>2024-01-30T10:24:14.000Z</time>
      </trkpt>
      <trkpt lat="44.51766" lon="3.4963">
        <ele>727.79998779297</ele>
        <time>2024-01-30T10:24:19.000Z</time>
      </trkpt>
      <trkpt lat="44.51764" lon="3.49639">
        <ele>727.79998779297</ele>
        <time>2024-01-30T10:24:20.000Z</time>
      </trkpt>
      <trkpt lat="44.51762" lon="3.49663">
        <ele>728.40002441406</ele>
        <time>2024-01-30T10:24:23.000Z</time>
      </trkpt>
      <trkpt lat="44.51759" lon="3.49682">
        <ele>729</ele>
        <time>2024-01-30T10:24:25.000Z</time>
      </trkpt>
      <trkpt lat="44.51756" lon="3.4969">
        <ele>729.20001220703</ele>
        <time>2024-01-30T10:24:26.000Z</time>
      </trkpt>
      <trkpt lat="44.51751" lon="3.49696">
        <ele>729.59997558594</ele>
        <time>2024-01-30T10:24:27.000Z</time>
      </trkpt>
      <trkpt lat="44.51747" lon="3.49701">
        <ele>729.79998779297</ele>
        <time>2024-01-30T10:24:28.000Z</time>
      </trkpt>
      <trkpt lat="44.5174" lon="3.49706">
        <ele>730</ele>
        <time>2024-01-30T10:24:29.000Z</time>
      </trkpt>
      <trkpt lat="44.51733" lon="3.49709">
        <ele>730.59997558594</ele>
        <time>2024-01-30T10:24:30.000Z</time>
      </trkpt>
      <trkpt lat="44.51713" lon="3.4972">
        <ele>731.20001220703</ele>
        <time>2024-01-30T10:24:33.000Z</time>
      </trkpt>
      <trkpt lat="44.51692" lon="3.49731">
        <ele>732.40002441406</ele>
        <time>2024-01-30T10:24:36.000Z</time>
      </trkpt>
      <trkpt lat="44.51686" lon="3.49735">
        <ele>732.79998779297</ele>
        <time>2024-01-30T10:24:37.000Z</time>
      </trkpt>
      <trkpt lat="44.51672" lon="3.49743">
        <ele>733.59997558594</ele>
        <time>2024-01-30T10:24:39.000Z</time>
      </trkpt>
      <trkpt lat="44.5165" lon="3.4976">
        <ele>734.79998779297</ele>
        <time>2024-01-30T10:24:42.000Z</time>
      </trkpt>
      <trkpt lat="44.5163" lon="3.49781">
        <ele>736.20001220703</ele>
        <time>2024-01-30T10:24:45.000Z</time>
      </trkpt>
      <trkpt lat="44.51621" lon="3.49798">
        <ele>737.40002441406</ele>
        <time>2024-01-30T10:24:47.000Z</time>
      </trkpt>
      <trkpt lat="44.51614" lon="3.49817">
        <ele>738.20001220703</ele>
        <time>2024-01-30T10:24:49.000Z</time>
      </trkpt>
      <trkpt lat="44.51614" lon="3.49827">
        <ele>738.79998779297</ele>
        <time>2024-01-30T10:24:50.000Z</time>
      </trkpt>
      <trkpt lat="44.51615" lon="3.49858">
        <ele>740.20001220703</ele>
        <time>2024-01-30T10:24:53.000Z</time>
      </trkpt>
      <trkpt lat="44.51616" lon="3.49885">
        <ele>741.40002441406</ele>
        <time>2024-01-30T10:24:56.000Z</time>
      </trkpt>
      <trkpt lat="44.51618" lon="3.49903">
        <ele>742.20001220703</ele>
        <time>2024-01-30T10:24:59.000Z</time>
      </trkpt>
      <trkpt lat="44.51618" lon="3.49909">
        <ele>742.59997558594</ele>
        <time>2024-01-30T10:25:00.000Z</time>
      </trkpt>
      <trkpt lat="44.51618" lon="3.49926">
        <ele>743.20001220703</ele>
        <time>2024-01-30T10:25:03.000Z</time>
      </trkpt>
      <trkpt lat="44.51616" lon="3.4993">
        <ele>743.59997558594</ele>
        <time>2024-01-30T10:25:04.000Z</time>
      </trkpt>
      <trkpt lat="44.51614" lon="3.49934">
        <ele>743.79998779297</ele>
        <time>2024-01-30T10:25:05.000Z</time>
      </trkpt>
      <trkpt lat="44.5161" lon="3.49937">
        <ele>744.20001220703</ele>
        <time>2024-01-30T10:25:06.000Z</time>
      </trkpt>
      <trkpt lat="44.51607" lon="3.49938">
        <ele>744.40002441406</ele>
        <time>2024-01-30T10:25:07.000Z</time>
      </trkpt>
      <trkpt lat="44.516" lon="3.49939">
        <ele>744.79998779297</ele>
        <time>2024-01-30T10:25:09.000Z</time>
      </trkpt>
      <trkpt lat="44.51594" lon="3.4994">
        <ele>745.59997558594</ele>
        <time>2024-01-30T10:25:12.000Z</time>
      </trkpt>
      <trkpt lat="44.51593" lon="3.4994">
        <ele>746</ele>
        <time>2024-01-30T10:25:15.000Z</time>
      </trkpt>
      <trkpt lat="44.51593" lon="3.4994">
        <ele>746.20001220703</ele>
        <time>2024-01-30T10:25:16.000Z</time>
      </trkpt>
      <trkpt lat="44.51593" lon="3.4994">
        <ele>746.20001220703</ele>
        <time>2024-01-30T10:25:24.000Z</time>
      </trkpt>
      <trkpt lat="44.51593" lon="3.4994">
        <ele>746.20001220703</ele>
        <time>2024-01-30T10:25:38.000Z</time>
      </trkpt>
      <trkpt lat="44.51593" lon="3.4994">
        <ele>746.20001220703</ele>
        <time>2024-01-30T10:25:49.000Z</time>
      </trkpt>
      <trkpt lat="44.51593" lon="3.4994">
        <ele>746</ele>
        <time>2024-01-30T10:26:05.000Z</time>
      </trkpt>
      <trkpt lat="44.51593" lon="3.4994">
        <ele>746</ele>
        <time>2024-01-30T10:26:17.000Z</time>
      </trkpt>
      <trkpt lat="44.51593" lon="3.4994">
        <ele>746</ele>
        <time>2024-01-30T10:26:30.000Z</time>
      </trkpt>
      <trkpt lat="44.51591" lon="3.49942">
        <ele>746</ele>
        <time>2024-01-30T10:26:33.000Z</time>
      </trkpt>
      <trkpt lat="44.51587" lon="3.49945">
        <ele>745.59997558594</ele>
        <time>2024-01-30T10:26:35.000Z</time>
      </trkpt>
      <trkpt lat="44.51567" lon="3.4995">
        <ele>746.79998779297</ele>
        <time>2024-01-30T10:26:40.000Z</time>
      </trkpt>
      <trkpt lat="44.51562" lon="3.49951">
        <ele>747.40002441406</ele>
        <time>2024-01-30T10:26:41.000Z</time>
      </trkpt>
      <trkpt lat="44.51545" lon="3.49958">
        <ele>748.79998779297</ele>
        <time>2024-01-30T10:26:44.000Z</time>
      </trkpt>
      <trkpt lat="44.51534" lon="3.49964">
        <ele>750</ele>
        <time>2024-01-30T10:26:46.000Z</time>
      </trkpt>
      <trkpt lat="44.51523" lon="3.49968">
        <ele>751.20001220703</ele>
        <time>2024-01-30T10:26:48.000Z</time>
      </trkpt>
      <trkpt lat="44.51518" lon="3.49971">
        <ele>751.59997558594</ele>
        <time>2024-01-30T10:26:49.000Z</time>
      </trkpt>
      <trkpt lat="44.51514" lon="3.49975">
        <ele>752.20001220703</ele>
        <time>2024-01-30T10:26:50.000Z</time>
      </trkpt>
      <trkpt lat="44.5151" lon="3.4998">
        <ele>752.59997558594</ele>
        <time>2024-01-30T10:26:51.000Z</time>
      </trkpt>
      <trkpt lat="44.51508" lon="3.49985">
        <ele>753.40002441406</ele>
        <time>2024-01-30T10:26:52.000Z</time>
      </trkpt>
      <trkpt lat="44.51504" lon="3.49993">
        <ele>754.20001220703</ele>
        <time>2024-01-30T10:26:53.000Z</time>
      </trkpt>
      <trkpt lat="44.51502" lon="3.49999">
        <ele>754.79998779297</ele>
        <time>2024-01-30T10:26:54.000Z</time>
      </trkpt>
      <trkpt lat="44.51499" lon="3.50017">
        <ele>756</ele>
        <time>2024-01-30T10:26:56.000Z</time>
      </trkpt>
      <trkpt lat="44.51496" lon="3.50034">
        <ele>757.40002441406</ele>
        <time>2024-01-30T10:26:58.000Z</time>
      </trkpt>
      <trkpt lat="44.51494" lon="3.50051">
        <ele>758.59997558594</ele>
        <time>2024-01-30T10:27:00.000Z</time>
      </trkpt>
      <trkpt lat="44.51492" lon="3.50075">
        <ele>759.79998779297</ele>
        <time>2024-01-30T10:27:03.000Z</time>
      </trkpt>
      <trkpt lat="44.51491" lon="3.5008">
        <ele>760</ele>
        <time>2024-01-30T10:27:04.000Z</time>
      </trkpt>
      <trkpt lat="44.51488" lon="3.50084">
        <ele>760.40002441406</ele>
        <time>2024-01-30T10:27:05.000Z</time>
      </trkpt>
      <trkpt lat="44.51485" lon="3.50088">
        <ele>761</ele>
        <time>2024-01-30T10:27:06.000Z</time>
      </trkpt>
      <trkpt lat="44.5148" lon="3.50091">
        <ele>761.40002441406</ele>
        <time>2024-01-30T10:27:07.000Z</time>
      </trkpt>
      <trkpt lat="44.51466" lon="3.50099">
        <ele>762.59997558594</ele>
        <time>2024-01-30T10:27:09.000Z</time>
      </trkpt>
      <trkpt lat="44.5146" lon="3.50099">
        <ele>763.40002441406</ele>
        <time>2024-01-30T10:27:10.000Z</time>
      </trkpt>
      <trkpt lat="44.51451" lon="3.501">
        <ele>764.20001220703</ele>
        <time>2024-01-30T10:27:11.000Z</time>
      </trkpt>
      <trkpt lat="44.51434" lon="3.50103">
        <ele>765.79998779297</ele>
        <time>2024-01-30T10:27:13.000Z</time>
      </trkpt>
      <trkpt lat="44.51425" lon="3.50107">
        <ele>767</ele>
        <time>2024-01-30T10:27:14.000Z</time>
      </trkpt>
      <trkpt lat="44.51416" lon="3.50112">
        <ele>767.79998779297</ele>
        <time>2024-01-30T10:27:15.000Z</time>
      </trkpt>
      <trkpt lat="44.51406" lon="3.50117">
        <ele>768.59997558594</ele>
        <time>2024-01-30T10:27:16.000Z</time>
      </trkpt>
      <trkpt lat="44.51396" lon="3.50121">
        <ele>769</ele>
        <time>2024-01-30T10:27:17.000Z</time>
      </trkpt>
      <trkpt lat="44.51377" lon="3.50127">
        <ele>770</ele>
        <time>2024-01-30T10:27:19.000Z</time>
      </trkpt>
      <trkpt lat="44.51367" lon="3.5013">
        <ele>770.79998779297</ele>
        <time>2024-01-30T10:27:20.000Z</time>
      </trkpt>
      <trkpt lat="44.51357" lon="3.50134">
        <ele>771.40002441406</ele>
        <time>2024-01-30T10:27:21.000Z</time>
      </trkpt>
      <trkpt lat="44.51336" lon="3.50147">
        <ele>772.79998779297</ele>
        <time>2024-01-30T10:27:23.000Z</time>
      </trkpt>
      <trkpt lat="44.51326" lon="3.50155">
        <ele>773.79998779297</ele>
        <time>2024-01-30T10:27:24.000Z</time>
      </trkpt>
      <trkpt lat="44.51317" lon="3.50166">
        <ele>775</ele>
        <time>2024-01-30T10:27:25.000Z</time>
      </trkpt>
      <trkpt lat="44.51298" lon="3.50187">
        <ele>776.20001220703</ele>
        <time>2024-01-30T10:27:27.000Z</time>
      </trkpt>
      <trkpt lat="44.51279" lon="3.50207">
        <ele>777.79998779297</ele>
        <time>2024-01-30T10:27:29.000Z</time>
      </trkpt>
      <trkpt lat="44.51261" lon="3.50227">
        <ele>779.59997558594</ele>
        <time>2024-01-30T10:27:31.000Z</time>
      </trkpt>
      <trkpt lat="44.51252" lon="3.50238">
        <ele>780.40002441406</ele>
        <time>2024-01-30T10:27:32.000Z</time>
      </trkpt>
      <trkpt lat="44.51243" lon="3.50249">
        <ele>781.20001220703</ele>
        <time>2024-01-30T10:27:33.000Z</time>
      </trkpt>
      <trkpt lat="44.51227" lon="3.5027">
        <ele>782.79998779297</ele>
        <time>2024-01-30T10:27:35.000Z</time>
      </trkpt>
      <trkpt lat="44.51218" lon="3.50277">
        <ele>783.40002441406</ele>
        <time>2024-01-30T10:27:36.000Z</time>
      </trkpt>
      <trkpt lat="44.51209" lon="3.50284">
        <ele>784.59997558594</ele>
        <time>2024-01-30T10:27:37.000Z</time>
      </trkpt>
      <trkpt lat="44.51199" lon="3.50289">
        <ele>785.40002441406</ele>
        <time>2024-01-30T10:27:38.000Z</time>
      </trkpt>
      <trkpt lat="44.51188" lon="3.50293">
        <ele>786.40002441406</ele>
        <time>2024-01-30T10:27:39.000Z</time>
      </trkpt>
      <trkpt lat="44.51169" lon="3.50299">
        <ele>788</ele>
        <time>2024-01-30T10:27:41.000Z</time>
      </trkpt>
      <trkpt lat="44.51149" lon="3.50302">
        <ele>789.59997558594</ele>
        <time>2024-01-30T10:27:43.000Z</time>
      </trkpt>
      <trkpt lat="44.5113" lon="3.50303">
        <ele>791.59997558594</ele>
        <time>2024-01-30T10:27:45.000Z</time>
      </trkpt>
      <trkpt lat="44.51118" lon="3.50304">
        <ele>792.79998779297</ele>
        <time>2024-01-30T10:27:47.000Z</time>
      </trkpt>
      <trkpt lat="44.51114" lon="3.50304">
        <ele>793.20001220703</ele>
        <time>2024-01-30T10:27:48.000Z</time>
      </trkpt>
      <trkpt lat="44.51111" lon="3.50303">
        <ele>793.79998779297</ele>
        <time>2024-01-30T10:27:49.000Z</time>
      </trkpt>
      <trkpt lat="44.51103" lon="3.50302">
        <ele>795.20001220703</ele>
        <time>2024-01-30T10:27:51.000Z</time>
      </trkpt>
      <trkpt lat="44.51099" lon="3.50301">
        <ele>795.79998779297</ele>
        <time>2024-01-30T10:27:52.000Z</time>
      </trkpt>
      <trkpt lat="44.51093" lon="3.503">
        <ele>796.40002441406</ele>
        <time>2024-01-30T10:27:53.000Z</time>
      </trkpt>
      <trkpt lat="44.51083" lon="3.503">
        <ele>797.79998779297</ele>
        <time>2024-01-30T10:27:55.000Z</time>
      </trkpt>
      <trkpt lat="44.51076" lon="3.50299">
        <ele>798.79998779297</ele>
        <time>2024-01-30T10:27:56.000Z</time>
      </trkpt>
      <trkpt lat="44.51068" lon="3.50298">
        <ele>799.59997558594</ele>
        <time>2024-01-30T10:27:57.000Z</time>
      </trkpt>
      <trkpt lat="44.51059" lon="3.50296">
        <ele>800.59997558594</ele>
        <time>2024-01-30T10:27:58.000Z</time>
      </trkpt>
      <trkpt lat="44.51044" lon="3.5029">
        <ele>802.59997558594</ele>
        <time>2024-01-30T10:28:00.000Z</time>
      </trkpt>
      <trkpt lat="44.51037" lon="3.50288">
        <ele>803.59997558594</ele>
        <time>2024-01-30T10:28:01.000Z</time>
      </trkpt>
      <trkpt lat="44.5103" lon="3.50286">
        <ele>804.79998779297</ele>
        <time>2024-01-30T10:28:02.000Z</time>
      </trkpt>
      <trkpt lat="44.51023" lon="3.50285">
        <ele>806.20001220703</ele>
        <time>2024-01-30T10:28:03.000Z</time>
      </trkpt>
      <trkpt lat="44.51017" lon="3.50284">
        <ele>807.20001220703</ele>
        <time>2024-01-30T10:28:04.000Z</time>
      </trkpt>
      <trkpt lat="44.51011" lon="3.50286">
        <ele>808.40002441406</ele>
        <time>2024-01-30T10:28:05.000Z</time>
      </trkpt>
      <trkpt lat="44.51006" lon="3.5029">
        <ele>809.20001220703</ele>
        <time>2024-01-30T10:28:06.000Z</time>
      </trkpt>
      <trkpt lat="44.51003" lon="3.50295">
        <ele>810.40002441406</ele>
        <time>2024-01-30T10:28:07.000Z</time>
      </trkpt>
      <trkpt lat="44.51003" lon="3.50301">
        <ele>811.20001220703</ele>
        <time>2024-01-30T10:28:08.000Z</time>
      </trkpt>
      <trkpt lat="44.51005" lon="3.50308">
        <ele>811.79998779297</ele>
        <time>2024-01-30T10:28:09.000Z</time>
      </trkpt>
      <trkpt lat="44.51016" lon="3.50321">
        <ele>813.20001220703</ele>
        <time>2024-01-30T10:28:11.000Z</time>
      </trkpt>
      <trkpt lat="44.51025" lon="3.50329">
        <ele>813.79998779297</ele>
        <time>2024-01-30T10:28:12.000Z</time>
      </trkpt>
      <trkpt lat="44.51032" lon="3.50337">
        <ele>814.79998779297</ele>
        <time>2024-01-30T10:28:13.000Z</time>
      </trkpt>
      <trkpt lat="44.51046" lon="3.50354">
        <ele>815.79998779297</ele>
        <time>2024-01-30T10:28:15.000Z</time>
      </trkpt>
      <trkpt lat="44.51053" lon="3.50362">
        <ele>816.79998779297</ele>
        <time>2024-01-30T10:28:16.000Z</time>
      </trkpt>
      <trkpt lat="44.5106" lon="3.5037">
        <ele>818</ele>
        <time>2024-01-30T10:28:17.000Z</time>
      </trkpt>
      <trkpt lat="44.51066" lon="3.50377">
        <ele>818.59997558594</ele>
        <time>2024-01-30T10:28:18.000Z</time>
      </trkpt>
      <trkpt lat="44.51071" lon="3.50385">
        <ele>819.59997558594</ele>
        <time>2024-01-30T10:28:19.000Z</time>
      </trkpt>
      <trkpt lat="44.51077" lon="3.50391">
        <ele>820.20001220703</ele>
        <time>2024-01-30T10:28:20.000Z</time>
      </trkpt>
      <trkpt lat="44.51082" lon="3.50398">
        <ele>821</ele>
        <time>2024-01-30T10:28:21.000Z</time>
      </trkpt>
      <trkpt lat="44.51084" lon="3.50405">
        <ele>822</ele>
        <time>2024-01-30T10:28:22.000Z</time>
      </trkpt>
      <trkpt lat="44.51083" lon="3.50412">
        <ele>823</ele>
        <time>2024-01-30T10:28:23.000Z</time>
      </trkpt>
      <trkpt lat="44.51081" lon="3.50418">
        <ele>824</ele>
        <time>2024-01-30T10:28:24.000Z</time>
      </trkpt>
      <trkpt lat="44.51076" lon="3.50422">
        <ele>825</ele>
        <time>2024-01-30T10:28:25.000Z</time>
      </trkpt>
      <trkpt lat="44.5107" lon="3.50419">
        <ele>826.20001220703</ele>
        <time>2024-01-30T10:28:26.000Z</time>
      </trkpt>
      <trkpt lat="44.51063" lon="3.50416">
        <ele>827.40002441406</ele>
        <time>2024-01-30T10:28:27.000Z</time>
      </trkpt>
      <trkpt lat="44.51041" lon="3.50411">
        <ele>829.40002441406</ele>
        <time>2024-01-30T10:28:29.000Z</time>
      </trkpt>
      <trkpt lat="44.51031" lon="3.50406">
        <ele>830.59997558594</ele>
        <time>2024-01-30T10:28:30.000Z</time>
      </trkpt>
      <trkpt lat="44.5102" lon="3.50402">
        <ele>831.79998779297</ele>
        <time>2024-01-30T10:28:31.000Z</time>
      </trkpt>
      <trkpt lat="44.51008" lon="3.50398">
        <ele>833.20001220703</ele>
        <time>2024-01-30T10:28:32.000Z</time>
      </trkpt>
      <trkpt lat="44.50997" lon="3.50393">
        <ele>834.79998779297</ele>
        <time>2024-01-30T10:28:33.000Z</time>
      </trkpt>
      <trkpt lat="44.50987" lon="3.50389">
        <ele>836.40002441406</ele>
        <time>2024-01-30T10:28:34.000Z</time>
      </trkpt>
      <trkpt lat="44.50976" lon="3.50387">
        <ele>838.20001220703</ele>
        <time>2024-01-30T10:28:35.000Z</time>
      </trkpt>
      <trkpt lat="44.50964" lon="3.50387">
        <ele>839.79998779297</ele>
        <time>2024-01-30T10:28:36.000Z</time>
      </trkpt>
      <trkpt lat="44.50952" lon="3.50386">
        <ele>841.79998779297</ele>
        <time>2024-01-30T10:28:37.000Z</time>
      </trkpt>
      <trkpt lat="44.5094" lon="3.50385">
        <ele>843.40002441406</ele>
        <time>2024-01-30T10:28:38.000Z</time>
      </trkpt>
      <trkpt lat="44.50929" lon="3.50381">
        <ele>845.20001220703</ele>
        <time>2024-01-30T10:28:39.000Z</time>
      </trkpt>
      <trkpt lat="44.50919" lon="3.50377">
        <ele>846.79998779297</ele>
        <time>2024-01-30T10:28:40.000Z</time>
      </trkpt>
      <trkpt lat="44.5091" lon="3.50373">
        <ele>847.79998779297</ele>
        <time>2024-01-30T10:28:41.000Z</time>
      </trkpt>
      <trkpt lat="44.50902" lon="3.5037">
        <ele>849.20001220703</ele>
        <time>2024-01-30T10:28:42.000Z</time>
      </trkpt>
      <trkpt lat="44.50895" lon="3.50369">
        <ele>850.20001220703</ele>
        <time>2024-01-30T10:28:43.000Z</time>
      </trkpt>
      <trkpt lat="44.50885" lon="3.50375">
        <ele>852</ele>
        <time>2024-01-30T10:28:45.000Z</time>
      </trkpt>
      <trkpt lat="44.50882" lon="3.5038">
        <ele>852.79998779297</ele>
        <time>2024-01-30T10:28:46.000Z</time>
      </trkpt>
      <trkpt lat="44.50882" lon="3.50387">
        <ele>853.79998779297</ele>
        <time>2024-01-30T10:28:47.000Z</time>
      </trkpt>
      <trkpt lat="44.50886" lon="3.504">
        <ele>855</ele>
        <time>2024-01-30T10:28:49.000Z</time>
      </trkpt>
      <trkpt lat="44.50896" lon="3.5041">
        <ele>856.40002441406</ele>
        <time>2024-01-30T10:28:51.000Z</time>
      </trkpt>
      <trkpt lat="44.50905" lon="3.5042">
        <ele>857.59997558594</ele>
        <time>2024-01-30T10:28:53.000Z</time>
      </trkpt>
      <trkpt lat="44.50914" lon="3.50428">
        <ele>859</ele>
        <time>2024-01-30T10:28:55.000Z</time>
      </trkpt>
      <trkpt lat="44.50923" lon="3.50438">
        <ele>860.40002441406</ele>
        <time>2024-01-30T10:28:57.000Z</time>
      </trkpt>
      <trkpt lat="44.50934" lon="3.50447">
        <ele>861.79998779297</ele>
        <time>2024-01-30T10:29:00.000Z</time>
      </trkpt>
      <trkpt lat="44.50948" lon="3.50455">
        <ele>863.40002441406</ele>
        <time>2024-01-30T10:29:03.000Z</time>
      </trkpt>
      <trkpt lat="44.50959" lon="3.50461">
        <ele>864.20001220703</ele>
        <time>2024-01-30T10:29:05.000Z</time>
      </trkpt>
      <trkpt lat="44.50963" lon="3.50463">
        <ele>864.79998779297</ele>
        <time>2024-01-30T10:29:06.000Z</time>
      </trkpt>
      <trkpt lat="44.50974" lon="3.5047">
        <ele>866.20001220703</ele>
        <time>2024-01-30T10:29:08.000Z</time>
      </trkpt>
      <trkpt lat="44.50984" lon="3.5048">
        <ele>867.59997558594</ele>
        <time>2024-01-30T10:29:10.000Z</time>
      </trkpt>
      <trkpt lat="44.50993" lon="3.50491">
        <ele>869.40002441406</ele>
        <time>2024-01-30T10:29:12.000Z</time>
      </trkpt>
      <trkpt lat="44.51002" lon="3.50502">
        <ele>871</ele>
        <time>2024-01-30T10:29:14.000Z</time>
      </trkpt>
      <trkpt lat="44.51011" lon="3.50513">
        <ele>872.59997558594</ele>
        <time>2024-01-30T10:29:16.000Z</time>
      </trkpt>
      <trkpt lat="44.51016" lon="3.50519">
        <ele>874</ele>
        <time>2024-01-30T10:29:17.000Z</time>
      </trkpt>
      <trkpt lat="44.51019" lon="3.50526">
        <ele>874.79998779297</ele>
        <time>2024-01-30T10:29:18.000Z</time>
      </trkpt>
      <trkpt lat="44.51023" lon="3.50533">
        <ele>875.40002441406</ele>
        <time>2024-01-30T10:29:19.000Z</time>
      </trkpt>
      <trkpt lat="44.51032" lon="3.50546">
        <ele>877</ele>
        <time>2024-01-30T10:29:21.000Z</time>
      </trkpt>
      <trkpt lat="44.5104" lon="3.5056">
        <ele>879</ele>
        <time>2024-01-30T10:29:23.000Z</time>
      </trkpt>
      <trkpt lat="44.51049" lon="3.50575">
        <ele>880.79998779297</ele>
        <time>2024-01-30T10:29:25.000Z</time>
      </trkpt>
      <trkpt lat="44.51054" lon="3.50582">
        <ele>881.79998779297</ele>
        <time>2024-01-30T10:29:26.000Z</time>
      </trkpt>
      <trkpt lat="44.5106" lon="3.50589">
        <ele>882.79998779297</ele>
        <time>2024-01-30T10:29:27.000Z</time>
      </trkpt>
      <trkpt lat="44.51066" lon="3.50595">
        <ele>884</ele>
        <time>2024-01-30T10:29:28.000Z</time>
      </trkpt>
      <trkpt lat="44.51073" lon="3.50602">
        <ele>885.20001220703</ele>
        <time>2024-01-30T10:29:29.000Z</time>
      </trkpt>
      <trkpt lat="44.51081" lon="3.5061">
        <ele>886.40002441406</ele>
        <time>2024-01-30T10:29:30.000Z</time>
      </trkpt>
      <trkpt lat="44.51088" lon="3.50618">
        <ele>887.79998779297</ele>
        <time>2024-01-30T10:29:31.000Z</time>
      </trkpt>
      <trkpt lat="44.51096" lon="3.50626">
        <ele>889.59997558594</ele>
        <time>2024-01-30T10:29:32.000Z</time>
      </trkpt>
      <trkpt lat="44.51105" lon="3.50634">
        <ele>890.59997558594</ele>
        <time>2024-01-30T10:29:33.000Z</time>
      </trkpt>
      <trkpt lat="44.51113" lon="3.50641">
        <ele>892.59997558594</ele>
        <time>2024-01-30T10:29:34.000Z</time>
      </trkpt>
      <trkpt lat="44.51123" lon="3.50648">
        <ele>894.20001220703</ele>
        <time>2024-01-30T10:29:35.000Z</time>
      </trkpt>
      <trkpt lat="44.51132" lon="3.50654">
        <ele>895.59997558594</ele>
        <time>2024-01-30T10:29:36.000Z</time>
      </trkpt>
      <trkpt lat="44.51142" lon="3.5066">
        <ele>897.20001220703</ele>
        <time>2024-01-30T10:29:37.000Z</time>
      </trkpt>
      <trkpt lat="44.5115" lon="3.50666">
        <ele>898.40002441406</ele>
        <time>2024-01-30T10:29:38.000Z</time>
      </trkpt>
      <trkpt lat="44.5116" lon="3.50672">
        <ele>900.20001220703</ele>
        <time>2024-01-30T10:29:39.000Z</time>
      </trkpt>
      <trkpt lat="44.51168" lon="3.50679">
        <ele>901.59997558594</ele>
        <time>2024-01-30T10:29:40.000Z</time>
      </trkpt>
      <trkpt lat="44.51175" lon="3.50689">
        <ele>902.79998779297</ele>
        <time>2024-01-30T10:29:41.000Z</time>
      </trkpt>
      <trkpt lat="44.5118" lon="3.50699">
        <ele>904.20001220703</ele>
        <time>2024-01-30T10:29:42.000Z</time>
      </trkpt>
      <trkpt lat="44.51182" lon="3.50711">
        <ele>905.79998779297</ele>
        <time>2024-01-30T10:29:43.000Z</time>
      </trkpt>
      <trkpt lat="44.51182" lon="3.50724">
        <ele>907.40002441406</ele>
        <time>2024-01-30T10:29:44.000Z</time>
      </trkpt>
      <trkpt lat="44.51179" lon="3.50736">
        <ele>909</ele>
        <time>2024-01-30T10:29:45.000Z</time>
      </trkpt>
      <trkpt lat="44.51174" lon="3.50749">
        <ele>910.59997558594</ele>
        <time>2024-01-30T10:29:46.000Z</time>
      </trkpt>
      <trkpt lat="44.5117" lon="3.50762">
        <ele>912.20001220703</ele>
        <time>2024-01-30T10:29:47.000Z</time>
      </trkpt>
      <trkpt lat="44.51166" lon="3.50772">
        <ele>913.79998779297</ele>
        <time>2024-01-30T10:29:48.000Z</time>
      </trkpt>
      <trkpt lat="44.5116" lon="3.50788">
        <ele>915.20001220703</ele>
        <time>2024-01-30T10:29:49.000Z</time>
      </trkpt>
      <trkpt lat="44.51155" lon="3.50802">
        <ele>916.79998779297</ele>
        <time>2024-01-30T10:29:50.000Z</time>
      </trkpt>
      <trkpt lat="44.51151" lon="3.50815">
        <ele>918.20001220703</ele>
        <time>2024-01-30T10:29:51.000Z</time>
      </trkpt>
      <trkpt lat="44.51146" lon="3.50828">
        <ele>919.59997558594</ele>
        <time>2024-01-30T10:29:52.000Z</time>
      </trkpt>
      <trkpt lat="44.51141" lon="3.50841">
        <ele>921.40002441406</ele>
        <time>2024-01-30T10:29:53.000Z</time>
      </trkpt>
      <trkpt lat="44.51136" lon="3.50854">
        <ele>922.79998779297</ele>
        <time>2024-01-30T10:29:54.000Z</time>
      </trkpt>
      <trkpt lat="44.51129" lon="3.50866">
        <ele>924.40002441406</ele>
        <time>2024-01-30T10:29:55.000Z</time>
      </trkpt>
      <trkpt lat="44.51122" lon="3.50879">
        <ele>926</ele>
        <time>2024-01-30T10:29:56.000Z</time>
      </trkpt>
      <trkpt lat="44.51115" lon="3.50891">
        <ele>928</ele>
        <time>2024-01-30T10:29:57.000Z</time>
      </trkpt>
      <trkpt lat="44.51109" lon="3.50903">
        <ele>929.79998779297</ele>
        <time>2024-01-30T10:29:58.000Z</time>
      </trkpt>
      <trkpt lat="44.51099" lon="3.50917">
        <ele>931.40002441406</ele>
        <time>2024-01-30T10:29:59.000Z</time>
      </trkpt>
      <trkpt lat="44.51094" lon="3.50926">
        <ele>933.20001220703</ele>
        <time>2024-01-30T10:30:00.000Z</time>
      </trkpt>
      <trkpt lat="44.51086" lon="3.50939">
        <ele>934.79998779297</ele>
        <time>2024-01-30T10:30:01.000Z</time>
      </trkpt>
      <trkpt lat="44.5108" lon="3.50949">
        <ele>936.59997558594</ele>
        <time>2024-01-30T10:30:02.000Z</time>
      </trkpt>
      <trkpt lat="44.51074" lon="3.50959">
        <ele>937.79998779297</ele>
        <time>2024-01-30T10:30:03.000Z</time>
      </trkpt>
      <trkpt lat="44.51069" lon="3.5097">
        <ele>939.59997558594</ele>
        <time>2024-01-30T10:30:04.000Z</time>
      </trkpt>
      <trkpt lat="44.51066" lon="3.50979">
        <ele>941</ele>
        <time>2024-01-30T10:30:05.000Z</time>
      </trkpt>
      <trkpt lat="44.51065" lon="3.50991">
        <ele>942.20001220703</ele>
        <time>2024-01-30T10:30:06.000Z</time>
      </trkpt>
      <trkpt lat="44.51067" lon="3.51003">
        <ele>943.59997558594</ele>
        <time>2024-01-30T10:30:07.000Z</time>
      </trkpt>
      <trkpt lat="44.5107" lon="3.51016">
        <ele>944.59997558594</ele>
        <time>2024-01-30T10:30:08.000Z</time>
      </trkpt>
      <trkpt lat="44.51074" lon="3.51028">
        <ele>945.79998779297</ele>
        <time>2024-01-30T10:30:09.000Z</time>
      </trkpt>
      <trkpt lat="44.51077" lon="3.51041">
        <ele>947.20001220703</ele>
        <time>2024-01-30T10:30:10.000Z</time>
      </trkpt>
      <trkpt lat="44.51078" lon="3.51056">
        <ele>948.59997558594</ele>
        <time>2024-01-30T10:30:11.000Z</time>
      </trkpt>
      <trkpt lat="44.51075" lon="3.5107">
        <ele>950.20001220703</ele>
        <time>2024-01-30T10:30:12.000Z</time>
      </trkpt>
      <trkpt lat="44.51073" lon="3.51083">
        <ele>951.79998779297</ele>
        <time>2024-01-30T10:30:13.000Z</time>
      </trkpt>
      <trkpt lat="44.5107" lon="3.511">
        <ele>953.20001220703</ele>
        <time>2024-01-30T10:30:14.000Z</time>
      </trkpt>
      <trkpt lat="44.51069" lon="3.51114">
        <ele>954.59997558594</ele>
        <time>2024-01-30T10:30:15.000Z</time>
      </trkpt>
      <trkpt lat="44.51069" lon="3.51125">
        <ele>956.20001220703</ele>
        <time>2024-01-30T10:30:16.000Z</time>
      </trkpt>
      <trkpt lat="44.51069" lon="3.51139">
        <ele>957.79998779297</ele>
        <time>2024-01-30T10:30:17.000Z</time>
      </trkpt>
      <trkpt lat="44.5107" lon="3.51153">
        <ele>959.40002441406</ele>
        <time>2024-01-30T10:30:18.000Z</time>
      </trkpt>
      <trkpt lat="44.51071" lon="3.51167">
        <ele>961</ele>
        <time>2024-01-30T10:30:19.000Z</time>
      </trkpt>
      <trkpt lat="44.51073" lon="3.5118">
        <ele>962.40002441406</ele>
        <time>2024-01-30T10:30:20.000Z</time>
      </trkpt>
      <trkpt lat="44.51075" lon="3.51193">
        <ele>963.59997558594</ele>
        <time>2024-01-30T10:30:21.000Z</time>
      </trkpt>
      <trkpt lat="44.51077" lon="3.51207">
        <ele>964.79998779297</ele>
        <time>2024-01-30T10:30:22.000Z</time>
      </trkpt>
      <trkpt lat="44.51079" lon="3.51221">
        <ele>966</ele>
        <time>2024-01-30T10:30:23.000Z</time>
      </trkpt>
      <trkpt lat="44.51081" lon="3.51236">
        <ele>967.20001220703</ele>
        <time>2024-01-30T10:30:24.000Z</time>
      </trkpt>
      <trkpt lat="44.51083" lon="3.5125">
        <ele>968.59997558594</ele>
        <time>2024-01-30T10:30:25.000Z</time>
      </trkpt>
      <trkpt lat="44.51087" lon="3.51265">
        <ele>970</ele>
        <time>2024-01-30T10:30:26.000Z</time>
      </trkpt>
      <trkpt lat="44.51089" lon="3.51279">
        <ele>971.40002441406</ele>
        <time>2024-01-30T10:30:27.000Z</time>
      </trkpt>
      <trkpt lat="44.5109" lon="3.51294">
        <ele>973</ele>
        <time>2024-01-30T10:30:28.000Z</time>
      </trkpt>
      <trkpt lat="44.51091" lon="3.51309">
        <ele>974.59997558594</ele>
        <time>2024-01-30T10:30:29.000Z</time>
      </trkpt>
      <trkpt lat="44.51092" lon="3.51324">
        <ele>975.79998779297</ele>
        <time>2024-01-30T10:30:30.000Z</time>
      </trkpt>
      <trkpt lat="44.51094" lon="3.51339">
        <ele>977.20001220703</ele>
        <time>2024-01-30T10:30:31.000Z</time>
      </trkpt>
      <trkpt lat="44.51096" lon="3.51354">
        <ele>978.79998779297</ele>
        <time>2024-01-30T10:30:32.000Z</time>
      </trkpt>
      <trkpt lat="44.51099" lon="3.51369">
        <ele>980</ele>
        <time>2024-01-30T10:30:33.000Z</time>
      </trkpt>
      <trkpt lat="44.51103" lon="3.51383">
        <ele>981.40002441406</ele>
        <time>2024-01-30T10:30:34.000Z</time>
      </trkpt>
      <trkpt lat="44.51107" lon="3.51396">
        <ele>983.20001220703</ele>
        <time>2024-01-30T10:30:35.000Z</time>
      </trkpt>
      <trkpt lat="44.51112" lon="3.51408">
        <ele>984.40002441406</ele>
        <time>2024-01-30T10:30:36.000Z</time>
      </trkpt>
      <trkpt lat="44.51117" lon="3.51421">
        <ele>986.40002441406</ele>
        <time>2024-01-30T10:30:37.000Z</time>
      </trkpt>
      <trkpt lat="44.51123" lon="3.51433">
        <ele>987.59997558594</ele>
        <time>2024-01-30T10:30:38.000Z</time>
      </trkpt>
      <trkpt lat="44.51132" lon="3.51457">
        <ele>989.59997558594</ele>
        <time>2024-01-30T10:30:40.000Z</time>
      </trkpt>
      <trkpt lat="44.51136" lon="3.51469">
        <ele>990.79998779297</ele>
        <time>2024-01-30T10:30:41.000Z</time>
      </trkpt>
      <trkpt lat="44.51138" lon="3.51482">
        <ele>992</ele>
        <time>2024-01-30T10:30:42.000Z</time>
      </trkpt>
      <trkpt lat="44.51143" lon="3.51495">
        <ele>993.20001220703</ele>
        <time>2024-01-30T10:30:43.000Z</time>
      </trkpt>
      <trkpt lat="44.51145" lon="3.51508">
        <ele>994.79998779297</ele>
        <time>2024-01-30T10:30:44.000Z</time>
      </trkpt>
      <trkpt lat="44.51145" lon="3.51521">
        <ele>996</ele>
        <time>2024-01-30T10:30:45.000Z</time>
      </trkpt>
      <trkpt lat="44.51147" lon="3.51535">
        <ele>997.20001220703</ele>
        <time>2024-01-30T10:30:46.000Z</time>
      </trkpt>
      <trkpt lat="44.51148" lon="3.51546">
        <ele>999</ele>
        <time>2024-01-30T10:30:47.000Z</time>
      </trkpt>
      <trkpt lat="44.51149" lon="3.51558">
        <ele>1000.200012207</ele>
        <time>2024-01-30T10:30:48.000Z</time>
      </trkpt>
      <trkpt lat="44.5115" lon="3.5157">
        <ele>1001.200012207</ele>
        <time>2024-01-30T10:30:49.000Z</time>
      </trkpt>
      <trkpt lat="44.51152" lon="3.51591">
        <ele>1003.799987793</ele>
        <time>2024-01-30T10:30:51.000Z</time>
      </trkpt>
      <trkpt lat="44.51152" lon="3.51602">
        <ele>1005</ele>
        <time>2024-01-30T10:30:52.000Z</time>
      </trkpt>
      <trkpt lat="44.51152" lon="3.51615">
        <ele>1006.200012207</ele>
        <time>2024-01-30T10:30:53.000Z</time>
      </trkpt>
      <trkpt lat="44.51153" lon="3.51629">
        <ele>1007.5999755859</ele>
        <time>2024-01-30T10:30:54.000Z</time>
      </trkpt>
      <trkpt lat="44.51153" lon="3.51657">
        <ele>1009.799987793</ele>
        <time>2024-01-30T10:30:56.000Z</time>
      </trkpt>
      <trkpt lat="44.51154" lon="3.51671">
        <ele>1011.200012207</ele>
        <time>2024-01-30T10:30:57.000Z</time>
      </trkpt>
      <trkpt lat="44.51154" lon="3.51685">
        <ele>1012.4000244141</ele>
        <time>2024-01-30T10:30:58.000Z</time>
      </trkpt>
      <trkpt lat="44.51154" lon="3.51699">
        <ele>1013.4000244141</ele>
        <time>2024-01-30T10:30:59.000Z</time>
      </trkpt>
      <trkpt lat="44.51155" lon="3.51726">
        <ele>1015.799987793</ele>
        <time>2024-01-30T10:31:01.000Z</time>
      </trkpt>
      <trkpt lat="44.51155" lon="3.51738">
        <ele>1017</ele>
        <time>2024-01-30T10:31:02.000Z</time>
      </trkpt>
      <trkpt lat="44.51157" lon="3.51761">
        <ele>1019</ele>
        <time>2024-01-30T10:31:04.000Z</time>
      </trkpt>
      <trkpt lat="44.51157" lon="3.51769">
        <ele>1020.4000244141</ele>
        <time>2024-01-30T10:31:05.000Z</time>
      </trkpt>
      <trkpt lat="44.51157" lon="3.51784">
        <ele>1021.799987793</ele>
        <time>2024-01-30T10:31:07.000Z</time>
      </trkpt>
      <trkpt lat="44.51157" lon="3.51792">
        <ele>1023</ele>
        <time>2024-01-30T10:31:08.000Z</time>
      </trkpt>
      <trkpt lat="44.51157" lon="3.51803">
        <ele>1024.4000244141</ele>
        <time>2024-01-30T10:31:09.000Z</time>
      </trkpt>
      <trkpt lat="44.51157" lon="3.51815">
        <ele>1025.5999755859</ele>
        <time>2024-01-30T10:31:10.000Z</time>
      </trkpt>
      <trkpt lat="44.51158" lon="3.51827">
        <ele>1026.5999755859</ele>
        <time>2024-01-30T10:31:11.000Z</time>
      </trkpt>
      <trkpt lat="44.51158" lon="3.5184">
        <ele>1027.5999755859</ele>
        <time>2024-01-30T10:31:12.000Z</time>
      </trkpt>
      <trkpt lat="44.51157" lon="3.51852">
        <ele>1029.1999511719</ele>
        <time>2024-01-30T10:31:13.000Z</time>
      </trkpt>
      <trkpt lat="44.51152" lon="3.51869">
        <ele>1030.5999755859</ele>
        <time>2024-01-30T10:31:14.000Z</time>
      </trkpt>
      <trkpt lat="44.51147" lon="3.51881">
        <ele>1032</ele>
        <time>2024-01-30T10:31:15.000Z</time>
      </trkpt>
      <trkpt lat="44.51143" lon="3.51894">
        <ele>1033.4000244141</ele>
        <time>2024-01-30T10:31:16.000Z</time>
      </trkpt>
      <trkpt lat="44.51138" lon="3.51908">
        <ele>1034.5999755859</ele>
        <time>2024-01-30T10:31:17.000Z</time>
      </trkpt>
      <trkpt lat="44.51137" lon="3.51919">
        <ele>1035.8000488281</ele>
        <time>2024-01-30T10:31:18.000Z</time>
      </trkpt>
      <trkpt lat="44.51131" lon="3.51934">
        <ele>1036.8000488281</ele>
        <time>2024-01-30T10:31:19.000Z</time>
      </trkpt>
      <trkpt lat="44.51127" lon="3.51943">
        <ele>1038.1999511719</ele>
        <time>2024-01-30T10:31:20.000Z</time>
      </trkpt>
      <trkpt lat="44.51122" lon="3.51954">
        <ele>1039.5999755859</ele>
        <time>2024-01-30T10:31:21.000Z</time>
      </trkpt>
      <trkpt lat="44.51114" lon="3.51974">
        <ele>1041</ele>
        <time>2024-01-30T10:31:23.000Z</time>
      </trkpt>
      <trkpt lat="44.51109" lon="3.51984">
        <ele>1042.4000244141</ele>
        <time>2024-01-30T10:31:24.000Z</time>
      </trkpt>
      <trkpt lat="44.51105" lon="3.51994">
        <ele>1043.1999511719</ele>
        <time>2024-01-30T10:31:25.000Z</time>
      </trkpt>
      <trkpt lat="44.51101" lon="3.52003">
        <ele>1044.1999511719</ele>
        <time>2024-01-30T10:31:26.000Z</time>
      </trkpt>
      <trkpt lat="44.51092" lon="3.52023">
        <ele>1045.4000244141</ele>
        <time>2024-01-30T10:31:28.000Z</time>
      </trkpt>
      <trkpt lat="44.51083" lon="3.52043">
        <ele>1046.1999511719</ele>
        <time>2024-01-30T10:31:31.000Z</time>
      </trkpt>
      <trkpt lat="44.51082" lon="3.52046">
        <ele>1047</ele>
        <time>2024-01-30T10:31:33.000Z</time>
      </trkpt>
      <trkpt lat="44.51081" lon="3.52047">
        <ele>1047</ele>
        <time>2024-01-30T10:31:34.000Z</time>
      </trkpt>
      <trkpt lat="44.51081" lon="3.52051">
        <ele>1047.1999511719</ele>
        <time>2024-01-30T10:31:40.000Z</time>
      </trkpt>
      <trkpt lat="44.51081" lon="3.52051">
        <ele>1046.8000488281</ele>
        <time>2024-01-30T10:32:13.000Z</time>
      </trkpt>
      <trkpt lat="44.51081" lon="3.52051">
        <ele>1046</ele>
        <time>2024-01-30T10:32:26.000Z</time>
      </trkpt>
      <trkpt lat="44.51081" lon="3.52051">
        <ele>1046.1999511719</ele>
        <time>2024-01-30T10:32:39.000Z</time>
      </trkpt>
      <trkpt lat="44.51081" lon="3.52051">
        <ele>1044.8000488281</ele>
        <time>2024-01-30T10:33:02.000Z</time>
      </trkpt>
      <trkpt lat="44.51081" lon="3.52051">
        <ele>1044.8000488281</ele>
        <time>2024-01-30T10:33:03.000Z</time>
      </trkpt>
      <trkpt lat="44.51081" lon="3.52051">
        <ele>1044.4000244141</ele>
        <time>2024-01-30T10:33:22.000Z</time>
      </trkpt>
      <trkpt lat="44.51081" lon="3.52051">
        <ele>1044</ele>
        <time>2024-01-30T10:33:40.000Z</time>
      </trkpt>
      <trkpt lat="44.51081" lon="3.52051">
        <ele>1043.8000488281</ele>
        <time>2024-01-30T10:33:47.000Z</time>
      </trkpt>
      <trkpt lat="44.51081" lon="3.52051">
        <ele>1043.5999755859</ele>
        <time>2024-01-30T10:34:00.000Z</time>
      </trkpt>
      <trkpt lat="44.51081" lon="3.52051">
        <ele>1043.4000244141</ele>
        <time>2024-01-30T10:34:18.000Z</time>
      </trkpt>
      <trkpt lat="44.51079" lon="3.52059">
        <ele>1043.8000488281</ele>
        <time>2024-01-30T10:34:22.000Z</time>
      </trkpt>
      <trkpt lat="44.51066" lon="3.5208">
        <ele>1044.5999755859</ele>
        <time>2024-01-30T10:34:28.000Z</time>
      </trkpt>
      <trkpt lat="44.5106" lon="3.52092">
        <ele>1045</ele>
        <time>2024-01-30T10:34:32.000Z</time>
      </trkpt>
      <trkpt lat="44.51061" lon="3.52094">
        <ele>1045</ele>
        <time>2024-01-30T10:34:33.000Z</time>
      </trkpt>
      <trkpt lat="44.51064" lon="3.52097">
        <ele>1045</ele>
        <time>2024-01-30T10:34:36.000Z</time>
      </trkpt>
      <trkpt lat="44.51067" lon="3.52098">
        <ele>1045</ele>
        <time>2024-01-30T10:34:38.000Z</time>
      </trkpt>
      <trkpt lat="44.51068" lon="3.52098">
        <ele>1044.8000488281</ele>
        <time>2024-01-30T10:34:43.000Z</time>
      </trkpt>
      <trkpt lat="44.51067" lon="3.52097">
        <ele>1044.8000488281</ele>
        <time>2024-01-30T10:34:44.000Z</time>
      </trkpt>
      <trkpt lat="44.51065" lon="3.52096">
        <ele>1045</ele>
        <time>2024-01-30T10:34:48.000Z</time>
      </trkpt>
      <trkpt lat="44.51067" lon="3.52094">
        <ele>1045</ele>
        <time>2024-01-30T10:34:52.000Z</time>
      </trkpt>
      <trkpt lat="44.51069" lon="3.52092">
        <ele>1045</ele>
        <time>2024-01-30T10:34:53.000Z</time>
      </trkpt>
      <trkpt lat="44.51072" lon="3.52085">
        <ele>1044.8000488281</ele>
        <time>2024-01-30T10:34:59.000Z</time>
      </trkpt>
      <trkpt lat="44.51072" lon="3.52084">
        <ele>1044.8000488281</ele>
        <time>2024-01-30T10:35:08.000Z</time>
      </trkpt>
      <trkpt lat="44.51076" lon="3.52075">
        <ele>1044.8000488281</ele>
        <time>2024-01-30T10:35:12.000Z</time>
      </trkpt>
      <trkpt lat="44.51087" lon="3.52056">
        <ele>1043.4000244141</ele>
        <time>2024-01-30T10:35:17.000Z</time>
      </trkpt>
      <trkpt lat="44.51088" lon="3.52055">
        <ele>1043.4000244141</ele>
        <time>2024-01-30T10:35:20.000Z</time>
      </trkpt>
      <trkpt lat="44.51088" lon="3.52055">
        <ele>1043.4000244141</ele>
        <time>2024-01-30T10:35:29.000Z</time>
      </trkpt>
      <trkpt lat="44.51088" lon="3.52055">
        <ele>1043.4000244141</ele>
        <time>2024-01-30T10:35:45.000Z</time>
      </trkpt>
      <trkpt lat="44.51089" lon="3.52052">
        <ele>1043.4000244141</ele>
        <time>2024-01-30T10:36:00.000Z</time>
      </trkpt>
      <trkpt lat="44.51096" lon="3.52034">
        <ele>1042.8000488281</ele>
        <time>2024-01-30T10:36:05.000Z</time>
      </trkpt>
      <trkpt lat="44.51101" lon="3.52021">
        <ele>1042.1999511719</ele>
        <time>2024-01-30T10:36:07.000Z</time>
      </trkpt>
      <trkpt lat="44.51107" lon="3.52007">
        <ele>1041.4000244141</ele>
        <time>2024-01-30T10:36:09.000Z</time>
      </trkpt>
      <trkpt lat="44.51111" lon="3.52">
        <ele>1041</ele>
        <time>2024-01-30T10:36:10.000Z</time>
      </trkpt>
      <trkpt lat="44.51122" lon="3.51977">
        <ele>1039.4000244141</ele>
        <time>2024-01-30T10:36:13.000Z</time>
      </trkpt>
      <trkpt lat="44.51131" lon="3.5196">
        <ele>1038.1999511719</ele>
        <time>2024-01-30T10:36:15.000Z</time>
      </trkpt>
      <trkpt lat="44.51136" lon="3.51951">
        <ele>1037.8000488281</ele>
        <time>2024-01-30T10:36:16.000Z</time>
      </trkpt>
      <trkpt lat="44.51141" lon="3.51941">
        <ele>1036.5999755859</ele>
        <time>2024-01-30T10:36:17.000Z</time>
      </trkpt>
      <trkpt lat="44.51151" lon="3.51919">
        <ele>1035.1999511719</ele>
        <time>2024-01-30T10:36:19.000Z</time>
      </trkpt>
      <trkpt lat="44.51156" lon="3.51906">
        <ele>1034.1999511719</ele>
        <time>2024-01-30T10:36:20.000Z</time>
      </trkpt>
      <trkpt lat="44.51165" lon="3.51879">
        <ele>1032.1999511719</ele>
        <time>2024-01-30T10:36:22.000Z</time>
      </trkpt>
      <trkpt lat="44.51167" lon="3.51867">
        <ele>1030.5999755859</ele>
        <time>2024-01-30T10:36:23.000Z</time>
      </trkpt>
      <trkpt lat="44.51168" lon="3.51852">
        <ele>1029.4000244141</ele>
        <time>2024-01-30T10:36:24.000Z</time>
      </trkpt>
      <trkpt lat="44.5117" lon="3.51829">
        <ele>1028.4000244141</ele>
        <time>2024-01-30T10:36:25.000Z</time>
      </trkpt>
      <trkpt lat="44.5117" lon="3.5181">
        <ele>1026.8000488281</ele>
        <time>2024-01-30T10:36:26.000Z</time>
      </trkpt>
      <trkpt lat="44.5117" lon="3.51798">
        <ele>1025.4000244141</ele>
        <time>2024-01-30T10:36:27.000Z</time>
      </trkpt>
      <trkpt lat="44.5117" lon="3.51774">
        <ele>1023.799987793</ele>
        <time>2024-01-30T10:36:28.000Z</time>
      </trkpt>
      <trkpt lat="44.51169" lon="3.51753">
        <ele>1021.799987793</ele>
        <time>2024-01-30T10:36:29.000Z</time>
      </trkpt>
      <trkpt lat="44.51168" lon="3.51736">
        <ele>1020</ele>
        <time>2024-01-30T10:36:30.000Z</time>
      </trkpt>
      <trkpt lat="44.51165" lon="3.5171">
        <ele>1017.799987793</ele>
        <time>2024-01-30T10:36:31.000Z</time>
      </trkpt>
      <trkpt lat="44.51163" lon="3.51692">
        <ele>1015.799987793</ele>
        <time>2024-01-30T10:36:32.000Z</time>
      </trkpt>
      <trkpt lat="44.51161" lon="3.51669">
        <ele>1014</ele>
        <time>2024-01-30T10:36:33.000Z</time>
      </trkpt>
      <trkpt lat="44.51159" lon="3.51641">
        <ele>1011.5999755859</ele>
        <time>2024-01-30T10:36:34.000Z</time>
      </trkpt>
      <trkpt lat="44.51155" lon="3.51621">
        <ele>1009.5999755859</ele>
        <time>2024-01-30T10:36:35.000Z</time>
      </trkpt>
      <trkpt lat="44.51153" lon="3.51597">
        <ele>1008</ele>
        <time>2024-01-30T10:36:36.000Z</time>
      </trkpt>
      <trkpt lat="44.5115" lon="3.51571">
        <ele>1005.5999755859</ele>
        <time>2024-01-30T10:36:37.000Z</time>
      </trkpt>
      <trkpt lat="44.5115" lon="3.51554">
        <ele>1003.5999755859</ele>
        <time>2024-01-30T10:36:38.000Z</time>
      </trkpt>
      <trkpt lat="44.51149" lon="3.51529">
        <ele>1001.200012207</ele>
        <time>2024-01-30T10:36:39.000Z</time>
      </trkpt>
      <trkpt lat="44.51148" lon="3.51509">
        <ele>999</ele>
        <time>2024-01-30T10:36:40.000Z</time>
      </trkpt>
      <trkpt lat="44.51147" lon="3.51489">
        <ele>996.59997558594</ele>
        <time>2024-01-30T10:36:41.000Z</time>
      </trkpt>
      <trkpt lat="44.51144" lon="3.51469">
        <ele>994.40002441406</ele>
        <time>2024-01-30T10:36:42.000Z</time>
      </trkpt>
      <trkpt lat="44.5114" lon="3.5145">
        <ele>992.59997558594</ele>
        <time>2024-01-30T10:36:43.000Z</time>
      </trkpt>
      <trkpt lat="44.51135" lon="3.51432">
        <ele>990.79998779297</ele>
        <time>2024-01-30T10:36:44.000Z</time>
      </trkpt>
      <trkpt lat="44.5113" lon="3.51414">
        <ele>988.59997558594</ele>
        <time>2024-01-30T10:36:45.000Z</time>
      </trkpt>
      <trkpt lat="44.51124" lon="3.51398">
        <ele>986.79998779297</ele>
        <time>2024-01-30T10:36:46.000Z</time>
      </trkpt>
      <trkpt lat="44.51118" lon="3.51382">
        <ele>985</ele>
        <time>2024-01-30T10:36:47.000Z</time>
      </trkpt>
      <trkpt lat="44.51113" lon="3.51366">
        <ele>983.40002441406</ele>
        <time>2024-01-30T10:36:48.000Z</time>
      </trkpt>
      <trkpt lat="44.51107" lon="3.51352">
        <ele>981.79998779297</ele>
        <time>2024-01-30T10:36:49.000Z</time>
      </trkpt>
      <trkpt lat="44.51104" lon="3.51336">
        <ele>980.20001220703</ele>
        <time>2024-01-30T10:36:50.000Z</time>
      </trkpt>
      <trkpt lat="44.51102" lon="3.51318">
        <ele>978.59997558594</ele>
        <time>2024-01-30T10:36:51.000Z</time>
      </trkpt>
      <trkpt lat="44.511" lon="3.51301">
        <ele>977</ele>
        <time>2024-01-30T10:36:52.000Z</time>
      </trkpt>
      <trkpt lat="44.51098" lon="3.51282">
        <ele>975.40002441406</ele>
        <time>2024-01-30T10:36:53.000Z</time>
      </trkpt>
      <trkpt lat="44.51096" lon="3.51262">
        <ele>973.59997558594</ele>
        <time>2024-01-30T10:36:54.000Z</time>
      </trkpt>
      <trkpt lat="44.51095" lon="3.51242">
        <ele>971.79998779297</ele>
        <time>2024-01-30T10:36:55.000Z</time>
      </trkpt>
      <trkpt lat="44.51092" lon="3.51221">
        <ele>970</ele>
        <time>2024-01-30T10:36:56.000Z</time>
      </trkpt>
      <trkpt lat="44.51089" lon="3.51199">
        <ele>967.79998779297</ele>
        <time>2024-01-30T10:36:57.000Z</time>
      </trkpt>
      <trkpt lat="44.51086" lon="3.51178">
        <ele>965.79998779297</ele>
        <time>2024-01-30T10:36:58.000Z</time>
      </trkpt>
      <trkpt lat="44.51082" lon="3.51158">
        <ele>963.40002441406</ele>
        <time>2024-01-30T10:36:59.000Z</time>
      </trkpt>
      <trkpt lat="44.51079" lon="3.51138">
        <ele>961.59997558594</ele>
        <time>2024-01-30T10:37:00.000Z</time>
      </trkpt>
      <trkpt lat="44.51077" lon="3.51118">
        <ele>959.59997558594</ele>
        <time>2024-01-30T10:37:01.000Z</time>
      </trkpt>
      <trkpt lat="44.51076" lon="3.51099">
        <ele>957.59997558594</ele>
        <time>2024-01-30T10:37:02.000Z</time>
      </trkpt>
      <trkpt lat="44.51077" lon="3.51081">
        <ele>955.40002441406</ele>
        <time>2024-01-30T10:37:03.000Z</time>
      </trkpt>
      <trkpt lat="44.5108" lon="3.51065">
        <ele>953</ele>
        <time>2024-01-30T10:37:04.000Z</time>
      </trkpt>
      <trkpt lat="44.51083" lon="3.5105">
        <ele>950.59997558594</ele>
        <time>2024-01-30T10:37:05.000Z</time>
      </trkpt>
      <trkpt lat="44.51086" lon="3.51037">
        <ele>948.40002441406</ele>
        <time>2024-01-30T10:37:06.000Z</time>
      </trkpt>
      <trkpt lat="44.51087" lon="3.51026">
        <ele>946.40002441406</ele>
        <time>2024-01-30T10:37:07.000Z</time>
      </trkpt>
      <trkpt lat="44.51085" lon="3.51015">
        <ele>945</ele>
        <time>2024-01-30T10:37:08.000Z</time>
      </trkpt>
      <trkpt lat="44.51082" lon="3.51005">
        <ele>944</ele>
        <time>2024-01-30T10:37:09.000Z</time>
      </trkpt>
      <trkpt lat="44.51078" lon="3.50995">
        <ele>943</ele>
        <time>2024-01-30T10:37:10.000Z</time>
      </trkpt>
      <trkpt lat="44.51075" lon="3.50984">
        <ele>942</ele>
        <time>2024-01-30T10:37:11.000Z</time>
      </trkpt>
      <trkpt lat="44.51074" lon="3.50974">
        <ele>940.79998779297</ele>
        <time>2024-01-30T10:37:12.000Z</time>
      </trkpt>
      <trkpt lat="44.51076" lon="3.50962">
        <ele>940</ele>
        <time>2024-01-30T10:37:13.000Z</time>
      </trkpt>
      <trkpt lat="44.51082" lon="3.50949">
        <ele>939</ele>
        <time>2024-01-30T10:37:14.000Z</time>
      </trkpt>
      <trkpt lat="44.5109" lon="3.50937">
        <ele>938</ele>
        <time>2024-01-30T10:37:15.000Z</time>
      </trkpt>
      <trkpt lat="44.51097" lon="3.50924">
        <ele>936.79998779297</ele>
        <time>2024-01-30T10:37:16.000Z</time>
      </trkpt>
      <trkpt lat="44.51106" lon="3.50912">
        <ele>935.40002441406</ele>
        <time>2024-01-30T10:37:17.000Z</time>
      </trkpt>
      <trkpt lat="44.51115" lon="3.50897">
        <ele>933.59997558594</ele>
        <time>2024-01-30T10:37:18.000Z</time>
      </trkpt>
      <trkpt lat="44.51125" lon="3.50882">
        <ele>931.79998779297</ele>
        <time>2024-01-30T10:37:19.000Z</time>
      </trkpt>
      <trkpt lat="44.51134" lon="3.50864">
        <ele>929.79998779297</ele>
        <time>2024-01-30T10:37:20.000Z</time>
      </trkpt>
      <trkpt lat="44.51142" lon="3.50846">
        <ele>927.79998779297</ele>
        <time>2024-01-30T10:37:21.000Z</time>
      </trkpt>
      <trkpt lat="44.51151" lon="3.50827">
        <ele>925.20001220703</ele>
        <time>2024-01-30T10:37:22.000Z</time>
      </trkpt>
      <trkpt lat="44.5116" lon="3.50804">
        <ele>922.59997558594</ele>
        <time>2024-01-30T10:37:23.000Z</time>
      </trkpt>
      <trkpt lat="44.51168" lon="3.50784">
        <ele>920.59997558594</ele>
        <time>2024-01-30T10:37:24.000Z</time>
      </trkpt>
      <trkpt lat="44.51173" lon="3.50765">
        <ele>918</ele>
        <time>2024-01-30T10:37:25.000Z</time>
      </trkpt>
      <trkpt lat="44.51179" lon="3.50747">
        <ele>915.40002441406</ele>
        <time>2024-01-30T10:37:26.000Z</time>
      </trkpt>
      <trkpt lat="44.51184" lon="3.50731">
        <ele>913</ele>
        <time>2024-01-30T10:37:27.000Z</time>
      </trkpt>
      <trkpt lat="44.51189" lon="3.50716">
        <ele>910.40002441406</ele>
        <time>2024-01-30T10:37:28.000Z</time>
      </trkpt>
      <trkpt lat="44.51191" lon="3.50705">
        <ele>908.20001220703</ele>
        <time>2024-01-30T10:37:29.000Z</time>
      </trkpt>
      <trkpt lat="44.51191" lon="3.50693">
        <ele>906.20001220703</ele>
        <time>2024-01-30T10:37:30.000Z</time>
      </trkpt>
      <trkpt lat="44.51189" lon="3.50683">
        <ele>904.79998779297</ele>
        <time>2024-01-30T10:37:31.000Z</time>
      </trkpt>
      <trkpt lat="44.51185" lon="3.50674">
        <ele>903.40002441406</ele>
        <time>2024-01-30T10:37:32.000Z</time>
      </trkpt>
      <trkpt lat="44.5118" lon="3.50665">
        <ele>902.59997558594</ele>
        <time>2024-01-30T10:37:33.000Z</time>
      </trkpt>
      <trkpt lat="44.51173" lon="3.50657">
        <ele>901.59997558594</ele>
        <time>2024-01-30T10:37:34.000Z</time>
      </trkpt>
      <trkpt lat="44.51165" lon="3.50649">
        <ele>900.59997558594</ele>
        <time>2024-01-30T10:37:35.000Z</time>
      </trkpt>
      <trkpt lat="44.51156" lon="3.50643">
        <ele>899.20001220703</ele>
        <time>2024-01-30T10:37:36.000Z</time>
      </trkpt>
      <trkpt lat="44.51145" lon="3.50637">
        <ele>897.59997558594</ele>
        <time>2024-01-30T10:37:37.000Z</time>
      </trkpt>
      <trkpt lat="44.51132" lon="3.50629">
        <ele>896.20001220703</ele>
        <time>2024-01-30T10:37:38.000Z</time>
      </trkpt>
      <trkpt lat="44.51117" lon="3.5062">
        <ele>894.79998779297</ele>
        <time>2024-01-30T10:37:39.000Z</time>
      </trkpt>
      <trkpt lat="44.51105" lon="3.50611">
        <ele>893.20001220703</ele>
        <time>2024-01-30T10:37:40.000Z</time>
      </trkpt>
      <trkpt lat="44.51092" lon="3.506">
        <ele>891.59997558594</ele>
        <time>2024-01-30T10:37:41.000Z</time>
      </trkpt>
      <trkpt lat="44.51077" lon="3.50585">
        <ele>889.79998779297</ele>
        <time>2024-01-30T10:37:42.000Z</time>
      </trkpt>
      <trkpt lat="44.51067" lon="3.50575">
        <ele>887.20001220703</ele>
        <time>2024-01-30T10:37:43.000Z</time>
      </trkpt>
      <trkpt lat="44.51055" lon="3.50561">
        <ele>884.59997558594</ele>
        <time>2024-01-30T10:37:44.000Z</time>
      </trkpt>
      <trkpt lat="44.51043" lon="3.50546">
        <ele>882.20001220703</ele>
        <time>2024-01-30T10:37:45.000Z</time>
      </trkpt>
      <trkpt lat="44.51033" lon="3.50531">
        <ele>880</ele>
        <time>2024-01-30T10:37:46.000Z</time>
      </trkpt>
      <trkpt lat="44.51022" lon="3.50513">
        <ele>877.59997558594</ele>
        <time>2024-01-30T10:37:47.000Z</time>
      </trkpt>
      <trkpt lat="44.51014" lon="3.505">
        <ele>875.59997558594</ele>
        <time>2024-01-30T10:37:48.000Z</time>
      </trkpt>
      <trkpt lat="44.51007" lon="3.5049">
        <ele>872.79998779297</ele>
        <time>2024-01-30T10:37:49.000Z</time>
      </trkpt>
      <trkpt lat="44.50996" lon="3.50476">
        <ele>871.40002441406</ele>
        <time>2024-01-30T10:37:50.000Z</time>
      </trkpt>
      <trkpt lat="44.50986" lon="3.50465">
        <ele>870.20001220703</ele>
        <time>2024-01-30T10:37:51.000Z</time>
      </trkpt>
      <trkpt lat="44.50976" lon="3.50454">
        <ele>868.59997558594</ele>
        <time>2024-01-30T10:37:52.000Z</time>
      </trkpt>
      <trkpt lat="44.50967" lon="3.50447">
        <ele>866.40002441406</ele>
        <time>2024-01-30T10:37:53.000Z</time>
      </trkpt>
      <trkpt lat="44.50954" lon="3.50438">
        <ele>864.40002441406</ele>
        <time>2024-01-30T10:37:54.000Z</time>
      </trkpt>
      <trkpt lat="44.50943" lon="3.50432">
        <ele>862.79998779297</ele>
        <time>2024-01-30T10:37:55.000Z</time>
      </trkpt>
      <trkpt lat="44.50933" lon="3.50427">
        <ele>861</ele>
        <time>2024-01-30T10:37:56.000Z</time>
      </trkpt>
      <trkpt lat="44.50923" lon="3.50422">
        <ele>859.59997558594</ele>
        <time>2024-01-30T10:37:57.000Z</time>
      </trkpt>
      <trkpt lat="44.50906" lon="3.50409">
        <ele>857</ele>
        <time>2024-01-30T10:37:59.000Z</time>
      </trkpt>
      <trkpt lat="44.50898" lon="3.50402">
        <ele>855.40002441406</ele>
        <time>2024-01-30T10:38:00.000Z</time>
      </trkpt>
      <trkpt lat="44.50893" lon="3.50397">
        <ele>854</ele>
        <time>2024-01-30T10:38:01.000Z</time>
      </trkpt>
      <trkpt lat="44.50887" lon="3.50388">
        <ele>852.40002441406</ele>
        <time>2024-01-30T10:38:02.000Z</time>
      </trkpt>
      <trkpt lat="44.50885" lon="3.50382">
        <ele>851.20001220703</ele>
        <time>2024-01-30T10:38:03.000Z</time>
      </trkpt>
      <trkpt lat="44.50885" lon="3.50377">
        <ele>850.20001220703</ele>
        <time>2024-01-30T10:38:04.000Z</time>
      </trkpt>
      <trkpt lat="44.50888" lon="3.50373">
        <ele>849.59997558594</ele>
        <time>2024-01-30T10:38:05.000Z</time>
      </trkpt>
      <trkpt lat="44.50899" lon="3.50373">
        <ele>848.40002441406</ele>
        <time>2024-01-30T10:38:07.000Z</time>
      </trkpt>
      <trkpt lat="44.50906" lon="3.50376">
        <ele>847.59997558594</ele>
        <time>2024-01-30T10:38:08.000Z</time>
      </trkpt>
      <trkpt lat="44.50914" lon="3.5038">
        <ele>846.79998779297</ele>
        <time>2024-01-30T10:38:09.000Z</time>
      </trkpt>
      <trkpt lat="44.50923" lon="3.50384">
        <ele>845.79998779297</ele>
        <time>2024-01-30T10:38:10.000Z</time>
      </trkpt>
      <trkpt lat="44.50932" lon="3.50388">
        <ele>844.79998779297</ele>
        <time>2024-01-30T10:38:11.000Z</time>
      </trkpt>
      <trkpt lat="44.5094" lon="3.50391">
        <ele>844</ele>
        <time>2024-01-30T10:38:12.000Z</time>
      </trkpt>
      <trkpt lat="44.50951" lon="3.50393">
        <ele>842.40002441406</ele>
        <time>2024-01-30T10:38:13.000Z</time>
      </trkpt>
      <trkpt lat="44.50965" lon="3.50393">
        <ele>841.40002441406</ele>
        <time>2024-01-30T10:38:14.000Z</time>
      </trkpt>
      <trkpt lat="44.50974" lon="3.50393">
        <ele>839.79998779297</ele>
        <time>2024-01-30T10:38:15.000Z</time>
      </trkpt>
      <trkpt lat="44.50988" lon="3.50395">
        <ele>838.20001220703</ele>
        <time>2024-01-30T10:38:16.000Z</time>
      </trkpt>
      <trkpt lat="44.51" lon="3.50397">
        <ele>836.20001220703</ele>
        <time>2024-01-30T10:38:17.000Z</time>
      </trkpt>
      <trkpt lat="44.5101" lon="3.504">
        <ele>834.59997558594</ele>
        <time>2024-01-30T10:38:18.000Z</time>
      </trkpt>
      <trkpt lat="44.51021" lon="3.50403">
        <ele>832.59997558594</ele>
        <time>2024-01-30T10:38:19.000Z</time>
      </trkpt>
      <trkpt lat="44.51032" lon="3.50406">
        <ele>831</ele>
        <time>2024-01-30T10:38:20.000Z</time>
      </trkpt>
      <trkpt lat="44.51043" lon="3.50411">
        <ele>829.59997558594</ele>
        <time>2024-01-30T10:38:21.000Z</time>
      </trkpt>
      <trkpt lat="44.51053" lon="3.50415">
        <ele>828.20001220703</ele>
        <time>2024-01-30T10:38:22.000Z</time>
      </trkpt>
      <trkpt lat="44.51062" lon="3.50418">
        <ele>826.59997558594</ele>
        <time>2024-01-30T10:38:23.000Z</time>
      </trkpt>
      <trkpt lat="44.51071" lon="3.50421">
        <ele>825</ele>
        <time>2024-01-30T10:38:24.000Z</time>
      </trkpt>
      <trkpt lat="44.51078" lon="3.50422">
        <ele>824</ele>
        <time>2024-01-30T10:38:25.000Z</time>
      </trkpt>
      <trkpt lat="44.5109" lon="3.50421">
        <ele>822</ele>
        <time>2024-01-30T10:38:27.000Z</time>
      </trkpt>
      <trkpt lat="44.51094" lon="3.50409">
        <ele>821</ele>
        <time>2024-01-30T10:38:29.000Z</time>
      </trkpt>
      <trkpt lat="44.51092" lon="3.50401">
        <ele>820.40002441406</ele>
        <time>2024-01-30T10:38:30.000Z</time>
      </trkpt>
      <trkpt lat="44.51088" lon="3.50394">
        <ele>819.59997558594</ele>
        <time>2024-01-30T10:38:31.000Z</time>
      </trkpt>
      <trkpt lat="44.51083" lon="3.50387">
        <ele>819</ele>
        <time>2024-01-30T10:38:32.000Z</time>
      </trkpt>
      <trkpt lat="44.51069" lon="3.50372">
        <ele>817</ele>
        <time>2024-01-30T10:38:34.000Z</time>
      </trkpt>
      <trkpt lat="44.51053" lon="3.50355">
        <ele>815.20001220703</ele>
        <time>2024-01-30T10:38:36.000Z</time>
      </trkpt>
      <trkpt lat="44.51045" lon="3.50346">
        <ele>813.79998779297</ele>
        <time>2024-01-30T10:38:37.000Z</time>
      </trkpt>
      <trkpt lat="44.51037" lon="3.50338">
        <ele>812.59997558594</ele>
        <time>2024-01-30T10:38:38.000Z</time>
      </trkpt>
      <trkpt lat="44.5103" lon="3.50332">
        <ele>811.59997558594</ele>
        <time>2024-01-30T10:38:39.000Z</time>
      </trkpt>
      <trkpt lat="44.51024" lon="3.50326">
        <ele>810.20001220703</ele>
        <time>2024-01-30T10:38:40.000Z</time>
      </trkpt>
      <trkpt lat="44.51019" lon="3.50321">
        <ele>809.40002441406</ele>
        <time>2024-01-30T10:38:41.000Z</time>
      </trkpt>
      <trkpt lat="44.51016" lon="3.50314">
        <ele>808.79998779297</ele>
        <time>2024-01-30T10:38:42.000Z</time>
      </trkpt>
      <trkpt lat="44.51015" lon="3.50306">
        <ele>808.40002441406</ele>
        <time>2024-01-30T10:38:43.000Z</time>
      </trkpt>
      <trkpt lat="44.51016" lon="3.50299">
        <ele>808</ele>
        <time>2024-01-30T10:38:44.000Z</time>
      </trkpt>
      <trkpt lat="44.5102" lon="3.50295">
        <ele>807.59997558594</ele>
        <time>2024-01-30T10:38:45.000Z</time>
      </trkpt>
      <trkpt lat="44.51033" lon="3.50292">
        <ele>806.20001220703</ele>
        <time>2024-01-30T10:38:47.000Z</time>
      </trkpt>
      <trkpt lat="44.51041" lon="3.50294">
        <ele>805.20001220703</ele>
        <time>2024-01-30T10:38:48.000Z</time>
      </trkpt>
      <trkpt lat="44.51052" lon="3.50296">
        <ele>804</ele>
        <time>2024-01-30T10:38:49.000Z</time>
      </trkpt>
      <trkpt lat="44.51068" lon="3.50301">
        <ele>801.59997558594</ele>
        <time>2024-01-30T10:38:51.000Z</time>
      </trkpt>
      <trkpt lat="44.51077" lon="3.50302">
        <ele>800</ele>
        <time>2024-01-30T10:38:52.000Z</time>
      </trkpt>
      <trkpt lat="44.51085" lon="3.50303">
        <ele>798.79998779297</ele>
        <time>2024-01-30T10:38:53.000Z</time>
      </trkpt>
      <trkpt lat="44.51103" lon="3.50306">
        <ele>796.79998779297</ele>
        <time>2024-01-30T10:38:55.000Z</time>
      </trkpt>
      <trkpt lat="44.51109" lon="3.50306">
        <ele>795.40002441406</ele>
        <time>2024-01-30T10:38:56.000Z</time>
      </trkpt>
      <trkpt lat="44.51118" lon="3.50306">
        <ele>794.20001220703</ele>
        <time>2024-01-30T10:38:57.000Z</time>
      </trkpt>
      <trkpt lat="44.51124" lon="3.50306">
        <ele>793.20001220703</ele>
        <time>2024-01-30T10:38:58.000Z</time>
      </trkpt>
      <trkpt lat="44.51129" lon="3.50306">
        <ele>792.20001220703</ele>
        <time>2024-01-30T10:38:59.000Z</time>
      </trkpt>
      <trkpt lat="44.5114" lon="3.50306">
        <ele>791</ele>
        <time>2024-01-30T10:39:01.000Z</time>
      </trkpt>
      <trkpt lat="44.51147" lon="3.50306">
        <ele>790.40002441406</ele>
        <time>2024-01-30T10:39:02.000Z</time>
      </trkpt>
      <trkpt lat="44.51161" lon="3.50305">
        <ele>789.59997558594</ele>
        <time>2024-01-30T10:39:04.000Z</time>
      </trkpt>
      <trkpt lat="44.51179" lon="3.50303">
        <ele>788</ele>
        <time>2024-01-30T10:39:06.000Z</time>
      </trkpt>
      <trkpt lat="44.51197" lon="3.50299">
        <ele>786.59997558594</ele>
        <time>2024-01-30T10:39:08.000Z</time>
      </trkpt>
      <trkpt lat="44.5121" lon="3.50294">
        <ele>785.59997558594</ele>
        <time>2024-01-30T10:39:09.000Z</time>
      </trkpt>
      <trkpt lat="44.5122" lon="3.50289">
        <ele>785</ele>
        <time>2024-01-30T10:39:10.000Z</time>
      </trkpt>
      <trkpt lat="44.51227" lon="3.50283">
        <ele>784</ele>
        <time>2024-01-30T10:39:11.000Z</time>
      </trkpt>
      <trkpt lat="44.51237" lon="3.50273">
        <ele>783.40002441406</ele>
        <time>2024-01-30T10:39:12.000Z</time>
      </trkpt>
      <trkpt lat="44.51243" lon="3.50264">
        <ele>782.40002441406</ele>
        <time>2024-01-30T10:39:13.000Z</time>
      </trkpt>
      <trkpt lat="44.51253" lon="3.50252">
        <ele>781.59997558594</ele>
        <time>2024-01-30T10:39:14.000Z</time>
      </trkpt>
      <trkpt lat="44.5127" lon="3.50233">
        <ele>780.40002441406</ele>
        <time>2024-01-30T10:39:16.000Z</time>
      </trkpt>
      <trkpt lat="44.51278" lon="3.50224">
        <ele>779.20001220703</ele>
        <time>2024-01-30T10:39:17.000Z</time>
      </trkpt>
      <trkpt lat="44.5129" lon="3.50212">
        <ele>778.59997558594</ele>
        <time>2024-01-30T10:39:18.000Z</time>
      </trkpt>
      <trkpt lat="44.51297" lon="3.50203">
        <ele>778</ele>
        <time>2024-01-30T10:39:19.000Z</time>
      </trkpt>
      <trkpt lat="44.51317" lon="3.50182">
        <ele>776.20001220703</ele>
        <time>2024-01-30T10:39:21.000Z</time>
      </trkpt>
      <trkpt lat="44.51338" lon="3.50159">
        <ele>774.59997558594</ele>
        <time>2024-01-30T10:39:23.000Z</time>
      </trkpt>
      <trkpt lat="44.51346" lon="3.50149">
        <ele>773.59997558594</ele>
        <time>2024-01-30T10:39:24.000Z</time>
      </trkpt>
      <trkpt lat="44.51356" lon="3.50141">
        <ele>773</ele>
        <time>2024-01-30T10:39:25.000Z</time>
      </trkpt>
      <trkpt lat="44.51364" lon="3.50136">
        <ele>771.79998779297</ele>
        <time>2024-01-30T10:39:26.000Z</time>
      </trkpt>
      <trkpt lat="44.51375" lon="3.50131">
        <ele>771</ele>
        <time>2024-01-30T10:39:27.000Z</time>
      </trkpt>
      <trkpt lat="44.51385" lon="3.50127">
        <ele>769.79998779297</ele>
        <time>2024-01-30T10:39:28.000Z</time>
      </trkpt>
      <trkpt lat="44.51404" lon="3.50122">
        <ele>768.20001220703</ele>
        <time>2024-01-30T10:39:30.000Z</time>
      </trkpt>
      <trkpt lat="44.51413" lon="3.50118">
        <ele>767.40002441406</ele>
        <time>2024-01-30T10:39:31.000Z</time>
      </trkpt>
      <trkpt lat="44.51424" lon="3.50112">
        <ele>767</ele>
        <time>2024-01-30T10:39:32.000Z</time>
      </trkpt>
      <trkpt lat="44.51451" lon="3.50099">
        <ele>765.40002441406</ele>
        <time>2024-01-30T10:39:35.000Z</time>
      </trkpt>
      <trkpt lat="44.51465" lon="3.50093">
        <ele>763.59997558594</ele>
        <time>2024-01-30T10:39:37.000Z</time>
      </trkpt>
      <trkpt lat="44.51479" lon="3.50089">
        <ele>761.40002441406</ele>
        <time>2024-01-30T10:39:39.000Z</time>
      </trkpt>
      <trkpt lat="44.51491" lon="3.50084">
        <ele>760</ele>
        <time>2024-01-30T10:39:41.000Z</time>
      </trkpt>
      <trkpt lat="44.51495" lon="3.50082">
        <ele>759.40002441406</ele>
        <time>2024-01-30T10:39:42.000Z</time>
      </trkpt>
      <trkpt lat="44.51498" lon="3.50079">
        <ele>758.79998779297</ele>
        <time>2024-01-30T10:39:43.000Z</time>
      </trkpt>
      <trkpt lat="44.515" lon="3.50076">
        <ele>758.59997558594</ele>
        <time>2024-01-30T10:39:44.000Z</time>
      </trkpt>
      <trkpt lat="44.51506" lon="3.50053">
        <ele>758.40002441406</ele>
        <time>2024-01-30T10:39:48.000Z</time>
      </trkpt>
      <trkpt lat="44.51508" lon="3.50046">
        <ele>758.20001220703</ele>
        <time>2024-01-30T10:39:49.000Z</time>
      </trkpt>
      <trkpt lat="44.5151" lon="3.50037">
        <ele>757.79998779297</ele>
        <time>2024-01-30T10:39:50.000Z</time>
      </trkpt>
      <trkpt lat="44.51512" lon="3.50019">
        <ele>756.59997558594</ele>
        <time>2024-01-30T10:39:52.000Z</time>
      </trkpt>
      <trkpt lat="44.51513" lon="3.5001">
        <ele>756.20001220703</ele>
        <time>2024-01-30T10:39:53.000Z</time>
      </trkpt>
      <trkpt lat="44.51515" lon="3.50001">
        <ele>755.40002441406</ele>
        <time>2024-01-30T10:39:54.000Z</time>
      </trkpt>
      <trkpt lat="44.51519" lon="3.49986">
        <ele>753.59997558594</ele>
        <time>2024-01-30T10:39:56.000Z</time>
      </trkpt>
      <trkpt lat="44.51521" lon="3.4998">
        <ele>752.79998779297</ele>
        <time>2024-01-30T10:39:57.000Z</time>
      </trkpt>
      <trkpt lat="44.51524" lon="3.49974">
        <ele>752.20001220703</ele>
        <time>2024-01-30T10:39:58.000Z</time>
      </trkpt>
      <trkpt lat="44.51526" lon="3.4997">
        <ele>751.79998779297</ele>
        <time>2024-01-30T10:39:59.000Z</time>
      </trkpt>
      <trkpt lat="44.51534" lon="3.49966">
        <ele>751.20001220703</ele>
        <time>2024-01-30T10:40:01.000Z</time>
      </trkpt>
      <trkpt lat="44.51538" lon="3.49964">
        <ele>751</ele>
        <time>2024-01-30T10:40:02.000Z</time>
      </trkpt>
      <trkpt lat="44.51543" lon="3.49962">
        <ele>749.40002441406</ele>
        <time>2024-01-30T10:40:04.000Z</time>
      </trkpt>
      <trkpt lat="44.51544" lon="3.49962">
        <ele>748.79998779297</ele>
        <time>2024-01-30T10:40:05.000Z</time>
      </trkpt>
      <trkpt lat="44.51547" lon="3.49959">
        <ele>748.79998779297</ele>
        <time>2024-01-30T10:40:11.000Z</time>
      </trkpt>
      <trkpt lat="44.51555" lon="3.49957">
        <ele>748</ele>
        <time>2024-01-30T10:40:14.000Z</time>
      </trkpt>
      <trkpt lat="44.51557" lon="3.49957">
        <ele>747.59997558594</ele>
        <time>2024-01-30T10:40:15.000Z</time>
      </trkpt>
      <trkpt lat="44.51565" lon="3.49954">
        <ele>746.79998779297</ele>
        <time>2024-01-30T10:40:20.000Z</time>
      </trkpt>
      <trkpt lat="44.51568" lon="3.49952">
        <ele>746.59997558594</ele>
        <time>2024-01-30T10:40:22.000Z</time>
      </trkpt>
      <trkpt lat="44.51583" lon="3.49942">
        <ele>745.59997558594</ele>
        <time>2024-01-30T10:40:30.000Z</time>
      </trkpt>
      <trkpt lat="44.51596" lon="3.49938">
        <ele>744.59997558594</ele>
        <time>2024-01-30T10:40:35.000Z</time>
      </trkpt>
      <trkpt lat="44.51599" lon="3.49937">
        <ele>744.59997558594</ele>
        <time>2024-01-30T10:40:36.000Z</time>
      </trkpt>
      <trkpt lat="44.51609" lon="3.49933">
        <ele>743.20001220703</ele>
        <time>2024-01-30T10:40:40.000Z</time>
      </trkpt>
      <trkpt lat="44.51611" lon="3.49931">
        <ele>743.20001220703</ele>
        <time>2024-01-30T10:40:42.000Z</time>
      </trkpt>
      <trkpt lat="44.51622" lon="3.49928">
        <ele>742.40002441406</ele>
        <time>2024-01-30T10:40:49.000Z</time>
      </trkpt>
      <trkpt lat="44.51624" lon="3.49929">
        <ele>742.20001220703</ele>
        <time>2024-01-30T10:40:51.000Z</time>
      </trkpt>
      <trkpt lat="44.51624" lon="3.49929">
        <ele>742.20001220703</ele>
        <time>2024-01-30T10:40:55.000Z</time>
      </trkpt>
      <trkpt lat="44.51626" lon="3.49931">
        <ele>742.20001220703</ele>
        <time>2024-01-30T10:40:57.000Z</time>
      </trkpt>
      <trkpt lat="44.5163" lon="3.49936">
        <ele>742.20001220703</ele>
        <time>2024-01-30T10:40:59.000Z</time>
      </trkpt>
      <trkpt lat="44.51638" lon="3.49959">
        <ele>742</ele>
        <time>2024-01-30T10:41:04.000Z</time>
      </trkpt>
      <trkpt lat="44.51647" lon="3.49979">
        <ele>741.40002441406</ele>
        <time>2024-01-30T10:41:07.000Z</time>
      </trkpt>
      <trkpt lat="44.5165" lon="3.49985">
        <ele>741.20001220703</ele>
        <time>2024-01-30T10:41:08.000Z</time>
      </trkpt>
      <trkpt lat="44.51654" lon="3.49992">
        <ele>741</ele>
        <time>2024-01-30T10:41:09.000Z</time>
      </trkpt>
      <trkpt lat="44.51675" lon="3.50021">
        <ele>739.59997558594</ele>
        <time>2024-01-30T10:41:14.000Z</time>
      </trkpt>
      <trkpt lat="44.51688" lon="3.50037">
        <ele>738.59997558594</ele>
        <time>2024-01-30T10:41:17.000Z</time>
      </trkpt>
      <trkpt lat="44.51697" lon="3.50049">
        <ele>737.40002441406</ele>
        <time>2024-01-30T10:41:20.000Z</time>
      </trkpt>
      <trkpt lat="44.51712" lon="3.50066">
        <ele>736.59997558594</ele>
        <time>2024-01-30T10:41:25.000Z</time>
      </trkpt>
      <trkpt lat="44.51714" lon="3.5007">
        <ele>736.40002441406</ele>
        <time>2024-01-30T10:41:26.000Z</time>
      </trkpt>
      <trkpt lat="44.51728" lon="3.50084">
        <ele>735.40002441406</ele>
        <time>2024-01-30T10:41:31.000Z</time>
      </trkpt>
      <trkpt lat="44.51733" lon="3.5009">
        <ele>735.20001220703</ele>
        <time>2024-01-30T10:41:33.000Z</time>
      </trkpt>
      <trkpt lat="44.51748" lon="3.50104">
        <ele>734.20001220703</ele>
        <time>2024-01-30T10:41:38.000Z</time>
      </trkpt>
      <trkpt lat="44.5175" lon="3.50107">
        <ele>733.79998779297</ele>
        <time>2024-01-30T10:41:39.000Z</time>
      </trkpt>
      <trkpt lat="44.51763" lon="3.50118">
        <ele>733</ele>
        <time>2024-01-30T10:41:43.000Z</time>
      </trkpt>
      <trkpt lat="44.51778" lon="3.50133">
        <ele>732</ele>
        <time>2024-01-30T10:41:48.000Z</time>
      </trkpt>
      <trkpt lat="44.51783" lon="3.50138">
        <ele>731.40002441406</ele>
        <time>2024-01-30T10:41:52.000Z</time>
      </trkpt>
      <trkpt lat="44.51785" lon="3.50138">
        <ele>731.40002441406</ele>
        <time>2024-01-30T10:41:56.000Z</time>
      </trkpt>
      <trkpt lat="44.5179" lon="3.50141">
        <ele>731.40002441406</ele>
        <time>2024-01-30T10:41:58.000Z</time>
      </trkpt>
      <trkpt lat="44.51801" lon="3.50145">
        <ele>731</ele>
        <time>2024-01-30T10:42:02.000Z</time>
      </trkpt>
      <trkpt lat="44.5181" lon="3.50142">
        <ele>730.20001220703</ele>
        <time>2024-01-30T10:42:04.000Z</time>
      </trkpt>
      <trkpt lat="44.51823" lon="3.50131">
        <ele>729.40002441406</ele>
        <time>2024-01-30T10:42:06.000Z</time>
      </trkpt>
      <trkpt lat="44.5183" lon="3.50124">
        <ele>728.40002441406</ele>
        <time>2024-01-30T10:42:07.000Z</time>
      </trkpt>
      <trkpt lat="44.51838" lon="3.50116">
        <ele>727.79998779297</ele>
        <time>2024-01-30T10:42:08.000Z</time>
      </trkpt>
      <trkpt lat="44.51853" lon="3.50101">
        <ele>726.59997558594</ele>
        <time>2024-01-30T10:42:10.000Z</time>
      </trkpt>
      <trkpt lat="44.5186" lon="3.50091">
        <ele>725.59997558594</ele>
        <time>2024-01-30T10:42:11.000Z</time>
      </trkpt>
      <trkpt lat="44.51868" lon="3.50082">
        <ele>725.40002441406</ele>
        <time>2024-01-30T10:42:12.000Z</time>
      </trkpt>
      <trkpt lat="44.51875" lon="3.50071">
        <ele>725</ele>
        <time>2024-01-30T10:42:13.000Z</time>
      </trkpt>
      <trkpt lat="44.51881" lon="3.5006">
        <ele>724.20001220703</ele>
        <time>2024-01-30T10:42:14.000Z</time>
      </trkpt>
      <trkpt lat="44.51887" lon="3.5005">
        <ele>724</ele>
        <time>2024-01-30T10:42:15.000Z</time>
      </trkpt>
      <trkpt lat="44.51899" lon="3.50032">
        <ele>723.79998779297</ele>
        <time>2024-01-30T10:42:17.000Z</time>
      </trkpt>
      <trkpt lat="44.51902" lon="3.50023">
        <ele>723.59997558594</ele>
        <time>2024-01-30T10:42:18.000Z</time>
      </trkpt>
      <trkpt lat="44.51905" lon="3.50017">
        <ele>723.20001220703</ele>
        <time>2024-01-30T10:42:19.000Z</time>
      </trkpt>
      <trkpt lat="44.51909" lon="3.50006">
        <ele>723</ele>
        <time>2024-01-30T10:42:21.000Z</time>
      </trkpt>
      <trkpt lat="44.51911" lon="3.50002">
        <ele>723</ele>
        <time>2024-01-30T10:42:22.000Z</time>
      </trkpt>
      <trkpt lat="44.5192" lon="3.49976">
        <ele>723</ele>
        <time>2024-01-30T10:42:26.000Z</time>
      </trkpt>
      <trkpt lat="44.51936" lon="3.49928">
        <ele>723.40002441406</ele>
        <time>2024-01-30T10:42:32.000Z</time>
      </trkpt>
      <trkpt lat="44.51945" lon="3.49884">
        <ele>723.59997558594</ele>
        <time>2024-01-30T10:42:37.000Z</time>
      </trkpt>
      <trkpt lat="44.51948" lon="3.49871">
        <ele>723.59997558594</ele>
        <time>2024-01-30T10:42:40.000Z</time>
      </trkpt>
      <trkpt lat="44.51955" lon="3.4985">
        <ele>724.20001220703</ele>
        <time>2024-01-30T10:42:44.000Z</time>
      </trkpt>
      <trkpt lat="44.51957" lon="3.49842">
        <ele>724.20001220703</ele>
        <time>2024-01-30T10:42:45.000Z</time>
      </trkpt>
      <trkpt lat="44.51969" lon="3.49797">
        <ele>724.79998779297</ele>
        <time>2024-01-30T10:42:50.000Z</time>
      </trkpt>
      <trkpt lat="44.51971" lon="3.49786">
        <ele>724.79998779297</ele>
        <time>2024-01-30T10:42:51.000Z</time>
      </trkpt>
      <trkpt lat="44.51974" lon="3.49766">
        <ele>724.79998779297</ele>
        <time>2024-01-30T10:42:53.000Z</time>
      </trkpt>
      <trkpt lat="44.51974" lon="3.49756">
        <ele>724.79998779297</ele>
        <time>2024-01-30T10:42:54.000Z</time>
      </trkpt>
      <trkpt lat="44.51974" lon="3.4975">
        <ele>725</ele>
        <time>2024-01-30T10:42:55.000Z</time>
      </trkpt>
      <trkpt lat="44.51973" lon="3.49739">
        <ele>725.40002441406</ele>
        <time>2024-01-30T10:42:57.000Z</time>
      </trkpt>
      <trkpt lat="44.51959" lon="3.49714">
        <ele>726</ele>
        <time>2024-01-30T10:43:01.000Z</time>
      </trkpt>
      <trkpt lat="44.5195" lon="3.49701">
        <ele>726</ele>
        <time>2024-01-30T10:43:03.000Z</time>
      </trkpt>
      <trkpt lat="44.51938" lon="3.49689">
        <ele>726.40002441406</ele>
        <time>2024-01-30T10:43:05.000Z</time>
      </trkpt>
      <trkpt lat="44.5193" lon="3.49686">
        <ele>726.40002441406</ele>
        <time>2024-01-30T10:43:06.000Z</time>
      </trkpt>
      <trkpt lat="44.51921" lon="3.49684">
        <ele>726.59997558594</ele>
        <time>2024-01-30T10:43:07.000Z</time>
      </trkpt>
      <trkpt lat="44.51903" lon="3.4968">
        <ele>727</ele>
        <time>2024-01-30T10:43:09.000Z</time>
      </trkpt>
      <trkpt lat="44.5187" lon="3.49671">
        <ele>727.59997558594</ele>
        <time>2024-01-30T10:43:13.000Z</time>
      </trkpt>
      <trkpt lat="44.5185" lon="3.49668">
        <ele>728</ele>
        <time>2024-01-30T10:43:15.000Z</time>
      </trkpt>
      <trkpt lat="44.51812" lon="3.49672">
        <ele>728.59997558594</ele>
        <time>2024-01-30T10:43:19.000Z</time>
      </trkpt>
      <trkpt lat="44.51805" lon="3.49674">
        <ele>728.79998779297</ele>
        <time>2024-01-30T10:43:20.000Z</time>
      </trkpt>
      <trkpt lat="44.51776" lon="3.49682">
        <ele>729</ele>
        <time>2024-01-30T10:43:24.000Z</time>
      </trkpt>
      <trkpt lat="44.51766" lon="3.49678">
        <ele>729</ele>
        <time>2024-01-30T10:43:26.000Z</time>
      </trkpt>
      <trkpt lat="44.51764" lon="3.49674">
        <ele>729.20001220703</ele>
        <time>2024-01-30T10:43:27.000Z</time>
      </trkpt>
      <trkpt lat="44.51761" lon="3.49654">
        <ele>729.20001220703</ele>
        <time>2024-01-30T10:43:30.000Z</time>
      </trkpt>
      <trkpt lat="44.51761" lon="3.49645">
        <ele>729.20001220703</ele>
        <time>2024-01-30T10:43:31.000Z</time>
      </trkpt>
      <trkpt lat="44.51764" lon="3.49632">
        <ele>729.20001220703</ele>
        <time>2024-01-30T10:43:32.000Z</time>
      </trkpt>
      <trkpt lat="44.51771" lon="3.49611">
        <ele>728.79998779297</ele>
        <time>2024-01-30T10:43:34.000Z</time>
      </trkpt>
      <trkpt lat="44.51782" lon="3.49575">
        <ele>728.20001220703</ele>
        <time>2024-01-30T10:43:37.000Z</time>
      </trkpt>
      <trkpt lat="44.51785" lon="3.49562">
        <ele>728</ele>
        <time>2024-01-30T10:43:38.000Z</time>
      </trkpt>
      <trkpt lat="44.51791" lon="3.49535">
        <ele>727.59997558594</ele>
        <time>2024-01-30T10:43:40.000Z</time>
      </trkpt>
      <trkpt lat="44.51803" lon="3.49483">
        <ele>727</ele>
        <time>2024-01-30T10:43:44.000Z</time>
      </trkpt>
      <trkpt lat="44.51809" lon="3.49469">
        <ele>726.59997558594</ele>
        <time>2024-01-30T10:43:45.000Z</time>
      </trkpt>
      <trkpt lat="44.51811" lon="3.49457">
        <ele>726.40002441406</ele>
        <time>2024-01-30T10:43:46.000Z</time>
      </trkpt>
      <trkpt lat="44.51814" lon="3.49433">
        <ele>725.59997558594</ele>
        <time>2024-01-30T10:43:48.000Z</time>
      </trkpt>
      <trkpt lat="44.51815" lon="3.49423">
        <ele>725.20001220703</ele>
        <time>2024-01-30T10:43:49.000Z</time>
      </trkpt>
      <trkpt lat="44.51818" lon="3.49395">
        <ele>724.20001220703</ele>
        <time>2024-01-30T10:43:52.000Z</time>
      </trkpt>
      <trkpt lat="44.51819" lon="3.49386">
        <ele>724</ele>
        <time>2024-01-30T10:43:53.000Z</time>
      </trkpt>
      <trkpt lat="44.51823" lon="3.49355">
        <ele>723</ele>
        <time>2024-01-30T10:43:57.000Z</time>
      </trkpt>
      <trkpt lat="44.51827" lon="3.49338">
        <ele>722.20001220703</ele>
        <time>2024-01-30T10:44:01.000Z</time>
      </trkpt>
      <trkpt lat="44.51828" lon="3.49334">
        <ele>722.20001220703</ele>
        <time>2024-01-30T10:44:04.000Z</time>
      </trkpt>
      <trkpt lat="44.51829" lon="3.4933">
        <ele>722.20001220703</ele>
        <time>2024-01-30T10:44:05.000Z</time>
      </trkpt>
      <trkpt lat="44.51832" lon="3.49313">
        <ele>722</ele>
        <time>2024-01-30T10:44:08.000Z</time>
      </trkpt>
      <trkpt lat="44.51831" lon="3.49298">
        <ele>721.79998779297</ele>
        <time>2024-01-30T10:44:10.000Z</time>
      </trkpt>
      <trkpt lat="44.51827" lon="3.49277">
        <ele>721.59997558594</ele>
        <time>2024-01-30T10:44:12.000Z</time>
      </trkpt>
      <trkpt lat="44.5182" lon="3.49237">
        <ele>720.59997558594</ele>
        <time>2024-01-30T10:44:15.000Z</time>
      </trkpt>
      <trkpt lat="44.51818" lon="3.49222">
        <ele>720</ele>
        <time>2024-01-30T10:44:16.000Z</time>
      </trkpt>
      <trkpt lat="44.51814" lon="3.4921">
        <ele>719.59997558594</ele>
        <time>2024-01-30T10:44:17.000Z</time>
      </trkpt>
      <trkpt lat="44.51812" lon="3.49199">
        <ele>718.59997558594</ele>
        <time>2024-01-30T10:44:18.000Z</time>
      </trkpt>
      <trkpt lat="44.51809" lon="3.49185">
        <ele>717.59997558594</ele>
        <time>2024-01-30T10:44:20.000Z</time>
      </trkpt>
      <trkpt lat="44.51809" lon="3.49178">
        <ele>717.59997558594</ele>
        <time>2024-01-30T10:44:21.000Z</time>
      </trkpt>
      <trkpt lat="44.51811" lon="3.49172">
        <ele>717.59997558594</ele>
        <time>2024-01-30T10:44:22.000Z</time>
      </trkpt>
      <trkpt lat="44.5181" lon="3.49166">
        <ele>717.40002441406</ele>
        <time>2024-01-30T10:44:23.000Z</time>
      </trkpt>
      <trkpt lat="44.5181" lon="3.49151">
        <ele>716.79998779297</ele>
        <time>2024-01-30T10:44:25.000Z</time>
      </trkpt>
      <trkpt lat="44.51807" lon="3.49145">
        <ele>716.79998779297</ele>
        <time>2024-01-30T10:44:26.000Z</time>
      </trkpt>
      <trkpt lat="44.518" lon="3.4913">
        <ele>716.59997558594</ele>
        <time>2024-01-30T10:44:28.000Z</time>
      </trkpt>
      <trkpt lat="44.51798" lon="3.49121">
        <ele>716.40002441406</ele>
        <time>2024-01-30T10:44:29.000Z</time>
      </trkpt>
      <trkpt lat="44.51795" lon="3.49111">
        <ele>716.40002441406</ele>
        <time>2024-01-30T10:44:30.000Z</time>
      </trkpt>
      <trkpt lat="44.51786" lon="3.49067">
        <ele>715.40002441406</ele>
        <time>2024-01-30T10:44:34.000Z</time>
      </trkpt>
      <trkpt lat="44.51781" lon="3.49042">
        <ele>715.20001220703</ele>
        <time>2024-01-30T10:44:36.000Z</time>
      </trkpt>
      <trkpt lat="44.51761" lon="3.48959">
        <ele>715.79998779297</ele>
        <time>2024-01-30T10:44:42.000Z</time>
      </trkpt>
      <trkpt lat="44.51758" lon="3.48946">
        <ele>715.79998779297</ele>
        <time>2024-01-30T10:44:43.000Z</time>
      </trkpt>
      <trkpt lat="44.51756" lon="3.4892">
        <ele>716</ele>
        <time>2024-01-30T10:44:45.000Z</time>
      </trkpt>
      <trkpt lat="44.51758" lon="3.48893">
        <ele>716.20001220703</ele>
        <time>2024-01-30T10:44:47.000Z</time>
      </trkpt>
      <trkpt lat="44.51758" lon="3.48879">
        <ele>716.59997558594</ele>
        <time>2024-01-30T10:44:48.000Z</time>
      </trkpt>
      <trkpt lat="44.51765" lon="3.4881">
        <ele>717</ele>
        <time>2024-01-30T10:44:53.000Z</time>
      </trkpt>
      <trkpt lat="44.51734" lon="3.48781">
        <ele>713.4</ele>
      </trkpt>
      <trkpt lat="44.51716" lon="3.48753">
        <ele>710.9</ele>
      </trkpt>
      <trkpt lat="44.51706" lon="3.48721">
        <ele>710</ele>
      </trkpt>
      <trkpt lat="44.51726" lon="3.48638">
        <ele>709</ele>
      </trkpt>
      <trkpt lat="44.51746" lon="3.48584">
        <ele>709</ele>
      </trkpt>
      <trkpt lat="44.51846" lon="3.48485">
        <ele>708.6</ele>
      </trkpt>
      <trkpt lat="44.51884" lon="3.48376">
        <ele>708.8</ele>
      </trkpt>
      <trkpt lat="44.51876" lon="3.48254">
        <ele>708.7</ele>
      </trkpt>
      <trkpt lat="44.51864" lon="3.48166">
        <ele>709.5</ele>
      </trkpt>
      <trkpt lat="44.51839" lon="3.48073">
        <ele>707.9</ele>
      </trkpt>
      <trkpt lat="44.51827" lon="3.47985">
        <ele>707.6</ele>
      </trkpt>
      <trkpt lat="44.51801" lon="3.4791">
        <ele>705.8</ele>
      </trkpt>
      <trkpt lat="44.51792" lon="3.47814">
        <ele>705.8</ele>
      </trkpt>
      <trkpt lat="44.51755" lon="3.47722">
        <ele>707</ele>
      </trkpt>
      <trkpt lat="44.51745" lon="3.47642">
        <ele>704.9</ele>
      </trkpt>
      <trkpt lat="44.51738" lon="3.47543">
        <ele>704.6</ele>
      </trkpt>
    </trkseg>
  </trk>
</gpx>